# Wetter Temperatur Luftdruck Luftfeuchtigkeit Sichtweite Windgeschwindigkeit Windrichtung Zeit
1 Clouds 31 1002 70 10000 4 230 19:55 12.07.2020
2 Clouds 31 1002 70 10000 4 230 19:36 12.07.2020
3 Clouds 31 1002 70 10000 3 220 19:18 12.07.2020
4 Clouds 31 1002 70 10000 2 210 18:40 12.07.2020
5 Clouds 32 1003 70 10000 2 210 18:19 12.07.2020
6 Clouds 31 1003 79 10000 2 190 17:42 12.07.2020
7 Clouds 31 1003 79 10000 2 190 17:22 12.07.2020
8 Clouds 32 1003 70 10000 3 200 16:58 12.07.2020
9 Clouds 32 1003 70 10000 3 190 16:40 12.07.2020
10 Clouds 32 1003 70 10000 3 190 16:19 12.07.2020
11 Clouds 32 1003 63 10000 3 200 15:43 12.07.2020
12 Clouds 33 1003 63 10000 3 200 15:23 12.07.2020
13 Clouds 33 1002 63 10000 4 200 14:44 12.07.2020
14 Rain 33 1002 63 10000 4 200 14:25 12.07.2020
15 Rain 33 1002 63 10000 4 190 13:54 12.07.2020
16 Rain 33 1002 66 10000 5 190 13:36 12.07.2020
17 Clouds 35 1002 66 10000 5 190 13:18 12.07.2020
18 Clouds 35 1001 59 10000 2 210 12:42 12.07.2020
19 Clouds 35 1001 59 10000 2 210 12:20 12.07.2020
20 Clouds 35 1001 56 10000 3 230 11:58 12.07.2020
21 Clouds 35 1001 53 10000 4 230 11:40 12.07.2020
22 Clouds 36 1001 53 10000 4 230 11:19 12.07.2020
23 Clouds 36 1001 53 10000 4 230 11:19 12.07.2020
24 Clouds 37 1001 53 10000 5 230 10:42 12.07.2020
25 Clouds 37 1001 53 10000 5 230 10:20 12.07.2020
26 Clouds 38 1001 56 10000 5 210 09:43 12.07.2020
27 Clouds 37 1001 56 10000 5 210 09:22 12.07.2020
28 Clouds 37 1001 56 10000 5 210 09:22 12.07.2020
29 Clouds 37 1001 53 10000 5 230 08:58 12.07.2020
30 Clouds 37 1001 53 10000 5 250 08:39 12.07.2020
31 Clouds 37 1001 53 10000 5 250 08:21 12.07.2020
32 Clouds 37 1002 67 10000 4 210 07:50 12.07.2020
33 Clouds 37 1002 67 10000 4 210 07:31 12.07.2020
34 Clouds 37 1002 63 10000 5 220 06:56 12.07.2020
35 Clouds 37 1002 67 10000 5 220 06:38 12.07.2020
36 Clouds 36 1002 70 10000 6 200 06:19 12.07.2020
37 Clouds 36 1002 70 10000 6 200 06:19 12.07.2020
38 Clouds 33 1003 70 10000 5 190 04:59 12.07.2020
39 Clouds 33 1003 75 10000 4 200 04:29 12.07.2020
40 Clouds 32 1003 75 10000 4 180 03:45 12.07.2020
41 Clouds 30 1003 84 10000 4 190 03:25 12.07.2020
42 Clouds 30 1004 89 7000 3 170 02:26 12.07.2020
43 Mist 28 1003 94 5000 4 160 01:29 12.07.2020
44 Mist 27 1003 100 2800 3 160 00:39 12.07.2020
45 Mist 27 1003 100 2800 3 160 00:21 12.07.2020
46 Mist 26 1003 100 3000 3 160 23:41 11.07.2020
47 Mist 26 1003 100 3000 3 160 23:22 11.07.2020
48 Mist 25 1003 100 3300 2 160 22:57 11.07.2020
49 Mist 25 1003 100 4000 2 150 22:38 11.07.2020
50 Mist 25 1003 100 4000 2 150 22:20 11.07.2020
51 Mist 25 1003 100 5000 3 140 21:44 11.07.2020
52 Mist 25 1003 100 5000 3 140 21:25 11.07.2020
53 Clouds 26 1004 94 6000 2 130 20:59 11.07.2020
54 Clouds 26 1004 94 6000 3 130 20:41 11.07.2020
55 Clouds 26 1004 94 6000 3 130 20:21 11.07.2020
56 Clouds 26 1004 94 6000 3 130 19:59 11.07.2020
57 Clouds 26 1004 94 6000 3 130 19:59 11.07.2020
58 Clouds 26 1005 94 6000 3 130 19:41 11.07.2020
59 Rain 26 1005 94 7000 2 120 19:23 11.07.2020
60 Rain 26 1005 94 7000 2 120 18:57 11.07.2020
61 Rain 26 1005 94 7000 3 120 18:39 11.07.2020
62 Rain 26 1005 94 7000 3 120 18:39 11.07.2020
63 Clouds 26 1005 94 7000 3 120 18:19 11.07.2020
64 Clouds 26 1005 94 8000 2 110 17:55 11.07.2020
65 Clouds 26 1005 94 10000 3 120 17:37 11.07.2020
66 Clouds 26 1005 94 10000 3 120 17:19 11.07.2020
67 Clouds 26 1005 94 10000 4 110 16:43 11.07.2020
68 Clouds 26 1005 94 10000 4 110 16:24 11.07.2020
69 Clouds 26 1005 94 10000 4 110 15:58 11.07.2020
70 Clouds 26 1005 94 10000 3 110 15:40 11.07.2020
71 Clouds 26 1005 94 10000 3 110 15:20 11.07.2020
72 Clouds 26 1005 88 10000 3 100 14:57 11.07.2020
73 Clouds 26 1005 88 10000 3 100 14:37 11.07.2020
74 Clouds 26 1005 88 10000 3 100 14:19 11.07.2020
75 Clouds 26 1005 88 8000 4 110 13:42 11.07.2020
76 Clouds 26 1005 88 8000 4 110 13:22 11.07.2020
77 Clouds 26 1005 88 8000 4 100 12:56 11.07.2020
78 Clouds 26 1005 88 8000 4 100 12:56 11.07.2020
79 Clouds 26 1005 88 8000 4 100 12:56 11.07.2020
80 Clouds 26 1005 88 8000 4 100 12:37 11.07.2020
81 Clouds 26 1005 88 8000 4 100 12:19 11.07.2020
82 Clouds 26 1004 88 8000 4 100 11:41 11.07.2020
83 Clouds 26 1004 88 8000 4 100 11:21 11.07.2020
84 Clouds 27 1004 88 8000 5 100 10:57 11.07.2020
85 Clouds 27 1004 88 8000 4 100 10:39 11.07.2020
86 Clouds 27 1004 88 8000 4 100 10:21 11.07.2020
87 Clouds 27 1004 88 8000 3 90 09:43 11.07.2020
88 Clouds 27 1004 88 8000 3 90 09:20 11.07.2020
89 Clouds 27 1004 88 7000 3 110 08:47 11.07.2020
90 Clouds 27 1004 88 7000 3 110 08:29 11.07.2020
91 Clouds 27 1004 94 7000 3 90 07:56 11.07.2020
92 Clouds 27 1004 94 7000 3 90 07:56 11.07.2020
93 Rain 27 1005 94 7000 3 80 07:37 11.07.2020
94 Clouds 27 1005 94 8000 2 120 07:18 11.07.2020
95 Clouds 27 1005 94 8000 3 110 06:28 11.07.2020
96 Rain 27 1005 94 8000 2 120 05:59 11.07.2020
97 Rain 26 1005 94 8000 3 140 05:20 11.07.2020
98 Clouds 27 1005 94 10000 3 120 04:50 11.07.2020
99 Clouds 27 1005 94 10000 3 110 04:20 11.07.2020
100 Rain 25 1005 100 3000 2 110 02:55 11.07.2020
101 Mist 25 1006 94 3500 2 110 02:27 11.07.2020
102 Mist 25 1005 94 5000 2 110 01:25 11.07.2020
103 Mist 24 1005 100 5000 2 100 00:57 11.07.2020
104 Mist 24 1005 100 5000 2 100 00:38 11.07.2020
105 Mist 24 1005 100 5000 2 100 00:18 11.07.2020
106 Mist 24 1005 94 5000 2 100 23:45 10.07.2020
107 Mist 24 1005 94 5000 2 100 23:26 10.07.2020
108 Clouds 24 1004 94 7000 3 100 22:57 10.07.2020
109 Clouds 24 1004 94 7000 3 100 22:38 10.07.2020
110 Clouds 24 1004 94 7000 3 100 22:19 10.07.2020
111 Clouds 24 1004 94 7000 1 100 21:40 10.07.2020
112 Clouds 24 1004 94 7000 1 100 21:20 10.07.2020
113 Clouds 24 1004 94 10000 2 80 20:57 10.07.2020
114 Clouds 24 1004 94 10000 2 70 20:38 10.07.2020
115 Clouds 24 1004 94 10000 2 70 20:38 10.07.2020
116 Clouds 24 1004 94 10000 2 70 20:19 10.07.2020
117 Clouds 24 1004 94 10000 2 90 19:56 10.07.2020
118 Clouds 24 1004 94 10000 2 90 19:56 10.07.2020
119 Clouds 24 1005 94 10000 2 90 19:38 10.07.2020
120 Clouds 24 1005 94 10000 2 80 19:18 10.07.2020
121 Clouds 24 1005 94 10000 2 100 18:41 10.07.2020
122 Rain 24 1005 94 6000 2 100 18:19 10.07.2020
123 Rain 24 1005 94 6000 2 100 17:55 10.07.2020
124 Mist 24 1005 94 5000 2 100 17:37 10.07.2020
125 Mist 24 1005 94 5000 2 100 17:37 10.07.2020
126 Rain 24 1005 94 7000 3 100 17:18 10.07.2020
127 Rain 24 1005 94 10000 2 100 16:41 10.07.2020
128 Rain 24 1005 94 10000 2 100 16:20 10.07.2020
129 Clouds 24 1004 94 10000 2 90 15:44 10.07.2020
130 Clouds 24 1004 94 10000 2 90 15:22 10.07.2020
131 Clouds 25 1004 88 10000 2 90 14:55 10.07.2020
132 Clouds 25 1004 88 10000 2 90 14:55 10.07.2020
133 Clouds 24 1004 94 10000 3 100 14:37 10.07.2020
134 Clouds 24 1004 94 10000 4 110 14:18 10.07.2020
135 Clouds 25 1004 94 10000 4 110 13:56 10.07.2020
136 Clouds 24 1004 88 10000 3 110 13:37 10.07.2020
137 Rain 24 1004 88 10000 3 110 13:19 10.07.2020
138 Clouds 26 1003 94 10000 3 120 12:43 10.07.2020
139 Clouds 27 1003 94 10000 3 120 12:24 10.07.2020
140 Clouds 28 1003 88 10000 4 120 11:59 10.07.2020
141 Rain 26 1003 88 10000 3 130 11:38 10.07.2020
142 Rain 29 1003 78 10000 2 0 11:19 10.07.2020
143 Rain 28 1003 78 10000 2 0 10:54 10.07.2020
144 Clouds 27 1003 78 10000 2 110 10:36 10.07.2020
145 Clouds 27 1003 78 10000 2 110 10:18 10.07.2020
146 Clouds 28 1003 78 10000 3 80 09:37 10.07.2020
147 Clouds 28 1003 78 10000 3 80 09:19 10.07.2020
148 Clouds 29 1003 78 10000 3 80 08:56 10.07.2020
149 Clouds 28 1003 78 10000 3 60 08:37 10.07.2020
150 Clouds 28 1003 83 10000 4 60 08:19 10.07.2020
151 Clouds 27 1003 83 10000 4 30 07:41 10.07.2020
152 Clouds 27 1003 83 10000 4 30 07:22 10.07.2020
153 Clouds 27 1003 83 10000 3 30 06:49 10.07.2020
154 Clouds 26 1003 88 10000 3 50 05:55 10.07.2020
155 Clouds 25 1003 88 10000 2 50 04:33 10.07.2020
156 Clouds 25 1002 88 10000 3 20 03:31 10.07.2020
157 Clouds 26 1002 88 10000 3 40 02:51 10.07.2020
158 Clouds 25 1002 94 10000 2 40 01:48 10.07.2020
159 Rain 25 1001 94 4000 4 360 00:47 10.07.2020
160 Mist 24 1001 94 5000 3 360 00:19 10.07.2020
161 Mist 24 1001 94 5000 3 360 23:46 09.07.2020
162 Rain 24 1001 94 6000 3 20 23:21 09.07.2020
163 Clouds 24 1000 94 10000 3 30 22:58 09.07.2020
164 Clouds 24 1000 94 10000 3 20 22:40 09.07.2020
165 Clouds 24 1000 94 10000 3 20 22:21 09.07.2020
166 Clouds 25 1000 94 10000 2 20 21:56 09.07.2020
167 Clouds 24 999 94 10000 4 30 21:38 09.07.2020
168 Clouds 25 999 94 10000 4 30 21:18 09.07.2020
169 Clouds 25 999 100 10000 4 20 20:43 09.07.2020
170 Clouds 25 999 100 10000 4 20 20:25 09.07.2020
171 Clouds 25 999 100 10000 3 30 19:58 09.07.2020
172 Clouds 24 999 100 10000 4 20 19:40 09.07.2020
173 Clouds 24 999 100 10000 4 20 19:20 09.07.2020
174 Clouds 24 999 100 10000 4 20 18:42 09.07.2020
175 Clouds 24 1000 100 8000 4 10 18:21 09.07.2020
176 Clouds 24 1000 100 8000 4 10 17:55 09.07.2020
177 Clouds 25 1000 94 8000 4 360 17:37 09.07.2020
178 Rain 25 1000 94 8000 4 360 17:18 09.07.2020
179 Rain 26 1000 94 8000 3 30 16:55 09.07.2020
180 Rain 25 1000 100 7000 4 20 16:36 09.07.2020
181 Rain 25 999 94 10000 5 10 16:18 09.07.2020
182 Clouds 25 999 94 10000 5 10 15:45 09.07.2020
183 Clouds 25 999 94 10000 4 10 15:27 09.07.2020
184 Clouds 25 999 94 10000 5 360 14:59 09.07.2020
185 Clouds 25 999 100 10000 4 10 14:41 09.07.2020
186 Clouds 25 999 100 10000 4 10 14:41 09.07.2020
187 Clouds 25 999 100 10000 4 10 14:22 09.07.2020
188 Clouds 26 999 94 10000 4 10 13:58 09.07.2020
189 Clouds 26 998 88 10000 3 40 13:40 09.07.2020
190 Clouds 26 998 88 10000 3 40 13:20 09.07.2020
191 Clouds 26 998 94 10000 4 30 12:43 09.07.2020
192 Clouds 26 998 94 10000 4 30 12:24 09.07.2020
193 Clouds 26 998 88 10000 4 20 11:59 09.07.2020
194 Clouds 27 998 88 10000 4 40 11:41 09.07.2020
195 Clouds 27 998 88 10000 4 40 11:23 09.07.2020
196 Clouds 27 998 88 10000 3 30 10:58 09.07.2020
197 Clouds 27 998 88 10000 4 10 10:40 09.07.2020
198 Clouds 27 998 88 10000 4 10 10:40 09.07.2020
199 Clouds 27 998 88 10000 4 10 10:21 09.07.2020
200 Clouds 28 998 88 10000 3 70 09:44 09.07.2020
201 Clouds 27 998 88 10000 3 70 09:24 09.07.2020
202 Clouds 27 998 83 10000 3 50 08:54 09.07.2020
203 Clouds 27 998 88 10000 3 90 08:36 09.07.2020
204 Clouds 27 998 88 10000 3 90 08:18 09.07.2020
205 Rain 26 998 94 8000 3 80 07:42 09.07.2020
206 Rain 26 998 94 8000 3 80 07:21 09.07.2020
207 Rain 25 999 94 6000 5 70 06:21 09.07.2020
208 Rain 25 999 94 6000 5 70 05:57 09.07.2020
209 Clouds 26 999 88 10000 4 120 04:29 09.07.2020
210 Clouds 26 999 88 10000 4 110 03:24 09.07.2020
211 Clouds 26 999 94 10000 1 80 01:58 09.07.2020
212 Clouds 25 999 100 10000 2 80 01:21 09.07.2020
213 Rain 25 999 100 8000 1 0 00:41 09.07.2020
214 Rain 25 999 100 6000 2 70 00:23 09.07.2020
215 Rain 25 999 100 6000 1 0 23:44 08.07.2020
216 Rain 25 999 100 6000 1 0 23:25 08.07.2020
217 Rain 25 999 100 8000 2 60 22:56 08.07.2020
218 Rain 25 999 100 6000 2 60 22:38 08.07.2020
219 Rain 25 999 100 6000 2 60 22:38 08.07.2020
220 Rain 25 999 100 6000 2 60 22:20 08.07.2020
221 Rain 26 999 100 6000 2 80 21:56 08.07.2020
222 Rain 26 999 100 4500 2 60 21:36 08.07.2020
223 Rain 26 999 100 4500 2 70 21:18 08.07.2020
224 Rain 26 999 94 5000 2 130 20:41 08.07.2020
225 Rain 25 999 94 5000 2 130 20:23 08.07.2020
226 Clouds 26 1000 88 10000 3 110 19:55 08.07.2020
227 Clouds 26 1000 88 10000 2 110 19:37 08.07.2020
228 Clouds 26 1000 88 10000 2 100 19:18 08.07.2020
229 Clouds 26 1001 88 10000 2 110 18:41 08.07.2020
230 Clouds 26 1001 88 10000 2 110 18:21 08.07.2020
231 Clouds 26 1001 94 10000 2 70 17:57 08.07.2020
232 Clouds 26 1001 88 10000 2 120 17:38 08.07.2020
233 Clouds 26 1001 88 10000 2 120 17:20 08.07.2020
234 Clouds 26 1001 88 10000 2 150 16:57 08.07.2020
235 Clouds 26 1001 88 10000 2 120 16:38 08.07.2020
236 Clouds 26 1001 88 10000 2 120 16:18 08.07.2020
237 Clouds 26 1001 88 10000 3 110 15:57 08.07.2020
238 Clouds 26 1002 94 10000 2 120 15:38 08.07.2020
239 Clouds 26 1002 94 10000 2 120 15:19 08.07.2020
240 Clouds 26 1002 94 10000 2 120 15:19 08.07.2020
241 Clouds 26 1001 88 10000 3 100 14:42 08.07.2020
242 Clouds 26 1001 88 10000 3 100 14:42 08.07.2020
243 Clouds 26 1001 88 10000 3 100 14:21 08.07.2020
244 Clouds 26 1001 88 10000 3 100 13:56 08.07.2020
245 Clouds 26 1001 94 10000 3 80 13:37 08.07.2020
246 Clouds 26 1001 88 10000 3 80 13:18 08.07.2020
247 Clouds 26 1001 88 10000 3 90 12:40 08.07.2020
248 Rain 28 1001 94 10000 2 110 12:20 08.07.2020
249 Rain 29 1001 94 10000 2 0 11:39 08.07.2020
250 Rain 28 1001 94 10000 2 0 11:21 08.07.2020
251 Rain 28 1001 100 4000 4 200 10:59 08.07.2020
252 Rain 29 1001 100 6000 5 110 10:41 08.07.2020
253 Rain 27 1001 100 6000 5 110 10:22 08.07.2020
254 Rain 28 1001 94 2000 6 350 09:44 08.07.2020
255 Rain 28 1001 94 2000 6 350 09:24 08.07.2020
256 Clouds 29 1002 88 10000 4 70 08:44 08.07.2020
257 Rain 31 1002 88 10000 4 70 08:25 08.07.2020
258 Rain 30 1002 88 6000 4 120 07:50 08.07.2020
259 Rain 29 1002 88 10000 2 90 07:25 08.07.2020
260 Rain 29 1003 94 6000 4 130 06:58 08.07.2020
261 Clouds 30 1003 79 10000 5 110 06:39 08.07.2020
262 Clouds 30 1003 79 10000 5 110 06:20 08.07.2020
263 Clouds 30 1003 74 10000 4 160 05:38 08.07.2020
264 Clouds 29 1003 70 10000 2 180 04:38 08.07.2020
265 Clouds 30 1004 79 10000 3 150 02:55 08.07.2020
266 Rain 29 1004 78 10000 1 0 01:57 08.07.2020
267 Rain 28 1004 78 10000 1 0 01:37 08.07.2020
268 Clouds 27 1005 88 10000 1 0 00:37 08.07.2020
269 Clouds 27 1004 94 10000 2 190 00:18 08.07.2020
270 Clouds 26 1004 94 10000 2 200 23:41 07.07.2020
271 Clouds 26 1004 94 10000 2 200 23:20 07.07.2020
272 Clouds 26 1004 88 10000 2 50 22:45 07.07.2020
273 Clouds 26 1004 88 10000 1 0 22:24 07.07.2020
274 Clouds 26 1004 88 10000 2 190 21:59 07.07.2020
275 Rain 26 1004 88 10000 1 200 21:41 07.07.2020
276 Clouds 26 1004 88 10000 1 200 21:21 07.07.2020
277 Rain 27 1004 88 10000 1 0 20:57 07.07.2020
278 Rain 27 1005 88 10000 2 200 20:39 07.07.2020
279 Rain 27 1005 88 10000 2 200 20:39 07.07.2020
280 Rain 27 1005 88 10000 2 200 20:21 07.07.2020
281 Clouds 27 1005 83 10000 1 0 19:42 07.07.2020
282 Rain 27 1005 88 10000 1 200 19:21 07.07.2020
283 Rain 27 1005 88 10000 1 200 18:59 07.07.2020
284 Rain 27 1005 83 10000 1 0 18:40 07.07.2020
285 Rain 27 1005 83 10000 1 0 18:22 07.07.2020
286 Rain 27 1004 83 0 1.24 263 17:58 07.07.2020
287 Rain 27 1004 83 0 1.24 263 17:39 07.07.2020
288 Rain 27 1004 83 0 1.55 247 17:21 07.07.2020
289 Rain 28 1006 88 10000 4 190 16:58 07.07.2020
290 Rain 28 1006 83 10000 2 200 16:38 07.07.2020
291 Rain 28 1006 83 10000 2 200 16:20 07.07.2020
292 Rain 28 1006 83 10000 3 240 15:42 07.07.2020
293 Rain 28 1004 80 0 2.16 255 15:21 07.07.2020
294 Rain 29 1005 79 10000 4 230 14:47 07.07.2020
295 Rain 29 1005 83 10000 3 220 14:27 07.07.2020
296 Rain 29 1004 79 10000 3 230 13:59 07.07.2020
297 Rain 30 1004 70 10000 3 250 13:40 07.07.2020
298 Clouds 30 1004 70 10000 2 230 13:18 07.07.2020
299 Clouds 31 1004 70 10000 2 0 12:41 07.07.2020
300 Clouds 31 1003 70 10000 2 250 12:22 07.07.2020
301 Clouds 31 1003 70 10000 2 250 11:56 07.07.2020
302 Clouds 32 1004 66 10000 2 250 11:38 07.07.2020
303 Rain 32 1004 66 10000 2 250 11:20 07.07.2020
304 Rain 32 1004 66 10000 2 290 10:55 07.07.2020
305 Clouds 32 1004 66 10000 3 290 10:37 07.07.2020
306 Clouds 32 1004 66 10000 3 290 10:18 07.07.2020
307 Clouds 33 1003 66 10000 3 290 09:38 07.07.2020
308 Clouds 34 1003 66 10000 3 290 09:20 07.07.2020
309 Clouds 34 1004 66 10000 3 290 08:42 07.07.2020
310 Clouds 34 1004 66 10000 3 290 08:23 07.07.2020
311 Clouds 33 1004 70 10000 3 250 07:45 07.07.2020
312 Clouds 33 1004 70 10000 3 250 07:23 07.07.2020
313 Clouds 33 1004 70 10000 5 280 06:49 07.07.2020
314 Clouds 32 1004 70 10000 5 280 06:30 07.07.2020
315 Clouds 31 1004 74 10000 4 280 05:53 07.07.2020
316 Clouds 31 1004 74 10000 4 280 05:22 07.07.2020
317 Clouds 30 1004 79 10000 4 290 04:38 07.07.2020
318 Clouds 28 1005 88 10000 4 280 03:35 07.07.2020
319 Clouds 26 1004 94 10000 4 260 02:21 07.07.2020
320 Rain 25 1003 100 6000 3 260 01:22 07.07.2020
321 Clouds 25 1003 94 10000 3 250 00:43 07.07.2020
322 Clouds 25 1003 94 10000 3 250 00:24 07.07.2020
323 Clouds 25 1002 94 10000 3 260 23:55 06.07.2020
324 Rain 25 1002 94 10000 3 260 23:36 06.07.2020
325 Rain 25 1002 94 10000 3 260 23:18 06.07.2020
326 Rain 26 1001 100 10000 5 230 22:40 06.07.2020
327 Rain 26 1001 100 10000 5 230 22:19 06.07.2020
328 Rain 26 1001 100 10000 5 230 21:57 06.07.2020
329 Rain 26 1000 100 10000 5 220 21:38 06.07.2020
330 Rain 26 1000 100 3000 5 170 21:19 06.07.2020
331 Rain 25 1000 100 3000 5 170 20:57 06.07.2020
332 Rain 26 1000 100 10000 7 110 20:37 06.07.2020
333 Rain 26 1000 100 10000 7 110 20:19 06.07.2020
334 Rain 26 1001 100 3000 2 170 19:56 06.07.2020
335 Rain 26 1002 100 7000 2 140 19:37 06.07.2020
336 Clouds 26 1002 100 7000 2 160 19:18 06.07.2020
337 Rain 26 1002 94 7000 2 180 18:41 06.07.2020
338 Rain 26 1002 94 7000 4 180 18:23 06.07.2020
339 Rain 26 1002 94 7000 4 180 17:59 06.07.2020
340 Clouds 26 1003 94 10000 3 180 17:40 06.07.2020
341 Clouds 26 1003 94 10000 3 180 17:20 06.07.2020
342 Rain 26 1003 94 10000 3 190 16:43 06.07.2020
343 Rain 26 1003 94 10000 3 190 16:24 06.07.2020
344 Rain 25 1003 94 10000 2 180 15:57 06.07.2020
345 Rain 25 1002 94 10000 2 160 15:39 06.07.2020
346 Rain 25 1002 94 10000 2 160 15:21 06.07.2020
347 Rain 25 1002 94 10000 2 170 14:55 06.07.2020
348 Rain 25 1002 100 10000 1 0 14:36 06.07.2020
349 Clouds 25 1002 100 10000 1 0 14:18 06.07.2020
350 Rain 25 1002 100 10000 2 210 13:43 06.07.2020
351 Rain 25 1002 100 10000 2 210 13:24 06.07.2020
352 Rain 25 1001 100 10000 2 0 12:45 06.07.2020
353 Rain 25 1001 100 10000 2 0 12:20 06.07.2020
354 Rain 25 1001 100 4000 1 0 11:59 06.07.2020
355 Rain 25 1001 100 10000 1 0 11:41 06.07.2020
356 Rain 25 1001 100 10000 1 0 11:23 06.07.2020
357 Rain 25 1001 94 10000 3 220 10:58 06.07.2020
358 Rain 25 1001 94 10000 3 220 10:58 06.07.2020
359 Rain 25 1001 94 10000 3 220 10:58 06.07.2020
360 Rain 25 1000 100 6000 4 200 10:40 06.07.2020
361 Rain 25 1000 100 6000 4 200 10:19 06.07.2020
362 Rain 26 1001 94 10000 4 230 09:46 06.07.2020
363 Rain 26 1001 88 10000 3 230 09:22 06.07.2020
364 Rain 26 1001 94 10000 3 220 08:59 06.07.2020
365 Rain 26 1001 94 10000 4 230 08:40 06.07.2020
366 Rain 26 1001 94 10000 4 230 08:20 06.07.2020
367 Rain 25 1001 100 10000 2 190 07:47 06.07.2020
368 Rain 25 1001 100 10000 2 190 07:29 06.07.2020
369 Rain 24 1001 100 10000 1 0 06:45 06.07.2020
370 Rain 24 1001 100 10000 1 0 06:27 06.07.2020
371 Rain 23 1001 100 1400 8 290 05:44 06.07.2020
372 Rain 23 1001 100 1400 8 290 05:22 06.07.2020
373 Rain 26 999 100 7000 7 180 03:52 06.07.2020
374 Rain 25 1000 94 7000 3 150 02:24 06.07.2020
375 Rain 26 1000 94 5000 1 0 01:42 06.07.2020
376 Rain 25 1000 100 3000 1.77 220 00:39 06.07.2020
377 Rain 25 1000 100 3000 1.28 227 00:20 06.07.2020
378 Rain 25 999 100 5000 1 120 23:44 05.07.2020
379 Rain 25 999 100 5000 1 120 23:26 05.07.2020
380 Rain 25 999 100 5000 1 180 22:59 05.07.2020
381 Rain 25 999 94 5000 1 0 22:40 05.07.2020
382 Rain 25 999 94 5000 1 0 22:20 05.07.2020
383 Rain 25 999 94 5000 1 0 22:20 05.07.2020
384 Rain 26 998 93 0 0.45 141 21:58 05.07.2020
385 Rain 26 998 93 0 1.74 222 21:40 05.07.2020
386 Rain 26 997 93 0 1.92 228 21:18 05.07.2020
387 Rain 26 997 93 0 1.92 228 20:58 05.07.2020
388 Rain 26 998 93 0 1.92 228 20:39 05.07.2020
389 Rain 26 998 93 0 1.73 233 20:20 05.07.2020
390 Rain 26 1000 100 7000 2 230 19:43 05.07.2020
391 Clouds 26 1000 100 7000 2 250 19:21 05.07.2020
392 Clouds 26 1000 100 7000 2 250 18:58 05.07.2020
393 Clouds 26 1000 100 7000 2 250 18:58 05.07.2020
394 Clouds 26 1000 100 7000 2 230 18:39 05.07.2020
395 Clouds 26 1000 100 7000 2 230 18:20 05.07.2020
396 Clouds 26 1000 100 7000 2 250 17:54 05.07.2020
397 Clouds 26 1000 100 7000 3 230 17:36 05.07.2020
398 Clouds 26 1000 100 7000 3 230 17:18 05.07.2020
399 Rain 26 1000 100 5000 3 210 16:41 05.07.2020
400 Rain 26 1000 100 5000 3 210 16:23 05.07.2020
401 Mist 26 999 100 5000 5 180 15:41 05.07.2020
402 Mist 26 999 100 5000 5 180 15:20 05.07.2020
403 Mist 26 999 100 5000 5 180 14:59 05.07.2020
404 Rain 26 999 100 4000 3 180 14:40 05.07.2020
405 Rain 26 999 100 4000 3 180 14:20 05.07.2020
406 Rain 26 999 100 4000 3 180 14:20 05.07.2020
407 Rain 26 1000 100 6000 3 190 13:41 05.07.2020
408 Rain 26 1000 100 6000 3 190 13:23 05.07.2020
409 Rain 26 1000 100 6000 4 170 12:46 05.07.2020
410 Rain 26 1000 100 6000 4 170 12:26 05.07.2020
411 Rain 26 999 100 6000 4 160 11:58 05.07.2020
412 Rain 26 1000 94 10000 3 190 11:39 05.07.2020
413 Rain 26 1000 94 10000 3 190 11:21 05.07.2020
414 Rain 26 1000 94 10000 3 190 10:57 05.07.2020
415 Clouds 26 1000 94 10000 2 210 10:38 05.07.2020
416 Rain 26 1001 94 10000 2 0 10:19 05.07.2020
417 Rain 25 1001 100 10000 2 0 09:42 05.07.2020
418 Rain 25 1001 100 10000 2 0 09:21 05.07.2020
419 Rain 25 1001 94 10000 3 250 08:58 05.07.2020
420 Rain 25 1001 100 10000 2 260 08:38 05.07.2020
421 Rain 25 1001 100 10000 2 260 08:38 05.07.2020
422 Rain 25 1001 100 10000 2 260 08:20 05.07.2020
423 Rain 24 1001 100 7000 1 0 07:44 05.07.2020
424 Mist 25 1002 100 1600 1 0 07:26 05.07.2020
425 Rain 25 1002 100 1600 1 0 06:49 05.07.2020
426 Rain 24 1003 100 7000 3 130 04:42 05.07.2020
427 Rain 24 1003 100 5000 3 110 03:19 05.07.2020
428 Clouds 24 1003 94 6000 3 120 02:41 05.07.2020
429 Rain 24 1003 94 7000 3 110 01:59 05.07.2020
430 Clouds 24 1003 94 7000 3 100 01:31 05.07.2020
431 Clouds 23 1003 100 7000 2 100 00:53 05.07.2020
432 Rain 23 1003 100 7000 2 110 00:31 05.07.2020
433 Mist 23 1004 94 5000 3 100 23:57 04.07.2020
434 Rain 23 1004 94 6000 3 100 23:39 04.07.2020
435 Rain 23 1004 94 6000 3 100 23:20 04.07.2020
436 Rain 23 1004 94 10000 3 100 22:42 04.07.2020
437 Rain 23 1004 94 10000 3 100 22:24 04.07.2020
438 Clouds 23 1004 94 10000 3 90 21:58 04.07.2020
439 Clouds 23 1004 88 10000 2 80 21:40 04.07.2020
440 Clouds 23 1004 88 10000 2 80 21:22 04.07.2020
441 Clouds 23 1005 88 10000 3 120 20:43 04.07.2020
442 Clouds 23 1005 88 10000 3 120 20:22 04.07.2020
443 Clouds 23 1005 88 10000 3 120 20:22 04.07.2020
444 Clouds 23 1005 88 10000 3 120 19:58 04.07.2020
445 Clouds 23 1005 88 10000 4 140 19:39 04.07.2020
446 Clouds 23 1005 88 10000 4 130 19:21 04.07.2020
447 Clouds 23 1005 88 10000 4 130 19:21 04.07.2020
448 Clouds 24 1006 83 10000 3 120 18:46 04.07.2020
449 Clouds 24 1006 83 10000 3 130 18:23 04.07.2020
450 Clouds 24 1006 83 10000 3 130 17:55 04.07.2020
451 Clouds 24 1006 83 10000 4 130 17:37 04.07.2020
452 Clouds 24 1006 83 10000 4 130 17:18 04.07.2020
453 Clouds 24 1007 83 10000 3 130 16:55 04.07.2020
454 Clouds 24 1007 83 10000 4 140 16:36 04.07.2020
455 Clouds 24 1007 83 10000 4 140 16:18 04.07.2020
456 Clouds 24 1007 83 10000 4 140 15:41 04.07.2020
457 Clouds 24 1007 83 10000 4 140 15:21 04.07.2020
458 Clouds 24 1007 78 10000 4 120 14:57 04.07.2020
459 Clouds 24 1007 78 10000 5 130 14:37 04.07.2020
460 Clouds 24 1007 78 10000 5 130 14:18 04.07.2020
461 Clouds 24 1007 78 10000 4 110 13:41 04.07.2020
462 Clouds 24 1007 78 10000 4 110 13:19 04.07.2020
463 Clouds 25 1007 78 10000 4 110 12:55 04.07.2020
464 Clouds 25 1006 74 10000 4 130 12:37 04.07.2020
465 Clouds 25 1006 74 10000 4 110 12:18 04.07.2020
466 Clouds 25 1006 74 10000 4 130 11:42 04.07.2020
467 Clouds 25 1006 74 10000 4 130 11:22 04.07.2020
468 Clouds 26 1005 74 10000 4 110 10:55 04.07.2020
469 Clouds 26 1006 74 10000 4 120 10:36 04.07.2020
470 Clouds 26 1006 74 10000 4 120 10:18 04.07.2020
471 Clouds 27 1006 65 10000 1 0 09:40 04.07.2020
472 Clouds 27 1006 65 10000 1 0 09:21 04.07.2020
473 Clouds 27 1007 69 10000 1 0 08:57 04.07.2020
474 Clouds 27 1007 65 10000 1 0 08:39 04.07.2020
475 Clouds 27 1007 65 10000 1 0 08:19 04.07.2020
476 Clouds 28 1007 69 10000 2 90 07:39 04.07.2020
477 Clouds 28 1008 69 10000 2 110 06:59 04.07.2020
478 Clouds 28 1008 69 10000 2 90 06:37 04.07.2020
479 Clouds 29 1008 69 10000 1 0 06:18 04.07.2020
480 Clouds 28 1008 69 10000 2 10 05:24 04.07.2020
481 Clouds 26 1009 78 10000 1 0 03:49 04.07.2020
482 Clouds 26 1008 78 10000 5 40 02:40 04.07.2020
483 Clouds 25 1008 83 10000 6 10 01:39 04.07.2020
484 Clouds 24 1008 88 10000 3 10 00:48 04.07.2020
485 Clouds 24 1008 88 10000 3 10 00:30 04.07.2020
486 Clouds 24 1008 88 10000 3 360 23:57 03.07.2020
487 Clouds 24 1008 88 10000 4 360 23:38 03.07.2020
488 Clouds 24 1008 88 10000 4 360 23:18 03.07.2020
489 Clouds 24 1008 83 10000 4 350 22:41 03.07.2020
490 Clouds 24 1008 83 10000 4 350 22:23 03.07.2020
491 Clouds 24 1007 88 10000 3 360 21:56 03.07.2020
492 Clouds 24 1007 88 10000 3 360 21:37 03.07.2020
493 Clouds 24 1007 88 10000 3 360 21:37 03.07.2020
494 Clouds 24 1007 83 10000 4 20 21:19 03.07.2020
495 Clouds 25 1007 83 10000 4 20 20:42 03.07.2020
496 Clouds 25 1007 83 10000 4 20 20:24 03.07.2020
497 Clouds 25 1008 88 10000 4 20 19:42 03.07.2020
498 Clouds 25 1008 88 10000 4 20 19:22 03.07.2020
499 Clouds 25 1008 88 10000 4 20 18:59 03.07.2020
500 Clouds 25 1008 88 10000 4 10 18:41 03.07.2020
501 Clouds 25 1008 83 10000 4 20 18:22 03.07.2020
502 Clouds 25 1007 83 10000 5 20 17:46 03.07.2020
503 Clouds 25 1007 83 10000 5 20 17:23 03.07.2020
504 Clouds 25 1007 88 10000 7 10 16:59 03.07.2020
505 Clouds 25 1007 88 10000 4 20 16:39 03.07.2020
506 Clouds 26 1007 88 10000 4 20 16:20 03.07.2020
507 Clouds 26 1006 83 10000 5 360 15:42 03.07.2020
508 Clouds 27 1006 83 10000 5 360 15:22 03.07.2020
509 Clouds 27 1006 78 10000 6 360 14:55 03.07.2020
510 Clouds 27 1005 78 10000 7 350 14:36 03.07.2020
511 Clouds 28 1005 78 10000 7 350 14:18 03.07.2020
512 Clouds 28 1004 79 10000 3 250 13:41 03.07.2020
513 Clouds 28 1004 79 10000 3 250 13:22 03.07.2020
514 Clouds 29 1004 79 10000 4 0 12:44 03.07.2020
515 Clouds 29 1003 74 10000 4 260 12:23 03.07.2020
516 Clouds 29 1003 74 10000 4 260 11:56 03.07.2020
517 Clouds 30 1003 79 10000 4 250 11:38 03.07.2020
518 Clouds 30 1003 79 10000 4 250 11:19 03.07.2020
519 Clouds 30 1003 83 10000 5 260 10:42 03.07.2020
520 Rain 29 1003 83 10000 5 260 10:21 03.07.2020
521 Rain 30 1003 83 10000 4 250 09:59 03.07.2020
522 Clouds 30 1003 83 10000 5 240 09:39 03.07.2020
523 Clouds 29 1003 83 10000 5 240 09:21 03.07.2020
524 Clouds 29 1004 83 10000 5 240 08:57 03.07.2020
525 Clouds 29 1004 83 10000 6 250 08:38 03.07.2020
526 Clouds 29 1004 83 10000 6 250 08:18 03.07.2020
527 Clouds 30 1004 83 10000 5 250 07:43 03.07.2020
528 Clouds 29 1004 83 10000 5 250 07:21 03.07.2020
529 Clouds 30 1004 70 10000 7 250 06:30 03.07.2020
530 Clouds 30 1004 74 10000 6 280 05:43 03.07.2020
531 Clouds 29 1004 78 10000 5 260 03:59 03.07.2020
532 Clouds 27 1004 83 10000 5 240 02:55 03.07.2020
533 Clouds 26 1004 83 10000 5 240 02:31 03.07.2020
534 Clouds 26 1004 88 10000 6 230 01:41 03.07.2020
535 Clouds 26 1004 88 10000 6 230 01:20 03.07.2020
536 Clouds 25 1003 94 10000 4 200 00:40 03.07.2020
537 Clouds 25 1003 94 10000 3 200 23:54 02.07.2020
538 Clouds 25 1003 94 10000 3 200 23:54 02.07.2020
539 Clouds 25 1003 94 10000 4 190 23:22 02.07.2020
540 Rain 25 1003 94 10000 3 190 22:59 02.07.2020
541 Rain 25 1003 94 10000 4 140 22:41 02.07.2020
542 Rain 24 1003 94 10000 4 140 22:21 02.07.2020
543 Rain 24 1003 100 10000 2 160 22:00 02.07.2020
544 Rain 24 1003 100 10000 4 130 21:41 02.07.2020
545 Rain 24 1003 100 10000 4 130 21:19 02.07.2020
546 Rain 24 1003 100 10000 4 130 20:58 02.07.2020
547 Rain 24 1004 100 10000 4 140 20:39 02.07.2020
548 Rain 24 1004 100 10000 4 140 20:19 02.07.2020
549 Rain 24 1004 94 10000 5 120 19:43 02.07.2020
550 Rain 24 1005 94 10000 6 120 19:24 02.07.2020
551 Rain 24 1005 94 10000 6 120 18:59 02.07.2020
552 Rain 24 1005 100 10000 7 130 18:40 02.07.2020
553 Rain 23 1006 94 10000 4 130 18:21 02.07.2020
554 Rain 23 1006 94 10000 4 130 17:57 02.07.2020
555 Rain 23 1006 94 7000 5 120 17:38 02.07.2020
556 Rain 23 1006 94 7000 5 120 17:18 02.07.2020
557 Rain 23 1007 88 10000 6 130 16:42 02.07.2020
558 Rain 24 1007 88 10000 6 130 16:20 02.07.2020
559 Rain 24 1007 94 10000 4 120 15:58 02.07.2020
560 Rain 24 1007 94 10000 4 130 15:38 02.07.2020
561 Rain 24 1007 94 10000 4 130 15:20 02.07.2020
562 Rain 25 1006 83 10000 6 130 14:45 02.07.2020
563 Rain 25 1006 83 10000 6 130 14:23 02.07.2020
564 Clouds 25 1006 83 10000 8 130 13:57 02.07.2020
565 Clouds 25 1006 83 10000 7 130 13:38 02.07.2020
566 Clouds 25 1007 78 10000 6 130 13:18 02.07.2020
567 Rain 25 1006 78 10000 5 130 12:41 02.07.2020
568 Rain 25 1006 78 10000 5 130 12:22 02.07.2020
569 Rain 26 1006 74 10000 5 120 11:59 02.07.2020
570 Clouds 26 1006 69 10000 5 130 11:40 02.07.2020
571 Clouds 26 1006 69 10000 5 130 11:22 02.07.2020
572 Clouds 27 1006 74 10000 5 120 10:43 02.07.2020
573 Clouds 27 1006 74 10000 5 120 10:25 02.07.2020
574 Clouds 27 1006 74 10000 4 130 09:55 02.07.2020
575 Clouds 27 1006 78 10000 4 130 09:36 02.07.2020
576 Clouds 27 1006 74 10000 6 130 09:18 02.07.2020
577 Clouds 27 1006 78 10000 6 130 08:42 02.07.2020
578 Clouds 27 1007 74 10000 6 140 08:21 02.07.2020
579 Clouds 27 1007 78 10000 5 130 07:43 02.07.2020
580 Clouds 27 1007 78 10000 5 130 07:23 02.07.2020
581 Clouds 27 1007 78 10000 6 130 06:53 02.07.2020
582 Clouds 27 1007 78 10000 6 140 06:34 02.07.2020
583 Clouds 27 1008 78 10000 5 140 05:50 02.07.2020
584 Clouds 27 1008 78 10000 5 140 05:19 02.07.2020
585 Rain 26 1008 83 10000 5 140 03:35 02.07.2020
586 Clouds 25 1007 78 10000 5 130 01:53 02.07.2020
587 Clouds 24 1007 83 10000 6 130 00:45 02.07.2020
588 Clouds 24 1007 83 10000 5 130 00:21 02.07.2020
589 Clouds 24 1006 83 10000 6 130 23:45 01.07.2020
590 Clouds 24 1006 83 10000 6 130 23:26 01.07.2020
591 Clouds 24 1006 83 10000 5 130 22:55 01.07.2020
592 Clouds 24 1006 83 10000 5 130 22:37 01.07.2020
593 Clouds 24 1006 83 10000 5 130 22:18 01.07.2020
594 Clouds 24 1006 83 10000 5 130 21:56 01.07.2020
595 Clouds 24 1006 83 10000 5 130 21:38 01.07.2020
596 Clouds 24 1006 83 10000 5 130 21:19 01.07.2020
597 Clouds 24 1006 83 10000 4 130 20:46 01.07.2020
598 Clouds 24 1006 83 10000 5 120 20:26 01.07.2020
599 Clouds 24 1007 83 10000 4 130 19:58 01.07.2020
600 Clouds 24 1007 78 10000 4 130 19:39 01.07.2020
601 Clouds 24 1007 78 10000 4 130 19:20 01.07.2020
602 Clouds 24 1007 78 10000 4 140 18:56 01.07.2020
603 Clouds 24 1007 78 10000 5 130 18:38 01.07.2020
604 Clouds 24 1007 78 10000 5 130 18:20 01.07.2020
605 Clouds 24 1008 73 10000 5 130 17:41 01.07.2020
606 Clouds 24 1008 73 10000 5 130 17:20 01.07.2020
607 Clouds 24 1008 73 10000 6 140 16:56 01.07.2020
608 Clouds 25 1008 73 10000 6 140 16:38 01.07.2020
609 Clouds 25 1008 73 10000 6 140 16:20 01.07.2020
610 Clouds 25 1008 73 10000 5 130 15:41 01.07.2020
611 Clouds 25 1008 73 10000 5 130 15:22 01.07.2020
612 Clouds 25 1007 73 10000 5 130 14:56 01.07.2020
613 Clouds 25 1007 69 10000 5 140 14:37 01.07.2020
614 Clouds 25 1007 69 10000 5 140 14:19 01.07.2020
615 Clouds 25 1006 61 10000 6 120 13:40 01.07.2020
616 Clouds 25 1006 61 10000 5 120 13:22 01.07.2020
617 Clouds 26 1006 61 10000 5 120 12:59 01.07.2020
618 Clouds 26 1006 61 10000 6 120 12:40 01.07.2020
619 Clouds 28 1006 61 10000 5 110 12:22 01.07.2020
620 Clouds 28 1006 61 10000 5 110 11:57 01.07.2020
621 Clouds 27 1005 58 10000 6 90 11:38 01.07.2020
622 Clouds 28 1005 58 10000 6 90 11:19 01.07.2020
623 Clouds 29 1005 51 10000 5 120 10:43 01.07.2020
624 Clouds 28 1005 51 10000 5 120 10:23 01.07.2020
625 Clouds 30 1005 55 10000 5 140 09:59 01.07.2020
626 Clouds 30 1005 55 10000 5 140 09:59 01.07.2020
627 Clouds 29 1006 54 10000 5 140 09:38 01.07.2020
628 Clouds 29 1006 54 10000 5 140 09:19 01.07.2020
629 Clouds 30 1005 51 10000 4 130 08:55 01.07.2020
630 Clouds 30 1006 54 10000 3 130 08:37 01.07.2020
631 Clouds 30 1006 54 10000 3 130 08:18 01.07.2020
632 Clouds 30 1006 58 10000 5 110 07:39 01.07.2020
633 Clouds 31 1006 55 10000 4 120 07:20 01.07.2020
634 Clouds 31 1006 55 10000 4 120 06:50 01.07.2020
635 Clouds 31 1006 58 10000 5 150 06:28 01.07.2020
636 Clouds 30 1006 58 10000 3 130 05:23 01.07.2020
637 Clouds 29 1006 61 10000 3 120 03:48 01.07.2020
638 Clouds 27 1006 69 10000 4 100 03:27 01.07.2020
639 Clouds 27 1006 74 10000 4 110 02:41 01.07.2020
640 Clouds 26 1006 78 10000 4 100 01:47 01.07.2020
641 Clouds 24 1005 83 10000 4 90 00:43 01.07.2020
642 Clouds 24 1005 83 10000 4 90 00:24 01.07.2020
643 Clouds 24 1005 83 10000 3 110 23:41 30.06.2020
644 Clouds 24 1005 83 10000 3 110 23:22 30.06.2020
645 Clouds 24 1005 83 10000 3 110 23:22 30.06.2020
646 Clouds 24 1005 83 10000 3 110 22:56 30.06.2020
647 Clouds 23 1004 83 10000 3 100 22:38 30.06.2020
648 Clouds 24 1004 83 10000 3 100 22:18 30.06.2020
649 Clouds 23 1004 83 10000 3 100 21:40 30.06.2020
650 Clear 24 1004 83 10000 3 100 21:19 30.06.2020
651 Clear 24 1004 83 10000 3 110 20:44 30.06.2020
652 Clear 24 1004 83 10000 4 100 20:21 30.06.2020
653 Clear 24 1004 83 10000 4 100 19:59 30.06.2020
654 Clear 24 1004 83 10000 4 100 19:59 30.06.2020
655 Clear 24 1004 83 10000 4 140 19:39 30.06.2020
656 Clear 24 1005 83 10000 4 140 19:19 30.06.2020
657 Clear 24 1005 78 10000 3 130 18:42 30.06.2020
658 Clear 24 1005 78 10000 3 130 18:21 30.06.2020
659 Clear 24 1005 78 10000 3 130 17:57 30.06.2020
660 Clear 24 1005 73 10000 5 110 17:37 30.06.2020
661 Clear 24 1005 73 10000 5 110 17:18 30.06.2020
662 Clear 24 1005 78 10000 4 130 16:41 30.06.2020
663 Clear 24 1005 78 10000 4 130 16:21 30.06.2020
664 Clear 24 1005 73 10000 4 120 15:57 30.06.2020
665 Clouds 25 1004 73 10000 4 110 15:38 30.06.2020
666 Clouds 25 1004 73 10000 4 110 15:20 30.06.2020
667 Clouds 25 1004 74 10000 5 100 14:44 30.06.2020
668 Clouds 25 1004 74 10000 5 100 14:22 30.06.2020
669 Clouds 26 1003 69 10000 5 140 13:59 30.06.2020
670 Clouds 26 1003 65 10000 4 140 13:38 30.06.2020
671 Clouds 26 1003 65 10000 4 130 13:19 30.06.2020
672 Clouds 26 1003 65 10000 4 130 13:19 30.06.2020
673 Clouds 27 1003 65 10000 4 130 12:56 30.06.2020
674 Clouds 27 1002 69 10000 5 150 12:38 30.06.2020
675 Clouds 28 1002 66 10000 5 140 12:19 30.06.2020
676 Clouds 28 1002 66 10000 5 140 12:19 30.06.2020
677 Clouds 28 1002 66 10000 5 140 11:56 30.06.2020
678 Clouds 28 1002 66 10000 5 140 11:56 30.06.2020
679 Clouds 29 1002 62 10000 5 130 11:37 30.06.2020
680 Clouds 30 1001 46 10000 2 50 11:18 30.06.2020
681 Clouds 26 1002 94 10000 4 150 16:47 28.06.2020
682 Clouds 26 1002 94 10000 5 140 16:28 28.06.2020
683 Rain 26 1002 94 10000 4 120 15:59 28.06.2020
684 Clouds 26 1003 94 10000 3 120 15:39 28.06.2020
685 Clouds 26 1003 94 10000 3 120 15:20 28.06.2020
686 Clouds 26 1003 94 10000 4 150 14:55 28.06.2020
687 Clouds 26 1003 88 10000 5 140 14:37 28.06.2020
688 Rain 26 1003 88 10000 5 140 14:19 28.06.2020
689 Clouds 26 1003 88 10000 6 130 13:39 28.06.2020
690 Clouds 26 1003 83 10000 6 130 13:21 28.06.2020
691 Clouds 26 1003 83 10000 6 130 12:57 28.06.2020
692 Clouds 26 1003 83 10000 7 130 12:38 28.06.2020
693 Clouds 26 1003 83 10000 7 130 12:19 28.06.2020
694 Clouds 26 1003 88 10000 5 130 11:58 28.06.2020
695 Clouds 26 1003 83 10000 5 120 11:39 28.06.2020
696 Clouds 26 1003 83 10000 5 120 11:20 28.06.2020
697 Clouds 26 1003 83 10000 5 120 11:20 28.06.2020
698 Clouds 26 1004 83 10000 6 110 10:56 28.06.2020
699 Clouds 26 1004 83 10000 6 120 10:38 28.06.2020
700 Clouds 26 1004 83 10000 6 120 10:19 28.06.2020
701 Rain 26 1005 88 10000 5 100 09:40 28.06.2020
702 Rain 26 1005 88 10000 5 100 09:21 28.06.2020
703 Rain 27 1004 88 10000 5 110 08:48 28.06.2020
704 Rain 26 1005 94 10000 5 80 08:28 28.06.2020
705 Rain 25 1005 100 3000 7 30 07:50 28.06.2020
706 Rain 26 1005 88 10000 4 0 07:30 28.06.2020
707 Rain 26 1005 88 10000 3 30 06:44 28.06.2020
708 Clouds 26 1004 83 10000 5 110 06:24 28.06.2020
709 Clouds 26 1005 88 10000 3 110 05:26 28.06.2020
710 Rain 25 1006 100 4000 1 0 03:33 28.06.2020
711 Mist 26 1006 94 2600 2 60 02:40 28.06.2020
712 Rain 25 1005 94 4000 2 0 01:53 28.06.2020
713 Rain 25 1005 100 4000 3 90 01:26 28.06.2020
714 Rain 25 1005 100 4000 2 80 00:48 28.06.2020
715 Rain 25 1005 100 4000 1 0 00:24 28.06.2020
716 Rain 25 1004 100 4000 2 110 23:42 27.06.2020
717 Rain 25 1004 100 4000 2 110 23:23 27.06.2020
718 Rain 25 1005 100 5000 2 140 22:58 27.06.2020
719 Rain 25 1005 100 7000 1 190 22:40 27.06.2020
720 Rain 25 1005 100 7000 1 190 22:20 27.06.2020
721 Rain 25 1004 94 10000 2 150 21:54 27.06.2020
722 Rain 26 1004 88 10000 2 130 21:36 27.06.2020
723 Rain 26 1004 88 10000 2 130 21:18 27.06.2020
724 Rain 26 1004 94 10000 2 140 20:41 27.06.2020
725 Rain 26 1004 94 10000 2 140 20:18 27.06.2020
726 Rain 26 1004 94 10000 2 150 19:54 27.06.2020
727 Clouds 26 1004 94 7000 3 120 19:36 27.06.2020
728 Clouds 26 1005 100 7000 2 150 19:18 27.06.2020
729 Clouds 26 1005 100 7000 1 160 18:43 27.06.2020
730 Clouds 26 1005 100 7000 1 0 18:22 27.06.2020
731 Clouds 26 1005 100 7000 1 0 17:55 27.06.2020
732 Clouds 26 1004 94 10000 1 0 17:37 27.06.2020
733 Clouds 26 1004 94 10000 1 0 17:18 27.06.2020
734 Clouds 26 1004 94 10000 1 30 16:42 27.06.2020
735 Clouds 27 1004 94 10000 1 30 16:24 27.06.2020
736 Clouds 27 1005 94 10000 1 0 15:46 27.06.2020
737 Clouds 27 1004 100 10000 2 270 15:26 27.06.2020
738 Clouds 27 1004 94 10000 3 240 15:00 27.06.2020
739 Rain 27 1004 94 10000 3 240 14:41 27.06.2020
740 Rain 27 1004 94 10000 3 240 14:22 27.06.2020
741 Clouds 28 1004 88 10000 3 240 13:57 27.06.2020
742 Clouds 27 1003 83 10000 1 0 13:37 27.06.2020
743 Clouds 28 1003 83 10000 2 360 13:19 27.06.2020
744 Clouds 28 1003 83 10000 2 280 12:43 27.06.2020
745 Clouds 28 1003 83 10000 2 280 12:22 27.06.2020
746 Clouds 29 1002 83 10000 2 300 11:59 27.06.2020
747 Clouds 29 1002 88 10000 2 280 11:40 27.06.2020
748 Clouds 29 1002 88 10000 2 280 11:22 27.06.2020
749 Rain 29 1002 79 10000 2 300 10:42 27.06.2020
750 Rain 28 1002 79 10000 2 300 10:20 27.06.2020
751 Clouds 28 1003 79 10000 3 0 09:59 27.06.2020
752 Clouds 28 1003 83 10000 2 270 09:39 27.06.2020
753 Clouds 28 1003 83 10000 2 270 09:21 27.06.2020
754 Clouds 27 1003 83 10000 5 290 08:44 27.06.2020
755 Clouds 27 1003 83 10000 5 290 08:23 27.06.2020
756 Clouds 27 1002 94 10000 2 270 07:48 27.06.2020
757 Rain 26 1003 94 10000 3 270 07:27 27.06.2020
758 Rain 25 1003 100 3500 4 280 06:53 27.06.2020
759 Rain 26 1003 100 3500 4 280 06:33 27.06.2020
760 Rain 25 1003 94 4000 3 240 04:55 27.06.2020
761 Rain 26 1003 94 10000 6 230 04:18 27.06.2020
762 Rain 26 1003 94 10000 6 230 03:51 27.06.2020
763 Clouds 28 1003 83 10000 4 200 02:43 27.06.2020
764 Rain 28 1003 83 10000 4 200 02:24 27.06.2020
765 Rain 28 1003 88 10000 3 190 01:34 27.06.2020
766 Rain 27 1003 94 8000 2 150 00:47 27.06.2020
767 Clouds 26 1003 94 8000 3 150 23:48 26.06.2020
768 Clouds 26 1003 94 8000 3 150 23:29 26.06.2020
769 Clouds 26 1003 94 10000 2 160 22:59 26.06.2020
770 Clouds 26 1003 94 10000 2 160 22:41 26.06.2020
771 Clouds 26 1003 94 10000 2 160 22:23 26.06.2020
772 Clouds 26 1003 94 10000 2 150 21:58 26.06.2020
773 Clouds 26 1003 94 10000 2 150 21:58 26.06.2020
774 Clouds 26 1003 94 10000 2 150 21:39 26.06.2020
775 Clouds 26 1003 94 10000 2 150 21:21 26.06.2020
776 Clouds 26 1003 94 10000 2 150 21:21 26.06.2020
777 Clouds 26 1003 94 10000 2 140 20:57 26.06.2020
778 Clouds 26 1003 94 10000 2 150 20:37 26.06.2020
779 Clouds 26 1003 94 10000 3 160 20:18 26.06.2020
780 Clouds 26 1004 94 10000 3 150 19:40 26.06.2020
781 Clouds 26 1004 94 10000 2 110 19:19 26.06.2020
782 Clouds 26 1004 94 10000 3 140 18:41 26.06.2020
783 Clouds 26 1004 94 10000 3 140 18:23 26.06.2020
784 Clouds 26 1005 88 10000 3 120 17:45 26.06.2020
785 Clouds 26 1005 88 10000 3 120 17:45 26.06.2020
786 Clouds 26 1005 88 10000 3 120 17:27 26.06.2020
787 Clouds 26 1005 88 10000 3 110 16:59 26.06.2020
788 Clouds 26 1005 88 10000 2 130 16:41 26.06.2020
789 Clouds 26 1005 88 10000 2 130 16:21 26.06.2020
790 Clouds 27 1005 88 10000 4 150 15:41 26.06.2020
791 Clouds 27 1005 88 10000 4 150 15:21 26.06.2020
792 Clouds 27 1005 88 10000 4 150 14:58 26.06.2020
793 Clouds 27 1004 83 10000 4 120 14:38 26.06.2020
794 Clouds 27 1004 83 10000 4 120 14:20 26.06.2020
795 Clouds 28 1004 79 10000 4 100 13:44 26.06.2020
796 Clouds 28 1004 79 10000 4 100 13:23 26.06.2020
797 Clouds 29 1004 74 10000 4 110 12:56 26.06.2020
798 Clouds 29 1004 74 10000 4 110 12:37 26.06.2020
799 Clouds 30 1004 70 10000 5 90 12:18 26.06.2020
800 Clouds 30 1004 70 10000 5 90 11:55 26.06.2020
801 Clouds 30 1004 70 10000 5 110 11:36 26.06.2020
802 Clouds 30 1004 70 10000 5 110 11:18 26.06.2020
803 Clouds 31 1004 66 10000 4 90 10:40 26.06.2020
804 Clouds 31 1004 66 10000 4 90 10:20 26.06.2020
805 Clouds 32 1004 66 10000 3 160 09:57 26.06.2020
806 Clouds 32 1004 66 10000 2 160 09:38 26.06.2020
807 Clouds 32 1004 66 10000 2 160 09:38 26.06.2020
808 Clouds 32 1004 66 10000 2 160 09:18 26.06.2020
809 Clouds 32 1004 70 10000 4 160 08:44 26.06.2020
810 Clouds 32 1004 70 10000 4 160 08:25 26.06.2020
811 Clouds 32 1005 74 10000 3 150 07:47 26.06.2020
812 Clouds 31 1005 74 10000 3 150 07:23 26.06.2020
813 Clouds 31 1005 70 10000 3 140 06:49 26.06.2020
814 Clouds 31 1005 70 10000 3 140 06:30 26.06.2020
815 Clouds 30 1005 74 10000 5 150 05:52 26.06.2020
816 Clouds 30 1005 74 10000 3 130 05:18 26.06.2020
817 Clouds 27 1006 88 7000 3 110 02:32 26.06.2020
818 Clouds 25 1006 94 6000 2 140 01:34 26.06.2020
819 Mist 24 1006 94 5000 1 0 00:46 26.06.2020
820 Mist 24 1006 94 5000 1 0 00:27 26.06.2020
821 Mist 24 1006 94 5000 2 100 23:47 25.06.2020
822 Mist 24 1006 94 5000 1 0 23:22 25.06.2020
823 Clouds 24 1006 94 6000 2 100 22:58 25.06.2020
824 Clouds 24 1006 94 6000 2 110 22:39 25.06.2020
825 Clouds 23 1006 94 6000 2 110 22:20 25.06.2020
826 Clouds 23 1005 94 7000 3 130 21:57 25.06.2020
827 Clouds 24 1006 94 7000 2 130 21:39 25.06.2020
828 Clouds 24 1006 94 7000 2 130 21:20 25.06.2020
829 Clouds 24 1006 94 8000 2 120 20:56 25.06.2020
830 Clouds 23 1006 94 8000 2 120 20:37 25.06.2020
831 Clouds 23 1006 94 8000 2 120 20:19 25.06.2020
832 Clouds 24 1006 88 8000 2 120 19:41 25.06.2020
833 Clouds 24 1006 94 7000 1 140 19:20 25.06.2020
834 Clouds 24 1006 100 7000 1 170 18:59 25.06.2020
835 Clouds 24 1006 100 7000 1 170 18:38 25.06.2020
836 Clouds 24 1006 100 7000 2 150 18:19 25.06.2020
837 Clouds 24 1006 94 7000 2 160 17:44 25.06.2020
838 Clouds 24 1006 94 7000 2 160 17:20 25.06.2020
839 Clouds 24 1006 94 6000 2 140 16:58 25.06.2020
840 Clouds 24 1006 94 6000 4 170 16:37 25.06.2020
841 Clouds 24 1006 94 6000 4 170 16:18 25.06.2020
842 Clouds 25 1006 88 7000 4 180 15:41 25.06.2020
843 Clouds 25 1006 88 7000 4 180 15:22 25.06.2020
844 Clouds 25 1006 88 7000 4 180 15:22 25.06.2020
845 Clouds 25 1005 88 8000 3 180 14:44 25.06.2020
846 Clouds 25 1005 88 8000 3 180 14:25 25.06.2020
847 Clouds 25 1005 88 8000 2 180 13:59 25.06.2020
848 Clouds 25 1004 88 8000 2 190 13:41 25.06.2020
849 Clouds 25 1004 88 8000 2 190 13:19 25.06.2020
850 Clouds 25 1004 88 8000 3 230 12:46 25.06.2020
851 Clouds 26 1003 88 8000 3 210 12:21 25.06.2020
852 Clouds 26 1003 88 8000 3 210 11:59 25.06.2020
853 Clouds 26 1003 83 7000 3 200 11:40 25.06.2020
854 Clouds 26 1003 83 7000 3 200 11:21 25.06.2020
855 Clouds 26 1004 83 8000 2 200 10:42 25.06.2020
856 Clouds 27 1004 83 8000 2 200 10:24 25.06.2020
857 Clouds 26 1004 83 8000 2 190 09:42 25.06.2020
858 Clouds 27 1004 83 8000 2 190 09:23 25.06.2020
859 Clouds 27 1004 83 8000 2 190 09:23 25.06.2020
860 Clouds 28 1004 94 8000 3 200 08:56 25.06.2020
861 Clouds 27 1004 88 8000 2 180 08:38 25.06.2020
862 Rain 26 1004 88 8000 3 200 08:18 25.06.2020
863 Rain 27 1005 88 8000 3 220 07:41 25.06.2020
864 Rain 25 1004 94 7000 2 0 07:21 25.06.2020
865 Rain 26 1005 88 8000 3 210 06:31 25.06.2020
866 Rain 25 1005 94 8000 2 220 05:55 25.06.2020
867 Rain 25 1005 94 7000 2 220 05:29 25.06.2020
868 Rain 24 1004 94 7000 2 210 03:36 25.06.2020
869 Rain 24 1004 100 5000 1 0 02:45 25.06.2020
870 Rain 23 1004 100 3000 2 240 02:19 25.06.2020
871 Rain 23 1004 100 4500 2 230 01:35 25.06.2020
872 Clouds 24 1003 94 8000 1 0 00:50 25.06.2020
873 Clouds 23 1003 100 6000 1 180 00:22 25.06.2020
874 Clouds 23 1003 100 6000 1 180 23:58 24.06.2020
875 Rain 23 1003 100 6000 1 0 23:37 24.06.2020
876 Rain 23 1003 100 6000 1 0 23:19 24.06.2020
877 Clouds 23 1003 94 10000 1 250 22:41 24.06.2020
878 Clouds 23 1003 94 10000 1 250 22:21 24.06.2020
879 Rain 24 1003 94 10000 2 210 21:57 24.06.2020
880 Rain 24 1003 94 8000 2 270 21:37 24.06.2020
881 Rain 24 1003 94 8000 2 270 21:19 24.06.2020
882 Rain 24 1003 94 5000 2 260 20:58 24.06.2020
883 Rain 24 1003 100 3600 2 230 20:39 24.06.2020
884 Rain 24 1003 100 3600 2 230 20:21 24.06.2020
885 Rain 24 1003 94 4000 3 230 19:57 24.06.2020
886 Rain 24 1003 100 4000 2 250 19:38 24.06.2020
887 Rain 24 1003 100 4000 2 250 19:38 24.06.2020
888 Rain 24 1003 100 5000 2 220 19:19 24.06.2020
889 Rain 24 1003 100 5000 2 220 18:58 24.06.2020
890 Rain 24 1003 100 5000 3 200 18:39 24.06.2020
891 Rain 24 1002 94 5000 3 180 18:20 24.06.2020
892 Rain 24 1002 94 5000 3 180 17:55 24.06.2020
893 Mist 24 1003 100 4800 4 180 17:36 24.06.2020
894 Rain 24 1003 100 4800 4 180 17:18 24.06.2020
895 Mist 25 1003 100 4500 3 170 16:55 24.06.2020
896 Rain 25 1003 94 6000 4 200 16:36 24.06.2020
897 Rain 26 1003 94 10000 5 180 16:18 24.06.2020
898 Clouds 26 1003 83 10000 3 190 15:39 24.06.2020
899 Rain 26 1003 83 10000 3 190 15:20 24.06.2020
900 Rain 26 1003 83 10000 3 190 14:59 24.06.2020
901 Rain 27 1003 78 10000 3 200 14:40 24.06.2020
902 Clouds 27 1003 78 10000 3 200 14:21 24.06.2020
903 Clouds 27 1002 83 10000 3 0 13:42 24.06.2020
904 Clouds 28 1002 83 10000 3 220 13:21 24.06.2020
905 Clouds 28 1002 83 10000 3 220 13:21 24.06.2020
906 Clouds 28 1002 83 10000 3 210 12:43 24.06.2020
907 Clouds 29 1001 83 10000 3 210 12:21 24.06.2020
908 Clouds 29 1001 83 10000 3 210 11:58 24.06.2020
909 Clouds 29 1001 83 10000 3 230 11:39 24.06.2020
910 Clouds 28 1001 74 10000 3 0 11:21 24.06.2020
911 Clouds 29 1001 78 10000 3 210 10:45 24.06.2020
912 Clouds 30 1002 83 10000 3 200 10:19 24.06.2020
913 Clouds 28 1002 83 10000 4 210 09:46 24.06.2020
914 Clouds 31 1002 83 10000 4 210 09:26 24.06.2020
915 Clouds 31 1002 78 10000 4 220 08:59 24.06.2020
916 Clouds 31 1002 78 10000 4 220 08:40 24.06.2020
917 Clouds 31 1002 78 10000 3 250 08:18 24.06.2020
918 Clouds 30 1002 78 10000 3 240 07:46 24.06.2020
919 Clouds 30 1002 74 10000 3 280 07:25 24.06.2020
920 Clouds 29 1003 78 10000 4 250 06:45 24.06.2020
921 Clouds 28 1003 78 10000 2 250 06:24 24.06.2020
922 Clouds 27 1003 83 10000 3 250 05:39 24.06.2020
923 Clouds 27 1003 83 10000 3 270 04:38 24.06.2020
924 Clouds 26 1003 88 10000 3 280 03:38 24.06.2020
925 Clouds 25 1003 88 10000 4 290 02:55 24.06.2020
926 Rain 25 1003 88 10000 4 290 02:23 24.06.2020
927 Clouds 24 1003 94 10000 1 240 00:52 24.06.2020
928 Clouds 24 1003 94 10000 1 240 00:33 24.06.2020
929 Clouds 25 1002 94 10000 1 0 23:49 23.06.2020
930 Clouds 25 1002 94 10000 1 0 23:22 23.06.2020
931 Clouds 25 1002 94 10000 2 240 22:59 23.06.2020
932 Clouds 25 1002 94 10000 2 220 22:41 23.06.2020
933 Clouds 25 1001 100 10000 1 210 22:18 23.06.2020
934 Clouds 25 1001 100 10000 1 210 21:54 23.06.2020
935 Clouds 25 1001 100 10000 1 190 21:36 23.06.2020
936 Clouds 25 1002 100 10000 1 0 21:18 23.06.2020
937 Clouds 25 1002 100 10000 1 0 20:54 23.06.2020
938 Clouds 25 1002 100 10000 2 240 20:36 23.06.2020
939 Rain 25 1002 100 10000 2 230 20:18 23.06.2020
940 Rain 25 1002 100 10000 2 210 19:41 23.06.2020
941 Rain 25 1002 94 10000 2 200 19:23 23.06.2020
942 Rain 25 1003 100 10000 2 250 18:38 23.06.2020
943 Rain 25 1002 94 10000 1 180 18:18 23.06.2020
944 Rain 25 1002 94 10000 1 180 18:18 23.06.2020
945 Rain 25 1002 94 10000 1 90 17:42 23.06.2020
946 Rain 25 1002 94 10000 1 90 17:24 23.06.2020
947 Thunderstorm 25 1002 94 10000 2 30 16:57 23.06.2020
948 Thunderstorm 25 1002 94 10000 2 30 16:57 23.06.2020
949 Thunderstorm 25 1003 94 8000 4 340 16:38 23.06.2020
950 Thunderstorm 25 1003 94 8000 4 340 16:20 23.06.2020
951 Thunderstorm 26 1002 88 7000 3 130 15:57 23.06.2020
952 Rain 26 1002 88 10000 1 0 15:38 23.06.2020
953 Rain 26 1002 88 10000 4 0 15:18 23.06.2020
954 Clouds 26 1001 94 10000 6 150 14:42 23.06.2020
955 Rain 27 1001 88 10000 6 150 14:19 23.06.2020
956 Rain 27 1001 88 10000 4 150 13:56 23.06.2020
957 Rain 27 1001 88 10000 4 150 13:38 23.06.2020
958 Rain 27 1001 88 10000 5 150 13:20 23.06.2020
959 Rain 27 1001 88 10000 4 160 12:42 23.06.2020
960 Rain 27 1001 83 10000 4 140 12:22 23.06.2020
961 Rain 28 1001 83 10000 4 140 11:58 23.06.2020
962 Rain 28 1001 83 10000 4 150 11:39 23.06.2020
963 Rain 29 1002 83 10000 5 160 11:19 23.06.2020
964 Rain 29 1002 83 10000 5 160 10:55 23.06.2020
965 Rain 28 1002 83 10000 6 150 10:37 23.06.2020
966 Rain 28 1002 83 10000 5 150 10:19 23.06.2020
967 Rain 28 1002 83 10000 5 150 09:41 23.06.2020
968 Rain 28 1002 83 10000 5 150 09:20 23.06.2020
969 Clouds 28 1003 83 10000 6 150 08:48 23.06.2020
970 Clouds 28 1003 83 10000 6 150 08:29 23.06.2020
971 Clouds 28 1003 83 10000 5 150 07:59 23.06.2020
972 Clouds 28 1003 83 10000 5 150 07:39 23.06.2020
973 Clouds 28 1003 83 10000 5 150 07:21 23.06.2020
974 Clouds 28 1003 83 10000 5 150 06:48 23.06.2020
975 Clouds 28 1003 83 10000 5 150 06:30 23.06.2020
976 Clouds 27 1004 83 10000 5 160 05:39 23.06.2020
977 Clouds 26 1004 88 10000 5 150 03:29 23.06.2020
978 Clouds 26 1003 88 10000 5 150 02:55 23.06.2020
979 Clouds 26 1003 94 10000 5 150 02:36 23.06.2020
980 Clouds 25 1003 88 10000 5 140 01:47 23.06.2020
981 Clouds 25 1003 88 10000 5 140 01:29 23.06.2020
982 Clouds 24 1003 94 10000 4 140 00:56 23.06.2020
983 Clouds 24 1003 94 10000 5 130 00:24 23.06.2020
984 Clouds 24 1003 94 10000 5 130 23:55 22.06.2020
985 Clouds 24 1003 94 10000 5 130 23:55 22.06.2020
986 Clouds 24 1003 94 10000 5 130 23:55 22.06.2020
987 Clouds 24 1004 94 10000 3 150 23:37 22.06.2020
988 Clouds 24 1004 94 10000 3 150 23:19 22.06.2020
989 Clouds 24 1004 94 10000 4 170 22:55 22.06.2020
990 Clouds 24 1003 94 10000 4 140 22:37 22.06.2020
991 Clouds 24 1003 94 10000 4 140 22:19 22.06.2020
992 Clouds 24 1003 94 10000 4 130 21:54 22.06.2020
993 Clouds 24 1003 94 10000 5 140 21:36 22.06.2020
994 Clouds 24 1003 94 10000 5 130 21:18 22.06.2020
995 Clouds 24 1004 94 10000 5 130 20:41 22.06.2020
996 Clouds 24 1004 94 10000 5 130 20:22 22.06.2020
997 Clouds 24 1004 94 10000 3 130 19:45 22.06.2020
998 Clouds 24 1004 94 10000 3 130 19:20 22.06.2020
999 Clouds 24 1005 94 10000 3 130 18:59 22.06.2020
1000 Clouds 24 1005 94 10000 3 130 18:39 22.06.2020
1001 Clouds 24 1005 94 10000 3 130 18:21 22.06.2020
1002 Clouds 24 1005 94 10000 3 130 17:56 22.06.2020
1003 Rain 24 1005 94 10000 3 130 17:37 22.06.2020
1004 Rain 24 1006 94 10000 3 150 17:19 22.06.2020
1005 Clouds 24 1006 88 10000 5 130 16:43 22.06.2020
1006 Clouds 25 1006 88 10000 5 130 16:24 22.06.2020
1007 Rain 25 1006 88 10000 4 140 15:59 22.06.2020
1008 Clouds 25 1006 83 10000 4 130 15:40 22.06.2020
1009 Clouds 25 1006 83 10000 4 130 15:22 22.06.2020
1010 Clouds 25 1006 88 10000 4 130 14:41 22.06.2020
1011 Clouds 25 1005 88 10000 5 120 14:22 22.06.2020
1012 Clouds 25 1005 88 10000 5 120 13:59 22.06.2020
1013 Clouds 25 1005 88 10000 4 120 13:39 22.06.2020
1014 Clouds 25 1005 88 10000 5 120 13:21 22.06.2020
1015 Clouds 25 1005 88 10000 4 100 12:46 22.06.2020
1016 Clouds 25 1005 88 10000 4 100 12:25 22.06.2020
1017 Clouds 25 1005 88 10000 4 130 11:59 22.06.2020
1018 Clouds 25 1005 83 10000 3 130 11:37 22.06.2020
1019 Clouds 25 1005 83 10000 3 130 11:19 22.06.2020
1020 Clouds 26 1005 83 10000 3 130 10:55 22.06.2020
1021 Clouds 26 1005 83 10000 5 140 10:37 22.06.2020
1022 Clouds 26 1005 83 10000 4 130 10:18 22.06.2020
1023 Clouds 25 1005 83 10000 4 130 09:55 22.06.2020
1024 Clouds 26 1005 83 10000 4 130 09:37 22.06.2020
1025 Clouds 26 1005 78 10000 5 130 09:18 22.06.2020
1026 Clouds 26 1005 78 10000 5 100 08:40 22.06.2020
1027 Clouds 26 1005 78 10000 4 110 08:21 22.06.2020
1028 Clouds 26 1005 78 10000 4 110 07:53 22.06.2020
1029 Clouds 26 1005 78 10000 3 110 07:33 22.06.2020
1030 Clouds 26 1006 83 10000 4 100 06:47 22.06.2020
1031 Clouds 25 1006 83 10000 4 100 06:27 22.06.2020
1032 Clouds 25 1006 78 10000 5 100 05:58 22.06.2020
1033 Clouds 25 1006 74 10000 4 120 05:30 22.06.2020
1034 Clouds 25 1005 78 10000 5 110 02:56 22.06.2020
1035 Clouds 23 1005 88 10000 3 100 01:34 22.06.2020
1036 Clouds 23 1004 94 10000 2 70 00:41 22.06.2020
1037 Clouds 22 1004 94 10000 2 60 00:18 22.06.2020
1038 Clouds 22 1004 88 10000 1 70 23:40 21.06.2020
1039 Clouds 22 1004 88 10000 1 70 23:22 21.06.2020
1040 Clouds 22 1004 94 10000 1 80 22:57 21.06.2020
1041 Clouds 22 1004 94 10000 1 60 22:38 21.06.2020
1042 Clouds 21 1004 94 10000 2 90 22:19 21.06.2020
1043 Clouds 21 1004 94 10000 2 90 21:58 21.06.2020
1044 Clouds 21 1004 94 10000 2 80 21:40 21.06.2020
1045 Clouds 21 1004 94 10000 2 80 21:21 21.06.2020
1046 Clouds 21 1004 94 10000 1 0 20:59 21.06.2020
1047 Clouds 21 1004 94 10000 2 120 20:38 21.06.2020
1048 Clouds 21 1004 94 10000 2 110 20:19 21.06.2020
1049 Clouds 21 1004 94 10000 2 110 19:56 21.06.2020
1050 Rain 21 1005 94 10000 3 120 19:38 21.06.2020
1051 Clouds 21 1005 94 10000 3 110 19:19 21.06.2020
1052 Clouds 21 1005 94 10000 3 120 18:40 21.06.2020
1053 Clouds 21 1005 94 10000 3 120 18:22 21.06.2020
1054 Clouds 21 1005 94 10000 4 120 17:59 21.06.2020
1055 Clouds 21 1005 94 10000 5 110 17:39 21.06.2020
1056 Clouds 21 1005 94 10000 5 110 17:20 21.06.2020
1057 Clouds 21 1006 94 10000 5 100 16:43 21.06.2020
1058 Clouds 21 1006 94 10000 5 100 16:23 21.06.2020
1059 Rain 21 1006 94 10000 4 100 15:57 21.06.2020
1060 Rain 21 1006 94 10000 3 100 15:37 21.06.2020
1061 Rain 21 1006 94 8000 4 110 15:19 21.06.2020
1062 Rain 20 1005 94 6000 3 100 14:39 21.06.2020
1063 Rain 20 1005 94 6000 3 100 14:20 21.06.2020
1064 Rain 21 1005 94 6000 3 100 13:59 21.06.2020
1065 Rain 21 1005 94 8000 3 110 13:40 21.06.2020
1066 Rain 21 1005 94 8000 3 110 13:21 21.06.2020
1067 Rain 21 1004 94 6000 3 90 12:45 21.06.2020
1068 Rain 21 1004 94 6000 3 90 12:26 21.06.2020
1069 Rain 21 1004 94 7000 3 90 11:59 21.06.2020
1070 Clouds 22 1004 88 10000 3 110 11:41 21.06.2020
1071 Rain 21 1003 88 10000 4 110 11:23 21.06.2020
1072 Rain 21 1003 88 10000 4 110 10:57 21.06.2020
1073 Rain 22 1004 88 8000 4 100 10:38 21.06.2020
1074 Rain 22 1004 94 8000 4 130 10:20 21.06.2020
1075 Rain 22 1004 88 10000 4 140 09:42 21.06.2020
1076 Rain 23 1004 88 10000 4 150 09:22 21.06.2020
1077 Rain 23 1004 88 10000 4 150 08:57 21.06.2020
1078 Rain 23 1004 88 10000 4 150 08:57 21.06.2020
1079 Rain 23 1004 88 10000 4 150 08:57 21.06.2020
1080 Rain 24 1004 78 10000 5 110 08:39 21.06.2020
1081 Clouds 24 1004 78 10000 4 120 08:19 21.06.2020
1082 Clouds 24 1005 78 10000 5 120 07:41 21.06.2020
1083 Clouds 24 1005 78 10000 5 120 07:23 21.06.2020
1084 Rain 24 1005 88 10000 5 120 06:49 21.06.2020
1085 Rain 23 1006 94 4000 7 110 06:18 21.06.2020
1086 Rain 23 1006 94 4000 7 110 05:54 21.06.2020
1087 Rain 23 1006 94 10000 4 110 03:40 21.06.2020
1088 Rain 22 1006 94 10000 2 100 03:18 21.06.2020
1089 Rain 22 1005 94 10000 3 0 02:20 21.06.2020
1090 Rain 22 1005 94 7000 2 110 01:32 21.06.2020
1091 Rain 22 1006 100 7000 1 0 00:56 21.06.2020
1092 Rain 22 1005 100 7000 2 110 00:38 21.06.2020
1093 Rain 21 1005 100 10000 2 90 00:19 21.06.2020
1094 Rain 21 1005 100 10000 2 80 23:44 20.06.2020
1095 Rain 21 1005 100 10000 2 80 23:22 20.06.2020
1096 Rain 22 1005 94 10000 1 0 22:56 20.06.2020
1097 Rain 21 1005 94 10000 2 110 22:38 20.06.2020
1098 Rain 22 1005 94 10000 2 100 22:18 20.06.2020
1099 Rain 21 1005 94 10000 2 100 21:56 20.06.2020
1100 Rain 21 1005 94 10000 2 90 21:38 20.06.2020
1101 Rain 22 1006 94 10000 2 80 21:19 20.06.2020
1102 Rain 22 1006 94 10000 2 80 20:57 20.06.2020
1103 Rain 22 1006 94 10000 2 70 20:38 20.06.2020
1104 Clouds 22 1006 94 10000 2 120 20:19 20.06.2020
1105 Clouds 22 1006 94 10000 3 130 19:44 20.06.2020
1106 Clouds 21 1006 94 10000 3 130 19:23 20.06.2020
1107 Clouds 21 1006 94 10000 3 130 18:55 20.06.2020
1108 Clouds 21 1007 94 10000 3 130 18:37 20.06.2020
1109 Clouds 21 1007 94 10000 3 130 18:37 20.06.2020
1110 Clouds 21 1007 94 10000 3 140 18:19 20.06.2020
1111 Clouds 21 1007 94 10000 3 140 17:56 20.06.2020
1112 Rain 21 1007 94 10000 2 130 17:37 20.06.2020
1113 Rain 21 1007 94 10000 3 110 17:18 20.06.2020
1114 Rain 21 1008 94 10000 3 160 16:40 20.06.2020
1115 Rain 22 1008 94 10000 3 150 16:19 20.06.2020
1116 Rain 22 1008 94 10000 3 150 16:19 20.06.2020
1117 Rain 22 1008 94 10000 3 150 15:55 20.06.2020
1118 Rain 21 1008 94 10000 4 150 15:37 20.06.2020
1119 Rain 21 1008 94 10000 2 150 15:18 20.06.2020
1120 Rain 21 1008 94 10000 3 160 14:42 20.06.2020
1121 Rain 22 1007 88 10000 3 160 14:19 20.06.2020
1122 Rain 22 1007 83 10000 4 150 13:41 20.06.2020
1123 Rain 22 1007 83 10000 4 150 13:20 20.06.2020
1124 Clouds 23 1007 78 10000 4 150 12:55 20.06.2020
1125 Clouds 23 1007 78 10000 4 150 12:55 20.06.2020
1126 Clouds 23 1007 78 10000 4 160 12:37 20.06.2020
1127 Clouds 23 1007 78 10000 4 170 12:18 20.06.2020
1128 Clouds 23 1007 78 10000 4 150 11:39 20.06.2020
1129 Clouds 23 1007 78 10000 4 150 11:20 20.06.2020
1130 Clouds 24 1007 73 10000 4 160 10:57 20.06.2020
1131 Clouds 24 1007 73 10000 4 170 10:38 20.06.2020
1132 Clouds 24 1007 73 10000 4 170 10:38 20.06.2020
1133 Clouds 24 1007 73 10000 4 170 10:18 20.06.2020
1134 Clouds 24 1007 78 10000 3 170 09:41 20.06.2020
1135 Clouds 24 1007 78 10000 3 170 09:23 20.06.2020
1136 Clouds 24 1008 78 10000 4 200 08:57 20.06.2020
1137 Clouds 24 1008 83 10000 4 200 08:38 20.06.2020
1138 Clouds 24 1008 83 10000 5 190 08:20 20.06.2020
1139 Clouds 24 1008 78 10000 5 190 07:50 20.06.2020
1140 Clouds 24 1008 78 10000 5 190 07:25 20.06.2020
1141 Clouds 24 1008 78 10000 5 190 07:25 20.06.2020
1142 Clouds 25 1009 73 10000 5 180 06:40 20.06.2020
1143 Clouds 25 1008 65 10000 4 130 06:18 20.06.2020
1144 Clouds 24 1009 61 10000 4 170 05:47 20.06.2020
1145 Clouds 24 1009 78 10000 3 140 03:22 20.06.2020
1146 Rain 23 1009 83 6000 3 120 01:53 20.06.2020
1147 Rain 23 1009 83 6000 3 120 01:35 20.06.2020
1148 Mist 23 1009 83 5000 1 0 00:40 20.06.2020
1149 Mist 23 1008 83 5000 1 0 00:19 20.06.2020
1150 Clouds 23 1008 83 6000 2 150 23:40 19.06.2020
1151 Clouds 23 1008 83 7000 2 100 23:19 19.06.2020
1152 Clouds 23 1008 83 8000 2 120 22:42 19.06.2020
1153 Clouds 23 1008 83 8000 2 120 22:24 19.06.2020
1154 Clouds 23 1008 83 10000 3 140 21:59 19.06.2020
1155 Clouds 23 1008 83 10000 3 140 21:59 19.06.2020
1156 Clouds 23 1009 83 10000 2 110 21:39 19.06.2020
1157 Clouds 23 1009 83 10000 2 110 21:39 19.06.2020
1158 Clouds 23 1009 78 10000 2 110 21:18 19.06.2020
1159 Clouds 23 1009 78 10000 2 110 20:59 19.06.2020
1160 Clouds 23 1009 83 10000 2 150 20:40 19.06.2020
1161 Clouds 23 1009 83 10000 2 150 20:21 19.06.2020
1162 Clouds 23 1009 83 10000 2 150 20:21 19.06.2020
1163 Clouds 23 1009 83 10000 2 150 20:21 19.06.2020
1164 Clouds 23 1009 83 10000 3 140 19:58 19.06.2020
1165 Clouds 23 1009 83 10000 3 140 19:58 19.06.2020
1166 Clouds 23 1009 83 10000 2 140 19:40 19.06.2020
1167 Clouds 23 1009 83 10000 2 140 19:21 19.06.2020
1168 Clouds 23 1009 78 10000 4 140 18:56 19.06.2020
1169 Clouds 23 1009 83 10000 4 150 18:38 19.06.2020
1170 Clouds 23 1009 83 10000 4 140 18:20 19.06.2020
1171 Clouds 23 1010 83 10000 3 140 17:41 19.06.2020
1172 Clouds 23 1010 83 10000 3 140 17:23 19.06.2020
1173 Clouds 23 1010 78 10000 4 130 16:57 19.06.2020
1174 Clouds 24 1010 78 10000 4 130 16:37 19.06.2020
1175 Clouds 24 1010 78 10000 4 140 16:19 19.06.2020
1176 Clouds 24 1010 78 10000 3 150 15:43 19.06.2020
1177 Clouds 24 1010 78 10000 3 150 15:25 19.06.2020
1178 Rain 24 1009 83 10000 2 150 14:56 19.06.2020
1179 Rain 24 1009 83 10000 3 160 14:38 19.06.2020
1180 Rain 24 1009 83 10000 5 170 14:19 19.06.2020
1181 Rain 24 1009 83 10000 5 190 13:45 19.06.2020
1182 Rain 24 1009 83 10000 5 190 13:27 19.06.2020
1183 Rain 25 1008 78 10000 4 190 12:49 19.06.2020
1184 Rain 25 1008 78 10000 4 190 12:24 19.06.2020
1185 Clouds 26 1008 78 10000 4 200 11:59 19.06.2020
1186 Clouds 26 1008 74 10000 4 180 11:40 19.06.2020
1187 Clouds 27 1008 74 10000 3 180 11:19 19.06.2020
1188 Clouds 26 1008 74 10000 3 180 10:55 19.06.2020
1189 Clouds 26 1008 74 10000 3 180 10:55 19.06.2020
1190 Clouds 27 1008 57 10000 3 40 10:37 19.06.2020
1191 Clouds 28 1008 54 10000 3 80 10:18 19.06.2020
1192 Clouds 28 1008 58 10000 4 360 09:41 19.06.2020
1193 Clouds 28 1008 54 10000 3 80 09:21 19.06.2020
1194 Clouds 29 1008 58 10000 3 20 08:45 19.06.2020
1195 Clouds 29 1008 58 10000 3 20 08:27 19.06.2020
1196 Clouds 29 1008 54 10000 2 0 07:57 19.06.2020
1197 Clouds 29 1008 54 10000 2 50 07:39 19.06.2020
1198 Clouds 29 1008 54 10000 2 50 07:39 19.06.2020
1199 Clouds 28 1008 54 10000 2 50 07:20 19.06.2020
1200 Clouds 29 1009 61 10000 3 10 06:28 19.06.2020
1201 Clouds 29 1009 57 10000 2 10 05:50 19.06.2020
1202 Clouds 27 1008 65 10000 4 350 04:27 19.06.2020
1203 Clouds 25 1008 69 10000 2 0 02:52 19.06.2020
1204 Clouds 23 1007 88 10000 2 20 00:59 19.06.2020
1205 Clouds 23 1007 88 10000 3 20 00:40 19.06.2020
1206 Clouds 23 1007 88 10000 3 20 00:21 19.06.2020
1207 Clouds 23 1006 88 10000 3 20 23:41 18.06.2020
1208 Clouds 23 1006 88 10000 3 20 23:41 18.06.2020
1209 Clouds 23 1006 88 10000 3 10 23:23 18.06.2020
1210 Clouds 22 1006 88 10000 3 10 22:59 18.06.2020
1211 Clouds 22 1006 88 10000 4 10 22:39 18.06.2020
1212 Clouds 23 1006 88 10000 3 360 22:19 18.06.2020
1213 Clouds 23 1006 88 10000 3 350 21:39 18.06.2020
1214 Clouds 23 1006 88 10000 4 360 21:20 18.06.2020
1215 Clouds 23 1006 88 10000 4 360 20:58 18.06.2020
1216 Clouds 23 1006 88 10000 3 340 20:38 18.06.2020
1217 Clouds 23 1006 88 10000 4 340 20:19 18.06.2020
1218 Clouds 23 1005 94 10000 3 340 19:42 18.06.2020
1219 Clouds 23 1005 94 10000 3 340 19:22 18.06.2020
1220 Clouds 23 1005 88 10000 5 340 18:58 18.06.2020
1221 Clouds 23 1005 94 10000 4 330 18:37 18.06.2020
1222 Clouds 23 1005 94 10000 4 320 18:19 18.06.2020
1223 Clouds 23 1005 94 10000 3 310 17:45 18.06.2020
1224 Clouds 23 1005 94 10000 3 310 17:25 18.06.2020
1225 Clouds 22 1005 94 10000 5 310 16:56 18.06.2020
1226 Clouds 22 1005 94 10000 5 310 16:37 18.06.2020
1227 Rain 22 1005 94 10000 4 300 16:18 18.06.2020
1228 Rain 22 1005 94 10000 4 300 15:55 18.06.2020
1229 Clouds 22 1005 94 10000 4 310 15:37 18.06.2020
1230 Rain 22 1004 94 10000 5 310 15:18 18.06.2020
1231 Rain 22 1004 94 10000 4 300 14:41 18.06.2020
1232 Clouds 24 1004 94 10000 5 300 14:23 18.06.2020
1233 Clouds 23 1004 94 10000 5 300 13:58 18.06.2020
1234 Clouds 23 1003 94 10000 6 310 13:40 18.06.2020
1235 Clouds 23 1003 94 10000 6 310 13:40 18.06.2020
1236 Clouds 23 1003 94 10000 6 310 13:20 18.06.2020
1237 Rain 23 1003 94 10000 4 300 12:55 18.06.2020
1238 Rain 23 1003 88 10000 6 300 12:37 18.06.2020
1239 Rain 23 1002 88 10000 5 310 12:19 18.06.2020
1240 Rain 23 1002 78 10000 7 300 11:46 18.06.2020
1241 Rain 24 1002 78 10000 7 300 11:21 18.06.2020
1242 Clouds 25 1002 74 10000 7 290 10:41 18.06.2020
1243 Clouds 26 1001 74 10000 5 290 10:20 18.06.2020
1244 Clouds 27 1001 74 10000 5 290 09:58 18.06.2020
1245 Clouds 27 1001 74 10000 7 280 09:39 18.06.2020
1246 Clouds 27 1001 74 10000 7 280 09:39 18.06.2020
1247 Clouds 29 1001 74 10000 7 280 09:21 18.06.2020
1248 Clouds 30 1001 74 10000 7 290 08:40 18.06.2020
1249 Clouds 30 1001 74 10000 7 290 08:22 18.06.2020
1250 Clouds 30 1001 70 10000 7 290 07:47 18.06.2020
1251 Clouds 31 1001 70 10000 7 290 07:27 18.06.2020
1252 Clouds 32 1001 70 7000 7 300 06:59 18.06.2020
1253 Clouds 33 1001 70 8000 8 300 06:20 18.06.2020
1254 Clouds 34 1000 63 10000 5 270 04:25 18.06.2020
1255 Clouds 32 1000 62 10000 5 240 02:51 18.06.2020
1256 Clouds 32 999 66 10000 5 230 01:30 18.06.2020
1257 Clouds 32 999 66 10000 4 230 00:57 18.06.2020
1258 Clouds 31 999 70 10000 2 220 00:38 18.06.2020
1259 Clouds 30 999 74 10000 3 210 00:20 18.06.2020
1260 Clouds 30 999 74 10000 3 220 23:43 17.06.2020
1261 Clouds 30 999 74 10000 3 220 23:21 17.06.2020
1262 Clouds 30 998 70 10000 4 230 22:57 17.06.2020
1263 Clouds 29 998 74 10000 3 230 22:38 17.06.2020
1264 Clouds 29 998 74 10000 3 230 22:20 17.06.2020
1265 Clouds 28 998 78 10000 2 210 21:55 17.06.2020
1266 Clouds 29 998 79 10000 3 230 21:36 17.06.2020
1267 Clouds 28 998 83 10000 2 200 21:18 17.06.2020
1268 Clouds 28 998 83 10000 2 200 21:18 17.06.2020
1269 Clouds 29 998 79 10000 1 210 20:38 17.06.2020
1270 Clouds 29 998 83 10000 2 200 20:19 17.06.2020
1271 Clouds 29 998 83 10000 2 200 20:19 17.06.2020
1272 Clouds 29 999 79 10000 3 210 19:46 17.06.2020
1273 Clouds 29 999 79 10000 3 210 19:23 17.06.2020
1274 Clouds 29 999 79 10000 3 210 18:59 17.06.2020
1275 Clouds 28 999 88 10000 3 190 18:40 17.06.2020
1276 Clouds 29 999 88 10000 3 190 18:22 17.06.2020
1277 Clouds 29 1000 88 10000 3 190 17:44 17.06.2020
1278 Clouds 28 1000 88 10000 3 190 17:22 17.06.2020
1279 Clouds 28 1000 88 10000 3 190 17:22 17.06.2020
1280 Clouds 28 1000 88 10000 3 180 16:57 17.06.2020
1281 Clouds 28 1000 88 10000 3 180 16:57 17.06.2020
1282 Clouds 28 1000 83 10000 3 170 16:38 17.06.2020
1283 Clouds 28 1000 83 10000 3 150 16:20 17.06.2020
1284 Clouds 28 1000 83 10000 3 150 15:56 17.06.2020
1285 Clouds 28 1000 83 10000 3 150 15:38 17.06.2020
1286 Rain 28 1000 83 10000 3 160 15:18 17.06.2020
1287 Rain 28 1000 83 10000 3 160 14:55 17.06.2020
1288 Rain 29 1000 83 10000 3 170 14:36 17.06.2020
1289 Rain 29 1000 74 10000 4 160 14:18 17.06.2020
1290 Rain 29 1000 79 10000 3 130 13:41 17.06.2020
1291 Rain 29 1000 79 10000 3 130 13:41 17.06.2020
1292 Rain 29 1000 79 10000 4 140 13:21 17.06.2020
1293 Rain 29 1000 79 10000 4 140 12:56 17.06.2020
1294 Rain 30 1000 79 10000 4 150 12:37 17.06.2020
1295 Rain 32 1000 79 10000 4 140 12:19 17.06.2020
1296 Rain 31 1000 75 7000 5 140 11:44 17.06.2020
1297 Rain 32 1000 75 7000 5 140 11:24 17.06.2020
1298 Rain 32 1000 79 7000 4 130 10:55 17.06.2020
1299 Rain 31 1000 79 7000 4 140 10:36 17.06.2020
1300 Clouds 31 1000 74 7000 4 120 10:18 17.06.2020
1301 Clouds 32 1000 79 7000 5 130 09:41 17.06.2020
1302 Clouds 31 1000 79 7000 5 130 09:21 17.06.2020
1303 Clouds 31 1000 79 7000 5 130 08:57 17.06.2020
1304 Clouds 30 1001 70 7000 4 110 08:39 17.06.2020
1305 Clouds 30 1001 74 7000 5 110 08:19 17.06.2020
1306 Clouds 31 1001 63 10000 2 0 07:43 17.06.2020
1307 Clouds 31 1001 63 10000 2 0 07:21 17.06.2020
1308 Clouds 31 1001 63 10000 1 0 06:56 17.06.2020
1309 Clouds 31 1001 63 10000 1 0 06:37 17.06.2020
1310 Clouds 29 1002 70 10000 2 0 06:19 17.06.2020
1311 Rain 29 1002 74 8000 1 0 05:18 17.06.2020
1312 Clouds 27 1002 88 6000 3 190 03:28 17.06.2020
1313 Mist 25 1003 100 2800 3 160 01:51 17.06.2020
1314 Mist 23 1002 94 3000 3 140 00:46 17.06.2020
1315 Mist 23 1002 94 3000 3 140 00:23 17.06.2020
1316 Mist 23 1002 100 4000 3 140 23:56 16.06.2020
1317 Mist 23 1002 100 4000 3 140 23:56 16.06.2020
1318 Clouds 23 1003 100 6000 2 120 23:37 16.06.2020
1319 Clouds 22 1002 100 7000 3 120 23:19 16.06.2020
1320 Clouds 23 1002 100 7000 3 120 22:55 16.06.2020
1321 Clouds 23 1003 94 10000 2 110 22:36 16.06.2020
1322 Clouds 23 1003 94 10000 2 110 22:36 16.06.2020
1323 Clouds 23 1003 94 10000 3 120 22:18 16.06.2020
1324 Clouds 22 1003 94 10000 4 130 21:47 16.06.2020
1325 Clouds 22 1003 94 10000 4 130 21:23 16.06.2020
1326 Clouds 22 1003 94 10000 4 120 20:57 16.06.2020
1327 Clouds 22 1003 88 10000 4 120 20:39 16.06.2020
1328 Clouds 22 1004 88 10000 4 100 20:19 16.06.2020
1329 Clouds 22 1004 88 10000 4 100 19:57 16.06.2020
1330 Clouds 22 1004 88 10000 4 110 19:38 16.06.2020
1331 Clouds 22 1004 88 10000 4 110 19:20 16.06.2020
1332 Clouds 22 1005 88 10000 4 110 18:45 16.06.2020
1333 Clouds 22 1005 88 10000 4 110 18:22 16.06.2020
1334 Clouds 22 1005 88 10000 5 110 17:59 16.06.2020
1335 Clouds 22 1006 88 10000 4 100 17:39 16.06.2020
1336 Clouds 23 1006 88 10000 4 100 17:21 16.06.2020
1337 Thunderstorm 23 1006 83 10000 6 110 17:00 16.06.2020
1338 Clouds 23 1006 78 10000 5 100 16:41 16.06.2020
1339 Clouds 24 1006 73 10000 4 100 16:20 16.06.2020
1340 Clouds 24 1006 73 10000 4 100 15:57 16.06.2020
1341 Clouds 24 1006 73 10000 4 100 15:39 16.06.2020
1342 Clouds 24 1006 73 10000 4 100 15:21 16.06.2020
1343 Clouds 24 1006 73 10000 4 100 14:56 16.06.2020
1344 Clouds 24 1006 73 10000 7 100 14:38 16.06.2020
1345 Clouds 24 1006 78 10000 6 100 14:19 16.06.2020
1346 Clouds 24 1006 73 10000 6 110 13:45 16.06.2020
1347 Clouds 24 1006 73 10000 6 110 13:25 16.06.2020
1348 Clouds 24 1006 73 10000 4 70 12:43 16.06.2020
1349 Clouds 24 1005 73 10000 5 100 12:23 16.06.2020
1350 Clouds 25 1005 73 10000 5 100 11:59 16.06.2020
1351 Clouds 25 1005 73 10000 4 90 11:40 16.06.2020
1352 Clouds 25 1005 73 10000 4 90 11:22 16.06.2020
1353 Clouds 25 1005 73 10000 5 100 10:58 16.06.2020
1354 Clouds 25 1005 73 10000 4 100 10:38 16.06.2020
1355 Clouds 25 1005 73 10000 4 100 10:20 16.06.2020
1356 Clouds 25 1005 73 10000 4 100 10:20 16.06.2020
1357 Clouds 24 1005 78 10000 5 110 09:44 16.06.2020
1358 Clouds 25 1005 78 10000 4 110 09:23 16.06.2020
1359 Clouds 25 1005 78 10000 4 110 08:53 16.06.2020
1360 Clouds 25 1005 88 10000 5 120 08:32 16.06.2020
1361 Rain 24 1005 88 10000 4 120 07:52 16.06.2020
1362 Rain 25 1005 83 10000 5 110 07:29 16.06.2020
1363 Clouds 25 1006 83 10000 4 110 06:57 16.06.2020
1364 Clouds 24 1006 83 10000 3 100 06:34 16.06.2020
1365 Rain 24 1007 88 10000 3 70 05:50 16.06.2020
1366 Rain 24 1007 88 10000 3 80 04:54 16.06.2020
1367 Rain 24 1007 94 10000 4 70 03:55 16.06.2020
1368 Clouds 26 1006 88 10000 3 100 02:33 16.06.2020
1369 Clouds 25 1007 88 8000 3 100 01:33 16.06.2020
1370 Clouds 25 1007 94 6000 2 50 00:52 16.06.2020
1371 Clouds 25 1007 94 6000 2 90 00:22 16.06.2020
1372 Clouds 25 1006 94 6000 2 100 23:43 15.06.2020
1373 Clouds 25 1006 94 6000 2 100 23:24 15.06.2020
1374 Clouds 25 1006 94 10000 2 80 22:59 15.06.2020
1375 Rain 25 1006 94 10000 2 80 22:41 15.06.2020
1376 Rain 25 1006 94 10000 2 80 22:21 15.06.2020
1377 Clouds 25 1006 94 10000 1 0 21:56 15.06.2020
1378 Clouds 25 1006 94 10000 1 140 21:38 15.06.2020
1379 Rain 25 1006 94 10000 2 130 21:19 15.06.2020
1380 Rain 25 1006 94 10000 2 130 20:57 15.06.2020
1381 Rain 25 1006 94 10000 3 130 20:38 15.06.2020
1382 Clouds 25 1006 94 10000 2 140 20:19 15.06.2020
1383 Clouds 25 1006 94 10000 2 140 19:56 15.06.2020
1384 Rain 25 1006 94 10000 2 80 19:38 15.06.2020
1385 Rain 25 1007 94 10000 1 140 19:19 15.06.2020
1386 Rain 25 1007 94 10000 1 140 18:55 15.06.2020
1387 Rain 25 1007 94 10000 1 140 18:55 15.06.2020
1388 Clouds 25 1007 94 10000 2 160 18:37 15.06.2020
1389 Rain 25 1007 94 10000 1 0 18:18 15.06.2020
1390 Rain 25 1007 94 10000 1 0 17:42 15.06.2020
1391 Rain 25 1008 94 10000 1 0 17:21 15.06.2020
1392 Rain 25 1008 94 10000 1 0 17:21 15.06.2020
1393 Rain 25 1008 94 10000 1 0 16:58 15.06.2020
1394 Rain 25 1008 94 10000 1 20 16:40 15.06.2020
1395 Rain 25 1008 94 10000 1 0 16:18 15.06.2020
1396 Rain 25 1008 94 10000 1 0 15:56 15.06.2020
1397 Clouds 25 1008 94 10000 1 0 15:36 15.06.2020
1398 Clouds 25 1007 94 10000 2 200 15:18 15.06.2020
1399 Clouds 25 1007 94 10000 2 200 14:41 15.06.2020
1400 Clouds 25 1007 94 10000 2 210 14:20 15.06.2020
1401 Clouds 25 1007 94 10000 2 210 13:58 15.06.2020
1402 Clouds 25 1007 94 10000 2 180 13:39 15.06.2020
1403 Clouds 25 1007 94 10000 3 160 13:20 15.06.2020
1404 Clouds 25 1007 94 10000 2 140 12:55 15.06.2020
1405 Clouds 25 1007 94 10000 2 140 12:36 15.06.2020
1406 Clouds 25 1007 94 10000 3 150 12:18 15.06.2020
1407 Clouds 25 1007 94 10000 3 150 11:41 15.06.2020
1408 Clouds 24 1007 94 10000 3 130 11:23 15.06.2020
1409 Clouds 24 1007 94 10000 4 150 10:43 15.06.2020
1410 Clouds 24 1007 94 10000 4 150 10:22 15.06.2020
1411 Rain 24 1007 94 10000 4 130 09:45 15.06.2020
1412 Rain 24 1007 94 10000 4 130 09:23 15.06.2020
1413 Rain 24 1007 94 10000 3 120 08:55 15.06.2020
1414 Rain 24 1008 100 10000 2 0 08:36 15.06.2020
1415 Rain 24 1007 100 10000 4 120 08:18 15.06.2020
1416 Rain 24 1008 100 8000 3 120 07:41 15.06.2020
1417 Thunderstorm 24 1009 100 3000 3 40 07:20 15.06.2020
1418 Thunderstorm 24 1008 100 1400 5 20 06:29 15.06.2020
1419 Thunderstorm 24 1008 100 4000 3 40 05:51 15.06.2020
1420 Thunderstorm 26 1008 94 2000 4 80 05:30 15.06.2020
1421 Rain 27 1008 94 7000 3 70 04:22 15.06.2020
1422 Rain 27 1007 94 5000 4 60 03:49 15.06.2020
1423 Rain 28 1007 94 3000 2 90 02:58 15.06.2020
1424 Mist 27 1008 94 1500 2 0 02:32 15.06.2020
1425 Rain 28 1008 94 1500 2 0 01:47 15.06.2020
1426 Rain 28 1008 94 1500 2 0 01:27 15.06.2020
1427 Mist 28 1007 94 1500 1 0 00:45 15.06.2020
1428 Mist 28 1008 94 1500 2 360 00:23 15.06.2020
1429 Mist 28 1008 94 1500 2 360 23:58 14.06.2020
1430 Mist 28 1008 94 1500 2 360 23:40 14.06.2020
1431 Mist 27 1008 94 1500 2 360 23:22 14.06.2020
1432 Mist 28 1008 94 4000 3 360 22:57 14.06.2020
1433 Mist 28 1008 94 4000 2 10 22:38 14.06.2020
1434 Mist 28 1008 94 4000 2 10 22:18 14.06.2020
1435 Mist 28 1008 94 4000 2 10 21:56 14.06.2020
1436 Mist 28 1008 94 4000 1 10 21:38 14.06.2020
1437 Mist 28 1008 94 4000 0.25 173 21:18 14.06.2020
1438 Mist 27 1008 94 4000 0.25 173 20:57 14.06.2020
1439 Mist 28 1008 94 4000 1 180 20:38 14.06.2020
1440 Mist 27 1008 94 4000 1 150 20:18 14.06.2020
1441 Mist 27 1008 94 4000 1 150 19:56 14.06.2020
1442 Mist 27 1008 94 5000 1 160 19:37 14.06.2020
1443 Mist 28 1008 94 5000 2 180 19:18 14.06.2020
1444 Mist 27 1008 94 5000 2 180 18:55 14.06.2020
1445 Mist 28 1008 94 4000 2 180 18:37 14.06.2020
1446 Mist 28 1009 94 4000 3 190 18:18 14.06.2020
1447 Mist 28 1009 94 4000 3 190 18:18 14.06.2020
1448 Mist 28 1009 94 4000 3 190 17:55 14.06.2020
1449 Mist 28 1009 94 4000 3 180 17:36 14.06.2020
1450 Mist 28 1009 94 4000 2 180 17:18 14.06.2020
1451 Clouds 28 1010 94 7000 2 220 16:40 14.06.2020
1452 Clouds 28 1010 88 10000 3 250 16:20 14.06.2020
1453 Clouds 28 1010 88 10000 3 250 15:57 14.06.2020
1454 Rain 28 1009 88 10000 2 210 15:37 14.06.2020
1455 Rain 29 1009 88 10000 2 0 15:18 14.06.2020
1456 Rain 29 1009 83 10000 3 240 14:41 14.06.2020
1457 Rain 29 1009 83 10000 3 240 14:23 14.06.2020
1458 Rain 30 1009 79 10000 3 230 13:59 14.06.2020
1459 Clouds 30 1009 74 10000 2 240 13:40 14.06.2020
1460 Rain 30 1009 74 10000 2 250 13:22 14.06.2020
1461 Rain 30 1009 74 10000 2 250 12:57 14.06.2020
1462 Rain 30 1008 74 10000 4 300 12:39 14.06.2020
1463 Rain 30 1008 74 10000 4 300 12:39 14.06.2020
1464 Rain 30 1008 70 10000 2 270 12:21 14.06.2020
1465 Rain 30 1008 70 10000 2 270 12:21 14.06.2020
1466 Rain 31 1007 65 0 1.96 34 11:57 14.06.2020
1467 Rain 31 1008 66 10000 3 280 11:38 14.06.2020
1468 Rain 31 1008 66 10000 2 290 11:20 14.06.2020
1469 Rain 31 1008 66 10000 3 310 10:42 14.06.2020
1470 Rain 31 1008 70 10000 4 330 10:20 14.06.2020
1471 Rain 32 1008 70 10000 4 330 09:56 14.06.2020
1472 Rain 32 1008 70 10000 4 350 09:38 14.06.2020
1473 Rain 32 1008 70 10000 4 350 09:20 14.06.2020
1474 Clouds 33 1008 74 10000 4 350 08:41 14.06.2020
1475 Clouds 32 1008 74 10000 4 340 08:19 14.06.2020
1476 Clouds 31 1008 74 10000 4 340 07:52 14.06.2020
1477 Clouds 31 1009 70 10000 5 300 07:32 14.06.2020
1478 Clouds 32 1009 70 10000 5 340 06:39 14.06.2020
1479 Clouds 32 1009 70 10000 3 320 05:45 14.06.2020
1480 Clouds 31 1009 74 10000 4 360 04:59 14.06.2020
1481 Clouds 32 1008 74 10000 3 320 04:33 14.06.2020
1482 Clouds 31 1008 74 10000 3 360 03:27 14.06.2020
1483 Rain 31 1008 74 10000 2 20 02:30 14.06.2020
1484 Rain 30 1007 74 10000 2 30 01:45 14.06.2020
1485 Rain 30 1007 74 10000 2 30 01:24 14.06.2020
1486 Rain 29 1007 78 10000 2 360 00:39 14.06.2020
1487 Rain 28 1006 83 10000 2 360 00:19 14.06.2020
1488 Rain 28 1006 88 10000 2 10 23:43 13.06.2020
1489 Rain 27 1006 88 10000 2 10 23:24 13.06.2020
1490 Rain 27 1005 88 10000 3 360 22:57 13.06.2020
1491 Rain 27 1005 88 10000 4 360 22:37 13.06.2020
1492 Clouds 28 1005 83 10000 4 360 22:18 13.06.2020
1493 Clouds 28 1005 83 10000 4 360 22:18 13.06.2020
1494 Clouds 28 1005 83 10000 4 360 21:55 13.06.2020
1495 Clouds 28 1005 88 10000 2 360 21:37 13.06.2020
1496 Clouds 28 1004 78 10000 2 40 21:18 13.06.2020
1497 Clouds 28 1005 83 10000 3 360 20:42 13.06.2020
1498 Clouds 28 1005 83 10000 3 360 20:42 13.06.2020
1499 Clouds 28 1005 83 10000 2 20 20:19 13.06.2020
1500 Clouds 28 1005 83 10000 2 20 20:19 13.06.2020
1501 Clouds 28 1005 88 10000 2 360 19:42 13.06.2020
1502 Clouds 29 1005 88 10000 2 360 19:22 13.06.2020
1503 Clouds 29 1005 83 10000 2 70 18:59 13.06.2020
1504 Clouds 29 1005 83 10000 3 20 18:41 13.06.2020
1505 Clouds 29 1005 83 10000 2 160 18:21 13.06.2020
1506 Clouds 29 1005 83 10000 2 160 17:59 13.06.2020
1507 Clouds 29 1005 83 10000 3 150 17:41 13.06.2020
1508 Clouds 29 1005 83 10000 3 150 17:22 13.06.2020
1509 Clouds 29 1006 83 10000 3 140 16:56 13.06.2020
1510 Clouds 29 1006 83 10000 3 150 16:38 13.06.2020
1511 Clouds 29 1006 83 10000 3 150 16:19 13.06.2020
1512 Clouds 29 1005 83 10000 3 160 15:44 13.06.2020
1513 Rain 29 1005 83 10000 3 160 15:26 13.06.2020
1514 Rain 30 1004 79 10000 4 160 14:58 13.06.2020
1515 Rain 30 1004 79 10000 5 150 14:38 13.06.2020
1516 Clouds 31 1004 74 10000 5 150 14:20 13.06.2020
1517 Clouds 32 1004 74 10000 6 150 13:42 13.06.2020
1518 Clouds 32 1004 74 10000 6 150 13:24 13.06.2020
1519 Clouds 33 1003 70 10000 5 170 12:44 13.06.2020
1520 Clouds 34 1003 70 10000 5 170 12:26 13.06.2020
1521 Clouds 34 1003 63 10000 5 190 11:59 13.06.2020
1522 Clouds 34 1003 63 10000 5 200 11:40 13.06.2020
1523 Rain 33 1003 63 10000 5 190 11:19 13.06.2020
1524 Rain 33 1003 63 10000 5 190 11:19 13.06.2020
1525 Rain 33 1003 63 10000 5 190 10:57 13.06.2020
1526 Clouds 33 1003 66 10000 5 190 10:38 13.06.2020
1527 Clouds 34 1003 63 10000 4 200 10:19 13.06.2020
1528 Clouds 34 1003 66 10000 4 170 09:45 13.06.2020
1529 Clouds 36 1003 66 10000 4 170 09:27 13.06.2020
1530 Clear 37 1003 67 10000 4 170 08:50 13.06.2020
1531 Clear 34 1003 67 10000 2 190 08:32 13.06.2020
1532 Clouds 35 1003 66 10000 3 180 07:56 13.06.2020
1533 Clouds 33 1004 66 10000 3 190 07:30 13.06.2020
1534 Clouds 35 1004 66 10000 3 190 07:30 13.06.2020
1535 Clouds 33 1004 63 10000 2 0 06:56 13.06.2020
1536 Clouds 34 1004 63 10000 1 0 06:36 13.06.2020
1537 Clouds 34 1005 63 10000 1 0 05:53 13.06.2020
1538 Clouds 34 1005 66 10000 2 340 05:25 13.06.2020
1539 Clouds 32 1005 74 10000 3 260 03:55 13.06.2020
1540 Clear 31 1004 79 10000 3 240 02:55 13.06.2020
1541 Clouds 30 1004 83 10000 4 260 02:35 13.06.2020
1542 Clouds 30 1003 89 10000 3 180 01:46 13.06.2020
1543 Clouds 30 1003 89 10000 3 180 01:21 13.06.2020
1544 Clouds 28 1002 94 10000 2 180 00:42 13.06.2020
1545 Clouds 28 1002 94 10000 2 180 00:23 13.06.2020
1546 Clouds 27 1002 94 10000 1 180 23:42 12.06.2020
1547 Clouds 27 1002 94 10000 2 190 23:19 12.06.2020
1548 Clouds 26 1002 94 10000 2 190 22:59 12.06.2020
1549 Clouds 26 1002 94 10000 3 160 22:40 12.06.2020
1550 Clouds 27 1002 88 10000 3 170 22:19 12.06.2020
1551 Clouds 27 1002 94 10000 3 160 21:47 12.06.2020
1552 Clouds 28 1002 94 10000 3 160 21:24 12.06.2020
1553 Clouds 28 1002 94 10000 4 150 20:58 12.06.2020
1554 Clouds 28 1002 94 10000 4 160 20:39 12.06.2020
1555 Clouds 28 1002 94 10000 4 160 20:39 12.06.2020
1556 Clouds 28 1002 94 10000 4 160 20:39 12.06.2020
1557 Clouds 28 1002 94 10000 2 160 20:21 12.06.2020
1558 Clouds 28 1002 94 10000 2 160 19:54 12.06.2020
1559 Clouds 28 1002 94 10000 3 160 19:36 12.06.2020
1560 Clouds 29 1002 94 10000 3 160 19:18 12.06.2020
1561 Clouds 28 1002 100 10000 3 150 18:37 12.06.2020
1562 Rain 29 1002 94 10000 3 150 18:18 12.06.2020
1563 Rain 29 1003 94 10000 3 140 17:46 12.06.2020
1564 Rain 29 1003 94 10000 3 140 17:27 12.06.2020
1565 Rain 29 1003 94 10000 2 110 16:58 12.06.2020
1566 Rain 29 1003 94 10000 2 60 16:40 12.06.2020
1567 Rain 29 1004 94 10000 1 0 16:19 12.06.2020
1568 Thunderstorm 28 1003 94 10000 3 90 15:45 12.06.2020
1569 Thunderstorm 29 1003 94 10000 3 360 15:20 12.06.2020
1570 Thunderstorm 30 1002 88 10000 3 360 14:44 12.06.2020
1571 Thunderstorm 30 1002 88 10000 3 360 14:23 12.06.2020
1572 Squall 30 1002 83 8000 10 280 13:59 12.06.2020
1573 Squall 30 1002 83 8000 10 280 13:59 12.06.2020
1574 Rain 32 1001 66 10000 3 190 13:40 12.06.2020
1575 Rain 33 1000 63 10000 3 200 13:19 12.06.2020
1576 Rain 33 1000 63 10000 4 220 12:40 12.06.2020
1577 Clouds 34 1000 59 10000 5 220 12:19 12.06.2020
1578 Clouds 34 1000 59 10000 5 220 11:56 12.06.2020
1579 Clouds 34 999 59 10000 6 200 11:36 12.06.2020
1580 Clouds 34 999 59 10000 6 200 11:36 12.06.2020
1581 Clouds 34 999 63 10000 6 180 11:18 12.06.2020
1582 Clouds 35 1000 67 10000 4 190 10:42 12.06.2020
1583 Clouds 35 1000 63 10000 5 210 10:23 12.06.2020
1584 Clouds 35 1000 70 10000 6 180 09:44 12.06.2020
1585 Clouds 35 1000 70 10000 6 180 09:21 12.06.2020
1586 Clouds 36 1000 63 10000 5 180 08:43 12.06.2020
1587 Clouds 35 1000 63 10000 5 180 08:24 12.06.2020
1588 Clear 35 1001 70 10000 3 190 07:44 12.06.2020
1589 Clear 34 1001 70 10000 3 190 07:25 12.06.2020
1590 Clear 34 1002 75 10000 3 190 06:55 12.06.2020
1591 Clouds 34 1002 75 10000 4 210 06:25 12.06.2020
1592 Clouds 34 1003 74 10000 5 200 05:50 12.06.2020
1593 Clouds 33 1003 74 10000 5 200 05:28 12.06.2020
1594 Clouds 33 1003 79 10000 5 190 04:41 12.06.2020
1595 Mist 27 1004 83 5000 3 170 02:46 12.06.2020
1596 Mist 27 1004 88 4500 3 160 01:52 12.06.2020
1597 Mist 26 1003 94 4000 2 130 01:23 12.06.2020
1598 Mist 26 1003 88 4000 2 100 00:42 12.06.2020
1599 Mist 26 1003 88 4000 2 100 00:24 12.06.2020
1600 Mist 25 1003 94 4000 2 70 23:58 11.06.2020
1601 Mist 25 1003 94 4000 2 70 23:40 11.06.2020
1602 Mist 25 1003 94 4000 2 70 23:40 11.06.2020
1603 Mist 25 1003 94 4000 2 70 23:20 11.06.2020
1604 Mist 25 1003 94 4000 3 110 22:57 11.06.2020
1605 Mist 25 1003 100 3500 4 150 22:38 11.06.2020
1606 Mist 25 1003 94 4000 3 150 22:19 11.06.2020
1607 Mist 25 1003 94 4000 2 140 21:44 11.06.2020
1608 Mist 25 1003 94 4000 2 140 21:21 11.06.2020
1609 Mist 25 1003 94 4000 3 130 20:59 11.06.2020
1610 Mist 25 1003 94 4000 3 120 20:41 11.06.2020
1611 Mist 25 1003 94 4000 3 120 20:21 11.06.2020
1612 Clouds 25 1004 94 6000 2 110 19:44 11.06.2020
1613 Clouds 25 1004 94 6000 2 110 19:23 11.06.2020
1614 Clouds 25 1004 94 6000 2 110 19:23 11.06.2020
1615 Clouds 26 1004 88 6000 2 100 18:57 11.06.2020
1616 Clouds 26 1004 88 6000 2 100 18:39 11.06.2020
1617 Clouds 26 1004 88 6000 2 100 18:39 11.06.2020
1618 Clouds 26 1004 88 6000 2 100 18:20 11.06.2020
1619 Clouds 26 1004 88 6000 2 100 17:55 11.06.2020
1620 Clouds 26 1005 88 7000 2 100 17:37 11.06.2020
1621 Clouds 26 1005 88 7000 2 100 17:18 11.06.2020
1622 Clouds 26 1005 88 10000 3 130 16:43 11.06.2020
1623 Clouds 26 1005 88 10000 3 130 16:25 11.06.2020
1624 Clouds 26 1005 88 10000 4 110 15:58 11.06.2020
1625 Clouds 26 1005 88 10000 4 130 15:39 11.06.2020
1626 Clouds 25 1005 88 10000 4 130 15:21 11.06.2020
1627 Clouds 25 1004 88 10000 3 130 14:46 11.06.2020
1628 Clouds 27 1004 88 10000 4 140 14:21 11.06.2020
1629 Clouds 27 1004 88 10000 4 140 13:57 11.06.2020
1630 Clouds 27 1004 88 10000 5 120 13:39 11.06.2020
1631 Clouds 27 1003 78 10000 4 110 13:20 11.06.2020
1632 Clouds 27 1003 78 10000 4 110 12:57 11.06.2020
1633 Clouds 28 1003 83 10000 3 110 12:39 11.06.2020
1634 Clouds 29 1003 83 10000 4 120 12:19 11.06.2020
1635 Clouds 29 1003 83 10000 4 120 11:57 11.06.2020
1636 Clouds 29 1003 78 10000 4 100 11:38 11.06.2020
1637 Clouds 29 1003 78 10000 4 120 11:20 11.06.2020
1638 Clouds 30 1003 78 10000 4 120 10:57 11.06.2020
1639 Clouds 30 1003 78 10000 4 120 10:38 11.06.2020
1640 Clouds 30 1003 78 8000 4 130 10:18 11.06.2020
1641 Clouds 27 1003 83 7000 5 140 09:40 11.06.2020
1642 Clouds 27 1003 83 7000 5 140 09:22 11.06.2020
1643 Mist 27 1003 83 5000 4 150 08:44 11.06.2020
1644 Mist 30 1003 83 5000 3 50 08:20 11.06.2020
1645 Mist 31 1004 83 5000 4 40 07:42 11.06.2020
1646 Rain 29 1004 88 4000 4 20 07:24 11.06.2020
1647 Rain 30 1004 88 5000 4 10 06:40 11.06.2020
1648 Clouds 30 1004 83 7000 5 40 06:22 11.06.2020
1649 Clouds 31 1004 74 7000 2 340 05:28 11.06.2020
1650 Clouds 29 1005 83 6000 1 0 03:30 11.06.2020
1651 Mist 29 1005 88 3500 2 0 02:50 11.06.2020
1652 Mist 28 1005 88 3500 2 0 02:32 11.06.2020
1653 Mist 27 1005 88 2800 1 0 01:43 11.06.2020
1654 Mist 27 1005 94 2800 1 0 01:22 11.06.2020
1655 Mist 26 1005 100 2500 1 210 00:45 11.06.2020
1656 Mist 25 1004 100 2500 1 0 00:26 11.06.2020
1657 Mist 25 1004 100 3000 2 220 23:43 10.06.2020
1658 Mist 25 1004 100 3000 2 220 23:24 10.06.2020
1659 Mist 25 1004 100 3200 1 220 22:56 10.06.2020
1660 Mist 25 1004 100 3200 1 170 22:37 10.06.2020
1661 Mist 25 1004 100 3200 2 240 22:18 10.06.2020
1662 Mist 25 1004 100 3200 2 240 21:55 10.06.2020
1663 Mist 25 1004 100 3200 1 210 21:37 10.06.2020
1664 Mist 25 1004 100 3200 1 210 21:18 10.06.2020
1665 Mist 25 1004 100 3200 1 210 20:55 10.06.2020
1666 Mist 25 1004 100 3200 1 180 20:37 10.06.2020
1667 Mist 25 1004 100 3200 1 0 20:19 10.06.2020
1668 Mist 25 1004 100 3500 2 190 19:39 10.06.2020
1669 Mist 25 1004 100 4500 2 190 19:18 10.06.2020
1670 Mist 25 1004 100 5000 2 190 18:57 10.06.2020
1671 Mist 25 1004 100 5000 2 190 18:38 10.06.2020
1672 Clouds 25 1005 100 6000 2 200 18:19 10.06.2020
1673 Rain 25 1005 100 6000 1 0 17:55 10.06.2020
1674 Rain 25 1005 100 6000 1 0 17:36 10.06.2020
1675 Rain 25 1005 100 6000 2 130 17:18 10.06.2020
1676 Rain 25 1005 100 10000 2 160 16:41 10.06.2020
1677 Rain 26 1005 100 10000 2 160 16:22 10.06.2020
1678 Rain 26 1005 100 10000 2 160 16:22 10.06.2020
1679 Thunderstorm 26 1005 100 4000 5 200 15:59 10.06.2020
1680 Clouds 26 1005 88 10000 4 150 15:38 10.06.2020
1681 Clouds 26 1005 88 10000 4 150 15:20 10.06.2020
1682 Clouds 27 1004 88 10000 3 140 14:41 10.06.2020
1683 Clouds 27 1004 88 10000 3 140 14:22 10.06.2020
1684 Rain 27 1004 88 10000 3 140 13:58 10.06.2020
1685 Clouds 27 1004 83 10000 2 150 13:39 10.06.2020
1686 Rain 27 1003 83 10000 2 160 13:21 10.06.2020
1687 Rain 28 1003 83 10000 2 120 12:42 10.06.2020
1688 Clouds 28 1003 83 10000 2 210 12:20 10.06.2020
1689 Clouds 28 1003 83 10000 2 210 11:56 10.06.2020
1690 Clouds 28 1003 83 10000 1 0 11:38 10.06.2020
1691 Clouds 28 1003 83 10000 2 250 11:19 10.06.2020
1692 Clouds 28 1003 83 10000 2 250 11:19 10.06.2020
1693 Clouds 28 1003 83 10000 1 0 10:44 10.06.2020
1694 Clouds 28 1003 83 10000 1 0 10:25 10.06.2020
1695 Clouds 28 1004 83 10000 2 250 09:59 10.06.2020
1696 Clouds 28 1004 83 10000 2 250 09:39 10.06.2020
1697 Clouds 28 1004 88 8000 2 230 09:20 10.06.2020
1698 Clouds 28 1004 88 8000 2 230 09:20 10.06.2020
1699 Rain 28 1004 88 6000 2 0 08:43 10.06.2020
1700 Rain 28 1004 88 6000 2 240 08:23 10.06.2020
1701 Rain 28 1004 88 6000 1 0 07:43 10.06.2020
1702 Rain 28 1005 88 6000 1 0 07:24 10.06.2020
1703 Rain 27 1005 94 6000 1 0 06:59 10.06.2020
1704 Rain 27 1005 94 6000 1 0 06:39 10.06.2020
1705 Rain 27 1005 94 6000 1 0 06:18 10.06.2020
1706 Rain 27 1005 88 6000 1 0 05:51 10.06.2020
1707 Rain 27 1005 88 6000 2 280 05:19 10.06.2020
1708 Rain 27 1005 88 6000 2 230 04:29 10.06.2020
1709 Clouds 27 1006 88 6000 1 0 02:46 10.06.2020
1710 Mist 25 1006 94 5000 2 150 01:48 10.06.2020
1711 Mist 24 1006 94 5000 3 150 01:21 10.06.2020
1712 Clouds 24 1006 94 6000 3 140 00:38 10.06.2020
1713 Clouds 24 1005 94 7000 3 130 00:20 10.06.2020
1714 Clouds 24 1005 94 8000 2 120 23:42 09.06.2020
1715 Clouds 24 1005 94 8000 2 120 23:23 09.06.2020
1716 Clouds 24 1005 88 10000 2 130 22:57 09.06.2020
1717 Clouds 24 1005 88 10000 2 140 22:39 09.06.2020
1718 Clouds 24 1005 94 10000 2 160 22:20 09.06.2020
1719 Clouds 25 1005 94 10000 2 160 21:57 09.06.2020
1720 Clouds 25 1005 88 10000 2 120 21:39 09.06.2020
1721 Clouds 25 1005 88 10000 2 80 21:21 09.06.2020
1722 Clouds 25 1005 88 10000 2 80 20:58 09.06.2020
1723 Clouds 25 1006 88 10000 2 70 20:39 09.06.2020
1724 Clouds 25 1006 88 10000 2 100 20:21 09.06.2020
1725 Clouds 25 1006 88 10000 2 100 19:59 09.06.2020
1726 Clouds 25 1006 88 10000 2 100 19:39 09.06.2020
1727 Clouds 25 1006 88 10000 3 120 19:20 09.06.2020
1728 Clouds 25 1006 88 10000 3 120 18:58 09.06.2020
1729 Clouds 25 1007 94 10000 3 140 18:39 09.06.2020
1730 Clouds 25 1007 88 10000 3 130 18:21 09.06.2020
1731 Clouds 25 1007 88 10000 3 130 17:56 09.06.2020
1732 Clouds 24 1007 88 10000 4 110 17:37 09.06.2020
1733 Clouds 25 1007 83 10000 3 120 17:19 09.06.2020
1734 Clouds 25 1008 83 10000 3 100 16:43 09.06.2020
1735 Clouds 25 1008 83 10000 3 100 16:23 09.06.2020
1736 Clouds 25 1007 83 10000 3 130 15:57 09.06.2020
1737 Clouds 25 1007 83 10000 4 120 15:38 09.06.2020
1738 Clouds 25 1007 83 10000 4 120 15:20 09.06.2020
1739 Clouds 25 1007 83 10000 3 110 14:55 09.06.2020
1740 Clouds 25 1007 83 10000 4 110 14:36 09.06.2020
1741 Clouds 25 1006 83 10000 5 100 14:18 09.06.2020
1742 Clouds 26 1006 83 10000 4 110 13:42 09.06.2020
1743 Clouds 26 1006 78 10000 5 110 13:21 09.06.2020
1744 Clouds 26 1006 78 10000 5 110 12:58 09.06.2020
1745 Clouds 27 1006 74 10000 5 120 12:40 09.06.2020
1746 Clouds 27 1006 74 10000 6 110 12:18 09.06.2020
1747 Clouds 27 1006 74 10000 6 110 11:55 09.06.2020
1748 Clouds 28 1006 70 10000 5 100 11:36 09.06.2020
1749 Clouds 28 1006 70 10000 5 110 11:18 09.06.2020
1750 Clouds 28 1006 70 10000 4 120 10:43 09.06.2020
1751 Clouds 29 1006 70 10000 4 120 10:25 09.06.2020
1752 Clouds 29 1007 74 10000 5 150 09:44 09.06.2020
1753 Clouds 29 1007 74 10000 5 150 09:25 09.06.2020
1754 Clouds 29 1007 70 10000 3 120 08:57 09.06.2020
1755 Clouds 30 1007 74 10000 2 110 08:38 09.06.2020
1756 Clouds 28 1007 78 10000 4 140 08:20 09.06.2020
1757 Clouds 29 1008 74 10000 3 90 07:38 09.06.2020
1758 Clouds 29 1008 74 10000 3 130 07:20 09.06.2020
1759 Clouds 28 1008 78 10000 3 130 06:54 09.06.2020
1760 Clouds 27 1008 78 10000 3 130 06:34 09.06.2020
1761 Clouds 27 1009 78 10000 3 100 05:34 09.06.2020
1762 Clouds 26 1009 88 10000 2 110 03:21 09.06.2020
1763 Clouds 24 1009 94 10000 2 0 01:43 09.06.2020
1764 Clouds 24 1009 94 10000 2 0 01:19 09.06.2020
1765 Clouds 24 1009 100 7000 2 90 00:50 09.06.2020
1766 Clouds 23 1009 100 6000 3 100 00:21 09.06.2020
1767 Clouds 23 1009 100 6000 3 100 23:58 08.06.2020
1768 Clouds 23 1009 100 10000 2 110 23:38 08.06.2020
1769 Clouds 23 1008 100 10000 2 70 23:19 08.06.2020
1770 Clouds 23 1008 94 10000 4 110 22:42 08.06.2020
1771 Clouds 23 1008 94 10000 4 110 22:23 08.06.2020
1772 Clouds 23 1008 94 10000 4 110 21:58 08.06.2020
1773 Clouds 23 1008 94 10000 4 110 21:58 08.06.2020
1774 Clouds 24 1008 94 10000 3 110 21:40 08.06.2020
1775 Clouds 23 1009 94 10000 2 90 21:21 08.06.2020
1776 Clouds 24 1009 94 10000 2 90 20:57 08.06.2020
1777 Clouds 23 1009 100 10000 4 110 20:39 08.06.2020
1778 Rain 24 1009 94 6000 4 100 20:20 08.06.2020
1779 Rain 23 1009 100 6000 4 110 19:55 08.06.2020
1780 Rain 23 1009 100 6000 4 110 19:37 08.06.2020
1781 Clouds 23 1010 94 6000 5 110 19:18 08.06.2020
1782 Clouds 23 1010 94 6000 4 100 18:40 08.06.2020
1783 Rain 23 1010 94 5000 4 100 18:18 08.06.2020
1784 Rain 23 1010 94 5000 4 100 17:56 08.06.2020
1785 Rain 23 1010 94 5000 3 110 17:37 08.06.2020
1786 Clouds 24 1010 88 10000 5 100 17:19 08.06.2020
1787 Clouds 24 1011 88 10000 4 100 16:45 08.06.2020
1788 Clouds 24 1011 88 10000 4 100 16:25 08.06.2020
1789 Clouds 24 1011 83 10000 4 90 15:57 08.06.2020
1790 Clouds 24 1010 83 10000 3 110 15:39 08.06.2020
1791 Clouds 24 1010 83 10000 4 110 15:19 08.06.2020
1792 Clouds 24 1010 83 10000 5 100 14:42 08.06.2020
1793 Clouds 25 1010 83 10000 5 100 14:23 08.06.2020
1794 Clouds 25 1010 83 10000 5 100 13:56 08.06.2020
1795 Clouds 25 1009 74 10000 5 120 13:38 08.06.2020
1796 Clouds 25 1009 74 10000 6 110 13:19 08.06.2020
1797 Clouds 25 1009 74 10000 6 120 12:40 08.06.2020
1798 Clouds 27 1009 69 10000 5 110 12:19 08.06.2020
1799 Clouds 26 1009 69 10000 6 130 11:42 08.06.2020
1800 Clouds 28 1009 69 10000 6 130 11:24 08.06.2020
1801 Clouds 28 1009 69 10000 7 100 10:59 08.06.2020
1802 Clouds 28 1009 65 10000 7 120 10:40 08.06.2020
1803 Clouds 29 1009 65 10000 7 130 10:21 08.06.2020
1804 Clouds 29 1009 65 10000 7 130 09:59 08.06.2020
1805 Clouds 29 1009 62 10000 6 140 09:41 08.06.2020
1806 Clouds 30 1009 58 10000 6 120 09:23 08.06.2020
1807 Clouds 28 1009 62 10000 6 120 08:48 08.06.2020
1808 Clouds 29 1010 65 10000 6 120 08:23 08.06.2020
1809 Clouds 30 1010 65 10000 5 120 07:46 08.06.2020
1810 Clouds 28 1010 65 10000 6 140 07:24 08.06.2020
1811 Clouds 28 1010 65 10000 6 120 06:54 08.06.2020
1812 Clouds 28 1010 65 10000 6 120 06:35 08.06.2020
1813 Clouds 28 1011 74 10000 4 130 05:53 08.06.2020
1814 Clouds 26 1011 74 10000 6 110 04:32 08.06.2020
1815 Clouds 24 1011 78 10000 4 130 02:46 08.06.2020
1816 Clouds 24 1011 78 10000 4 130 02:21 08.06.2020
1817 Clouds 23 1011 83 10000 4 110 01:34 08.06.2020
1818 Clouds 23 1010 88 10000 3 100 00:33 08.06.2020
1819 Clouds 22 1010 88 10000 3 110 23:59 07.06.2020
1820 Clouds 22 1009 88 10000 4 100 23:37 07.06.2020
1821 Clouds 22 1010 88 10000 2 120 23:18 07.06.2020
1822 Clouds 22 1009 83 10000 3 100 22:40 07.06.2020
1823 Clouds 22 1009 83 10000 3 100 22:20 07.06.2020
1824 Clouds 22 1010 88 10000 3 90 21:59 07.06.2020
1825 Clouds 22 1010 88 10000 3 100 21:39 07.06.2020
1826 Clouds 22 1010 88 10000 3 100 21:20 07.06.2020
1827 Clouds 22 1009 88 10000 4 110 21:20 07.06.2020
1828 Clouds 22 1010 88 10000 3 100 21:20 07.06.2020
1829 Clouds 22 1009 88 10000 4 110 20:57 07.06.2020
1830 Clouds 22 1009 88 10000 4 110 20:38 07.06.2020
1831 Clouds 22 1009 88 10000 3 100 20:18 07.06.2020
1832 Clouds 22 1009 88 10000 3 100 19:55 07.06.2020
1833 Clouds 22 1009 88 10000 3 100 19:55 07.06.2020
1834 Clouds 22 1010 83 10000 4 100 19:37 07.06.2020
1835 Clouds 22 1010 83 10000 5 120 19:19 07.06.2020
1836 Clouds 22 1010 83 10000 4 110 18:54 07.06.2020
1837 Clouds 22 1010 83 10000 4 110 18:36 07.06.2020
1838 Clouds 22 1010 83 10000 4 110 18:18 07.06.2020
1839 Clouds 22 1010 83 10000 4 110 17:41 07.06.2020
1840 Clouds 22 1010 83 10000 4 110 17:22 07.06.2020
1841 Clouds 22 1011 83 10000 6 130 16:45 07.06.2020
1842 Clouds 22 1011 83 10000 6 130 16:23 07.06.2020
1843 Clouds 23 1011 83 10000 5 110 15:59 07.06.2020
1844 Clouds 23 1010 78 10000 4 130 15:36 07.06.2020
1845 Clouds 23 1010 78 10000 4 130 15:18 07.06.2020
1846 Clouds 23 1010 73 10000 4 140 14:38 07.06.2020
1847 Clouds 23 1010 73 10000 4 140 14:19 07.06.2020
1848 Clouds 24 1009 65 10000 5 130 13:46 07.06.2020
1849 Clouds 24 1009 65 10000 5 130 13:46 07.06.2020
1850 Clouds 24 1009 65 10000 5 130 13:46 07.06.2020
1851 Clouds 24 1009 65 10000 5 130 13:46 07.06.2020
1852 Clouds 26 1009 65 10000 5 120 13:20 07.06.2020
1853 Clouds 25 1009 61 10000 5 140 12:45 07.06.2020
1854 Clouds 27 1009 57 10000 6 140 12:26 07.06.2020
1855 Clouds 27 1009 57 10000 6 140 12:26 07.06.2020
1856 Clouds 26 1009 57 10000 6 140 11:56 07.06.2020
1857 Clouds 26 1009 57 10000 6 140 11:56 07.06.2020
1858 Clouds 26 1009 57 10000 6 140 11:56 07.06.2020
1859 Clouds 27 1009 54 10000 5 140 11:38 07.06.2020
1860 Clouds 27 1009 57 10000 6 130 11:20 07.06.2020
1861 Clouds 27 1009 57 10000 6 130 10:59 07.06.2020
1862 Clouds 28 1009 54 10000 5 130 10:40 07.06.2020
1863 Clouds 28 1009 54 10000 5 130 10:19 07.06.2020
1864 Clouds 28 1009 54 10000 6 150 09:56 07.06.2020
1865 Clouds 28 1009 58 10000 6 150 09:38 07.06.2020
1866 Clouds 28 1009 58 10000 6 150 09:19 07.06.2020
1867 Clouds 29 1009 54 10000 7 110 08:44 07.06.2020
1868 Clouds 29 1009 54 10000 7 110 08:23 07.06.2020
1869 Clouds 29 1009 54 10000 6 150 07:46 07.06.2020
1870 Clouds 28 1010 61 10000 5 140 07:28 07.06.2020
1871 Clouds 29 1010 61 10000 5 140 06:25 07.06.2020
1872 Clouds 27 1011 65 10000 5 120 05:34 07.06.2020
1873 Clouds 27 1011 69 10000 5 130 04:19 07.06.2020
1874 Clouds 25 1011 78 10000 5 120 02:30 07.06.2020
1875 Clouds 24 1010 83 10000 4 120 01:43 07.06.2020
1876 Clouds 23 1010 83 10000 4 120 01:24 07.06.2020
1877 Clouds 22 1010 88 10000 3 120 00:40 07.06.2020
1878 Clouds 21 1010 88 10000 2 130 00:18 07.06.2020
1879 Clouds 21 1010 88 10000 2 130 23:55 06.06.2020
1880 Clouds 21 1010 88 10000 1 100 23:36 06.06.2020
1881 Clouds 21 1010 88 10000 1 50 23:18 06.06.2020
1882 Clouds 20 1010 88 10000 1 50 22:55 06.06.2020
1883 Clouds 20 1010 88 10000 1 0 22:37 06.06.2020
1884 Clouds 21 1009 83 10000 2 130 22:18 06.06.2020
1885 Clouds 20 1009 94 10000 2 160 21:42 06.06.2020
1886 Clouds 20 1009 94 10000 2 160 21:21 06.06.2020
1887 Clouds 21 1009 88 10000 3 150 20:42 06.06.2020
1888 Clouds 21 1009 88 10000 3 150 20:21 06.06.2020
1889 Clouds 21 1009 88 10000 3 150 19:59 06.06.2020
1890 Clouds 21 1009 83 10000 2 160 19:41 06.06.2020
1891 Clouds 21 1009 88 10000 4 150 19:23 06.06.2020
1892 Clouds 21 1009 88 10000 4 150 18:59 06.06.2020
1893 Clouds 22 1010 83 10000 3 140 18:41 06.06.2020
1894 Clouds 22 1009 78 10000 4 140 18:22 06.06.2020
1895 Clouds 22 1009 78 10000 3 130 17:44 06.06.2020
1896 Clouds 22 1010 78 10000 4 130 17:21 06.06.2020
1897 Clouds 22 1010 78 10000 4 130 16:57 06.06.2020
1898 Clouds 22 1010 83 10000 2 150 16:39 06.06.2020
1899 Clear 22 1010 83 10000 2 150 16:20 06.06.2020
1900 Clear 22 1009 73 10000 4 130 15:45 06.06.2020
1901 Clouds 22 1009 73 10000 4 130 15:21 06.06.2020
1902 Clouds 23 1009 73 10000 4 130 14:59 06.06.2020
1903 Clouds 23 1008 69 10000 4 120 14:38 06.06.2020
1904 Clouds 23 1008 64 10000 4 100 14:19 06.06.2020
1905 Clouds 24 1008 61 10000 4 110 13:49 06.06.2020
1906 Clear 24 1008 69 10000 4 120 13:20 06.06.2020
1907 Clear 24 1008 69 10000 4 120 12:58 06.06.2020
1908 Clear 25 1008 65 10000 5 130 12:39 06.06.2020
1909 Clear 26 1008 65 10000 4 100 12:20 06.06.2020
1910 Clear 26 1008 65 10000 4 100 11:56 06.06.2020
1911 Clouds 27 1008 65 10000 4 100 11:37 06.06.2020
1912 Clouds 27 1008 69 10000 4 110 11:18 06.06.2020
1913 Clouds 27 1008 69 10000 4 110 10:56 06.06.2020
1914 Clouds 27 1008 69 10000 5 110 10:38 06.06.2020
1915 Clouds 27 1008 69 10000 6 80 10:19 06.06.2020
1916 Clouds 27 1008 69 10000 5 100 09:43 06.06.2020
1917 Clouds 27 1008 69 10000 5 100 09:24 06.06.2020
1918 Clouds 26 1008 69 10000 5 90 08:48 06.06.2020
1919 Clouds 27 1008 69 10000 5 90 08:25 06.06.2020
1920 Clouds 27 1008 61 10000 5 90 07:57 06.06.2020
1921 Clouds 26 1008 69 10000 4 120 07:38 06.06.2020
1922 Clouds 26 1008 69 10000 4 120 07:20 06.06.2020
1923 Clouds 26 1008 69 10000 5 60 06:44 06.06.2020
1924 Clouds 26 1008 69 10000 5 60 06:26 06.06.2020
1925 Clouds 25 1008 74 10000 4 70 05:44 06.06.2020
1926 Clouds 25 1008 74 10000 4 70 05:23 06.06.2020
1927 Clouds 25 1007 83 10000 6 30 03:46 06.06.2020
1928 Clouds 24 1007 83 10000 5 60 02:36 06.06.2020
1929 Clouds 23 1005 94 10000 3 70 01:23 06.06.2020
1930 Clouds 23 1005 88 10000 3 40 00:58 06.06.2020
1931 Clouds 22 1005 88 10000 3 40 00:40 06.06.2020
1932 Rain 22 1004 88 8000 5 70 00:21 06.06.2020
1933 Rain 21 1004 94 8000 5 70 23:40 05.06.2020
1934 Rain 21 1004 94 8000 5 70 23:20 05.06.2020
1935 Rain 21 1004 94 8000 3 50 22:56 05.06.2020
1936 Rain 21 1004 94 7000 5 50 22:38 05.06.2020
1937 Rain 21 1004 94 7000 5 50 22:19 05.06.2020
1938 Rain 21 1004 88 10000 5 30 21:43 05.06.2020
1939 Rain 22 1004 88 10000 5 30 21:23 05.06.2020
1940 Rain 22 1004 88 10000 5 30 21:23 05.06.2020
1941 Rain 22 1004 94 10000 3 30 20:58 05.06.2020
1942 Rain 22 1004 94 10000 4 30 20:40 05.06.2020
1943 Rain 22 1005 94 10000 4 10 20:21 05.06.2020
1944 Rain 22 1005 94 10000 3 30 19:44 05.06.2020
1945 Clouds 22 1005 94 10000 3 30 19:24 05.06.2020
1946 Clouds 22 1005 94 10000 2 60 18:58 05.06.2020
1947 Clouds 22 1005 88 10000 3 70 18:39 05.06.2020
1948 Clouds 22 1005 88 10000 2 60 18:20 05.06.2020
1949 Clouds 22 1005 88 10000 2 60 17:58 05.06.2020
1950 Clouds 22 1006 88 10000 2 60 17:39 05.06.2020
1951 Clouds 22 1006 88 10000 2 60 17:19 05.06.2020
1952 Clouds 21 1005 88 10000 4 120 16:39 05.06.2020
1953 Clouds 21 1005 88 10000 4 120 16:39 05.06.2020
1954 Rain 21 1004 88 10000 7 120 16:21 05.06.2020
1955 Rain 21 1004 88 10000 7 120 15:56 05.06.2020
1956 Rain 21 1004 88 10000 6 110 15:37 05.06.2020
1957 Rain 21 1004 88 10000 6 110 15:19 05.06.2020
1958 Rain 21 1004 88 10000 6 110 14:41 05.06.2020
1959 Rain 21 1004 88 10000 6 110 14:22 05.06.2020
1960 Rain 22 1004 88 10000 6 110 13:59 05.06.2020
1961 Rain 22 1004 94 10000 7 100 13:40 05.06.2020
1962 Rain 22 1004 94 10000 7 100 13:22 05.06.2020
1963 Rain 22 1004 94 8000 5 80 12:42 05.06.2020
1964 Rain 23 1005 94 8000 4 100 12:20 05.06.2020
1965 Rain 23 1005 94 8000 4 100 11:56 05.06.2020
1966 Rain 21 1004 94 10000 4 80 11:38 05.06.2020
1967 Rain 24 1004 94 10000 4 80 11:19 05.06.2020
1968 Thunderstorm 24 1004 94 10000 4 120 10:42 05.06.2020
1969 Thunderstorm 23 1004 94 10000 4 120 10:22 05.06.2020
1970 Thunderstorm 23 1004 94 10000 4 120 10:22 05.06.2020
1971 Rain 23 1004 94 10000 3 90 09:59 05.06.2020
1972 Rain 24 1004 88 10000 3 80 09:40 05.06.2020
1973 Rain 25 1004 88 10000 3 80 09:21 05.06.2020
1974 Rain 25 1005 88 10000 3 80 08:59 05.06.2020
1975 Rain 25 1005 88 10000 3 70 08:40 05.06.2020
1976 Rain 25 1005 88 10000 2 0 08:19 05.06.2020
1977 Rain 25 1005 88 10000 2 0 07:53 05.06.2020
1978 Rain 24 1005 88 10000 4 110 07:34 05.06.2020
1979 Rain 22 1005 88 10000 4 90 06:50 05.06.2020
1980 Rain 23 1006 88 10000 7 120 05:23 05.06.2020
1981 Rain 24 1005 94 10000 3 100 04:31 05.06.2020
1982 Rain 24 1005 83 10000 5 80 03:38 05.06.2020
1983 Rain 23 1006 88 10000 3 60 02:30 05.06.2020
1984 Rain 23 1006 94 4000 3 70 01:59 05.06.2020
1985 Rain 23 1005 100 2200 4 10 01:33 05.06.2020
1986 Mist 24 1005 94 4000 1 0 00:46 05.06.2020
1987 Rain 24 1004 94 6000 2 110 00:22 05.06.2020
1988 Rain 24 1004 94 6000 2 110 23:58 04.06.2020
1989 Rain 25 1004 94 6000 2 140 23:40 04.06.2020
1990 Rain 24 1004 94 6000 2 140 23:21 04.06.2020
1991 Clouds 25 1004 88 10000 2 140 22:42 04.06.2020
1992 Clouds 25 1004 88 10000 3 150 22:21 04.06.2020
1993 Clouds 25 1004 88 10000 3 150 21:58 04.06.2020
1994 Clouds 25 1004 88 10000 3 150 21:58 04.06.2020
1995 Clouds 25 1004 88 10000 3 150 21:38 04.06.2020
1996 Clouds 25 1004 88 10000 3 160 21:20 04.06.2020
1997 Clouds 25 1004 88 10000 3 160 20:57 04.06.2020
1998 Clouds 25 1005 88 10000 2 150 20:38 04.06.2020
1999 Clouds 25 1005 88 10000 2 150 20:19 04.06.2020
2000 Clouds 25 1005 88 10000 3 160 19:55 04.06.2020
2001 Clouds 25 1005 88 10000 3 160 19:36 04.06.2020
2002 Clouds 25 1006 88 10000 3 180 19:18 04.06.2020
2003 Clouds 25 1006 83 10000 3 180 18:38 04.06.2020
2004 Clouds 25 1006 83 10000 3 180 18:38 04.06.2020
2005 Clouds 26 1006 78 10000 4 180 18:20 04.06.2020
2006 Clouds 26 1006 78 10000 4 180 18:20 04.06.2020
2007 Clouds 26 1006 78 10000 4 190 17:44 04.06.2020
2008 Clouds 26 1006 78 10000 4 190 17:23 04.06.2020
2009 Clouds 26 1006 88 10000 3 190 16:58 04.06.2020
2010 Clouds 26 1006 83 10000 3 180 16:40 04.06.2020
2011 Clouds 26 1005 83 10000 3 180 16:20 04.06.2020
2012 Clouds 26 1005 83 10000 3 150 15:44 04.06.2020
2013 Clear 26 1005 83 10000 3 150 15:26 04.06.2020
2014 Clear 27 1004 83 10000 3 170 14:42 04.06.2020
2015 Clouds 27 1004 74 10000 3 180 14:22 04.06.2020
2016 Clouds 27 1004 74 10000 3 180 13:58 04.06.2020
2017 Clouds 28 1004 78 10000 3 180 13:40 04.06.2020
2018 Clouds 28 1004 74 10000 3 200 13:20 04.06.2020
2019 Clouds 28 1004 74 10000 3 200 12:58 04.06.2020
2020 Clouds 29 1004 70 10000 4 190 12:40 04.06.2020
2021 Clouds 29 1004 70 10000 4 190 12:40 04.06.2020
2022 Clouds 29 1003 66 10000 3 200 12:21 04.06.2020
2023 Clouds 30 1003 66 10000 3 200 11:54 04.06.2020
2024 Clouds 31 1004 66 10000 3 210 11:36 04.06.2020
2025 Clouds 31 1004 58 10000 2 190 11:18 04.06.2020
2026 Clouds 32 1004 58 10000 1 0 10:39 04.06.2020
2027 Clouds 32 1004 66 10000 3 160 10:21 04.06.2020
2028 Clouds 32 1004 66 10000 3 160 09:56 04.06.2020
2029 Clouds 32 1004 62 10000 2 200 09:37 04.06.2020
2030 Clouds 31 1004 66 10000 2 210 09:18 04.06.2020
2031 Clouds 31 1004 62 10000 2 210 08:38 04.06.2020
2032 Clouds 30 1004 62 10000 2 210 08:20 04.06.2020
2033 Clouds 31 1004 66 10000 2 180 07:32 04.06.2020
2034 Clouds 30 1005 70 10000 2 230 06:57 04.06.2020
2035 Clouds 30 1005 66 10000 2 0 06:39 04.06.2020
2036 Clouds 30 1005 66 10000 2 0 06:18 04.06.2020
2037 Clouds 29 1005 74 10000 2 200 05:33 04.06.2020
2038 Clouds 27 1005 88 10000 3 230 03:37 04.06.2020
2039 Clouds 26 1005 83 10000 3 0 02:21 04.06.2020
2040 Clouds 25 1004 94 7000 1 200 01:21 04.06.2020
2041 Clouds 24 1004 94 7000 1 200 00:59 04.06.2020
2042 Clouds 23 1003 100 7000 1 200 23:58 03.06.2020
2043 Clouds 23 1003 94 7000 1 200 23:36 03.06.2020
2044 Clouds 23 1003 94 7000 1.25 221 23:18 03.06.2020
2045 Mist 23 1003 94 5000 1 160 22:40 03.06.2020
2046 Mist 23 1003 94 5000 1 180 22:19 03.06.2020
2047 Mist 23 1003 94 5000 1 180 21:59 03.06.2020
2048 Mist 23 1003 94 5000 1 180 21:59 03.06.2020
2049 Mist 23 1003 94 5000 2 200 21:40 03.06.2020
2050 Mist 23 1003 94 5000 2 200 21:22 03.06.2020
2051 Mist 23 1003 94 5000 2 200 21:21 03.06.2020
2052 Mist 23 1003 94 5000 1 210 20:58 03.06.2020
2053 Mist 23 1003 94 5000 1 0 20:39 03.06.2020
2054 Clouds 23 1003 94 7000 2 230 20:20 03.06.2020
2055 Clouds 23 1003 94 10000 2 220 19:57 03.06.2020
2056 Clouds 23 1003 94 10000 2 220 19:37 03.06.2020
2057 Clouds 23 1003 94 10000 2 220 19:37 03.06.2020
2058 Clouds 23 1003 94 10000 2 220 19:37 03.06.2020
2059 Clouds 23 1003 94 10000 2 230 19:19 03.06.2020
2060 Clouds 23 1003 94 10000 2 250 18:55 03.06.2020
2061 Clouds 23 1003 94 10000 2 250 18:37 03.06.2020
2062 Clouds 23 1003 94 10000 2 210 18:18 03.06.2020
2063 Clouds 23 1004 88 10000 2 0 17:42 03.06.2020
2064 Clouds 23 1004 88 10000 2 0 17:21 03.06.2020
2065 Clouds 23 1004 94 10000 2 220 16:55 03.06.2020
2066 Clouds 23 1004 88 10000 2 200 16:37 03.06.2020
2067 Clouds 23 1004 88 10000 2 200 16:37 03.06.2020
2068 Clouds 23 1004 94 10000 2 210 16:18 03.06.2020
2069 Clouds 23 1004 94 10000 3 190 15:41 03.06.2020
2070 Clouds 23 1004 94 10000 3 190 15:21 03.06.2020
2071 Clouds 23 1004 94 10000 3 0 14:57 03.06.2020
2072 Clouds 23 1003 94 10000 2 210 14:37 03.06.2020
2073 Clouds 23 1003 94 10000 1 0 14:19 03.06.2020
2074 Clouds 23 1003 94 10000 1 0 13:38 03.06.2020
2075 Clouds 23 1003 88 10000 2 0 13:19 03.06.2020
2076 Clouds 24 1002 94 10000 2 0 12:43 03.06.2020
2077 Clouds 24 1002 94 10000 2 190 12:22 03.06.2020
2078 Rain 24 1002 100 10000 2 190 11:47 03.06.2020
2079 Rain 24 1002 100 10000 2 190 11:27 03.06.2020
2080 Rain 24 1002 100 10000 3 210 10:58 03.06.2020
2081 Rain 24 1002 94 7000 4 220 10:39 03.06.2020
2082 Rain 24 1002 94 7000 4 220 10:21 03.06.2020
2083 Rain 25 1002 88 10000 3 250 09:44 03.06.2020
2084 Rain 26 1002 88 10000 3 250 09:20 03.06.2020
2085 Rain 26 1002 78 10000 5 240 08:56 03.06.2020
2086 Rain 27 1002 69 10000 4 230 08:36 03.06.2020
2087 Clouds 28 1002 66 10000 2 250 08:18 03.06.2020
2088 Clouds 27 1003 66 10000 2 0 07:42 03.06.2020
2089 Clouds 27 1003 66 10000 2 0 07:20 03.06.2020
2090 Clouds 27 1003 69 10000 2 220 06:50 03.06.2020
2091 Clouds 27 1003 69 10000 2 220 06:30 03.06.2020
2092 Clouds 26 1004 74 10000 4 360 05:46 03.06.2020
2093 Clouds 27 1004 78 10000 5 340 04:46 03.06.2020
2094 Clouds 26 1004 78 10000 5 290 03:50 03.06.2020
2095 Clouds 26 1004 88 10000 5 240 02:47 03.06.2020
2096 Clouds 26 1003 88 10000 5 210 01:51 03.06.2020
2097 Clouds 25 1002 94 10000 5 200 00:43 03.06.2020
2098 Clouds 25 1002 94 10000 5 200 00:24 03.06.2020
2099 Rain 25 1002 94 10000 4 210 23:51 02.06.2020
2100 Rain 26 1002 94 10000 4 210 23:28 02.06.2020
2101 Rain 26 1002 94 10000 4 190 22:56 02.06.2020
2102 Rain 26 1002 88 10000 4 180 22:38 02.06.2020
2103 Rain 26 1002 88 10000 4 170 22:18 02.06.2020
2104 Rain 26 1002 88 10000 4 170 21:56 02.06.2020
2105 Rain 27 1002 83 10000 2 180 21:37 02.06.2020
2106 Rain 27 1002 83 10000 2 180 21:19 02.06.2020
2107 Rain 27 1002 78 10000 2 180 20:55 02.06.2020
2108 Rain 27 1003 78 10000 2 170 20:36 02.06.2020
2109 Rain 27 1003 78 10000 2 180 20:18 02.06.2020
2110 Rain 27 1003 78 10000 2 150 19:41 02.06.2020
2111 Rain 27 1003 78 10000 2 150 19:41 02.06.2020
2112 Rain 27 1004 78 10000 1 0 19:23 02.06.2020
2113 Rain 27 1004 78 10000 2 190 18:56 02.06.2020
2114 Rain 27 1004 78 10000 2 190 18:37 02.06.2020
2115 Clouds 27 1005 78 10000 2 190 18:19 02.06.2020
2116 Clouds 27 1005 78 10000 2 190 17:42 02.06.2020
2117 Clouds 28 1005 78 10000 2 190 17:23 02.06.2020
2118 Clouds 28 1005 78 10000 3 190 16:57 02.06.2020
2119 Clouds 28 1005 74 10000 3 200 16:38 02.06.2020
2120 Clouds 28 1005 74 10000 3 200 16:20 02.06.2020
2121 Clouds 28 1005 74 10000 4 210 15:46 02.06.2020
2122 Clouds 28 1005 74 10000 4 210 15:24 02.06.2020
2123 Clouds 28 1004 74 10000 5 200 14:50 02.06.2020
2124 Clouds 28 1004 74 10000 4 200 14:31 02.06.2020
2125 Clouds 29 1004 66 10000 4 200 13:58 02.06.2020
2126 Clouds 29 1003 66 10000 6 190 13:39 02.06.2020
2127 Clouds 30 1003 66 10000 6 190 13:19 02.06.2020
2128 Clouds 29 1003 66 10000 6 190 12:58 02.06.2020
2129 Clouds 30 1003 62 10000 5 190 12:40 02.06.2020
2130 Clouds 31 1003 46 10000 3 230 12:20 02.06.2020
2131 Clouds 31 1003 46 10000 3 230 12:20 02.06.2020
2132 Clouds 31 1003 46 10000 3 230 11:55 02.06.2020
2133 Clouds 32 1003 46 10000 3 0 11:37 02.06.2020
2134 Clouds 32 1003 46 10000 3 0 11:18 02.06.2020
2135 Clouds 33 1003 49 10000 3 240 10:46 02.06.2020
2136 Clouds 34 1003 49 10000 3 240 10:28 02.06.2020
2137 Clouds 34 1003 52 10000 3 230 09:55 02.06.2020
2138 Clouds 33 1003 52 10000 3 250 09:36 02.06.2020
2139 Clouds 33 1004 49 10000 4 250 09:18 02.06.2020
2140 Clouds 33 1004 49 10000 3 260 08:45 02.06.2020
2141 Clouds 33 1004 55 10000 3 0 08:20 02.06.2020
2142 Clouds 32 1005 55 10000 3 0 07:39 02.06.2020
2143 Clouds 32 1005 58 10000 3 0 07:20 02.06.2020
2144 Clouds 32 1005 58 10000 2 0 06:43 02.06.2020
2145 Clouds 29 1006 58 10000 3 260 05:46 02.06.2020
2146 Clouds 28 1006 65 10000 3 190 04:54 02.06.2020
2147 Clouds 26 1007 69 10000 3 200 03:20 02.06.2020
2148 Clouds 24 1007 78 10000 3 180 02:19 02.06.2020
2149 Clouds 23 1007 83 10000 4 160 00:53 02.06.2020
2150 Clouds 22 1006 83 10000 4 150 00:22 02.06.2020
2151 Clouds 22 1006 83 10000 4 150 23:39 01.06.2020
2152 Clouds 22 1006 83 10000 4 150 23:21 01.06.2020
2153 Clouds 22 1006 78 10000 4 160 22:59 01.06.2020
2154 Clouds 22 1007 78 10000 4 150 22:39 01.06.2020
2155 Clouds 22 1007 78 10000 4 150 22:39 01.06.2020
2156 Clouds 22 1007 78 10000 4 150 22:19 01.06.2020
2157 Clouds 22 1007 78 10000 4 150 22:19 01.06.2020
2158 Clouds 22 1007 78 10000 4 160 21:55 01.06.2020
2159 Clouds 22 1007 78 10000 4 160 21:36 01.06.2020
2160 Clouds 22 1008 78 10000 4 160 21:18 01.06.2020
2161 Clouds 23 1008 73 10000 5 150 20:43 01.06.2020
2162 Clouds 23 1008 73 10000 5 150 20:21 01.06.2020
2163 Clouds 23 1008 73 10000 5 150 20:21 01.06.2020
2164 Clouds 23 1008 73 10000 5 150 19:59 01.06.2020
2165 Clouds 23 1008 73 10000 4 160 19:41 01.06.2020
2166 Clouds 23 1009 78 10000 4 160 19:20 01.06.2020
2167 Clouds 23 1009 78 10000 4 160 19:20 01.06.2020
2168 Clouds 23 1009 78 10000 3 160 18:58 01.06.2020
2169 Clouds 23 1009 78 10000 3 160 18:38 01.06.2020
2170 Clouds 24 1009 73 10000 3 160 18:19 01.06.2020
2171 Clouds 24 1010 73 10000 5 160 17:41 01.06.2020
2172 Clear 24 1010 69 10000 5 150 17:21 01.06.2020
2173 Clear 24 1010 69 10000 5 150 16:58 01.06.2020
2174 Clear 25 1010 69 10000 5 160 16:39 01.06.2020
2175 Clear 24 1010 69 10000 4 160 16:19 01.06.2020
2176 Clear 25 1010 69 10000 4 160 15:54 01.06.2020
2177 Clear 25 1010 73 10000 6 150 15:36 01.06.2020
2178 Clear 25 1009 69 10000 5 150 15:18 01.06.2020
2179 Clear 26 1009 69 10000 6 150 14:41 01.06.2020
2180 Clear 26 1009 65 10000 5 150 14:23 01.06.2020
2181 -273 0 0 0 0 0 13:58 01.06.2020
2182 Clear 27 1009 65 10000 5 150 13:39 01.06.2020
2183 Clear 27 1009 65 10000 5 150 13:20 01.06.2020
2184 Clear 28 1009 61 10000 5 140 12:57 01.06.2020
2185 Clear 28 1009 51 10000 5 140 12:39 01.06.2020
2186 Clear 29 1009 51 10000 5 140 12:20 01.06.2020
2187 Clear 30 1009 48 10000 5 170 11:41 01.06.2020
2188 Clear 30 1009 48 10000 5 170 11:23 01.06.2020
2189 Clear 31 1008 45 10000 6 140 10:59 01.06.2020
2190 Clear 31 1009 48 10000 6 160 10:39 01.06.2020
2191 Clear 31 1009 48 10000 6 160 10:20 01.06.2020
2192 Clear 31 1009 51 10000 6 160 09:56 01.06.2020
2193 Clear 31 1009 45 10000 5 140 09:37 01.06.2020
2194 Clear 31 1009 45 10000 5 140 09:19 01.06.2020
2195 Clear 31 1010 48 10000 5 140 08:45 01.06.2020
2196 Clouds 31 1010 48 10000 5 140 08:25 01.06.2020
2197 Clouds 31 1011 51 10000 6 160 07:45 01.06.2020
2198 Clouds 31 1011 51 10000 5 160 07:27 01.06.2020
2199 Clouds 31 1011 51 10000 5 160 06:54 01.06.2020
2200 Clouds 30 1012 51 10000 4 160 06:20 01.06.2020
2201 Clouds 30 1012 55 10000 5 150 05:50 01.06.2020
2202 Clouds 30 1012 58 7000 4 150 04:23 01.06.2020
2203 Clouds 28 1011 69 7000 4 170 03:45 01.06.2020
2204 Clouds 26 1011 74 7000 4 160 03:18 01.06.2020
2205 Clouds 24 1012 83 6000 3 150 01:47 01.06.2020
2206 Clouds 24 1012 83 6000 3 150 01:28 01.06.2020
2207 Clouds 24 1011 88 6000 3 160 00:57 01.06.2020
2208 Clouds 23 1011 88 6000 2 130 00:39 01.06.2020
2209 Clouds 23 1011 88 6000 2 130 00:20 01.06.2020
2210 Mist 23 1011 83 4000 1 140 23:55 31.05.2020
2211 Mist 23 1011 83 4000 1 140 23:55 31.05.2020
2212 Mist 23 1011 83 4000 2 140 23:36 31.05.2020
2213 Clouds 23 1011 88 6000 3 160 23:18 31.05.2020
2214 Clouds 23 1010 88 6000 3 150 22:42 31.05.2020
2215 Clouds 23 1010 88 6000 3 150 22:42 31.05.2020
2216 Clouds 23 1010 88 6000 3 150 22:24 31.05.2020
2217 Clouds 23 1010 88 6000 3 160 21:58 31.05.2020
2218 Mist 23 1010 94 5000 2 170 21:39 31.05.2020
2219 Mist 23 1010 94 5000 2 170 21:21 31.05.2020
2220 Clouds 23 1010 88 6000 2 120 20:48 31.05.2020
2221 Clouds 23 1010 88 6000 2 120 20:25 31.05.2020
2222 Clouds 23 1010 88 6000 1 0 19:57 31.05.2020
2223 Clouds 23 1010 88 8000 1 0 19:38 31.05.2020
2224 Clouds 23 1010 88 8000 1 0 19:20 31.05.2020
2225 Clouds 23 1010 88 8000 2 160 18:56 31.05.2020
2226 Clouds 23 1010 83 8000 2 170 18:37 31.05.2020
2227 Clouds 24 1011 83 8000 2 160 18:19 31.05.2020
2228 Clouds 24 1011 83 8000 2 140 17:42 31.05.2020
2229 Clouds 24 1011 83 8000 2 140 17:24 31.05.2020
2230 Clouds 24 1011 69 10000 3 120 16:42 31.05.2020
2231 Clouds 25 1011 69 10000 3 120 16:22 31.05.2020
2232 Clouds 25 1011 69 10000 1 0 15:56 31.05.2020
2233 Clouds 25 1011 69 10000 2 20 15:37 31.05.2020
2234 Clouds 25 1011 69 10000 2 290 15:18 31.05.2020
2235 Clouds 25 1010 69 10000 1 0 14:41 31.05.2020
2236 Clouds 25 1010 69 10000 1 0 14:19 31.05.2020
2237 Clouds 26 1010 65 10000 2 260 13:55 31.05.2020
2238 Clouds 26 1010 65 10000 2 260 13:55 31.05.2020
2239 Clouds 26 1010 65 10000 2 290 13:37 31.05.2020
2240 Clouds 26 1010 65 10000 2 290 13:37 31.05.2020
2241 Clouds 28 1009 65 10000 3 290 13:19 31.05.2020
2242 Clouds 26 1009 61 10000 3 300 12:43 31.05.2020
2243 Clouds 28 1009 61 10000 3 300 12:24 31.05.2020
2244 Clouds 27 1009 61 10000 2 270 11:55 31.05.2020
2245 Clouds 27 1009 61 10000 3 250 11:36 31.05.2020
2246 Clouds 29 1009 58 10000 4 260 11:18 31.05.2020
2247 Clouds 28 1009 58 10000 3 330 10:43 31.05.2020
2248 Clouds 29 1009 58 10000 3 330 10:25 31.05.2020
2249 Clouds 29 1009 58 10000 3 330 10:25 31.05.2020
2250 Clouds 29 1009 54 10000 3 300 09:58 31.05.2020
2251 Clouds 29 1010 54 10000 4 300 09:40 31.05.2020
2252 Clouds 29 1010 54 10000 4 300 09:20 31.05.2020
2253 Clouds 28 1010 61 10000 3 290 08:42 31.05.2020
2254 Clouds 29 1010 61 10000 3 290 08:23 31.05.2020
2255 Clouds 28 1010 65 10000 2 0 07:48 31.05.2020
2256 Clouds 28 1010 65 10000 2 0 07:22 31.05.2020
2257 Clouds 28 1011 69 10000 3 360 06:57 31.05.2020
2258 Clouds 27 1011 65 10000 2 280 06:34 31.05.2020
2259 Clouds 27 1012 69 10000 3 0 05:49 31.05.2020
2260 Clouds 26 1012 69 10000 4 0 05:31 31.05.2020
2261 Clouds 25 1012 73 8000 3 340 03:57 31.05.2020
2262 Clouds 23 1012 78 8000 3 330 03:22 31.05.2020
2263 Mist 23 1012 83 5000 3 310 02:44 31.05.2020
2264 Mist 21 1012 94 2800 4 290 01:45 31.05.2020
2265 Mist 20 1011 94 2600 3 290 00:37 31.05.2020
2266 Mist 20 1011 100 2500 2 250 00:19 31.05.2020
2267 Mist 19 1010 100 4000 2 260 23:41 30.05.2020
2268 Mist 19 1010 100 4000 2 260 23:23 30.05.2020
2269 Mist 20 1010 94 4200 2 320 22:42 30.05.2020
2270 Mist 20 1010 94 4200 2 320 22:23 30.05.2020
2271 Mist 20 1010 94 4200 3 310 21:58 30.05.2020
2272 Mist 20 1010 94 4500 2 310 21:40 30.05.2020
2273 Mist 20 1010 94 4500 2 310 21:22 30.05.2020
2274 Mist 20 1010 94 5000 2 320 20:57 30.05.2020
2275 Mist 20 1010 94 5000 2 320 20:39 30.05.2020
2276 Mist 20 1010 94 5000 2 320 20:21 30.05.2020
2277 Mist 20 1010 100 5000 2 290 19:44 30.05.2020
2278 Mist 20 1010 100 5000 2 290 19:22 30.05.2020
2279 Mist 20 1010 100 5000 2 300 18:59 30.05.2020
2280 Mist 20 1010 100 5000 2 310 18:40 30.05.2020
2281 Mist 20 1010 100 5000 2 310 18:18 30.05.2020
2282 Rain 20 1011 100 5000 2 320 17:40 30.05.2020
2283 Rain 20 1011 100 5000 2 320 17:22 30.05.2020
2284 Clouds 20 1010 100 6000 1 0 16:45 30.05.2020
2285 Clouds 20 1010 100 6000 1 0 16:24 30.05.2020
2286 Clouds 20 1010 100 6000 1 0 16:24 30.05.2020
2287 Clouds 20 1010 100 6000 1 0 15:59 30.05.2020
2288 Clouds 20 1010 94 10000 1 0 15:41 30.05.2020
2289 Clouds 20 1010 94 10000 1 0 15:41 30.05.2020
2290 Clouds 20 1010 94 10000 1 0 15:22 30.05.2020
2291 Clouds 20 1009 94 10000 2 120 14:43 30.05.2020
2292 Clouds 20 1009 94 7000 3 110 14:23 30.05.2020
2293 Clouds 20 1009 94 7000 4 120 13:43 30.05.2020
2294 Clouds 20 1009 94 7000 4 120 13:22 30.05.2020
2295 Rain 19 1009 100 6000 2 90 12:42 30.05.2020
2296 Rain 20 1009 94 6000 2 100 12:20 30.05.2020
2297 Rain 20 1009 94 6000 2 100 11:57 30.05.2020
2298 Clouds 20 1009 94 10000 3 110 11:39 30.05.2020
2299 Clouds 20 1009 94 10000 3 110 11:20 30.05.2020
2300 Rain 19 1009 94 10000 4 120 10:40 30.05.2020
2301 Rain 19 1009 94 10000 4 120 10:21 30.05.2020
2302 Rain 19 1010 93 10000 5 130 09:48 30.05.2020
2303 Rain 19 1010 93 10000 5 130 09:30 30.05.2020
2304 Rain 19 1010 93 10000 5 130 09:30 30.05.2020
2305 Rain 19 1010 93 7000 5 120 08:47 30.05.2020
2306 Rain 19 1010 93 7000 5 120 08:28 30.05.2020
2307 Rain 19 1011 93 10000 5 120 07:45 30.05.2020
2308 Rain 19 1011 93 10000 5 110 07:23 30.05.2020
2309 Rain 18 1011 93 10000 6 100 06:39 30.05.2020
2310 Rain 18 1011 93 10000 6 100 06:20 30.05.2020
2311 Rain 19 1012 93 10000 4 120 05:49 30.05.2020
2312 Rain 18 1012 88 10000 5 110 03:39 30.05.2020
2313 Rain 19 1012 82 10000 5 120 02:30 30.05.2020
2314 Clouds 19 1012 82 10000 5 110 01:46 30.05.2020
2315 Clouds 19 1012 82 10000 4 100 00:38 30.05.2020
2316 Rain 19 1012 82 10000 5 100 00:19 30.05.2020
2317 Rain 18 1012 82 10000 5 100 23:55 29.05.2020
2318 Rain 18 1011 77 10000 6 100 23:36 29.05.2020
2319 Rain 18 1011 77 10000 6 110 23:18 29.05.2020
2320 Rain 17 1011 88 10000 9 140 22:40 29.05.2020
2321 Rain 17 1011 88 10000 9 140 22:19 29.05.2020
2322 Rain 18 1012 82 10000 9 130 21:58 29.05.2020
2323 Rain 17 1012 77 10000 7 120 21:36 29.05.2020
2324 Rain 17 1012 77 10000 10 130 21:18 29.05.2020
2325 Rain 17 1012 82 10000 8 130 20:44 29.05.2020
2326 Rain 16 1012 82 10000 11 130 20:20 29.05.2020
2327 Rain 16 1012 82 10000 11 130 19:56 29.05.2020
2328 Rain 16 1013 93 10000 7 140 19:37 29.05.2020
2329 Rain 17 1013 93 10000 7 120 19:19 29.05.2020
2330 Rain 17 1014 82 10000 8 130 18:44 29.05.2020
2331 Rain 19 1014 82 10000 7 120 18:19 29.05.2020
2332 Rain 20 1014 88 10000 5 110 17:41 29.05.2020
2333 Rain 18 1014 88 10000 5 110 17:22 29.05.2020
2334 Rain 19 1015 88 10000 5 120 16:59 29.05.2020
2335 Rain 19 1015 88 10000 5 120 16:58 29.05.2020
2336 Rain 19 1014 77 10000 6 120 16:40 29.05.2020
2337 Rain 20 1014 77 10000 6 120 16:22 29.05.2020
2338 Rain 20 1014 77 10000 6 120 15:54 29.05.2020
2339 Rain 20 1014 82 10000 5 120 15:36 29.05.2020
2340 Rain 20 1014 73 10000 6 130 15:18 29.05.2020
2341 Rain 20 1014 73 10000 6 130 15:18 29.05.2020
2342 Rain 21 1014 78 10000 4 140 14:39 29.05.2020
2343 Rain 21 1014 78 10000 4 140 14:20 29.05.2020
2344 Rain 22 1013 73 10000 5 130 13:43 29.05.2020
2345 Rain 22 1013 73 10000 5 130 13:24 29.05.2020
2346 Rain 23 1013 73 10000 5 110 12:58 29.05.2020
2347 Rain 23 1013 73 10000 3 100 12:40 29.05.2020
2348 Rain 23 1013 73 10000 3 90 12:21 29.05.2020
2349 Rain 24 1013 73 10000 3 100 11:44 29.05.2020
2350 Rain 24 1013 73 10000 3 100 11:26 29.05.2020
2351 Rain 24 1012 61 10000 3 110 10:56 29.05.2020
2352 Rain 25 1013 61 10000 3 100 10:36 29.05.2020
2353 Rain 25 1013 54 10000 3 100 10:18 29.05.2020
2354 Rain 25 1013 50 10000 2 110 09:42 29.05.2020
2355 Rain 26 1013 50 10000 2 110 09:19 29.05.2020
2356 Clouds 26 1012 50 10000 4 130 08:48 29.05.2020
2357 Clouds 26 1012 50 10000 4 130 08:26 29.05.2020
2358 Clouds 26 1012 50 10000 5 140 07:58 29.05.2020
2359 Clouds 26 1012 54 10000 3 120 07:37 29.05.2020
2360 Clouds 26 1012 57 10000 4 130 07:18 29.05.2020
2361 Clouds 26 1012 51 10000 5 140 06:46 29.05.2020
2362 Clouds 27 1012 51 10000 5 140 06:26 29.05.2020
2363 Clouds 27 1013 57 10000 3 120 05:45 29.05.2020
2364 Clouds 24 1013 69 7000 3 130 02:35 29.05.2020
2365 Clouds 23 1012 78 6000 4 160 01:28 29.05.2020
2366 Clouds 23 1012 78 6000 3 160 00:54 29.05.2020
2367 Clouds 23 1012 78 6000 3 160 00:33 29.05.2020
2368 Clouds 23 1012 78 6000 3 140 23:58 28.05.2020
2369 Clouds 22 1012 78 6000 2 130 23:39 28.05.2020
2370 Clouds 23 1012 78 6000 3 140 23:18 28.05.2020
2371 Clouds 22 1012 78 6000 3 140 22:42 28.05.2020
2372 Clouds 22 1012 78 6000 3 140 22:24 28.05.2020
2373 Clouds 22 1011 78 6000 3 130 21:56 28.05.2020
2374 Mist 22 1011 83 5000 2 140 21:38 28.05.2020
2375 Mist 22 1011 83 5000 2 140 21:19 28.05.2020
2376 Mist 22 1011 83 5000 3 130 21:19 28.05.2020
2377 Mist 22 1011 83 5000 3 130 20:56 28.05.2020
2378 Mist 22 1012 83 3500 3 130 20:37 28.05.2020
2379 Mist 24 1012 83 3500 3 110 20:18 28.05.2020
2380 Mist 24 1012 83 3500 3 110 20:18 28.05.2020
2381 Mist 23 1012 83 5000 3 110 19:43 28.05.2020
2382 Clouds 23 1012 78 10000 3 120 19:21 28.05.2020
2383 Clouds 23 1012 78 10000 3 120 18:57 28.05.2020
2384 Clouds 24 1012 69 10000 2 110 18:39 28.05.2020
2385 Clouds 24 1012 53 10000 2 100 18:21 28.05.2020
2386 Clouds 24 1012 53 10000 2 110 17:41 28.05.2020
2387 Clouds 24 1012 53 10000 2 110 17:41 28.05.2020
2388 Clouds 24 1012 53 10000 2 110 17:22 28.05.2020
2389 Clouds 25 1012 47 10000 2 80 16:56 28.05.2020
2390 Clouds 25 1012 47 10000 1 0 16:37 28.05.2020
2391 Clouds 25 1012 50 10000 2 0 16:18 28.05.2020
2392 Clouds 25 1012 50 10000 3 160 15:42 28.05.2020
2393 Clouds 27 1012 50 10000 3 160 15:23 28.05.2020
2394 Clouds 28 1011 50 10000 3 140 14:44 28.05.2020
2395 Clouds 27 1011 50 10000 3 140 14:26 28.05.2020
2396 Clouds 26 1012 47 10000 4 90 13:58 28.05.2020
2397 Clouds 26 1012 57 10000 6 50 13:39 28.05.2020
2398 Haze 26 1011 69 5000 11 20 13:20 28.05.2020
2399 Clouds 28 1010 54 10000 3 210 12:42 28.05.2020
2400 Clouds 31 1010 51 10000 3 230 12:19 28.05.2020
2401 Clouds 29 1010 48 10000 3 230 11:43 28.05.2020
2402 Clouds 29 1010 48 10000 3 230 11:43 28.05.2020
2403 Clouds 32 1010 48 10000 3 230 11:24 28.05.2020
2404 Clouds 30 1010 43 10000 3 230 10:57 28.05.2020
2405 Clouds 30 1010 43 10000 3 230 10:39 28.05.2020
2406 Clouds 30 1009 43 10000 3 220 10:19 28.05.2020
2407 Clouds 32 1010 45 10000 3 230 09:39 28.05.2020
2408 Clouds 33 1010 45 10000 3 240 09:20 28.05.2020
2409 Clouds 32 1010 45 10000 3 0 08:49 28.05.2020
2410 Clouds 32 1010 45 10000 3 0 08:26 28.05.2020
2411 Clouds 32 1010 51 10000 3 230 07:45 28.05.2020
2412 Clouds 31 1010 51 10000 3 230 07:26 28.05.2020
2413 Clouds 31 1010 55 10000 3 240 06:57 28.05.2020
2414 Clouds 31 1010 58 10000 3 230 06:37 28.05.2020
2415 Clouds 31 1011 51 10000 2 260 05:56 28.05.2020
2416 Clouds 31 1011 54 8000 3 280 05:35 28.05.2020
2417 Clouds 29 1011 61 7000 3 230 04:28 28.05.2020
2418 Clouds 28 1011 65 7000 3 230 03:45 28.05.2020
2419 Clouds 26 1011 69 6000 2 220 02:45 28.05.2020
2420 Mist 25 1010 78 5000 3 200 01:51 28.05.2020
2421 Mist 23 1010 83 5000 2 190 00:54 28.05.2020
2422 Mist 22 1010 88 5000 3 190 00:26 28.05.2020
2423 Mist 22 1010 94 5000 3 190 23:58 27.05.2020
2424 Clouds 22 1010 88 6000 3 190 23:39 27.05.2020
2425 Clouds 22 1010 88 6000 3 190 23:20 27.05.2020
2426 Clouds 21 1010 88 8000 2 180 22:56 27.05.2020
2427 Clouds 21 1009 88 8000 3 190 22:38 27.05.2020
2428 Clouds 21 1010 88 8000 3 190 22:19 27.05.2020
2429 Clouds 21 1010 88 8000 3 190 21:41 27.05.2020
2430 Clouds 21 1010 88 8000 3 190 21:22 27.05.2020
2431 Clouds 21 1010 88 8000 3 200 20:59 27.05.2020
2432 Clouds 21 1010 88 8000 3 200 20:59 27.05.2020
2433 Clouds 21 1010 88 10000 3 190 20:40 27.05.2020
2434 Clouds 21 1010 88 10000 3 190 20:21 27.05.2020
2435 Clouds 21 1010 88 10000 3 180 19:55 27.05.2020
2436 Clouds 22 1010 83 10000 4 170 19:37 27.05.2020
2437 Clouds 22 1010 83 10000 3 170 19:18 27.05.2020
2438 Clouds 22 1010 83 10000 3 170 18:39 27.05.2020
2439 Clouds 22 1011 78 10000 3 170 18:19 27.05.2020
2440 Clouds 22 1011 78 10000 2 160 17:45 27.05.2020
2441 Clouds 22 1011 78 10000 2 160 17:26 27.05.2020
2442 Clouds 22 1011 73 10000 3 160 16:57 27.05.2020
2443 Clouds 22 1011 73 10000 3 170 16:38 27.05.2020
2444 Clouds 22 1011 73 10000 3 170 16:20 27.05.2020
2445 Clouds 22 1011 73 10000 3 170 16:20 27.05.2020
2446 Clouds 22 1011 73 10000 3 170 15:55 27.05.2020
2447 Clouds 23 1011 69 10000 3 160 15:37 27.05.2020
2448 Clouds 23 1010 64 10000 2 150 15:18 27.05.2020
2449 Clouds 23 1010 64 10000 4 150 14:42 27.05.2020
2450 Clouds 23 1010 64 10000 4 150 14:42 27.05.2020
2451 Clouds 23 1010 64 10000 4 150 14:20 27.05.2020
2452 Clouds 23 1010 60 10000 4 180 13:44 27.05.2020
2453 Clouds 25 1010 60 10000 4 180 13:25 27.05.2020
2454 Clouds 25 1010 64 10000 5 180 12:56 27.05.2020
2455 Clouds 24 1009 61 10000 5 180 12:37 27.05.2020
2456 Clouds 26 1009 61 10000 5 180 12:18 27.05.2020
2457 Clouds 26 1009 54 10000 2 200 11:39 27.05.2020
2458 Clouds 26 1009 54 10000 2 0 11:21 27.05.2020
2459 Clouds 26 1009 54 10000 2 0 10:55 27.05.2020
2460 Clouds 28 1009 54 10000 2 170 10:37 27.05.2020
2461 Clouds 27 1009 54 10000 3 180 10:18 27.05.2020
2462 Clouds 28 1009 54 10000 3 200 09:40 27.05.2020
2463 Clouds 28 1009 54 10000 3 200 09:21 27.05.2020
2464 Clouds 28 1010 57 10000 3 200 08:43 27.05.2020
2465 Clouds 28 1010 57 10000 3 200 08:25 27.05.2020
2466 Clouds 27 1010 57 10000 2 0 07:59 27.05.2020
2467 Clouds 27 1010 57 10000 2 0 07:59 27.05.2020
2468 Clouds 27 1010 57 10000 2 200 07:40 27.05.2020
2469 Clouds 27 1010 57 10000 2 200 07:22 27.05.2020
2470 Clouds 27 1011 53 10000 1 0 06:43 27.05.2020
2471 Clouds 26 1011 53 10000 1 0 06:19 27.05.2020
2472 Clouds 26 1011 57 10000 2 250 05:47 27.05.2020
2473 Clouds 25 1012 57 10000 2 230 04:20 27.05.2020
2474 Clouds 23 1012 73 8000 1 0 02:30 27.05.2020
2475 Clouds 22 1012 77 7000 0.46 87 01:53 27.05.2020
2476 Clouds 22 1012 77 7000 0.46 87 01:53 27.05.2020
2477 Clouds 21 1012 82 7000 1 0 01:24 27.05.2020
2478 Clouds 20 1012 88 7000 1 0 00:45 27.05.2020
2479 Clouds 19 1011 88 7000 1 0 00:20 27.05.2020
2480 Clouds 19 1011 88 8000 1 10 23:44 26.05.2020
2481 Clouds 19 1011 88 8000 1 10 23:26 26.05.2020
2482 Clouds 19 1011 88 10000 1 0 22:59 26.05.2020
2483 Clouds 19 1011 88 10000 1 360 22:39 26.05.2020
2484 Clouds 19 1010 88 10000 1 0 22:20 26.05.2020
2485 Clouds 19 1010 88 10000 1 0 22:20 26.05.2020
2486 Clouds 19 1010 88 10000 1 0 21:57 26.05.2020
2487 Clouds 19 1011 88 10000 2 50 21:39 26.05.2020
2488 Clouds 19 1011 88 10000 2 50 21:20 26.05.2020
2489 Clouds 19 1011 88 10000 1 220 20:43 26.05.2020
2490 Clouds 19 1011 88 10000 1 220 20:43 26.05.2020
2491 Clouds 19 1011 88 10000 1 170 20:21 26.05.2020
2492 Clouds 19 1011 88 10000 1 170 19:57 26.05.2020
2493 Clouds 19 1011 88 10000 2 280 19:37 26.05.2020
2494 Clouds 19 1011 88 10000 1 350 19:18 26.05.2020
2495 Clouds 19 1011 88 10000 1 260 18:42 26.05.2020
2496 Clouds 19 1011 88 10000 1 260 18:22 26.05.2020
2497 Clouds 19 1011 88 10000 1 230 17:55 26.05.2020
2498 Clouds 20 1011 82 10000 1.18 162 17:37 26.05.2020
2499 Clouds 20 1012 77 10000 1 0 17:19 26.05.2020
2500 Clouds 20 1012 77 10000 0.82 143 16:41 26.05.2020
2501 Clouds 20 1012 77 10000 1 0 16:19 26.05.2020
2502 Clouds 20 1012 77 10000 1.36 63 16:19 26.05.2020
2503 Clouds 20 1012 82 10000 1 0 15:44 26.05.2020
2504 Clouds 20 1011 82 10000 1 90 15:21 26.05.2020
2505 Clouds 20 1011 82 10000 1 90 14:59 26.05.2020
2506 Clouds 20 1011 82 10000 2 30 14:41 26.05.2020
2507 Clouds 20 1011 82 10000 2 30 14:22 26.05.2020
2508 Clouds 21 1011 73 10000 3 360 13:42 26.05.2020
2509 Clouds 21 1011 73 10000 3 360 13:42 26.05.2020
2510 Clouds 21 1011 73 10000 3 360 13:24 26.05.2020
2511 Clouds 21 1011 77 10000 3 20 12:59 26.05.2020
2512 Clouds 21 1010 77 10000 3 360 12:39 26.05.2020
2513 Clouds 21 1010 77 10000 4 10 12:19 26.05.2020
2514 Clouds 21 1010 77 10000 3 20 11:41 26.05.2020
2515 Clouds 21 1010 77 10000 3 20 11:21 26.05.2020
2516 Clouds 21 1010 77 10000 3 360 10:58 26.05.2020
2517 Clouds 21 1009 77 10000 3 30 10:38 26.05.2020
2518 Clouds 21 1009 77 10000 3 40 10:18 26.05.2020
2519 Clouds 21 1010 77 10000 3 40 09:39 26.05.2020
2520 Clouds 21 1010 77 10000 3 40 09:19 26.05.2020
2521 Clouds 21 1009 82 10000 5 20 08:42 26.05.2020
2522 Clouds 20 1009 82 10000 5 20 08:22 26.05.2020
2523 Clouds 20 1010 82 10000 2 40 07:44 26.05.2020
2524 Clouds 20 1010 82 10000 2 40 07:24 26.05.2020
2525 Clouds 20 1010 88 10000 3 70 06:54 26.05.2020
2526 Rain 20 1010 93 10000 4 30 06:36 26.05.2020
2527 Clouds 20 1010 82 10000 4 50 05:48 26.05.2020
2528 Clouds 19 1010 82 10000 4 50 05:28 26.05.2020
2529 Rain 20 1010 88 10000 3 60 04:49 26.05.2020
2530 Rain 20 1010 88 10000 3 60 04:31 26.05.2020
2531 Clouds 19 1010 88 10000 4 40 03:52 26.05.2020
2532 Rain 19 1010 93 10000 5 30 02:40 26.05.2020
2533 Rain 18 1009 93 10000 4 50 01:47 26.05.2020
2534 Rain 18 1009 93 10000 5 30 00:56 26.05.2020
2535 Rain 18 1009 93 10000 3 60 00:36 26.05.2020
2536 Rain 18 1009 93 10000 3 60 00:36 26.05.2020
2537 Rain 18 1008 93 10000 2 60 00:18 26.05.2020
2538 Rain 18 1008 93 10000 3 50 23:39 25.05.2020
2539 Rain 18 1008 93 10000 3 50 23:20 25.05.2020
2540 Rain 18 1009 88 10000 3 80 22:56 25.05.2020
2541 Rain 18 1009 93 10000 3 40 22:38 25.05.2020
2542 Rain 18 1009 93 10000 3 40 22:20 25.05.2020
2543 Rain 18 1009 93 10000 5 20 21:59 25.05.2020
2544 Rain 18 1010 93 10000 4 360 21:39 25.05.2020
2545 Rain 18 1010 93 10000 4 360 21:20 25.05.2020
2546 Rain 19 1010 77 10000 2 10 20:59 25.05.2020
2547 Rain 19 1010 82 10000 1 340 20:41 25.05.2020
2548 Rain 20 1010 82 10000 1 340 20:20 25.05.2020
2549 Rain 20 1009 82 10000 1 0 19:57 25.05.2020
2550 Rain 20 1009 82 10000 1 0 19:57 25.05.2020
2551 Rain 20 1010 77 10000 2 130 19:38 25.05.2020
2552 Rain 20 1010 77 10000 2 110 19:18 25.05.2020
2553 Rain 20 1010 77 10000 2 110 19:18 25.05.2020
2554 Rain 20 1011 72 10000 2 70 18:43 25.05.2020
2555 Rain 20 1011 72 10000 2 70 18:21 25.05.2020
2556 Rain 20 1011 72 10000 2 60 17:55 25.05.2020
2557 Rain 21 1012 73 10000 3 80 17:37 25.05.2020
2558 Rain 21 1012 73 10000 3 80 17:18 25.05.2020
2559 Rain 21 1012 83 10000 2 80 16:41 25.05.2020
2560 Rain 22 1012 83 10000 2 80 16:22 25.05.2020
2561 Rain 22 1012 83 10000 2 100 15:58 25.05.2020
2562 Rain 22 1012 69 10000 3 110 15:40 25.05.2020
2563 Rain 22 1012 73 10000 4 110 15:18 25.05.2020
2564 Rain 22 1012 78 10000 3 110 14:43 25.05.2020
2565 Rain 23 1012 78 10000 3 110 14:24 25.05.2020
2566 Rain 23 1012 69 10000 3 120 13:57 25.05.2020
2567 Clouds 23 1011 60 10000 3 80 13:37 25.05.2020
2568 Clouds 23 1011 57 10000 5 90 13:19 25.05.2020
2569 Clouds 23 1011 57 10000 5 90 12:54 25.05.2020
2570 Clouds 24 1010 61 10000 5 70 12:36 25.05.2020
2571 Clouds 24 1010 65 10000 5 100 12:18 25.05.2020
2572 Clouds 25 1010 57 10000 4 80 11:38 25.05.2020
2573 Clouds 25 1010 44 10000 4 80 11:19 25.05.2020
2574 Clouds 26 1010 47 10000 4 70 10:43 25.05.2020
2575 Clouds 27 1010 51 10000 4 70 10:21 25.05.2020
2576 Clouds 27 1010 51 10000 4 70 09:57 25.05.2020
2577 Clouds 27 1010 48 10000 4 90 09:38 25.05.2020
2578 Clouds 27 1010 48 10000 4 90 09:19 25.05.2020
2579 Clouds 27 1011 47 10000 4 110 08:57 25.05.2020
2580 Clouds 28 1011 42 10000 2 120 08:36 25.05.2020
2581 Clouds 28 1011 42 10000 2 120 08:36 25.05.2020
2582 Clouds 29 1011 42 10000 3 70 08:18 25.05.2020
2583 Clouds 28 1011 42 10000 2 70 07:43 25.05.2020
2584 Clouds 28 1011 42 10000 2 70 07:21 25.05.2020
2585 Clouds 29 1012 51 10000 3 30 06:49 25.05.2020
2586 Clouds 27 1012 54 10000 2 0 06:31 25.05.2020
2587 Clouds 25 1012 78 7000 2 60 03:48 25.05.2020
2588 Clouds 24 1012 78 7000 2 60 03:22 25.05.2020
2589 Clouds 23 1012 83 7000 3 360 02:45 25.05.2020
2590 Clouds 22 1012 83 7000 3 20 01:46 25.05.2020
2591 Clouds 22 1012 83 7000 3 20 01:28 25.05.2020
2592 Clouds 22 1012 83 7000 2 340 00:36 25.05.2020
2593 Clouds 22 1012 88 7000 2 350 00:18 25.05.2020
2594 Clouds 22 1012 88 7000 3 20 23:40 24.05.2020
2595 Clouds 21 1012 88 7000 4 360 23:22 24.05.2020
2596 Clouds 22 1012 88 7000 4 360 22:58 24.05.2020
2597 Clouds 22 1012 83 7000 4 10 22:40 24.05.2020
2598 Clouds 22 1012 83 6000 3 360 22:18 24.05.2020
2599 Clouds 22 1012 83 6000 3 360 22:18 24.05.2020
2600 Clouds 22 1012 83 6000 3 360 21:55 24.05.2020
2601 Clouds 22 1012 83 6000 3 360 21:55 24.05.2020
2602 Clouds 22 1012 83 6000 4 360 21:37 24.05.2020
2603 Clouds 22 1012 83 7000 4 360 21:18 24.05.2020
2604 Mist 22 1012 83 5000 3 360 20:43 24.05.2020
2605 Mist 22 1012 83 5000 3 360 20:43 24.05.2020
2606 Mist 22 1011 83 5000 4 10 20:21 24.05.2020
2607 Mist 22 1011 83 5000 4 10 19:58 24.05.2020
2608 Mist 22 1012 83 5000 4 10 19:40 24.05.2020
2609 Mist 23 1012 78 5000 4 10 19:19 24.05.2020
2610 Clouds 23 1012 78 8000 3 360 18:44 24.05.2020
2611 Clouds 23 1012 78 8000 3 360 18:24 24.05.2020
2612 Clouds 23 1012 73 10000 2 50 17:59 24.05.2020
2613 Clouds 23 1012 73 10000 3 50 17:40 24.05.2020
2614 Clouds 23 1012 73 10000 3 50 17:21 24.05.2020
2615 Clouds 23 1012 78 10000 4 40 16:56 24.05.2020
2616 Clouds 23 1012 73 10000 4 40 16:38 24.05.2020
2617 Clouds 23 1012 73 10000 4 40 16:19 24.05.2020
2618 Clouds 23 1013 73 10000 4 30 15:56 24.05.2020
2619 Clouds 23 1012 73 10000 5 40 15:38 24.05.2020
2620 Clouds 24 1012 73 10000 5 50 15:18 24.05.2020
2621 Clouds 24 1012 69 10000 5 40 14:44 24.05.2020
2622 Clouds 24 1012 69 10000 5 40 14:24 24.05.2020
2623 Clouds 24 1011 69 10000 5 60 13:57 24.05.2020
2624 Clouds 24 1011 69 10000 5 50 13:38 24.05.2020
2625 Clouds 24 1011 69 10000 5 50 13:20 24.05.2020
2626 Clouds 25 1011 69 10000 5 40 12:57 24.05.2020
2627 Clouds 25 1010 65 10000 6 40 12:38 24.05.2020
2628 Clouds 25 1010 65 10000 6 40 12:20 24.05.2020
2629 Clouds 25 1009 69 10000 7 50 11:56 24.05.2020
2630 Clouds 26 1009 65 10000 5 60 11:38 24.05.2020
2631 Clouds 26 1009 65 10000 5 60 11:19 24.05.2020
2632 Clouds 28 1009 58 10000 6 50 10:43 24.05.2020
2633 Clouds 28 1009 58 10000 6 50 10:24 24.05.2020
2634 Clouds 28 1008 51 10000 6 30 09:59 24.05.2020
2635 Clouds 29 1008 48 10000 4 30 09:41 24.05.2020
2636 Clouds 31 1008 46 10000 5 40 09:18 24.05.2020
2637 Clouds 31 1008 40 10000 5 20 08:43 24.05.2020
2638 Clouds 32 1008 40 10000 5 20 08:25 24.05.2020
2639 Clouds 32 1008 40 10000 3 70 07:59 24.05.2020
2640 Clouds 32 1008 40 10000 4 40 07:41 24.05.2020
2641 Clear 31 1008 40 10000 4 40 07:21 24.05.2020
2642 Clear 32 1009 35 10000 3 0 06:45 24.05.2020
2643 Clear 32 1009 48 10000 2 0 05:50 24.05.2020
2644 Clear 29 1009 61 10000 1 0 03:59 24.05.2020
2645 Clear 27 1009 69 10000 2 190 03:40 24.05.2020
2646 Clear 25 1010 73 10000 2 140 02:30 24.05.2020
2647 Clear 23 1009 83 10000 2 140 01:32 24.05.2020
2648 Clouds 22 1009 88 10000 3 150 00:38 24.05.2020
2649 Clouds 22 1009 88 10000 4 160 00:20 24.05.2020
2650 Clouds 22 1009 88 10000 3 150 23:40 23.05.2020
2651 Clouds 21 1009 88 10000 3 150 23:21 23.05.2020
2652 Clouds 21 1009 88 10000 4 160 22:57 23.05.2020
2653 Clouds 21 1008 88 10000 4 150 22:37 23.05.2020
2654 Clouds 21 1008 88 10000 4 150 22:19 23.05.2020
2655 Clouds 21 1008 83 10000 4 160 21:57 23.05.2020
2656 Clouds 21 1008 83 10000 4 160 21:37 23.05.2020
2657 Clouds 21 1008 88 10000 4 160 21:19 23.05.2020
2658 Clouds 21 1008 88 10000 4 160 20:54 23.05.2020
2659 Clouds 22 1008 88 10000 5 150 20:36 23.05.2020
2660 Clouds 21 1008 88 10000 5 150 20:18 23.05.2020
2661 Clouds 22 1008 88 10000 4 150 19:41 23.05.2020
2662 Clouds 22 1009 83 10000 5 150 19:19 23.05.2020
2663 Clouds 22 1009 83 10000 5 150 18:56 23.05.2020
2664 Clouds 22 1009 83 10000 5 160 18:37 23.05.2020
2665 Clouds 22 1009 83 10000 5 160 18:19 23.05.2020
2666 Clouds 22 1009 88 10000 5 150 17:54 23.05.2020
2667 Clouds 22 1009 88 10000 5 140 17:36 23.05.2020
2668 Clouds 22 1009 83 10000 5 130 17:18 23.05.2020
2669 Clear 22 1009 78 10000 6 140 16:41 23.05.2020
2670 Clear 22 1009 78 10000 5 140 16:21 23.05.2020
2671 Clear 22 1009 78 10000 6 140 16:21 23.05.2020
2672 Clear 22 1009 78 10000 5 140 15:59 23.05.2020
2673 Clear 23 1009 78 10000 5 140 15:41 23.05.2020
2674 Clear 23 1009 78 10000 5 140 15:22 23.05.2020
2675 Clear 23 1008 73 10000 5 130 14:43 23.05.2020
2676 Clouds 23 1008 73 10000 5 130 14:24 23.05.2020
2677 Clouds 24 1008 73 10000 5 150 13:56 23.05.2020
2678 Clouds 24 1008 73 10000 5 140 13:37 23.05.2020
2679 Clouds 24 1007 69 10000 5 160 13:18 23.05.2020
2680 Clouds 25 1007 65 10000 6 150 12:41 23.05.2020
2681 Clouds 25 1007 65 10000 6 170 12:20 23.05.2020
2682 Clouds 25 1007 65 10000 6 170 11:57 23.05.2020
2683 Clouds 25 1007 65 10000 6 170 11:57 23.05.2020
2684 Clouds 25 1006 61 10000 6 150 11:39 23.05.2020
2685 Clouds 27 1006 65 10000 6 170 11:19 23.05.2020
2686 Clouds 27 1006 65 10000 6 170 10:55 23.05.2020
2687 Clouds 26 1007 57 10000 6 150 10:37 23.05.2020
2688 Clouds 26 1007 57 10000 6 150 10:37 23.05.2020
2689 Clouds 28 1007 57 10000 6 150 10:18 23.05.2020
2690 Clouds 27 1007 57 10000 6 150 09:43 23.05.2020
2691 Clouds 27 1007 57 10000 6 150 09:24 23.05.2020
2692 Clouds 27 1008 54 10000 5 150 08:58 23.05.2020
2693 Clouds 27 1008 54 10000 6 140 08:38 23.05.2020
2694 Clouds 27 1008 54 10000 5 150 08:19 23.05.2020
2695 Clouds 27 1008 54 10000 5 160 07:44 23.05.2020
2696 Clouds 28 1008 54 10000 5 160 07:22 23.05.2020
2697 Clouds 28 1009 54 10000 4 150 06:42 23.05.2020
2698 Clouds 28 1009 51 10000 4 160 05:55 23.05.2020
2699 Clouds 25 1009 64 10000 4 160 03:52 23.05.2020
2700 Clouds 24 1009 69 10000 5 150 03:23 23.05.2020
2701 Clouds 23 1009 78 10000 4 150 02:33 23.05.2020
2702 Clouds 21 1009 83 10000 3 130 01:46 23.05.2020
2703 Clouds 21 1009 83 10000 4 140 01:18 23.05.2020
2704 Clouds 20 1009 88 10000 3 140 00:41 23.05.2020
2705 Clouds 20 1008 88 10000 3 130 23:59 22.05.2020
2706 Clouds 20 1008 88 10000 3 130 23:41 22.05.2020
2707 Clouds 20 1009 82 10000 3 140 23:22 22.05.2020
2708 Clouds 20 1009 82 10000 3 140 22:58 22.05.2020
2709 Clouds 20 1008 88 10000 3 140 22:39 22.05.2020
2710 Clouds 20 1008 88 10000 3 140 22:20 22.05.2020
2711 Clouds 20 1009 88 10000 2 150 21:46 22.05.2020
2712 Clouds 20 1009 88 10000 2 150 21:22 22.05.2020
2713 Clouds 20 1009 88 10000 3 120 20:56 22.05.2020
2714 Clouds 20 1009 88 10000 3 130 20:38 22.05.2020
2715 Clouds 20 1009 88 10000 3 130 20:19 22.05.2020
2716 Clouds 20 1009 77 10000 3 140 19:44 22.05.2020
2717 Clouds 20 1009 77 10000 3 140 19:25 22.05.2020
2718 Clouds 21 1010 77 10000 3 150 18:54 22.05.2020
2719 Clouds 21 1010 73 10000 4 130 18:36 22.05.2020
2720 Clouds 21 1010 73 10000 4 130 18:18 22.05.2020
2721 Clouds 21 1010 73 10000 4 140 17:39 22.05.2020
2722 Clouds 21 1010 73 10000 4 140 17:39 22.05.2020
2723 Clouds 21 1010 73 10000 5 140 17:19 22.05.2020
2724 Clouds 21 1010 73 10000 5 140 16:55 22.05.2020
2725 Clouds 21 1010 64 10000 4 120 16:37 22.05.2020
2726 Clouds 21 1010 64 10000 4 130 16:19 22.05.2020
2727 Clouds 21 1009 60 10000 4 120 15:42 22.05.2020
2728 Clouds 21 1009 60 10000 4 120 15:42 22.05.2020
2729 Clouds 21 1009 64 10000 5 130 15:21 22.05.2020
2730 Clouds 22 1009 56 10000 5 130 14:45 22.05.2020
2731 Clouds 22 1009 56 10000 5 130 14:26 22.05.2020
2732 Clouds 22 1008 60 10000 5 150 13:50 22.05.2020
2733 Clouds 22 1008 50 10000 5 130 13:22 22.05.2020
2734 Clouds 22 1008 50 10000 5 130 13:22 22.05.2020
2735 Clouds 23 1008 50 10000 5 130 12:59 22.05.2020
2736 Clouds 23 1008 47 10000 4 130 12:39 22.05.2020
2737 Clouds 23 1007 50 10000 5 150 12:20 22.05.2020
2738 Clouds 24 1007 50 10000 5 160 11:44 22.05.2020
2739 Clouds 24 1007 57 10000 5 160 11:22 22.05.2020
2740 Clouds 25 1007 57 10000 5 160 10:56 22.05.2020
2741 Clouds 25 1007 53 10000 5 150 10:38 22.05.2020
2742 Clouds 26 1007 50 10000 5 140 10:19 22.05.2020
2743 Clouds 26 1007 50 10000 5 140 10:19 22.05.2020
2744 Clouds 25 1007 53 10000 5 170 09:46 22.05.2020
2745 Clouds 25 1007 53 10000 5 170 09:21 22.05.2020
2746 Clouds 25 1008 53 10000 5 170 08:55 22.05.2020
2747 Clouds 26 1008 54 10000 5 150 08:37 22.05.2020
2748 Clouds 26 1008 50 10000 5 170 08:18 22.05.2020
2749 Clouds 26 1008 50 10000 4 180 07:46 22.05.2020
2750 Clouds 26 1008 50 10000 4 180 07:22 22.05.2020
2751 Clouds 27 1008 47 10000 5 160 06:43 22.05.2020
2752 Clouds 27 1008 47 10000 5 160 06:25 22.05.2020
2753 Clouds 27 1009 50 10000 5 160 05:35 22.05.2020
2754 Clouds 24 1009 60 10000 6 150 04:47 22.05.2020
2755 Clouds 25 1009 57 10000 4 160 03:49 22.05.2020
2756 Clouds 24 1009 60 10000 6 150 03:29 22.05.2020
2757 Clouds 23 1009 68 10000 6 140 01:58 22.05.2020
2758 Clouds 22 1009 73 10000 6 140 01:31 22.05.2020
2759 Clouds 20 1009 72 10000 4 130 00:50 22.05.2020
2760 Clouds 20 1009 72 10000 4 130 00:29 22.05.2020
2761 Clouds 20 1009 72 10000 3 120 23:55 21.05.2020
2762 Clouds 20 1009 68 10000 2 120 23:37 21.05.2020
2763 Clouds 20 1009 68 10000 4 130 23:19 21.05.2020
2764 Clouds 19 1009 68 10000 4 130 22:56 21.05.2020
2765 Clouds 19 1009 68 10000 4 130 22:36 21.05.2020
2766 Clouds 19 1009 68 10000 5 130 22:18 21.05.2020
2767 Clouds 20 1009 68 10000 3 130 21:43 21.05.2020
2768 Clouds 20 1009 68 10000 3 130 21:43 21.05.2020
2769 Clouds 20 1009 68 10000 3 130 21:25 21.05.2020
2770 Clouds 20 1009 68 10000 3 130 20:54 21.05.2020
2771 Clouds 20 1009 68 10000 4 140 20:36 21.05.2020
2772 Clouds 20 1010 68 10000 4 150 20:18 21.05.2020
2773 Clouds 20 1010 68 10000 5 150 19:39 21.05.2020
2774 Clouds 20 1010 72 10000 4 160 19:19 21.05.2020
2775 Clouds 20 1010 72 10000 4 150 18:40 21.05.2020
2776 Clouds 20 1010 72 10000 4 150 18:20 21.05.2020
2777 Clouds 20 1010 72 10000 4 150 18:20 21.05.2020
2778 Clouds 20 1010 77 10000 4 150 17:58 21.05.2020
2779 Clouds 20 1010 77 10000 4 150 17:40 21.05.2020
2780 Clouds 20 1010 77 10000 5 150 17:22 21.05.2020
2781 Clouds 20 1011 68 10000 5 160 16:47 21.05.2020
2782 Clouds 20 1011 68 10000 5 160 16:25 21.05.2020
2783 Clouds 21 1010 77 10000 5 150 15:54 21.05.2020
2784 Clouds 21 1010 77 10000 6 140 15:36 21.05.2020
2785 Clouds 21 1011 77 10000 6 150 15:18 21.05.2020
2786 Clouds 21 1010 77 10000 6 150 14:39 21.05.2020
2787 Clouds 21 1010 77 10000 7 150 14:18 21.05.2020
2788 Clouds 21 1010 73 10000 6 150 13:41 21.05.2020
2789 Clouds 22 1010 73 10000 6 150 13:22 21.05.2020
2790 Clouds 22 1010 68 10000 6 140 12:57 21.05.2020
2791 Clouds 22 1010 64 10000 5 140 12:37 21.05.2020
2792 Clouds 24 1010 64 10000 6 170 12:19 21.05.2020
2793 Clouds 23 1010 64 10000 6 150 11:42 21.05.2020
2794 Clouds 25 1010 64 10000 6 150 11:23 21.05.2020
2795 Clouds 25 1009 64 10000 7 150 11:23 21.05.2020
2796 Clouds 24 1009 64 10000 7 150 10:58 21.05.2020
2797 Clouds 24 1009 64 10000 7 180 10:39 21.05.2020
2798 Clouds 25 1010 61 10000 8 180 10:19 21.05.2020
2799 Clouds 25 1010 61 10000 8 180 09:54 21.05.2020
2800 Clouds 25 1010 61 10000 8 160 09:36 21.05.2020
2801 Clouds 26 1009 57 10000 7 150 09:18 21.05.2020
2802 Clouds 26 1010 57 10000 8 170 08:42 21.05.2020
2803 Clouds 26 1010 57 10000 8 170 08:23 21.05.2020
2804 Clouds 27 1010 61 10000 7 160 07:44 21.05.2020
2805 Clouds 27 1010 54 10000 9 140 07:25 21.05.2020
2806 Clouds 26 1011 65 10000 7 150 06:52 21.05.2020
2807 Clouds 25 1011 61 10000 8 160 05:54 21.05.2020
2808 Clouds 25 1011 61 10000 8 140 04:56 21.05.2020
2809 Clouds 24 1011 64 10000 7 150 03:22 21.05.2020
2810 Clouds 23 1011 64 10000 6 140 02:38 21.05.2020
2811 Clouds 22 1010 64 10000 7 140 02:20 21.05.2020
2812 Clouds 22 1010 73 10000 6 140 01:42 21.05.2020
2813 Clouds 22 1010 73 10000 6 140 01:19 21.05.2020
2814 Clouds 22 1010 73 10000 5 140 00:45 21.05.2020
2815 Clouds 21 1010 73 10000 5 140 00:21 21.05.2020
2816 Clouds 21 1010 73 10000 5 140 23:41 20.05.2020
2817 Clouds 21 1010 73 10000 5 140 23:20 20.05.2020
2818 Clouds 22 1009 68 10000 5 130 22:55 20.05.2020
2819 Clouds 22 1009 68 10000 5 120 22:37 20.05.2020
2820 Clouds 22 1009 68 10000 5 110 22:19 20.05.2020
2821 Clouds 22 1009 68 10000 4 100 21:40 20.05.2020
2822 Clouds 22 1010 68 10000 5 120 21:20 20.05.2020
2823 Clouds 22 1010 68 10000 5 120 20:44 20.05.2020
2824 Clouds 22 1010 68 10000 5 120 20:24 20.05.2020
2825 Clouds 22 1010 64 10000 5 140 19:55 20.05.2020
2826 Clouds 22 1010 64 10000 5 130 19:37 20.05.2020
2827 Clouds 22 1010 56 10000 5 130 19:18 20.05.2020
2828 Clouds 22 1010 53 10000 5 140 18:42 20.05.2020
2829 Clouds 22 1011 53 10000 5 130 18:22 20.05.2020
2830 Clouds 22 1011 49 10000 5 130 17:41 20.05.2020
2831 Clouds 22 1011 49 10000 6 140 17:22 20.05.2020
2832 Clouds 22 1011 49 10000 6 140 16:56 20.05.2020
2833 Clouds 22 1011 53 10000 5 140 16:38 20.05.2020
2834 Clouds 23 1011 53 10000 5 140 16:19 20.05.2020
2835 Clouds 23 1010 53 10000 5 110 15:43 20.05.2020
2836 Clouds 23 1010 53 10000 5 110 15:25 20.05.2020
2837 Clouds 23 1010 50 10000 6 120 14:45 20.05.2020
2838 Clouds 24 1010 50 10000 6 120 14:24 20.05.2020
2839 Clouds 24 1010 53 10000 5 130 13:56 20.05.2020
2840 Clouds 24 1010 50 10000 6 120 13:37 20.05.2020
2841 Clouds 24 1010 36 10000 5 120 13:18 20.05.2020
2842 Clouds 25 1009 30 10000 6 120 12:42 20.05.2020
2843 Clouds 28 1009 30 10000 6 120 12:21 20.05.2020
2844 Clouds 27 1009 23 10000 6 110 11:38 20.05.2020
2845 Clouds 28 1009 23 10000 6 110 11:20 20.05.2020
2846 Clouds 30 1009 22 10000 6 100 10:44 20.05.2020
2847 Clouds 30 1009 23 10000 6 140 10:23 20.05.2020
2848 Clouds 30 1009 22 10000 6 100 10:23 20.05.2020
2849 Clouds 30 1009 23 10000 6 140 09:58 20.05.2020
2850 Clouds 30 1009 23 10000 6 150 09:40 20.05.2020
2851 Clouds 30 1009 23 10000 6 150 09:20 20.05.2020
2852 Clouds 30 1009 22 10000 2 80 08:42 20.05.2020
2853 Clouds 31 1009 22 10000 2 80 08:19 20.05.2020
2854 Clouds 30 1009 25 10000 3 150 07:50 20.05.2020
2855 Clouds 31 1009 25 10000 3 150 07:23 20.05.2020
2856 Clouds 31 1010 23 10000 2 170 06:52 20.05.2020
2857 Clouds 29 1010 25 10000 3 0 05:59 20.05.2020
2858 Clouds 28 1010 37 10000 4 210 04:38 20.05.2020
2859 Clouds 27 1010 42 10000 3 190 03:58 20.05.2020
2860 Clouds 26 1010 47 10000 4 180 03:27 20.05.2020
2861 Clouds 22 1010 68 10000 3 160 01:33 20.05.2020
2862 Clouds 22 1009 73 10000 2 170 00:57 20.05.2020
2863 Clouds 21 1009 77 10000 2 160 00:38 20.05.2020
2864 Clouds 20 1009 77 10000 2 160 00:19 20.05.2020
2865 Clouds 20 1009 77 10000 2 150 23:36 19.05.2020
2866 Clouds 20 1009 77 10000 3 150 23:18 19.05.2020
2867 Clouds 20 1009 77 10000 3 150 22:54 19.05.2020
2868 Clouds 20 1008 72 10000 3 150 22:36 19.05.2020
2869 Clouds 20 1008 72 10000 3 160 22:18 19.05.2020
2870 Clouds 20 1008 72 10000 3 160 21:54 19.05.2020
2871 Clouds 20 1008 72 10000 3 150 21:36 19.05.2020
2872 Clouds 20 1008 72 10000 3 160 21:18 19.05.2020
2873 Clouds 20 1008 72 10000 3 160 20:54 19.05.2020
2874 Clouds 20 1009 72 10000 3 150 20:36 19.05.2020
2875 Clouds 20 1009 68 10000 3 150 20:18 19.05.2020
2876 Clouds 20 1009 68 10000 3 150 19:37 19.05.2020
2877 Clouds 20 1009 64 10000 3 130 19:19 19.05.2020
2878 Clouds 21 1009 64 10000 3 130 18:43 19.05.2020
2879 Clouds 20 1009 64 10000 3 130 18:21 19.05.2020
2880 Clouds 21 1010 56 10000 3 130 17:44 19.05.2020
2881 Clear 23 1010 56 10000 4 130 17:22 19.05.2020
2882 Clear 23 1010 56 10000 4 130 16:59 19.05.2020
2883 Clear 21 1009 53 10000 5 130 16:39 19.05.2020
2884 Clear 22 1009 46 10000 3 120 16:21 19.05.2020
2885 Clear 22 1009 43 10000 4 110 15:48 19.05.2020
2886 Clear 22 1008 43 10000 5 120 15:23 19.05.2020
2887 Clear 22 1008 43 10000 5 120 14:59 19.05.2020
2888 Clear 23 1008 38 10000 4 120 14:41 19.05.2020
2889 Clouds 23 1008 38 10000 4 120 14:21 19.05.2020
2890 Clouds 23 1008 38 10000 5 110 13:59 19.05.2020
2891 Clouds 23 1008 36 10000 5 110 13:40 19.05.2020
2892 Clouds 25 1008 36 10000 5 110 13:21 19.05.2020
2893 Clouds 26 1007 33 10000 5 110 12:58 19.05.2020
2894 Clouds 24 1007 36 10000 7 120 12:39 19.05.2020
2895 Clouds 24 1007 36 10000 7 120 12:21 19.05.2020
2896 Clouds 26 1007 21 10000 6 110 11:55 19.05.2020
2897 Clouds 28 1006 17 10000 2 0 11:37 19.05.2020
2898 Clouds 27 1006 17 10000 5 350 11:19 19.05.2020
2899 Clouds 28 1006 16 10000 2 0 10:45 19.05.2020
2900 Clouds 29 1006 16 10000 2 0 10:27 19.05.2020
2901 Clouds 29 1006 17 10000 4 350 09:56 19.05.2020
2902 Clouds 29 1006 18 10000 3 290 09:38 19.05.2020
2903 Clear 29 1006 18 10000 3 290 09:20 19.05.2020
2904 Clear 29 1006 17 10000 5 290 08:42 19.05.2020
2905 Clouds 29 1006 17 10000 5 290 08:23 19.05.2020
2906 Clouds 29 1006 17 10000 6 310 07:43 19.05.2020
2907 Clouds 30 1006 17 10000 6 310 07:25 19.05.2020
2908 Clouds 29 1007 18 10000 4 350 06:45 19.05.2020
2909 Clouds 28 1007 18 10000 4 350 06:24 19.05.2020
2910 Clouds 27 1007 21 10000 5 290 05:40 19.05.2020
2911 Clear 27 1007 21 10000 6 320 04:55 19.05.2020
2912 Clear 27 1007 21 10000 6 320 04:55 19.05.2020
2913 Clear 27 1007 29 10000 7 310 03:45 19.05.2020
2914 Clear 21 1008 52 10000 2 290 01:23 19.05.2020
2915 Clear 19 1007 72 10000 1 210 00:43 19.05.2020
2916 Clear 19 1007 72 10000 1 210 00:21 19.05.2020
2917 Clear 18 1007 77 10000 2 360 23:40 18.05.2020
2918 Clear 17 1007 77 10000 2 360 23:21 18.05.2020
2919 Clear 17 1007 72 10000 2 360 22:59 18.05.2020
2920 Clear 18 1007 72 10000 3 360 22:40 18.05.2020
2921 Clear 18 1007 72 10000 3 360 22:21 18.05.2020
2922 Clear 18 1007 72 10000 3 360 22:21 18.05.2020
2923 Clear 18 1006 72 10000 3 360 21:43 18.05.2020
2924 Clear 18 1006 72 10000 3 360 21:22 18.05.2020
2925 Clear 18 1006 63 10000 3 360 20:58 18.05.2020
2926 Clear 18 1006 63 10000 3 360 20:58 18.05.2020
2927 Clear 19 1006 55 10000 4 10 20:40 18.05.2020
2928 Clear 19 1006 40 10000 1 270 20:21 18.05.2020
2929 Clear 19 1006 40 10000 1 270 20:21 18.05.2020
2930 Clear 20 1006 40 10000 1 270 19:56 18.05.2020
2931 Clear 20 1006 35 10000 2 290 19:38 18.05.2020
2932 Clear 20 1006 35 10000 3 300 19:18 18.05.2020
2933 Clear 21 1007 32 10000 3 310 18:45 18.05.2020
2934 Clear 21 1007 32 10000 3 310 18:22 18.05.2020
2935 Clear 21 1007 32 10000 3 320 17:40 18.05.2020
2936 Clear 21 1007 32 10000 3 320 17:18 18.05.2020
2937 Clear 21 1007 32 10000 3 320 16:57 18.05.2020
2938 Clear 22 1007 28 10000 4 330 16:38 18.05.2020
2939 Clear 22 1006 26 10000 6 330 16:18 18.05.2020
2940 Clear 22 1006 26 10000 6 330 15:56 18.05.2020
2941 Clear 22 1006 28 10000 7 330 15:37 18.05.2020
2942 Clear 22 1006 33 10000 6 330 15:19 18.05.2020
2943 Clear 23 1005 35 10000 6 340 14:43 18.05.2020
2944 Clouds 23 1005 35 10000 6 340 14:24 18.05.2020
2945 Clouds 23 1005 33 10000 6 340 13:57 18.05.2020
2946 Clouds 23 1004 31 10000 8 350 13:39 18.05.2020
2947 Clouds 24 1004 31 10000 8 340 13:19 18.05.2020
2948 Clouds 24 1004 31 10000 8 340 12:56 18.05.2020
2949 Clouds 25 1003 33 10000 8 340 12:37 18.05.2020
2950 Clouds 25 1003 34 10000 7 340 12:18 18.05.2020
2951 Clouds 26 1002 34 10000 9 340 11:46 18.05.2020
2952 Clouds 27 1002 34 10000 9 340 11:26 18.05.2020
2953 Clouds 27 1002 32 10000 9 350 10:55 18.05.2020
2954 Clouds 27 1001 34 10000 9 350 10:37 18.05.2020
2955 Clouds 28 1001 35 10000 9 320 10:19 18.05.2020
2956 Clouds 28 1001 30 10000 8 330 09:42 18.05.2020
2957 Clouds 28 1001 30 10000 8 330 09:23 18.05.2020
2958 Clouds 29 1000 27 10000 9 320 08:42 18.05.2020
2959 Clouds 29 1001 30 10000 9 320 08:24 18.05.2020
2960 Clouds 30 1000 33 10000 7 300 07:50 18.05.2020
2961 Clouds 30 1000 33 10000 7 300 07:26 18.05.2020
2962 Clouds 30 1000 33 10000 7 300 07:26 18.05.2020
2963 Clouds 30 1000 45 10000 7 320 06:49 18.05.2020
2964 Clouds 30 1000 45 10000 7 320 06:31 18.05.2020
2965 Clouds 30 1000 45 10000 9 320 05:49 18.05.2020
2966 Clouds 30 1000 58 10000 5 300 04:40 18.05.2020
2967 Clouds 28 999 69 10000 4 280 03:30 18.05.2020
2968 Clouds 27 1000 83 8000 3 270 01:58 18.05.2020
2969 Clouds 25 999 88 8000 2 280 00:50 18.05.2020
2970 Clouds 24 999 88 8000 2 280 00:22 18.05.2020
2971 Clouds 24 998 88 8000 2 180 23:56 17.05.2020
2972 Clouds 23 998 94 8000 2 190 23:38 17.05.2020
2973 Clouds 23 998 94 8000 2 190 23:19 17.05.2020
2974 Clouds 23 998 88 10000 3 180 22:55 17.05.2020
2975 Clouds 23 998 88 10000 3 180 22:36 17.05.2020
2976 Clouds 23 998 88 10000 3 180 22:18 17.05.2020
2977 Clouds 23 998 88 10000 3 180 21:41 17.05.2020
2978 Clouds 23 998 88 10000 2 190 21:20 17.05.2020
2979 Clouds 23 998 88 10000 2 190 20:57 17.05.2020
2980 Clouds 23 998 88 10000 2 180 20:39 17.05.2020
2981 Clouds 23 999 88 10000 2 180 20:19 17.05.2020
2982 Clouds 23 999 88 10000 2 180 19:47 17.05.2020
2983 Clouds 23 999 88 10000 2 180 19:28 17.05.2020
2984 Clouds 23 999 83 8000 3 180 18:58 17.05.2020
2985 Clouds 24 1000 83 8000 3 170 18:38 17.05.2020
2986 Clouds 24 1000 83 8000 3 170 18:20 17.05.2020
2987 Clouds 24 1001 88 7000 4 150 17:41 17.05.2020
2988 Clouds 24 1001 88 7000 4 150 17:23 17.05.2020
2989 Clouds 24 1001 88 7000 4 150 16:57 17.05.2020
2990 Clouds 24 1002 83 7000 3 150 16:39 17.05.2020
2991 Clouds 25 1002 83 8000 4 160 16:20 17.05.2020
2992 Clouds 25 1002 83 8000 4 160 16:20 17.05.2020
2993 Clouds 25 1002 83 10000 4 150 15:46 17.05.2020
2994 Clouds 25 1002 83 10000 4 150 15:25 17.05.2020
2995 Clouds 25 1002 83 10000 4 150 14:58 17.05.2020
2996 Clouds 25 1001 78 10000 5 150 14:40 17.05.2020
2997 Clouds 25 1001 78 10000 5 150 14:21 17.05.2020
2998 Clouds 26 1001 74 8000 4 170 13:43 17.05.2020
2999 Clouds 26 1001 74 8000 4 170 13:21 17.05.2020
3000 Clouds 30 1001 62 10000 5 130 10:35 17.05.2020
3001 Clouds 27 1005 74 6000 1 0 03:53 17.05.2020
3002 Mist 25 1005 78 5000 1 0 02:27 17.05.2020
3003 Mist 25 1005 83 4200 1 0 01:55 17.05.2020
3004 Mist 23 1004 88 3200 1 10 00:53 17.05.2020
3005 Mist 23 1004 88 3200 0.93 124 00:31 17.05.2020
3006 Mist 23 1004 94 3000 1 0 23:56 16.05.2020
3007 Mist 22 1004 94 4500 1 0 23:38 16.05.2020
3008 Mist 22 1004 88 4500 1 0 23:19 16.05.2020
3009 Mist 22 1004 94 4500 1 150 22:42 16.05.2020
3010 Mist 22 1004 88 5000 1 0 22:22 16.05.2020
3011 Mist 22 1004 88 5000 1 0 21:57 16.05.2020
3012 Mist 22 1004 88 5000 1 90 21:38 16.05.2020
3013 Mist 22 1004 88 5000 1 0 21:19 16.05.2020
3014 Mist 22 1004 88 5000 1 0 20:56 16.05.2020
3015 Mist 22 1004 88 4000 2 150 20:38 16.05.2020
3016 Mist 22 1004 88 4000 2 150 20:19 16.05.2020
3017 Mist 22 1004 88 4000 2 150 20:19 16.05.2020
3018 Mist 22 1005 94 4000 3 150 19:43 16.05.2020
3019 Mist 22 1005 94 4500 3 160 19:23 16.05.2020
3020 Mist 22 1005 94 4500 3 160 18:57 16.05.2020
3021 Mist 22 1005 88 5000 3 150 18:38 16.05.2020
3022 Mist 22 1005 88 5000 3 150 18:20 16.05.2020
3023 Mist 23 1006 88 5000 4 150 17:41 16.05.2020
3024 Mist 22 1006 88 5000 4 150 17:21 16.05.2020
3025 Mist 22 1007 94 5000 4 160 16:44 16.05.2020
3026 Mist 22 1007 94 5000 4 160 16:25 16.05.2020
3027 Clouds 23 1006 94 7000 3 150 15:59 16.05.2020
3028 Clouds 23 1006 88 7000 3 150 15:41 16.05.2020
3029 Clouds 23 1006 88 7000 3 150 15:21 16.05.2020
3030 Clouds 23 1006 88 10000 3 140 14:56 16.05.2020
3031 Clouds 23 1006 88 10000 4 140 14:37 16.05.2020
3032 Clouds 23 1006 88 10000 4 140 14:37 16.05.2020
3033 Clouds 23 1006 88 10000 4 140 14:19 16.05.2020
3034 Clouds 24 1006 83 10000 3 140 13:42 16.05.2020
3035 Clouds 24 1006 83 10000 3 140 13:23 16.05.2020
3036 Clouds 24 1005 83 10000 4 150 12:57 16.05.2020
3037 Clouds 24 1005 83 7000 4 130 12:39 16.05.2020
3038 Clouds 25 1004 78 7000 5 140 12:18 16.05.2020
3039 Clouds 25 1004 78 7000 3 130 11:41 16.05.2020
3040 Clouds 26 1005 74 7000 3 130 11:22 16.05.2020
3041 Clouds 26 1005 74 7000 3 130 10:57 16.05.2020
3042 Clouds 26 1005 69 7000 4 110 10:38 16.05.2020
3043 Clouds 27 1005 69 7000 1 0 10:19 16.05.2020
3044 Clouds 26 1005 69 7000 2 0 09:46 16.05.2020
3045 Clouds 26 1005 69 7000 2 0 09:27 16.05.2020
3046 Clouds 26 1006 74 7000 3 50 08:46 16.05.2020
3047 Clouds 25 1006 74 7000 3 50 08:23 16.05.2020
3048 Clouds 25 1006 78 6000 3 40 07:56 16.05.2020
3049 Clouds 25 1006 78 6000 3 30 07:38 16.05.2020
3050 Clouds 24 1006 78 6000 3 30 07:19 16.05.2020
3051 Mist 25 1007 83 3500 4 360 06:45 16.05.2020
3052 Mist 24 1007 88 3000 4 20 06:19 16.05.2020
3053 Mist 24 1007 83 2500 3 360 05:41 16.05.2020
3054 Mist 24 1008 88 2000 1 0 04:51 16.05.2020
3055 Mist 24 1008 88 2000 1 0 03:25 16.05.2020
3056 Mist 24 1007 94 1600 3 360 02:38 16.05.2020
3057 Mist 23 1007 94 1800 2 20 01:56 16.05.2020
3058 Mist 23 1008 94 1800 1 0 01:35 16.05.2020
3059 Mist 23 1008 94 1800 1 360 00:55 16.05.2020
3060 Mist 23 1007 94 1600 2 10 00:37 16.05.2020
3061 Mist 22 1007 100 1800 1 340 00:18 16.05.2020
3062 Mist 22 1007 94 3000 1 0 23:37 15.05.2020
3063 Mist 22 1006 100 3000 2 350 23:18 15.05.2020
3064 Mist 22 1006 94 3500 1 350 22:40 15.05.2020
3065 Clouds 22 1004 90 0 0.94 156 22:20 15.05.2020
3066 Clouds 22 1004 90 0 0.94 156 22:20 15.05.2020
3067 Mist 22 1006 100 4000 1 0 21:55 15.05.2020
3068 Mist 22 1006 100 4000 1 0 21:55 15.05.2020
3069 Mist 22 1006 100 4000 1 340 21:36 15.05.2020
3070 Mist 23 1006 94 4000 3 350 21:18 15.05.2020
3071 Mist 23 1006 94 4000 1 340 20:43 15.05.2020
3072 Mist 23 1006 94 4000 1 340 20:43 15.05.2020
3073 Mist 23 1006 94 4000 1 340 20:25 15.05.2020
3074 Mist 23 1006 94 4000 1 10 19:59 15.05.2020
3075 Mist 23 1006 94 5000 1 30 19:41 15.05.2020
3076 Mist 23 1006 94 5000 1 30 19:22 15.05.2020
3077 Clouds 23 1006 94 6000 2 360 18:47 15.05.2020
3078 Clouds 23 1006 94 6000 2 360 18:27 15.05.2020
3079 Rain 23 1007 94 10000 2 340 17:41 15.05.2020
3080 Rain 23 1007 88 10000 2 350 17:20 15.05.2020
3081 Rain 23 1007 88 10000 2 350 16:58 15.05.2020
3082 Rain 23 1006 88 10000 1 50 16:39 15.05.2020
3083 Rain 23 1006 88 10000 1 50 16:20 15.05.2020
3084 Rain 23 1006 88 10000 2 110 15:59 15.05.2020
3085 Clouds 23 1006 88 10000 2 80 15:39 15.05.2020
3086 Clouds 23 1006 88 10000 2 150 15:20 15.05.2020
3087 Clouds 23 1006 88 10000 2 150 15:20 15.05.2020
3088 Clouds 24 1006 88 10000 2 150 14:54 15.05.2020
3089 Rain 24 1006 88 10000 2 100 14:36 15.05.2020
3090 Rain 23 1005 94 10000 2 60 14:18 15.05.2020
3091 Rain 24 1006 88 10000 2 20 13:40 15.05.2020
3092 Rain 24 1006 83 7000 3 330 13:20 15.05.2020
3093 Rain 25 1005 69 10000 4 330 12:40 15.05.2020
3094 Rain 26 1005 69 10000 3 340 12:19 15.05.2020
3095 Rain 26 1005 69 10000 3 340 11:57 15.05.2020
3096 Rain 27 1005 65 10000 2 330 11:39 15.05.2020
3097 Rain 27 1005 65 10000 2 330 11:21 15.05.2020
3098 Rain 27 1004 65 10000 2 330 10:59 15.05.2020
3099 Rain 28 1004 61 10000 3 330 10:40 15.05.2020
3100 Rain 28 1004 61 10000 3 330 10:40 15.05.2020
3101 Rain 28 1005 65 10000 4 350 10:21 15.05.2020
3102 Rain 28 1005 65 10000 4 350 09:58 15.05.2020
3103 Clouds 28 1005 65 10000 3 300 09:37 15.05.2020
3104 Clouds 28 1005 61 10000 3 310 09:18 15.05.2020
3105 Clouds 28 1005 61 10000 3 310 08:55 15.05.2020
3106 Clouds 28 1005 61 10000 3 310 08:37 15.05.2020
3107 Rain 29 1005 65 10000 4 310 08:18 15.05.2020
3108 Rain 29 1005 61 10000 3 0 07:42 15.05.2020
3109 Rain 29 1005 61 10000 3 0 07:24 15.05.2020
3110 Clouds 30 1005 61 10000 3 280 06:35 15.05.2020
3111 Clouds 29 1006 65 10000 3 230 05:40 15.05.2020
3112 Clouds 27 1006 69 10000 4 250 04:25 15.05.2020
3113 Clouds 26 1006 83 10000 3 240 03:40 15.05.2020
3114 Clouds 23 1006 94 10000 2 200 01:38 15.05.2020
3115 Clouds 23 1005 94 10000 3 190 01:19 15.05.2020
3116 Clouds 22 1005 94 10000 1 0 00:44 15.05.2020
3117 Clouds 22 1005 94 10000 1 0 00:23 15.05.2020
3118 Clouds 22 1005 94 10000 2 200 23:43 14.05.2020
3119 Clouds 21 1005 94 10000 2 200 23:20 14.05.2020
3120 Clouds 21 1005 88 10000 4 200 22:55 14.05.2020
3121 Rain 21 1005 88 10000 4 220 22:37 14.05.2020
3122 Rain 21 1005 88 10000 5 210 22:19 14.05.2020
3123 Rain 22 1005 94 10000 6 200 21:42 14.05.2020
3124 Rain 22 1005 94 10000 5 180 21:20 14.05.2020
3125 Rain 22 1005 94 10000 5 180 20:59 14.05.2020
3126 Rain 22 1005 88 10000 4 210 20:40 14.05.2020
3127 Rain 22 1005 88 10000 4 210 20:20 14.05.2020
3128 Rain 22 1005 88 10000 4 190 19:57 14.05.2020
3129 Rain 22 1005 88 10000 4 180 19:39 14.05.2020
3130 Rain 22 1005 88 10000 4 180 19:20 14.05.2020
3131 Rain 22 1005 88 10000 6 190 18:57 14.05.2020
3132 Clouds 23 1005 83 10000 6 180 18:38 14.05.2020
3133 Clouds 23 1004 83 10000 7 180 18:19 14.05.2020
3134 Clouds 23 1004 83 10000 7 180 17:56 14.05.2020
3135 Clouds 23 1004 83 10000 8 170 17:37 14.05.2020
3136 Rain 22 1005 88 10000 8 170 17:18 14.05.2020
3137 Rain 22 1005 83 10000 8 160 16:39 14.05.2020
3138 Rain 22 1005 83 10000 8 160 16:39 14.05.2020
3139 Rain 22 1005 83 10000 8 160 16:21 14.05.2020
3140 Rain 22 1005 83 10000 6 160 15:59 14.05.2020
3141 Rain 22 1006 83 10000 6 170 15:40 14.05.2020
3142 Rain 22 1006 83 10000 6 170 15:20 14.05.2020
3143 Rain 22 1006 83 10000 6 160 14:56 14.05.2020
3144 Rain 22 1005 83 10000 7 150 14:38 14.05.2020
3145 Rain 22 1005 83 10000 8 160 14:20 14.05.2020
3146 Rain 22 1005 83 10000 8 160 13:56 14.05.2020
3147 Clouds 23 1005 73 10000 8 160 13:38 14.05.2020
3148 Clouds 23 1005 73 10000 9 150 13:18 14.05.2020
3149 Clouds 23 1005 73 10000 9 150 12:57 14.05.2020
3150 Clouds 23 1005 73 10000 8 150 12:37 14.05.2020
3151 Clouds 23 1005 73 10000 9 150 12:18 14.05.2020
3152 Clouds 24 1005 73 10000 9 150 11:55 14.05.2020
3153 Clouds 24 1005 73 10000 10 150 11:37 14.05.2020
3154 Clouds 24 1006 73 10000 9 150 11:19 14.05.2020
3155 Clouds 24 1006 69 10000 10 150 10:42 14.05.2020
3156 Rain 26 1006 69 10000 10 150 10:23 14.05.2020
3157 Rain 25 1006 61 10000 9 160 09:45 14.05.2020
3158 Rain 26 1006 61 10000 9 160 09:25 14.05.2020
3159 Rain 26 1007 61 10000 9 150 08:59 14.05.2020
3160 Rain 26 1008 54 10000 8 160 08:37 14.05.2020
3161 Clouds 26 1008 54 10000 9 150 08:18 14.05.2020
3162 Clouds 26 1009 50 10000 10 150 07:44 14.05.2020
3163 Clouds 26 1009 50 10000 7 150 07:21 14.05.2020
3164 Clouds 26 1010 53 10000 9 160 06:43 14.05.2020
3165 Clouds 26 1010 53 10000 9 160 06:24 14.05.2020
3166 Clouds 26 1011 53 10000 9 160 05:42 14.05.2020
3167 Clouds 24 1012 56 10000 10 150 04:45 14.05.2020
3168 Clouds 24 1012 53 10000 9 150 03:39 14.05.2020
3169 Clear 24 1012 53 10000 9 150 03:19 14.05.2020
3170 Clear 22 1012 64 10000 8 150 02:34 14.05.2020
3171 Clouds 20 1013 72 10000 7 150 01:48 14.05.2020
3172 Clouds 20 1013 72 10000 7 140 00:53 14.05.2020
3173 Clouds 19 1013 72 10000 7 150 00:27 14.05.2020
3174 Clouds 19 1013 77 10000 7 150 23:45 13.05.2020
3175 Clouds 19 1013 77 10000 7 150 23:23 13.05.2020
3176 Clouds 19 1013 68 10000 7 150 22:59 13.05.2020
3177 Clouds 19 1013 68 10000 8 150 22:41 13.05.2020
3178 Clouds 19 1013 68 10000 8 150 22:21 13.05.2020
3179 Clouds 19 1013 68 10000 8 150 22:21 13.05.2020
3180 Clouds 19 1013 68 10000 7 140 21:57 13.05.2020
3181 Clouds 19 1013 72 10000 7 150 21:39 13.05.2020
3182 Clouds 19 1014 68 10000 7 150 21:19 13.05.2020
3183 Clouds 19 1014 68 10000 7 150 20:42 13.05.2020
3184 Clouds 19 1014 68 10000 8 150 20:23 13.05.2020
3185 Clouds 19 1014 68 10000 8 150 19:57 13.05.2020
3186 Clouds 19 1014 68 10000 7 150 19:39 13.05.2020
3187 Clouds 19 1014 68 10000 7 150 19:21 13.05.2020
3188 Clouds 19 1014 68 10000 7 150 18:42 13.05.2020
3189 Clouds 19 1014 68 10000 7 150 18:21 13.05.2020
3190 Clouds 19 1014 64 10000 8 140 17:40 13.05.2020
3191 Clouds 19 1014 64 10000 8 140 17:20 13.05.2020
3192 Clouds 19 1014 64 10000 8 140 17:20 13.05.2020
3193 Clouds 19 1015 64 10000 8 140 16:59 13.05.2020
3194 Clouds 20 1015 64 10000 8 130 16:40 13.05.2020
3195 Clouds 20 1015 68 10000 8 130 16:19 13.05.2020
3196 Clouds 20 1015 64 10000 7 130 15:43 13.05.2020
3197 Clouds 20 1015 64 10000 7 130 15:20 13.05.2020
3198 Clouds 20 1015 64 10000 7 130 15:20 13.05.2020
3199 Clouds 20 1015 64 10000 7 130 14:59 13.05.2020
3200 Clouds 20 1015 64 10000 7 130 14:59 13.05.2020
3201 Clouds 20 1015 64 10000 6 120 14:41 13.05.2020
3202 Clear 20 1015 64 10000 6 120 14:22 13.05.2020
3203 Clear 21 1015 56 10000 7 130 13:58 13.05.2020
3204 Clear 21 1015 60 10000 6 130 13:39 13.05.2020
3205 Clear 23 1015 60 10000 6 130 13:20 13.05.2020
3206 Clear 23 1014 56 10000 6 120 12:56 13.05.2020
3207 Clear 23 1014 50 10000 7 140 12:37 13.05.2020
3208 Clear 25 1014 41 10000 6 110 12:18 13.05.2020
3209 Clear 24 1014 41 10000 6 110 11:54 13.05.2020
3210 Clear 25 1014 34 10000 6 140 11:36 13.05.2020
3211 Clear 25 1014 34 10000 7 140 11:18 13.05.2020
3212 Clear 26 1014 34 10000 7 140 10:55 13.05.2020
3213 Clear 26 1014 28 10000 7 160 10:37 13.05.2020
3214 Clear 27 1014 23 10000 7 140 10:18 13.05.2020
3215 Clear 27 1014 21 10000 6 160 09:41 13.05.2020
3216 Clear 28 1014 21 10000 6 160 09:22 13.05.2020
3217 Clear 28 1014 20 10000 7 160 08:43 13.05.2020
3218 Clouds 28 1014 20 10000 7 160 08:22 13.05.2020
3219 Clouds 28 1015 20 10000 6 140 07:59 13.05.2020
3220 Clouds 29 1015 20 10000 5 140 07:37 13.05.2020
3221 Clouds 27 1016 20 10000 4 160 06:59 13.05.2020
3222 Clouds 29 1016 21 10000 4 150 06:41 13.05.2020
3223 Clouds 26 1017 24 10000 5 160 05:51 13.05.2020
3224 Clear 25 1018 25 10000 4 130 04:41 13.05.2020
3225 Clear 23 1018 36 10000 4 130 02:59 13.05.2020
3226 Clouds 22 1018 40 10000 4 110 02:22 13.05.2020
3227 Clouds 21 1017 37 10000 4 120 01:26 13.05.2020
3228 Clouds 20 1017 45 10000 3 100 00:41 13.05.2020
3229 Clouds 19 1017 45 10000 3 100 00:19 13.05.2020
3230 Clouds 19 1016 40 10000 2 120 23:40 12.05.2020
3231 Clouds 19 1016 40 10000 2 120 23:40 12.05.2020
3232 Clouds 19 1016 40 10000 2 120 23:21 12.05.2020
3233 Clouds 19 1016 40 10000 2 110 22:57 12.05.2020
3234 Clouds 19 1016 42 10000 3 110 22:38 12.05.2020
3235 Clouds 19 1016 40 10000 4 110 22:20 12.05.2020
3236 Clouds 19 1016 40 10000 4 110 21:54 12.05.2020
3237 Clouds 19 1015 37 10000 3 110 21:36 12.05.2020
3238 Clouds 19 1015 37 10000 2 100 21:18 12.05.2020
3239 Clouds 19 1015 37 10000 2 100 20:55 12.05.2020
3240 Clouds 19 1016 37 10000 3 80 20:36 12.05.2020
3241 Clouds 19 1016 37 10000 3 90 20:18 12.05.2020
3242 Clouds 19 1015 40 10000 3 90 19:41 12.05.2020
3243 Clouds 19 1015 40 10000 2 90 19:23 12.05.2020
3244 Clouds 19 1015 40 10000 2 90 18:58 12.05.2020
3245 Clouds 19 1015 37 10000 4 80 18:40 12.05.2020
3246 Clouds 19 1015 37 10000 4 80 18:21 12.05.2020
3247 Clouds 20 1016 37 10000 3 80 17:44 12.05.2020
3248 Clouds 20 1016 37 10000 3 80 17:25 12.05.2020
3249 Clouds 20 1015 35 10000 5 70 16:58 12.05.2020
3250 Clouds 20 1015 43 10000 4 70 16:40 12.05.2020
3251 Clouds 20 1015 46 10000 5 60 16:19 12.05.2020
3252 Clouds 21 1015 46 10000 5 60 15:54 12.05.2020
3253 Clouds 21 1014 46 10000 5 60 15:36 12.05.2020
3254 Clouds 21 1014 49 10000 6 50 15:18 12.05.2020
3255 Clouds 21 1014 49 10000 6 50 14:54 12.05.2020
3256 Clouds 22 1013 41 10000 5 20 14:36 12.05.2020
3257 Clouds 23 1012 21 10000 2 260 14:18 12.05.2020
3258 Clouds 24 1012 21 10000 3 270 13:41 12.05.2020
3259 Clouds 26 1011 20 10000 3 300 13:20 12.05.2020
3260 Clouds 27 1011 20 10000 3 300 12:59 12.05.2020
3261 Clouds 27 1011 20 10000 4 290 12:41 12.05.2020
3262 Clouds 28 1011 17 10000 6 290 12:22 12.05.2020
3263 Clouds 28 1011 17 10000 6 290 11:59 12.05.2020
3264 Clouds 29 1010 16 10000 5 310 11:39 12.05.2020
3265 Clear 30 1010 16 10000 5 310 11:21 12.05.2020
3266 Clear 29 1010 16 10000 5 290 10:59 12.05.2020
3267 Clear 30 1010 19 10000 5 300 10:40 12.05.2020
3268 Clear 30 1010 19 10000 5 300 10:22 12.05.2020
3269 Clear 30 1010 19 10000 5 300 09:59 12.05.2020
3270 Clear 30 1010 19 10000 5 320 09:40 12.05.2020
3271 Clear 30 1010 19 10000 5 320 09:21 12.05.2020
3272 Clear 30 1010 16 10000 6 300 08:57 12.05.2020
3273 Clear 30 1010 17 10000 5 280 08:38 12.05.2020
3274 Clear 30 1010 16 10000 6 280 08:19 12.05.2020
3275 Clear 30 1010 17 10000 6 290 07:41 12.05.2020
3276 Clear 30 1010 17 10000 6 290 07:22 12.05.2020
3277 Clear 29 1011 21 10000 5 0 06:47 12.05.2020
3278 Clear 29 1011 21 10000 5 0 06:27 12.05.2020
3279 Clear 27 1011 24 10000 6 300 05:50 12.05.2020
3280 Clear 27 1011 24 10000 6 300 05:30 12.05.2020
3281 Clear 25 1012 29 10000 5 280 03:26 12.05.2020
3282 Clear 22 1012 35 10000 5 290 02:29 12.05.2020
3283 Clear 22 1012 40 10000 4 280 01:59 12.05.2020
3284 Clear 21 1012 46 10000 2 240 01:24 12.05.2020
3285 Clear 19 1012 55 10000 2 260 00:26 12.05.2020
3286 Clear 19 1012 59 10000 2 290 23:58 11.05.2020
3287 Clear 19 1011 63 10000 1 0 23:40 11.05.2020
3288 Clear 18 1011 63 10000 1 0 23:20 11.05.2020
3289 Clear 19 1011 59 10000 1 0 22:58 11.05.2020
3290 Clear 19 1012 55 10000 2 280 22:40 11.05.2020
3291 Clear 19 1012 55 10000 2 280 22:20 11.05.2020
3292 Clear 19 1011 52 10000 2 320 21:57 11.05.2020
3293 Clear 19 1011 52 10000 4 330 21:38 11.05.2020
3294 Clear 19 1011 52 10000 3 320 21:19 11.05.2020
3295 Clear 19 1011 52 10000 3 320 21:19 11.05.2020
3296 Clear 19 1011 52 10000 3 320 20:57 11.05.2020
3297 Clear 19 1011 52 10000 4 340 20:38 11.05.2020
3298 Clouds 19 1011 55 10000 4 360 20:19 11.05.2020
3299 Clouds 19 1011 55 10000 4 360 19:54 11.05.2020
3300 Clouds 19 1011 55 10000 6 350 19:36 11.05.2020
3301 Clouds 19 1011 59 10000 6 350 19:18 11.05.2020
3302 Clouds 19 1011 59 10000 6 350 18:54 11.05.2020
3303 Clouds 19 1011 59 10000 6 350 18:54 11.05.2020
3304 Clouds 19 1011 60 10000 6 360 18:36 11.05.2020
3305 Clouds 20 1011 64 10000 7 10 18:18 11.05.2020
3306 Clouds 20 1011 64 10000 7 10 18:18 11.05.2020
3307 Clear 20 1011 64 10000 7 10 17:40 11.05.2020
3308 Clear 20 1011 64 10000 7 10 17:22 11.05.2020
3309 Clear 21 1011 60 10000 10 10 16:58 11.05.2020
3310 Clear 22 1010 60 10000 6 320 16:38 11.05.2020
3311 Clear 22 1010 60 10000 2 250 16:20 11.05.2020
3312 Clear 23 1010 60 10000 2 250 15:54 11.05.2020
3313 Clear 23 1010 60 10000 2 230 15:36 11.05.2020
3314 Clouds 24 1009 60 10000 3 240 15:18 11.05.2020
3315 Clouds 24 1009 60 10000 2 240 14:41 11.05.2020
3316 Clouds 24 1009 60 10000 2 240 14:22 11.05.2020
3317 Clouds 24 1009 53 10000 3 230 13:58 11.05.2020
3318 Clouds 25 1009 50 10000 3 270 13:39 11.05.2020
3319 Clouds 25 1009 47 10000 4 280 13:18 11.05.2020
3320 Clouds 25 1009 47 10000 4 280 13:18 11.05.2020
3321 Clouds 25 1009 47 10000 4 280 13:18 11.05.2020
3322 Clouds 25 1009 47 10000 4 280 13:18 11.05.2020
3323 Clouds 25 1009 47 10000 4 280 12:56 11.05.2020
3324 Clouds 26 1009 47 10000 4 280 12:38 11.05.2020
3325 Clouds 26 1009 42 10000 5 280 12:19 11.05.2020
3326 Clouds 26 1009 47 10000 5 270 11:42 11.05.2020
3327 Clouds 27 1009 47 10000 5 270 11:22 11.05.2020
3328 Clouds 27 1009 44 10000 5 260 10:59 11.05.2020
3329 Clouds 27 1009 47 8000 5 260 10:40 11.05.2020
3330 Clouds 27 1009 47 8000 6 260 10:22 11.05.2020
3331 Clouds 27 1009 47 8000 6 260 09:59 11.05.2020
3332 Clouds 27 1009 51 8000 5 250 09:41 11.05.2020
3333 Clouds 27 1009 51 8000 5 240 09:20 11.05.2020
3334 Clouds 28 1009 51 8000 5 240 08:56 11.05.2020
3335 Clouds 27 1010 51 6000 5 230 08:37 11.05.2020
3336 Haze 27 1010 51 4500 3 0 08:18 11.05.2020
3337 Haze 27 1010 54 4500 3 220 07:42 11.05.2020
3338 Haze 27 1010 54 4500 3 220 07:23 11.05.2020
3339 Haze 26 1012 54 4500 4 240 06:41 11.05.2020
3340 Haze 27 1012 57 4500 3 210 05:56 11.05.2020
3341 Haze 25 1012 57 4500 3 230 05:24 11.05.2020
3342 Haze 25 1013 64 4500 3 230 04:31 11.05.2020
3343 -273 0 0 0 0 0 02:59 11.05.2020
3344 Mist 21 1013 77 3200 2 210 02:29 11.05.2020
3345 Mist 20 1014 88 2600 2 180 01:34 11.05.2020
3346 Mist 19 1013 88 2500 2 170 00:52 11.05.2020
3347 Mist 18 1013 93 2500 2 140 00:19 11.05.2020
3348 Mist 18 1013 93 3200 2 150 23:43 10.05.2020
3349 Mist 18 1013 93 3200 2 150 23:24 10.05.2020
3350 Mist 18 1013 93 4000 1 170 22:55 10.05.2020
3351 Mist 18 1013 93 4000 1 170 22:55 10.05.2020
3352 Mist 18 1013 93 4000 1 160 22:37 10.05.2020
3353 Mist 18 1013 93 4000 1 180 22:18 10.05.2020
3354 Mist 18 1013 93 4000 1 160 21:43 10.05.2020
3355 Mist 18 1013 93 4000 1 160 21:19 10.05.2020
3356 Mist 18 1013 93 4000 2 150 20:43 10.05.2020
3357 Mist 18 1013 93 4000 2 150 20:25 10.05.2020
3358 Mist 18 1013 88 4000 3 150 19:59 10.05.2020
3359 Mist 18 1013 88 4000 3 180 19:40 10.05.2020
3360 Mist 18 1013 88 4000 3 180 19:22 10.05.2020
3361 Mist 18 1013 88 4000 3 170 18:57 10.05.2020
3362 Mist 18 1014 88 4000 2 150 18:37 10.05.2020
3363 Mist 18 1014 88 5000 3 150 18:19 10.05.2020
3364 Mist 18 1014 88 5000 3 150 17:58 10.05.2020
3365 Mist 19 1014 88 5000 2 140 17:40 10.05.2020
3366 Mist 18 1014 88 5000 2 140 17:40 10.05.2020
3367 Mist 19 1014 88 5000 2 140 17:21 10.05.2020
3368 Mist 19 1014 88 5000 4 140 16:55 10.05.2020
3369 Mist 19 1014 82 5000 4 150 16:37 10.05.2020
3370 Mist 19 1014 82 5000 4 150 16:18 10.05.2020
3371 Mist 20 1014 83 5000 4 150 15:42 10.05.2020
3372 Mist 20 1013 83 5000 4 150 15:23 10.05.2020
3373 Mist 20 1013 83 5000 4 150 14:57 10.05.2020
3374 Haze 20 1013 68 5000 4 160 14:38 10.05.2020
3375 Haze 21 1013 68 5000 4 160 14:19 10.05.2020
3376 Haze 21 1012 68 5000 2 150 13:58 10.05.2020
3377 Haze 22 1012 64 5000 2 120 13:37 10.05.2020
3378 Haze 22 1011 60 5000 2 80 13:19 10.05.2020
3379 Haze 22 1011 60 5000 2 80 12:56 10.05.2020
3380 Clouds 22 1011 60 6000 2 70 12:37 10.05.2020
3381 Clouds 23 1011 60 7000 3 80 12:19 10.05.2020
3382 -273 0 0 0 0 0 12:19 10.05.2020
3383 Clouds 23 1011 60 7000 3 80 11:54 10.05.2020
3384 Clouds 23 1011 60 7000 3 340 11:36 10.05.2020
3385 Clouds 24 1011 57 7000 2 340 11:18 10.05.2020
3386 Clouds 24 1011 60 6000 2 40 10:42 10.05.2020
3387 Clouds 24 1011 60 6000 2 40 10:24 10.05.2020
3388 Haze 24 1011 60 5000 1 0 09:43 10.05.2020
3389 Haze 25 1011 60 5000 1 0 09:24 10.05.2020
3390 Haze 25 1011 64 5000 2 0 08:59 10.05.2020
3391 Haze 24 1011 64 5000 3 340 08:41 10.05.2020
3392 Haze 24 1012 64 5000 3 320 08:22 10.05.2020
3393 Haze 25 1012 68 5000 3 340 07:43 10.05.2020
3394 Haze 23 1012 68 5000 4 340 07:19 10.05.2020
3395 Haze 22 1012 68 5000 4 340 06:51 10.05.2020
3396 Mist 21 1012 68 5000 4 340 06:27 10.05.2020
3397 Mist 20 1012 73 5000 2 320 05:46 10.05.2020
3398 Mist 21 1012 77 5000 2 350 04:48 10.05.2020
3399 Mist 20 1012 77 5000 2 350 04:29 10.05.2020
3400 Mist 20 1012 77 5000 2 350 03:51 10.05.2020
3401 Clouds 20 1012 77 6000 2 360 02:59 10.05.2020
3402 Clouds 19 1012 82 6000 2 360 02:25 10.05.2020
3403 Clouds 19 1012 88 6000 3 350 01:58 10.05.2020
3404 Clouds 19 1011 88 6000 2 320 01:39 10.05.2020
3405 Mist 19 1011 88 5000 1 0 01:18 10.05.2020
3406 Mist 18 1011 88 5000 1 0 00:52 10.05.2020
3407 Mist 18 1011 88 5000 0.77 226 00:21 10.05.2020
3408 Clouds 17 1010 93 6000 0.77 226 23:40 09.05.2020
3409 Clouds 17 1010 93 6000 0.77 226 23:40 09.05.2020
3410 Clouds 17 1010 93 6000 0.62 168 23:22 09.05.2020
3411 Rain 18 1010 93 7000 2 190 22:58 09.05.2020
3412 Rain 18 1010 82 10000 1 0 22:39 09.05.2020
3413 Rain 18 1010 82 10000 1 0 22:21 09.05.2020
3414 Thunderstorm 18 1010 82 10000 1 0 21:56 09.05.2020
3415 Clouds 18 1010 82 10000 2 10 21:38 09.05.2020
3416 Clouds 18 1011 82 10000 3 360 21:19 09.05.2020
3417 Clouds 18 1011 82 10000 3 360 20:56 09.05.2020
3418 Clouds 18 1010 82 10000 3 360 20:37 09.05.2020
3419 Clouds 18 1010 77 10000 4 20 20:18 09.05.2020
3420 Clouds 18 1010 77 10000 1 0 19:40 09.05.2020
3421 Clouds 18 1011 82 10000 2 110 19:20 09.05.2020
3422 Clouds 18 1011 82 10000 2 110 18:58 09.05.2020
3423 Clouds 18 1011 82 10000 1 0 18:40 09.05.2020
3424 Clouds 18 1011 82 10000 3 50 18:19 09.05.2020
3425 Clouds 19 1011 82 10000 4 30 17:44 09.05.2020
3426 Clouds 19 1011 77 10000 3 50 17:23 09.05.2020
3427 Clouds 19 1011 72 10000 3 30 16:43 09.05.2020
3428 Clouds 19 1011 72 10000 3 30 16:20 09.05.2020
3429 Clouds 19 1011 72 10000 4 360 15:58 09.05.2020
3430 Clouds 19 1010 72 10000 4 30 15:39 09.05.2020
3431 Clouds 20 1010 72 10000 4 10 15:21 09.05.2020
3432 Clouds 20 1009 72 10000 3 10 14:43 09.05.2020
3433 Clouds 20 1009 72 10000 3 10 14:20 09.05.2020
3434 Clouds 20 1009 72 10000 4 40 13:58 09.05.2020
3435 Clouds 22 1009 68 10000 4 30 13:40 09.05.2020
3436 Clouds 22 1009 68 10000 4 30 13:21 09.05.2020
3437 Clouds 22 1008 68 10000 4 30 12:55 09.05.2020
3438 Clouds 22 1008 73 10000 5 20 12:37 09.05.2020
3439 Clouds 24 1007 68 10000 5 20 12:19 09.05.2020
3440 Clouds 25 1007 69 10000 4 20 11:42 09.05.2020
3441 Clouds 25 1007 64 10000 4 20 11:19 09.05.2020
3442 Clouds 23 1007 64 10000 5 340 10:47 09.05.2020
3443 Clouds 24 1007 64 10000 5 340 10:26 09.05.2020
3444 Clouds 24 1007 61 10000 4 330 09:58 09.05.2020
3445 Clouds 27 1007 64 10000 5 340 09:39 09.05.2020
3446 Clouds 23 1007 64 10000 4 350 09:19 09.05.2020
3447 Clouds 26 1007 64 10000 4 350 08:51 09.05.2020
3448 Clouds 26 1007 64 10000 4 290 08:33 09.05.2020
3449 Clouds 26 1007 69 10000 4 270 07:51 09.05.2020
3450 Clouds 24 1008 64 10000 4 270 07:33 09.05.2020
3451 Clouds 24 1007 69 10000 5 290 06:55 09.05.2020
3452 Clouds 23 1008 69 10000 4 280 06:26 09.05.2020
3453 Clouds 23 1008 69 10000 5 290 05:49 09.05.2020
3454 Clouds 22 1008 78 10000 5 290 04:20 09.05.2020
3455 Clouds 22 1007 73 10000 4 280 03:38 09.05.2020
3456 Clouds 22 1007 83 8000 3 310 02:42 09.05.2020
3457 Mist 21 1007 88 5000 4 340 01:54 09.05.2020
3458 Mist 21 1007 88 5000 4 340 01:24 09.05.2020
3459 Mist 21 1007 88 5000 3 330 00:55 09.05.2020
3460 Mist 21 1006 88 5000 4 340 00:37 09.05.2020
3461 Mist 21 1006 88 5000 4 300 23:54 08.05.2020
3462 Clouds 21 1006 88 6000 5 310 23:36 08.05.2020
3463 Clouds 21 1005 88 6000 5 300 23:18 08.05.2020
3464 Clouds 22 1005 88 6000 5 310 22:42 08.05.2020
3465 Clouds 22 1005 88 6000 5 310 22:20 08.05.2020
3466 Clouds 22 1005 88 6000 4 300 21:59 08.05.2020
3467 Mist 22 1005 94 4000 5 300 21:40 08.05.2020
3468 Clouds 22 1004 94 6000 5 300 21:19 08.05.2020
3469 Clouds 22 1004 94 6000 5 300 20:58 08.05.2020
3470 Clouds 23 1004 94 7000 7 290 20:39 08.05.2020
3471 Clouds 23 1004 94 7000 7 290 20:39 08.05.2020
3472 Clouds 23 1004 94 7000 7 290 20:21 08.05.2020
3473 Rain 23 1004 94 7000 4 320 19:44 08.05.2020
3474 Rain 23 1004 100 10000 2 250 19:24 08.05.2020
3475 Rain 23 1004 100 10000 2 250 18:56 08.05.2020
3476 Rain 23 1004 94 10000 2 220 18:38 08.05.2020
3477 Rain 23 1004 94 10000 3 180 18:18 08.05.2020
3478 Rain 23 1004 88 10000 4 210 17:42 08.05.2020
3479 Rain 23 1004 88 10000 3 190 17:18 08.05.2020
3480 Rain 23 1004 83 10000 4 180 16:45 08.05.2020
3481 Rain 23 1004 83 10000 4 180 16:26 08.05.2020
3482 Clouds 23 1003 88 10000 5 160 15:57 08.05.2020
3483 Clouds 23 1003 88 10000 6 160 15:39 08.05.2020
3484 Clouds 23 1003 88 10000 6 160 15:18 08.05.2020
3485 Clouds 23 1003 83 10000 7 160 14:41 08.05.2020
3486 Clouds 23 1003 83 10000 7 160 14:41 08.05.2020
3487 Clouds 23 1003 83 10000 7 160 14:21 08.05.2020
3488 Clouds 23 1003 88 10000 6 160 13:59 08.05.2020
3489 Clouds 23 1003 88 10000 7 160 13:39 08.05.2020
3490 Clouds 23 1002 83 10000 6 160 13:19 08.05.2020
3491 Clouds 24 1002 83 10000 8 150 12:45 08.05.2020
3492 Clouds 25 1002 83 10000 8 150 12:25 08.05.2020
3493 Rain 25 1002 78 10000 7 150 11:57 08.05.2020
3494 Clouds 24 1002 83 10000 8 150 11:39 08.05.2020
3495 Clouds 26 1002 78 10000 7 150 11:20 08.05.2020
3496 Clouds 26 1002 78 10000 7 150 10:55 08.05.2020
3497 Clouds 26 1002 78 10000 7 150 10:37 08.05.2020
3498 Clouds 26 1003 74 10000 8 150 10:18 08.05.2020
3499 Clouds 27 1003 74 10000 7 150 09:41 08.05.2020
3500 Clouds 27 1003 74 10000 11 150 09:19 08.05.2020
3501 Clouds 27 1003 74 10000 11 150 08:51 08.05.2020
3502 Clouds 27 1003 74 10000 9 150 08:25 08.05.2020
3503 Clouds 27 1004 74 10000 10 150 07:55 08.05.2020
3504 Clouds 26 1004 74 10000 10 150 07:37 08.05.2020
3505 Clouds 26 1005 74 10000 8 160 07:19 08.05.2020
3506 Clouds 26 1005 74 10000 8 160 07:19 08.05.2020
3507 Clouds 25 1005 74 10000 8 150 06:39 08.05.2020
3508 Clouds 25 1005 74 10000 7 160 06:20 08.05.2020
3509 Clouds 24 1005 78 10000 8 160 05:29 08.05.2020
3510 Clouds 23 1006 78 10000 9 160 03:21 08.05.2020
3511 Clouds 22 1006 83 10000 8 150 02:29 08.05.2020
3512 Clouds 22 1007 83 10000 7 150 01:39 08.05.2020
3513 Clouds 21 1007 88 10000 8 150 01:20 08.05.2020
3514 Clouds 21 1007 88 10000 8 150 00:47 08.05.2020
3515 Clouds 21 1007 88 10000 8 150 00:25 08.05.2020
3516 Clouds 21 1007 83 10000 6 150 23:46 07.05.2020
3517 Clouds 21 1007 83 10000 6 150 23:24 07.05.2020
3518 Clouds 21 1007 83 10000 6 140 22:59 07.05.2020
3519 Clouds 21 1007 83 10000 5 140 22:41 07.05.2020
3520 Clouds 20 1007 83 10000 5 140 22:20 07.05.2020
3521 Clouds 20 1007 88 10000 6 140 21:57 07.05.2020
3522 Clouds 20 1007 83 10000 6 140 21:38 07.05.2020
3523 Clouds 20 1007 83 10000 6 140 21:19 07.05.2020
3524 Clouds 20 1007 83 10000 6 140 21:19 07.05.2020
3525 Clouds 20 1008 88 10000 6 140 20:56 07.05.2020
3526 Clouds 20 1008 88 10000 6 140 20:37 07.05.2020
3527 Clouds 20 1008 82 10000 8 140 20:18 07.05.2020
3528 Clouds 20 1009 82 10000 7 140 19:45 07.05.2020
3529 Clouds 20 1009 82 10000 7 140 19:21 07.05.2020
3530 Clouds 20 1009 82 10000 7 130 18:47 07.05.2020
3531 Clouds 20 1009 82 10000 7 130 18:28 07.05.2020
3532 Clouds 20 1009 82 10000 8 140 17:58 07.05.2020
3533 Clouds 20 1010 82 10000 7 130 17:37 07.05.2020
3534 Clouds 20 1010 77 10000 7 120 17:19 07.05.2020
3535 Clouds 20 1010 77 10000 8 130 16:42 07.05.2020
3536 Clouds 20 1010 77 10000 7 130 16:19 07.05.2020
3537 Clouds 20 1010 77 10000 7 130 15:57 07.05.2020
3538 Clouds 20 1010 77 10000 7 130 15:37 07.05.2020
3539 Clouds 20 1010 77 10000 7 120 15:18 07.05.2020
3540 Clouds 20 1010 77 10000 9 130 14:45 07.05.2020
3541 Clouds 20 1009 77 10000 7 130 14:23 07.05.2020
3542 Clouds 20 1009 77 10000 7 130 13:57 07.05.2020
3543 Clouds 20 1009 77 10000 8 120 13:39 07.05.2020
3544 Clear 22 1009 73 10000 7 130 13:18 07.05.2020
3545 Clear 21 1009 68 10000 8 130 12:39 07.05.2020
3546 Clear 21 1009 64 10000 8 130 12:19 07.05.2020
3547 Clouds 22 1009 60 10000 7 130 11:39 07.05.2020
3548 Clouds 23 1009 60 10000 7 130 11:21 07.05.2020
3549 Clouds 24 1009 60 10000 6 120 10:54 07.05.2020
3550 Clouds 25 1009 60 10000 7 120 10:36 07.05.2020
3551 Clouds 25 1009 57 10000 7 130 10:18 07.05.2020
3552 Clouds 24 1009 57 10000 7 130 09:38 07.05.2020
3553 Clouds 25 1010 57 10000 8 110 09:18 07.05.2020
3554 Clouds 24 1010 53 10000 7 130 08:43 07.05.2020
3555 Clouds 25 1011 54 10000 6 130 08:23 07.05.2020
3556 Clouds 25 1011 54 10000 6 130 07:58 07.05.2020
3557 Clear 25 1011 60 10000 6 130 07:39 07.05.2020
3558 Clear 25 1011 53 10000 7 130 07:19 07.05.2020
3559 Clouds 25 1011 60 10000 7 120 06:37 07.05.2020
3560 Clouds 25 1012 60 10000 7 140 05:58 07.05.2020
3561 Clouds 22 1012 68 10000 7 140 04:27 07.05.2020
3562 Clouds 21 1012 73 10000 6 130 03:31 07.05.2020
3563 Clouds 20 1012 77 10000 6 110 02:59 07.05.2020
3564 Clouds 20 1012 77 10000 7 120 02:26 07.05.2020
3565 Clouds 19 1012 77 10000 6 100 01:27 07.05.2020
3566 Clouds 19 1012 77 10000 5 110 00:52 07.05.2020
3567 Clouds 18 1012 82 10000 5 110 00:31 07.05.2020
3568 Clouds 18 1012 88 10000 4 110 23:58 06.05.2020
3569 Clouds 18 1012 88 10000 4 120 23:38 06.05.2020
3570 Clouds 18 1012 88 10000 5 110 23:19 06.05.2020
3571 Clouds 18 1012 88 10000 5 110 22:55 06.05.2020
3572 Clouds 18 1012 82 10000 3 90 22:37 06.05.2020
3573 Clouds 18 1012 82 10000 3 90 22:37 06.05.2020
3574 Clouds 18 1011 82 10000 3 100 22:18 06.05.2020
3575 Clouds 18 1012 82 10000 3 110 21:42 06.05.2020
3576 Clouds 18 1012 82 10000 3 110 21:22 06.05.2020
3577 Clouds 18 1012 82 10000 3 110 20:57 06.05.2020
3578 Clouds 18 1012 88 10000 3 100 20:38 06.05.2020
3579 Clouds 18 1012 88 10000 3 100 20:20 06.05.2020
3580 Clouds 18 1012 82 10000 3 100 19:56 06.05.2020
3581 Clouds 18 1012 82 10000 3 130 19:37 06.05.2020
3582 Clouds 19 1012 82 10000 3 90 19:18 06.05.2020
3583 Clouds 19 1012 82 10000 3 90 18:55 06.05.2020
3584 Clouds 19 1012 77 10000 3 80 18:36 06.05.2020
3585 Clouds 19 1012 82 10000 3 100 18:18 06.05.2020
3586 Clouds 19 1012 82 10000 3 100 17:54 06.05.2020
3587 Clouds 19 1012 82 10000 3 100 17:36 06.05.2020
3588 Clouds 19 1013 82 10000 2 130 17:18 06.05.2020
3589 Clouds 19 1013 82 10000 2 130 16:54 06.05.2020
3590 Clouds 19 1013 82 10000 2 110 16:36 06.05.2020
3591 Clouds 19 1013 82 10000 3 110 16:18 06.05.2020
3592 Clouds 19 1013 82 10000 3 100 15:42 06.05.2020
3593 Clouds 19 1013 82 10000 3 100 15:22 06.05.2020
3594 Clouds 19 1012 82 10000 4 100 15:22 06.05.2020
3595 Clouds 19 1012 82 10000 4 100 14:56 06.05.2020
3596 Clouds 20 1012 82 10000 3 110 14:37 06.05.2020
3597 Clouds 20 1012 82 10000 3 110 14:18 06.05.2020
3598 Clouds 20 1012 82 10000 3 110 14:18 06.05.2020
3599 Clouds 20 1012 82 10000 3 110 13:56 06.05.2020
3600 Clouds 20 1012 82 10000 2 110 13:36 06.05.2020
3601 Clouds 20 1012 82 10000 3 80 13:18 06.05.2020
3602 Clouds 20 1011 82 10000 3 80 12:42 06.05.2020
3603 Clouds 20 1011 82 10000 3 80 12:42 06.05.2020
3604 Clouds 19 1011 82 10000 3 80 12:23 06.05.2020
3605 Clouds 19 1011 82 10000 4 40 11:41 06.05.2020
3606 Clouds 19 1011 82 10000 4 40 11:21 06.05.2020
3607 Clouds 20 1011 82 10000 4 50 10:58 06.05.2020
3608 Clouds 20 1011 82 10000 4 50 10:58 06.05.2020
3609 Clouds 20 1011 77 10000 4 30 10:38 06.05.2020
3610 Clouds 21 1012 73 10000 4 10 10:19 06.05.2020
3611 Clouds 21 1012 73 10000 4 40 09:45 06.05.2020
3612 Clouds 22 1012 68 10000 3 40 09:24 06.05.2020
3613 Clouds 22 1012 73 10000 3 60 08:50 06.05.2020
3614 Clouds 22 1012 73 10000 3 60 08:24 06.05.2020
3615 Clouds 23 1012 73 10000 4 10 07:59 06.05.2020
3616 Clouds 24 1012 77 10000 3 10 07:40 06.05.2020
3617 Clouds 22 1012 77 10000 3 10 07:21 06.05.2020
3618 Clouds 22 1012 73 10000 4 10 06:53 06.05.2020
3619 Clouds 22 1012 77 10000 3 10 06:22 06.05.2020
3620 Clouds 23 1012 77 10000 3 10 05:55 06.05.2020
3621 Clouds 23 1013 77 10000 4 360 05:37 06.05.2020
3622 Clouds 20 1013 82 10000 2 360 04:38 06.05.2020
3623 Clouds 20 1013 82 10000 3 360 03:42 06.05.2020
3624 Clouds 19 1013 82 10000 4 10 03:20 06.05.2020
3625 Clouds 18 1012 88 8000 4 360 02:30 06.05.2020
3626 Clouds 18 1012 88 7000 4 10 01:54 06.05.2020
3627 Clouds 18 1011 88 8000 4 10 01:32 06.05.2020
3628 Clouds 17 1011 88 8000 4 10 00:54 06.05.2020
3629 Clouds 17 1011 88 8000 4 10 00:27 06.05.2020
3630 Clouds 17 1011 93 8000 4 10 23:56 05.05.2020
3631 Clouds 17 1010 87 10000 4 360 23:37 05.05.2020
3632 Clouds 17 1010 93 10000 6 360 23:18 05.05.2020
3633 Clouds 17 1010 93 10000 6 10 22:41 05.05.2020
3634 Clouds 17 1010 93 10000 6 10 22:20 05.05.2020
3635 Clouds 16 1010 93 10000 6 10 21:57 05.05.2020
3636 Clouds 16 1009 93 8000 6 10 21:38 05.05.2020
3637 Clouds 17 1009 93 7000 5 360 21:20 05.05.2020
3638 Clouds 16 1009 93 7000 5 360 20:56 05.05.2020
3639 Clouds 17 1009 93 10000 5 360 20:38 05.05.2020
3640 Clouds 17 1009 93 10000 5 340 20:18 05.05.2020
3641 Clouds 17 1010 93 10000 6 340 19:42 05.05.2020
3642 Clouds 17 1010 93 10000 6 340 19:24 05.05.2020
3643 Clouds 17 1009 93 10000 6 350 18:58 05.05.2020
3644 Clouds 17 1009 93 7000 5 350 18:40 05.05.2020
3645 Clouds 17 1009 93 7000 5 350 18:20 05.05.2020
3646 Mist 17 1009 93 4000 5 360 17:57 05.05.2020
3647 Rain 17 1010 100 4000 5 360 17:39 05.05.2020
3648 Rain 18 1009 93 4000 5 360 17:21 05.05.2020
3649 Rain 18 1009 93 4000 5 360 16:54 05.05.2020
3650 Clouds 18 1009 93 7000 5 360 16:36 05.05.2020
3651 Clouds 18 1009 93 7000 5 10 16:18 05.05.2020
3652 Clouds 18 1008 93 6000 6 10 15:40 05.05.2020
3653 Clouds 18 1007 93 7000 6 10 15:21 05.05.2020
3654 Clouds 18 1007 93 7000 6 10 14:55 05.05.2020
3655 Clouds 19 1007 93 10000 4 20 14:37 05.05.2020
3656 Clouds 19 1007 93 10000 4 20 14:19 05.05.2020
3657 Clouds 18 1007 88 10000 4 50 13:56 05.05.2020
3658 Clouds 18 1007 88 10000 5 60 13:38 05.05.2020
3659 Clouds 18 1007 88 10000 5 60 13:38 05.05.2020
3660 Clouds 18 1006 88 10000 4 70 13:18 05.05.2020
3661 Clouds 18 1006 88 10000 4 70 12:56 05.05.2020
3662 Clouds 18 1006 93 10000 4 70 12:37 05.05.2020
3663 Clouds 19 1006 93 10000 6 60 12:19 05.05.2020
3664 Clouds 19 1006 93 10000 7 50 11:41 05.05.2020
3665 Clouds 21 1006 88 10000 7 40 11:20 05.05.2020
3666 Clouds 19 1006 88 10000 7 40 10:56 05.05.2020
3667 Clouds 20 1005 94 7000 7 20 10:37 05.05.2020
3668 Mist 21 1005 88 5000 7 30 10:18 05.05.2020
3669 Clouds 21 1005 88 6000 5 20 09:44 05.05.2020
3670 Clouds 23 1005 88 6000 5 20 09:26 05.05.2020
3671 Clouds 23 1006 94 6000 4 20 08:59 05.05.2020
3672 Clouds 23 1006 94 6000 4 20 08:59 05.05.2020
3673 Clouds 23 1006 94 6000 2 80 08:39 05.05.2020
3674 Rain 23 1006 94 5000 3 70 08:18 05.05.2020
3675 Rain 23 1007 94 4000 2 60 07:44 05.05.2020
3676 Mist 23 1007 94 4000 2 60 07:22 05.05.2020
3677 Rain 23 1007 94 4000 1 0 06:58 05.05.2020
3678 Rain 23 1008 94 4000 3 220 06:39 05.05.2020
3679 Rain 21 1008 83 6000 2 250 05:53 05.05.2020
3680 Clouds 21 1008 83 6000 3 170 05:25 05.05.2020
3681 Clouds 19 1006 82 6000 6 130 02:41 05.05.2020
3682 Clouds 19 1007 88 7000 5 130 00:57 05.05.2020
3683 Clouds 19 1007 88 10000 5 120 00:37 05.05.2020
3684 Clouds 19 1007 88 10000 5 130 23:55 04.05.2020
3685 Clouds 18 1007 88 10000 5 130 23:36 04.05.2020
3686 Clouds 18 1007 82 10000 6 130 23:18 04.05.2020
3687 Clouds 18 1008 82 10000 4 130 22:42 04.05.2020
3688 Clouds 18 1008 82 10000 4 140 22:22 04.05.2020
3689 Clouds 18 1008 82 10000 4 140 21:57 04.05.2020
3690 Clouds 18 1008 82 10000 4 130 21:37 04.05.2020
3691 Clouds 18 1008 82 10000 4 130 21:37 04.05.2020
3692 Clouds 19 1009 82 10000 4 120 21:19 04.05.2020
3693 Clouds 19 1009 82 10000 4 120 21:19 04.05.2020
3694 Clouds 19 1009 82 10000 3 120 20:41 04.05.2020
3695 Clouds 19 1009 82 10000 3 120 20:41 04.05.2020
3696 Clouds 19 1009 82 10000 3 120 20:41 04.05.2020
3697 Clouds 19 1010 82 10000 4 110 20:21 04.05.2020
3698 Clouds 19 1009 82 10000 3 120 20:21 04.05.2020
3699 Clouds 18 1010 82 10000 4 110 19:56 04.05.2020
3700 Clouds 18 1010 82 10000 4 100 19:37 04.05.2020
3701 Clouds 18 1010 82 10000 5 110 19:18 04.05.2020
3702 Clouds 19 1010 82 10000 5 110 18:39 04.05.2020
3703 Clouds 19 1010 82 10000 5 110 18:20 04.05.2020
3704 Clouds 19 1010 82 10000 5 110 18:20 04.05.2020
3705 Clouds 19 1010 82 10000 5 100 17:56 04.05.2020
3706 Clouds 19 1011 82 10000 6 120 17:38 04.05.2020
3707 Clouds 19 1011 82 10000 6 130 17:20 04.05.2020
3708 Clouds 19 1011 77 10000 5 110 16:44 04.05.2020
3709 Clouds 19 1011 77 10000 5 110 16:44 04.05.2020
3710 Clouds 19 1011 77 10000 5 110 16:44 04.05.2020
3711 Clouds 19 1011 77 10000 5 110 16:23 04.05.2020
3712 Clouds 19 1011 77 10000 4 100 15:58 04.05.2020
3713 Clouds 19 1011 77 10000 4 90 15:40 04.05.2020
3714 Clouds 19 1011 77 10000 4 90 15:21 04.05.2020
3715 Clouds 19 1011 77 10000 5 80 14:48 04.05.2020
3716 Clouds 19 1011 77 10000 5 80 14:21 04.05.2020
3717 Clouds 20 1010 73 10000 5 70 13:21 04.05.2020
3718 Clouds 20 1010 73 10000 5 70 13:21 04.05.2020
3719 Clouds 20 1010 73 10000 5 70 13:21 04.05.2020
3720 Clouds 21 1009 64 10000 5 70 12:44 04.05.2020
3721 Clouds 21 1009 64 10000 5 70 12:44 04.05.2020
3722 Clouds 21 1009 64 10000 5 70 12:44 04.05.2020
3723 Clouds 21 1009 64 10000 5 70 12:44 04.05.2020
3724 Clouds 21 1009 64 10000 5 70 12:44 04.05.2020
3725 Clouds 24 1008 57 10000 5 60 11:01 04.05.2020
3726 Clouds 24 1008 57 10000 5 60 11:01 04.05.2020
3727 Clouds 24 1008 57 10000 5 60 11:01 04.05.2020
3728 Clouds 24 1008 57 10000 5 60 11:01 04.05.2020
3729 Clouds 24 1008 57 10000 5 60 11:01 04.05.2020
3730 Clear 27 1008 54 10000 4 120 09:26 04.05.2020
3731 Clear 27 1008 54 10000 4 120 09:26 04.05.2020
3732 Clear 27 1008 54 10000 4 120 09:26 04.05.2020
3733 Clear 27 1008 54 10000 4 120 09:26 04.05.2020
3734 Clear 27 1008 54 10000 4 120 09:26 04.05.2020
3735 Clear 28 1009 54 10000 4 120 07:53 04.05.2020
3736 Clear 28 1009 58 10000 3 80 07:33 04.05.2020
3737 Clear 28 1009 58 10000 3 80 07:33 04.05.2020
3738 Clear 28 1009 58 10000 3 80 07:33 04.05.2020
3739 Clear 28 1010 65 7000 4 60 05:24 04.05.2020
3740 Haze 27 1010 65 5000 4 60 04:48 04.05.2020
3741 Mist 26 1009 73 5000 4 30 02:42 04.05.2020
3742 Mist 24 1008 73 5000 3 20 01:22 04.05.2020
3743 Mist 22 1007 88 4000 2 10 23:59 03.05.2020
3744 Mist 22 1006 83 4000 1 350 23:41 03.05.2020
3745 Mist 23 1006 83 4000 1 350 23:23 03.05.2020
3746 Mist 23 1006 88 5000 3 360 22:43 03.05.2020
3747 Mist 23 1006 88 5000 3 360 22:24 03.05.2020
3748 Mist 23 1005 83 5000 2 350 21:42 03.05.2020
3749 Mist 23 1005 83 5000 2 350 21:22 03.05.2020
3750 Mist 23 1005 78 5000 2 360 20:56 03.05.2020
3751 Mist 24 1005 83 5000 2 360 20:38 03.05.2020
3752 Mist 24 1005 83 5000 2 360 20:19 03.05.2020
3753 Mist 24 1005 83 5000 2 360 20:19 03.05.2020
3754 Clear 24 1005 78 6000 2 150 19:47 03.05.2020
3755 Clear 24 1005 78 6000 2 150 19:47 03.05.2020
3756 Clear 24 1005 78 6000 2 150 19:46 03.05.2020
3757 Clear 24 1005 78 6000 2 150 19:46 03.05.2020
3758 Clear 24 1005 78 6000 2 150 19:46 03.05.2020
3759 Clear 25 1005 78 6000 2 150 19:27 03.05.2020
3760 Clear 25 1005 78 6000 2 150 19:27 03.05.2020
3761 Clear 25 1005 74 7000 2 80 18:40 03.05.2020
3762 Clear 25 1005 74 7000 2 80 18:21 03.05.2020
3763 Clear 25 1005 69 7000 2 90 17:59 03.05.2020
3764 Clear 25 1005 65 10000 1 0 17:40 03.05.2020
3765 Clear 26 1005 65 10000 1 0 17:20 03.05.2020
3766 Clear 26 1005 65 10000 1 0 17:20 03.05.2020
3767 Clear 26 1005 65 10000 2 10 16:45 03.05.2020
3768 Clear 26 1005 65 10000 2 10 16:20 03.05.2020
3769 Clear 26 1005 65 10000 2 10 16:19 03.05.2020
3770 Clear 27 1005 58 10000 1 0 15:58 03.05.2020
3771 Clear 27 1004 54 10000 1 0 15:39 03.05.2020
3772 Clear 28 1004 54 10000 1 0 15:20 03.05.2020
3773 Clear 28 1004 54 10000 1 240 14:57 03.05.2020
3774 Clear 29 1003 45 10000 2 280 14:38 03.05.2020
3775 Clear 29 1003 45 10000 2 0 14:20 03.05.2020
3776 Clear 30 1003 46 10000 3 290 13:41 03.05.2020
3777 Clear 30 1003 46 10000 3 290 13:41 03.05.2020
3778 Clear 31 1003 43 10000 2 270 12:59 03.05.2020
3779 Clear 31 1003 43 10000 2 270 12:59 03.05.2020
3780 Clear 31 1002 43 10000 3 260 12:38 03.05.2020
3781 Clear 33 1002 43 10000 4 250 11:58 03.05.2020
3782 Clear 33 1002 43 10000 4 260 11:40 03.05.2020
3783 Clear 33 1002 43 10000 4 260 11:21 03.05.2020
3784 Clear 34 1002 41 10000 6 250 10:59 03.05.2020
3785 Clear 34 1002 41 10000 5 250 10:39 03.05.2020
3786 Clear 34 1002 41 10000 5 250 10:39 03.05.2020
3787 Clear 34 1002 41 10000 5 250 10:39 03.05.2020
3788 Clear 34 1002 41 10000 5 250 10:39 03.05.2020
3789 Clear 34 1002 41 10000 5 250 10:39 03.05.2020
3790 Clear 35 1002 44 10000 6 260 09:47 03.05.2020
3791 Clear 35 1002 44 10000 6 260 09:46 03.05.2020
3792 Clear 35 1002 44 10000 6 260 09:46 03.05.2020
3793 Clear 35 1002 44 10000 6 260 09:45 03.05.2020
3794 Clear 35 1002 44 10000 6 260 09:45 03.05.2020
3795 Clear 34 1002 44 10000 6 260 09:27 03.05.2020
3796 Clear 34 1002 44 10000 6 260 09:26 03.05.2020
3797 Clear 34 1002 44 10000 5 0 08:36 03.05.2020
3798 Clear 33 1003 49 10000 4 290 08:00 03.05.2020
3799 Clear 34 1003 49 10000 4 270 07:38 03.05.2020
3800 Clear 34 1003 49 10000 4 270 07:38 03.05.2020
3801 Clear 34 1003 49 10000 4 270 07:38 03.05.2020
3802 Clear 33 1004 55 10000 4 270 06:00 03.05.2020
3803 Clear 32 1004 55 10000 5 260 05:41 03.05.2020
3804 Clear 31 1005 58 10000 4 250 04:29 03.05.2020
3805 Clear 30 1005 58 10000 4 260 03:56 03.05.2020
3806 Clear 27 1005 69 10000 3 230 02:38 03.05.2020
3807 Clouds 26 1005 73 10000 3 240 02:19 03.05.2020
3808 Clouds 26 1005 73 10000 3 240 02:19 03.05.2020
3809 Clouds 25 1004 78 10000 3 230 01:41 03.05.2020
3810 Clouds 24 1004 78 10000 3 230 01:22 03.05.2020
3811 Clouds 23 1004 88 10000 2 200 00:40 03.05.2020
3812 Rain 22 1004 88 10000 2 200 00:20 03.05.2020
3813 Rain 22 1003 94 10000 2 190 23:49 02.05.2020
3814 Rain 22 1003 94 10000 2 190 23:30 02.05.2020
3815 Clear 22 1003 88 10000 2 180 22:58 02.05.2020
3816 Clear 22 1003 88 10000 1 170 22:39 02.05.2020
3817 Clear 22 1003 88 10000 1 170 22:21 02.05.2020
3818 Clear 22 1002 88 10000 2 170 21:43 02.05.2020
3819 Rain 22 1002 88 10000 2 170 21:20 02.05.2020
3820 Rain 22 1002 83 10000 2 170 20:58 02.05.2020
3821 Rain 22 1002 88 10000 2 190 20:39 02.05.2020
3822 Clear 22 1002 83 10000 3 180 20:20 02.05.2020
3823 Clear 22 1002 83 10000 3 180 19:59 02.05.2020
3824 Clear 22 1003 83 10000 3 180 19:39 02.05.2020
3825 Clear 22 1003 83 10000 3 180 19:20 02.05.2020
3826 Clear 22 1003 83 10000 3 170 18:56 02.05.2020
3827 Clear 22 1003 83 10000 3 180 18:38 02.05.2020
3828 Clouds 22 1003 83 10000 3 190 18:19 02.05.2020
3829 Clouds 22 1003 83 10000 3 190 17:55 02.05.2020
3830 Clouds 23 1003 78 10000 3 180 17:37 02.05.2020
3831 Clouds 23 1003 78 10000 3 170 17:19 02.05.2020
3832 Clouds 23 1003 78 10000 3 170 17:19 02.05.2020
3833 Clouds 23 1003 73 10000 3 160 16:44 02.05.2020
3834 Rain 23 1003 73 10000 3 160 16:25 02.05.2020
3835 Rain 23 1003 73 10000 3 160 15:55 02.05.2020
3836 Rain 23 1004 73 10000 5 160 15:36 02.05.2020
3837 Rain 23 1003 73 10000 5 150 15:18 02.05.2020
3838 Rain 23 1003 69 10000 6 150 14:41 02.05.2020
3839 Clouds 23 1003 69 10000 6 150 14:22 02.05.2020
3840 Clouds 24 1003 65 10000 5 150 13:55 02.05.2020
3841 Clouds 24 1003 69 10000 5 140 13:37 02.05.2020
3842 Rain 26 1003 65 10000 6 150 13:18 02.05.2020
3843 Rain 26 1003 65 10000 6 150 13:18 02.05.2020
3844 Rain 25 1002 61 10000 5 140 12:40 02.05.2020
3845 Clouds 26 1002 61 10000 5 160 12:20 02.05.2020
3846 Clouds 27 1002 61 10000 5 160 11:55 02.05.2020
3847 Clouds 27 1002 58 10000 6 180 11:37 02.05.2020
3848 Clouds 28 1002 58 10000 5 190 11:18 02.05.2020
3849 Clouds 29 1002 55 10000 5 190 10:40 02.05.2020
3850 Clouds 29 1002 58 10000 4 190 10:22 02.05.2020
3851 Clouds 29 1002 58 10000 4 190 09:58 02.05.2020
3852 Clouds 29 1003 55 10000 5 190 09:39 02.05.2020
3853 Clouds 29 1003 58 10000 4 200 09:21 02.05.2020
3854 Clouds 29 1003 58 10000 4 200 08:51 02.05.2020
3855 Clouds 30 1003 55 10000 5 190 08:31 02.05.2020
3856 Clouds 28 1004 58 10000 6 200 07:49 02.05.2020
3857 Clouds 28 1004 58 10000 6 200 07:30 02.05.2020
3858 Clouds 27 1005 58 10000 7 190 06:54 02.05.2020
3859 Clouds 27 1005 58 10000 7 190 06:23 02.05.2020
3860 Clouds 26 1006 61 10000 6 210 05:27 02.05.2020
3861 Clouds 26 1007 65 10000 6 200 04:26 02.05.2020
3862 Clouds 24 1007 69 10000 6 170 03:36 02.05.2020
3863 Clouds 23 1007 73 10000 6 170 02:39 02.05.2020
3864 Rain 22 1007 78 10000 5 160 01:52 02.05.2020
3865 Clouds 21 1007 94 8000 5 150 00:58 02.05.2020
3866 Clouds 21 1007 94 8000 4 150 00:40 02.05.2020
3867 Rain 21 1007 94 10000 4 150 00:18 02.05.2020
3868 Rain 21 1007 94 10000 4 150 00:18 02.05.2020
3869 Rain 21 1007 94 10000 3 150 23:40 01.05.2020
3870 Rain 21 1007 94 8000 4 150 23:20 01.05.2020
3871 Rain 21 1007 94 8000 4 150 22:57 01.05.2020
3872 Rain 21 1007 94 8000 3 140 22:38 01.05.2020
3873 Rain 21 1007 94 8000 5 140 22:18 01.05.2020
3874 Rain 21 1007 94 8000 5 140 21:57 01.05.2020
3875 Rain 21 1007 94 8000 4 160 21:38 01.05.2020
3876 Rain 21 1005 92 0 0.45 119 21:18 01.05.2020
3877 Rain 21 1005 92 0 0.45 119 21:18 01.05.2020
3878 Rain 21 1005 92 0 0.45 119 21:18 01.05.2020
3879 Rain 21 1008 94 8000 4 150 20:56 01.05.2020
3880 Rain 21 1008 94 7000 4 150 20:37 01.05.2020
3881 Clouds 21 1008 94 8000 6 160 20:19 01.05.2020
3882 Rain 21 1008 94 8000 6 140 19:42 01.05.2020
3883 Rain 21 1005 94 0 4.92 161 19:22 01.05.2020
3884 Rain 21 1005 93 0 4.92 161 18:58 01.05.2020
3885 Rain 21 1009 94 8000 5 150 18:39 01.05.2020
3886 Rain 21 1009 94 8000 5 150 18:20 01.05.2020
3887 Rain 21 1006 92 0 4.84 152 17:57 01.05.2020
3888 Rain 21 1010 94 7000 4 150 17:38 01.05.2020
3889 Rain 21 1010 94 7000 4 150 17:20 01.05.2020
3890 Rain 21 1010 94 8000 3 150 16:55 01.05.2020
3891 Rain 21 1011 94 8000 4 160 16:37 01.05.2020
3892 Rain 21 1011 94 8000 4 160 16:37 01.05.2020
3893 Rain 21 1010 94 8000 5 140 16:18 01.05.2020
3894 Clouds 21 1010 88 8000 4 150 15:42 01.05.2020
3895 Rain 21 1010 88 8000 4 150 15:24 01.05.2020
3896 Rain 22 1010 88 8000 4 150 14:58 01.05.2020
3897 Clouds 22 1011 83 8000 3 170 14:39 01.05.2020
3898 Clouds 22 1011 83 8000 3 170 14:39 01.05.2020
3899 Clouds 22 1010 83 8000 3 120 14:20 01.05.2020
3900 Clouds 22 1010 83 8000 4 150 13:40 01.05.2020
3901 Clouds 22 1010 83 8000 4 150 13:22 01.05.2020
3902 Clouds 22 1010 88 8000 2 140 12:57 01.05.2020
3903 Rain 22 1010 83 10000 4 150 12:39 01.05.2020
3904 Rain 22 1010 83 10000 2 100 12:19 01.05.2020
3905 Rain 22 1010 83 10000 2 100 11:56 01.05.2020
3906 Rain 22 1010 78 10000 3 210 11:38 01.05.2020
3907 Rain 23 1010 78 10000 2 170 11:18 01.05.2020
3908 Rain 24 1010 73 10000 4 160 10:40 01.05.2020
3909 Clouds 24 1009 65 10000 4 140 10:20 01.05.2020
3910 Clouds 24 1010 69 10000 3 150 09:45 01.05.2020
3911 Clouds 24 1010 69 10000 3 150 09:21 01.05.2020
3912 Clouds 24 1010 69 10000 4 150 08:59 01.05.2020
3913 Clouds 25 1011 65 10000 4 170 08:41 01.05.2020
3914 Clouds 25 1011 65 10000 4 170 08:22 01.05.2020
3915 Clouds 25 1011 65 10000 4 170 08:22 01.05.2020
3916 Clouds 24 1011 61 10000 3 140 07:46 01.05.2020
3917 Rain 25 1012 65 10000 4 170 07:23 01.05.2020
3918 Rain 25 1012 65 10000 4 170 06:51 01.05.2020
3919 Clouds 24 1013 78 10000 4 200 05:36 01.05.2020
3920 Clouds 23 1013 73 10000 1 0 04:47 01.05.2020
3921 Rain 22 1013 83 8000 5 110 03:25 01.05.2020
3922 Clouds 23 1013 78 10000 2 330 02:45 01.05.2020
3923 Clouds 23 1013 78 10000 2 330 02:24 01.05.2020
3924 Clouds 22 1013 83 10000 1 0 01:28 01.05.2020
3925 Rain 22 1012 83 10000 1 0 00:59 01.05.2020
3926 Rain 21 1012 78 10000 4 90 00:37 01.05.2020
3927 Rain 22 1011 69 10000 4 300 00:18 01.05.2020
3928 Rain 22 1011 69 10000 4 300 23:55 30.04.2020
3929 Rain 22 1011 78 10000 5 270 23:37 30.04.2020
3930 Thunderstorm 22 1011 78 10000 6 230 23:18 30.04.2020
3931 Thunderstorm 21 1011 88 10000 6 190 22:41 30.04.2020
3932 Thunderstorm 21 1011 88 10000 6 190 22:20 30.04.2020
3933 Clouds 22 1010 78 10000 3 160 21:56 30.04.2020
3934 Clouds 22 1010 78 10000 3 160 21:37 30.04.2020
3935 Rain 22 1010 78 10000 4 160 21:19 30.04.2020
3936 Rain 22 1011 78 10000 4 150 20:42 30.04.2020
3937 Rain 22 1011 78 10000 4 150 20:19 30.04.2020
3938 Rain 22 1011 78 10000 4 150 19:58 30.04.2020
3939 Rain 22 1011 73 10000 4 150 19:39 30.04.2020
3940 Rain 23 1011 73 10000 4 160 19:20 30.04.2020
3941 Rain 23 1011 73 10000 4 160 18:55 30.04.2020
3942 Rain 23 1011 73 10000 4 150 18:37 30.04.2020
3943 Clouds 23 1011 73 10000 4 150 18:18 30.04.2020
3944 Clouds 23 1012 73 10000 5 150 17:41 30.04.2020
3945 Clouds 23 1012 73 10000 5 150 17:22 30.04.2020
3946 Clouds 23 1012 73 10000 5 150 16:59 30.04.2020
3947 Clouds 23 1012 69 10000 4 150 16:40 30.04.2020
3948 Clouds 23 1012 69 10000 4 150 16:20 30.04.2020
3949 Clouds 23 1012 69 10000 5 150 15:57 30.04.2020
3950 Clouds 24 1012 69 10000 5 150 15:39 30.04.2020
3951 Clouds 24 1012 69 10000 5 150 15:21 30.04.2020
3952 Clouds 24 1011 65 10000 4 150 14:40 30.04.2020
3953 Clouds 24 1011 65 10000 4 150 14:20 30.04.2020
3954 Clouds 25 1011 65 10000 4 150 13:57 30.04.2020
3955 Clouds 25 1011 57 10000 5 150 13:39 30.04.2020
3956 Clouds 25 1011 57 10000 5 150 13:20 30.04.2020
3957 Clouds 27 1011 51 10000 5 150 12:42 30.04.2020
3958 Clouds 27 1011 51 10000 5 150 12:42 30.04.2020
3959 Clouds 28 1011 51 10000 5 150 12:21 30.04.2020
3960 Clouds 28 1011 45 10000 5 150 11:59 30.04.2020
3961 Clouds 29 1010 42 10000 6 150 11:37 30.04.2020
3962 Clear 31 1010 40 10000 6 160 11:18 30.04.2020
3963 Clear 30 1010 40 10000 6 160 10:54 30.04.2020
3964 Clear 31 1011 40 10000 5 170 10:36 30.04.2020
3965 Clear 31 1011 40 10000 6 170 10:18 30.04.2020
3966 Clear 31 1011 38 10000 6 180 09:41 30.04.2020
3967 Clear 31 1011 38 10000 6 180 09:22 30.04.2020
3968 Clear 32 1011 36 10000 5 190 08:49 30.04.2020
3969 Clouds 32 1011 36 10000 5 190 08:27 30.04.2020
3970 Clouds 33 1011 33 10000 4 180 07:58 30.04.2020
3971 Clouds 33 1012 33 10000 4 200 07:39 30.04.2020
3972 Clouds 32 1012 36 10000 4 200 07:20 30.04.2020
3973 Clouds 31 1013 35 10000 4 190 06:33 30.04.2020
3974 Clouds 29 1013 40 10000 3 170 05:47 30.04.2020
3975 Clouds 28 1014 48 10000 3 180 04:48 30.04.2020
3976 Clouds 28 1014 48 10000 3 180 04:24 30.04.2020
3977 Clear 24 1014 57 10000 4 180 02:52 30.04.2020
3978 Clouds 22 1014 64 10000 4 180 02:28 30.04.2020
3979 Clouds 20 1014 82 10000 3 160 01:37 30.04.2020
3980 Clouds 19 1014 88 8000 3 150 00:53 30.04.2020
3981 Clear 18 1014 93 8000 2 160 00:24 30.04.2020
3982 Clear 18 1014 88 8000 3 150 23:59 29.04.2020
3983 Clear 18 1014 88 8000 3 150 23:59 29.04.2020
3984 Clear 18 1014 88 8000 3 160 23:41 29.04.2020
3985 Clear 18 1013 88 8000 2 160 23:22 29.04.2020
3986 Clear 18 1013 88 8000 2 160 22:58 29.04.2020
3987 Clear 18 1013 88 8000 2 150 22:39 29.04.2020
3988 Clear 18 1014 88 10000 3 140 22:19 29.04.2020
3989 Clouds 18 1014 88 10000 3 150 21:38 29.04.2020
3990 Clear 18 1014 88 10000 3 150 21:20 29.04.2020
3991 Clear 18 1014 88 10000 3 150 20:58 29.04.2020
3992 Clear 18 1014 88 10000 3 150 20:58 29.04.2020
3993 Clear 18 1014 88 10000 3 160 20:39 29.04.2020
3994 Clouds 18 1014 88 10000 4 150 20:19 29.04.2020
3995 Clouds 18 1014 88 10000 3 150 19:43 29.04.2020
3996 Clouds 18 1014 88 10000 3 150 19:43 29.04.2020
3997 Clouds 18 1014 88 10000 3 150 19:22 29.04.2020
3998 Clouds 18 1015 88 10000 4 150 18:58 29.04.2020
3999 Clouds 18 1015 88 10000 4 150 18:40 29.04.2020
4000 Clouds 18 1015 88 10000 4 150 18:19 29.04.2020
4001 Clouds 19 1015 82 10000 4 150 17:44 29.04.2020
4002 Clouds 19 1015 82 10000 4 150 17:22 29.04.2020
4003 Clouds 19 1015 82 10000 4 150 16:59 29.04.2020
4004 Clouds 19 1015 77 10000 4 150 16:37 29.04.2020
4005 Clouds 19 1015 77 10000 4 150 16:18 29.04.2020
4006 Clouds 19 1015 77 10000 4 150 15:55 29.04.2020
4007 Clouds 19 1015 72 10000 5 150 15:37 29.04.2020
4008 Clouds 19 1015 72 10000 4 150 15:18 29.04.2020
4009 Clouds 20 1015 68 10000 5 150 14:43 29.04.2020
4010 Clouds 20 1015 68 10000 5 150 14:25 29.04.2020
4011 Clouds 21 1015 64 10000 6 150 13:57 29.04.2020
4012 Clouds 21 1014 64 10000 5 150 13:38 29.04.2020
4013 Clouds 21 1014 60 10000 5 150 13:18 29.04.2020
4014 Clouds 22 1014 53 10000 6 160 12:41 29.04.2020
4015 Clouds 23 1014 50 10000 6 150 12:19 29.04.2020
4016 Clouds 23 1014 50 10000 6 150 11:59 29.04.2020
4017 Clouds 24 1014 47 10000 5 140 11:38 29.04.2020
4018 Clear 25 1014 47 10000 6 150 11:20 29.04.2020
4019 Clear 25 1014 44 10000 5 140 10:39 29.04.2020
4020 Clear 26 1014 44 10000 5 150 10:20 29.04.2020
4021 Clear 26 1014 44 10000 5 150 09:59 29.04.2020
4022 Clear 26 1014 39 10000 5 150 09:40 29.04.2020
4023 Clear 26 1014 42 10000 6 160 09:19 29.04.2020
4024 Clear 26 1015 42 10000 5 160 08:43 29.04.2020
4025 Clear 26 1015 42 10000 5 160 08:25 29.04.2020
4026 Clear 27 1015 44 10000 5 130 07:53 29.04.2020
4027 Clear 26 1015 42 10000 5 150 07:28 29.04.2020
4028 Clear 25 1016 44 10000 5 190 06:52 29.04.2020
4029 Clear 25 1016 44 10000 4 180 06:32 29.04.2020
4030 Clear 24 1017 47 10000 5 170 05:42 29.04.2020
4031 Clear 23 1017 47 10000 4 170 05:18 29.04.2020
4032 Clear 22 1018 49 10000 6 160 04:19 29.04.2020
4033 Clear 20 1018 56 10000 6 170 02:56 29.04.2020
4034 Clear 17 1018 67 10000 5 160 01:47 29.04.2020
4035 Clear 17 1018 67 10000 5 160 01:27 29.04.2020
4036 Clear 16 1017 72 10000 6 160 00:51 29.04.2020
4037 Clear 15 1017 77 10000 4 150 00:21 29.04.2020
4038 Clear 15 1017 77 10000 4 150 00:21 29.04.2020
4039 Clear 15 1017 82 10000 4 150 23:56 28.04.2020
4040 Clear 15 1017 82 10000 5 150 23:37 28.04.2020
4041 Clear 14 1017 76 10000 5 150 23:18 28.04.2020
4042 Clear 14 1017 76 10000 5 150 22:38 28.04.2020
4043 Clear 14 1017 76 10000 4 150 22:20 28.04.2020
4044 Clear 14 1017 76 10000 4 150 21:58 28.04.2020
4045 Clear 14 1017 76 10000 5 150 21:39 28.04.2020
4046 Clear 14 1017 76 10000 5 150 21:21 28.04.2020
4047 Clear 15 1018 72 10000 5 150 20:56 28.04.2020
4048 Clear 15 1018 72 10000 6 150 20:38 28.04.2020
4049 Clear 15 1018 72 10000 5 150 20:19 28.04.2020
4050 Clear 15 1018 67 10000 6 150 19:43 28.04.2020
4051 Clear 15 1019 67 10000 6 150 19:22 28.04.2020
4052 Clear 15 1018 67 10000 6 150 19:22 28.04.2020
4053 Clear 15 1019 67 10000 6 150 18:59 28.04.2020
4054 Clear 15 1019 67 10000 6 150 18:41 28.04.2020
4055 Clear 15 1019 67 10000 7 150 18:20 28.04.2020
4056 Clear 15 1019 67 10000 7 150 17:58 28.04.2020
4057 Clear 15 1019 67 10000 7 150 17:37 28.04.2020
4058 Clear 15 1020 67 10000 6 150 17:18 28.04.2020
4059 Clear 15 1020 62 10000 6 140 16:43 28.04.2020
4060 Clear 15 1020 55 10000 8 140 16:24 28.04.2020
4061 Clear 15 1020 55 10000 8 140 15:58 28.04.2020
4062 Clear 15 1019 55 10000 6 140 15:39 28.04.2020
4063 Clear 15 1019 55 10000 6 140 15:21 28.04.2020
4064 Clear 16 1019 55 10000 5 140 14:59 28.04.2020
4065 Clear 16 1019 48 10000 7 130 14:41 28.04.2020
4066 Clear 16 1019 39 10000 7 130 14:21 28.04.2020
4067 Clear 16 1019 39 10000 7 130 13:58 28.04.2020
4068 Clear 17 1019 36 10000 8 150 13:38 28.04.2020
4069 Clear 17 1019 31 10000 7 140 13:19 28.04.2020
4070 Clear 17 1019 31 10000 7 140 13:19 28.04.2020
4071 Clear 18 1019 38 10000 7 140 12:46 28.04.2020
4072 Clear 19 1019 32 10000 7 140 12:26 28.04.2020
4073 Clear 19 1019 24 10000 7 140 11:56 28.04.2020
4074 Clear 19 1019 24 10000 7 150 11:37 28.04.2020
4075 Clear 20 1020 22 10000 9 150 11:18 28.04.2020
4076 Clear 20 1020 19 10000 8 140 10:39 28.04.2020
4077 Clear 22 1020 18 10000 8 160 10:19 28.04.2020
4078 Clear 22 1020 18 10000 8 160 09:58 28.04.2020
4079 Clear 21 1020 17 10000 7 130 09:39 28.04.2020
4080 Clear 21 1020 17 10000 7 130 09:39 28.04.2020
4081 Clear 21 1021 19 10000 8 150 09:20 28.04.2020
4082 Clear 22 1021 20 10000 8 160 08:46 28.04.2020
4083 Clear 22 1021 20 10000 8 160 08:26 28.04.2020
4084 Clear 23 1022 22 10000 6 160 07:45 28.04.2020
4085 Clear 21 1022 23 10000 7 170 07:20 28.04.2020
4086 Clear 21 1022 23 10000 7 170 06:54 28.04.2020
4087 Clear 21 1023 26 10000 6 160 06:22 28.04.2020
4088 Clear 21 1023 28 10000 6 160 05:41 28.04.2020
4089 Clear 21 1023 28 10000 6 160 05:20 28.04.2020
4090 Clear 17 1024 48 10000 1 0 03:00 28.04.2020
4091 Clear 16 1024 55 10000 2 170 02:33 28.04.2020
4092 Clear 14 1024 67 10000 0.74 166 01:23 28.04.2020
4093 Clear 13 1024 71 10000 0.74 166 00:55 28.04.2020
4094 Clear 12 1024 76 10000 0.87 180 00:22 28.04.2020
4095 Clear 12 1024 81 10000 0.87 180 23:45 27.04.2020
4096 Clear 11 1024 81 10000 1.1 188 23:24 27.04.2020
4097 Clear 11 1024 81 10000 1 190 22:55 27.04.2020
4098 Clear 12 1024 76 10000 1 200 22:37 27.04.2020
4099 Clear 11 1024 76 10000 1 20 22:18 27.04.2020
4100 Clear 11 1024 76 10000 1 20 21:55 27.04.2020
4101 Clear 12 1024 71 10000 1 20 21:37 27.04.2020
4102 Clear 12 1024 76 10000 1 0 21:18 27.04.2020
4103 Clear 12 1024 76 10000 1 210 20:43 27.04.2020
4104 Clear 12 1024 76 10000 1 210 20:22 27.04.2020
4105 Clear 12 1024 76 10000 2 190 19:58 27.04.2020
4106 Clear 12 1024 76 10000 2 200 19:39 27.04.2020
4107 Clear 12 1024 71 10000 2 200 19:20 27.04.2020
4108 Clear 12 1024 71 10000 2 200 18:56 27.04.2020
4109 Clear 13 1025 71 10000 2 170 18:38 27.04.2020
4110 Clear 13 1025 71 10000 2 180 18:19 27.04.2020
4111 Clear 13 1025 62 10000 1 360 17:43 27.04.2020
4112 Clear 13 1025 62 10000 1 360 17:21 27.04.2020
4113 Clear 13 1025 62 10000 1 0 16:57 27.04.2020
4114 Clear 13 1025 58 10000 1 0 16:38 27.04.2020
4115 Clear 13 1025 58 10000 2 50 16:20 27.04.2020
4116 Clear 14 1025 58 10000 2 50 15:56 27.04.2020
4117 Clear 13 1025 58 10000 2 30 15:37 27.04.2020
4118 Rain 14 1024 58 10000 3 50 15:18 27.04.2020
4119 Rain 14 1024 47 10000 3 60 14:42 27.04.2020
4120 Rain 14 1024 47 10000 3 60 14:22 27.04.2020
4121 Clouds 15 1024 54 10000 4 50 13:58 27.04.2020
4122 Clouds 15 1024 47 10000 3 60 13:39 27.04.2020
4123 Rain 15 1024 51 10000 2 70 13:19 27.04.2020
4124 Rain 16 1024 45 10000 3 50 12:43 27.04.2020
4125 Rain 17 1024 45 10000 3 50 12:23 27.04.2020
4126 Clouds 17 1023 39 10000 7 40 11:59 27.04.2020
4127 Clouds 17 1023 36 10000 7 30 11:40 27.04.2020
4128 Clouds 17 1023 34 10000 7 40 11:19 27.04.2020
4129 Clouds 17 1023 34 10000 7 40 10:54 27.04.2020
4130 Clouds 18 1022 34 10000 6 70 10:36 27.04.2020
4131 Clouds 18 1023 31 10000 7 30 10:18 27.04.2020
4132 Clouds 18 1023 42 10000 7 20 09:42 27.04.2020
4133 Clouds 18 1022 25 10000 6 50 09:18 27.04.2020
4134 Clouds 19 1022 25 10000 6 50 08:53 27.04.2020
4135 Clouds 19 1022 22 10000 6 70 08:33 27.04.2020
4136 Clouds 21 1022 19 10000 7 60 07:46 27.04.2020
4137 Clouds 21 1022 19 10000 7 60 07:27 27.04.2020
4138 Clouds 20 1023 20 10000 7 50 06:59 27.04.2020
4139 Clouds 20 1022 24 10000 6 70 06:30 27.04.2020
4140 Clear 20 1022 30 10000 5 50 05:57 27.04.2020
4141 Clear 20 1022 39 10000 5 60 05:19 27.04.2020
4142 Clear 20 1022 45 10000 5 40 04:39 27.04.2020
4143 Clear 20 1022 45 10000 5 40 04:39 27.04.2020
4144 Clouds 18 1021 55 10000 4 90 03:47 27.04.2020
4145 Clouds 16 1021 72 10000 4 50 02:32 27.04.2020
4146 Clouds 15 1020 67 10000 3 90 01:20 27.04.2020
4147 Clear 15 1020 67 10000 2 80 00:40 27.04.2020
4148 Clear 14 1019 71 10000 2 80 00:19 27.04.2020
4149 Clear 14 1019 71 10000 2 80 23:55 26.04.2020
4150 Clear 14 1019 67 10000 3 80 23:37 26.04.2020
4151 Clear 14 1019 71 10000 3 80 23:18 26.04.2020
4152 Clear 14 1019 71 10000 3 90 22:40 26.04.2020
4153 Clear 14 1019 71 10000 3 90 22:21 26.04.2020
4154 Clear 14 1019 67 10000 4 60 21:59 26.04.2020
4155 Clear 14 1019 67 10000 4 70 21:40 26.04.2020
4156 Clouds 14 1019 67 10000 4 70 21:40 26.04.2020
4157 Rain 14 1019 67 10000 3 70 21:19 26.04.2020
4158 Rain 14 1019 67 10000 3 70 20:56 26.04.2020
4159 Rain 14 1019 67 10000 4 80 20:37 26.04.2020
4160 Rain 14 1018 67 10000 5 100 20:19 26.04.2020
4161 Rain 14 1018 67 10000 5 100 19:57 26.04.2020
4162 Rain 14 1019 67 10000 5 80 19:37 26.04.2020
4163 Rain 15 1019 72 10000 5 80 19:19 26.04.2020
4164 Rain 15 1019 72 10000 5 80 18:43 26.04.2020
4165 Rain 15 1019 72 10000 5 80 18:24 26.04.2020
4166 Clouds 15 1019 77 10000 5 90 17:44 26.04.2020
4167 Clouds 15 1019 77 10000 5 90 17:44 26.04.2020
4168 Clouds 15 1019 77 10000 5 80 17:24 26.04.2020
4169 Clouds 15 1019 77 10000 5 80 16:59 26.04.2020
4170 Clouds 15 1019 77 10000 7 90 16:40 26.04.2020
4171 Clouds 16 1019 72 10000 6 80 16:20 26.04.2020
4172 Clouds 16 1019 72 10000 6 80 15:58 26.04.2020
4173 Clouds 16 1019 72 10000 5 100 15:37 26.04.2020
4174 Clouds 16 1018 72 10000 5 90 15:19 26.04.2020
4175 Rain 16 1018 67 10000 5 110 14:41 26.04.2020
4176 Rain 16 1017 67 10000 5 110 14:20 26.04.2020
4177 Rain 16 1017 67 10000 5 110 13:59 26.04.2020
4178 Rain 16 1017 63 10000 6 100 13:40 26.04.2020
4179 Rain 17 1016 67 10000 6 80 13:22 26.04.2020
4180 Rain 16 1016 67 10000 6 80 12:57 26.04.2020
4181 Rain 17 1016 63 10000 6 90 12:39 26.04.2020
4182 Rain 17 1016 63 10000 6 90 12:39 26.04.2020
4183 Clear 19 1015 63 10000 6 110 12:20 26.04.2020
4184 Clear 18 1015 63 10000 6 110 11:55 26.04.2020
4185 Clear 20 1015 56 10000 6 90 11:36 26.04.2020
4186 Clear 19 1015 52 10000 6 100 11:18 26.04.2020
4187 Clear 20 1015 49 10000 6 110 10:42 26.04.2020
4188 Clear 23 1015 46 10000 6 90 10:24 26.04.2020
4189 Clear 20 1015 46 10000 6 90 09:58 26.04.2020
4190 Clouds 21 1015 43 10000 6 100 09:38 26.04.2020
4191 Clouds 21 1015 43 10000 6 100 09:38 26.04.2020
4192 Clouds 21 1015 43 10000 6 100 09:20 26.04.2020
4193 Clouds 22 1016 38 10000 4 90 08:41 26.04.2020
4194 Clouds 23 1016 38 10000 2 130 08:23 26.04.2020
4195 Clouds 24 1016 38 10000 1 0 07:49 26.04.2020
4196 Clouds 24 1016 38 10000 1 0 07:49 26.04.2020
4197 Clouds 22 1016 38 10000 1 0 07:25 26.04.2020
4198 Clouds 21 1017 38 10000 3 0 06:53 26.04.2020
4199 Clouds 21 1017 40 10000 2 90 06:31 26.04.2020
4200 Clouds 20 1017 40 10000 2 100 05:54 26.04.2020
4201 Clouds 23 1018 43 10000 2 130 05:34 26.04.2020
4202 Clouds 21 1018 49 10000 2 0 04:41 26.04.2020
4203 Clouds 19 1018 52 10000 3 60 03:43 26.04.2020
4204 Clouds 17 1018 63 10000 3 40 02:38 26.04.2020
4205 Clouds 17 1018 67 10000 3 60 02:19 26.04.2020
4206 Clouds 16 1018 67 10000 3 60 01:37 26.04.2020
4207 Clouds 15 1018 72 10000 3 60 00:41 26.04.2020
4208 Clouds 15 1018 72 10000 3 60 00:21 26.04.2020
4209 Clouds 15 1017 67 10000 4 50 23:57 25.04.2020
4210 Clouds 15 1017 67 10000 5 40 23:37 25.04.2020
4211 Clouds 15 1016 72 10000 5 30 23:18 25.04.2020
4212 Clouds 15 1016 77 10000 4 30 22:42 25.04.2020
4213 Clouds 15 1016 77 10000 4 30 22:21 25.04.2020
4214 Clouds 15 1016 77 10000 4 30 21:59 25.04.2020
4215 Clouds 16 1016 72 10000 4 50 21:39 25.04.2020
4216 Clouds 16 1016 72 10000 4 30 21:19 25.04.2020
4217 Clouds 16 1016 72 10000 4 30 21:19 25.04.2020
4218 Clouds 16 1016 72 10000 4 30 20:54 25.04.2020
4219 Clouds 16 1016 67 10000 5 20 20:36 25.04.2020
4220 Clouds 16 1016 59 10000 4 30 20:18 25.04.2020
4221 Clouds 17 1016 59 10000 4 50 19:40 25.04.2020
4222 Clouds 17 1016 59 10000 4 50 19:22 25.04.2020
4223 Clouds 17 1016 55 10000 5 40 18:56 25.04.2020
4224 Clouds 17 1016 59 10000 5 30 18:37 25.04.2020
4225 Clouds 18 1016 59 10000 5 30 18:18 25.04.2020
4226 Clouds 18 1016 59 10000 5 30 17:55 25.04.2020
4227 Clouds 19 1016 52 10000 2 30 17:36 25.04.2020
4228 Clouds 19 1016 52 10000 2 0 17:18 25.04.2020
4229 Clouds 20 1016 45 10000 4 190 16:43 25.04.2020
4230 Clouds 20 1016 45 10000 4 190 16:25 25.04.2020
4231 Clouds 21 1016 45 10000 4 180 15:58 25.04.2020
4232 Clouds 21 1015 45 10000 3 210 15:38 25.04.2020
4233 Clouds 21 1015 45 10000 3 200 15:19 25.04.2020
4234 Clouds 21 1015 45 10000 3 200 15:19 25.04.2020
4235 Clouds 21 1015 45 10000 3 200 14:56 25.04.2020
4236 Clouds 22 1015 45 10000 3 190 14:37 25.04.2020
4237 Clouds 22 1015 45 10000 4 190 14:18 25.04.2020
4238 Clouds 23 1014 31 10000 2 220 13:41 25.04.2020
4239 Clouds 23 1014 27 10000 3 240 13:19 25.04.2020
4240 Clouds 24 1014 27 10000 3 240 12:56 25.04.2020
4241 Clouds 24 1013 22 10000 3 250 12:38 25.04.2020
4242 Clouds 24 1013 22 10000 3 250 12:38 25.04.2020
4243 Clouds 25 1013 21 10000 5 250 12:19 25.04.2020
4244 Clouds 26 1013 21 10000 5 260 11:43 25.04.2020
4245 Clouds 26 1013 21 10000 5 260 11:25 25.04.2020
4246 Clouds 26 1013 19 10000 6 270 10:57 25.04.2020
4247 Clouds 26 1013 18 10000 7 260 10:38 25.04.2020
4248 Clouds 27 1013 38 10000 6 250 10:20 25.04.2020
4249 Clouds 26 1013 38 10000 6 250 09:43 25.04.2020
4250 Clouds 26 1013 36 10000 6 250 09:22 25.04.2020
4251 Clouds 26 1013 19 10000 5 240 08:55 25.04.2020
4252 Clouds 27 1014 26 10000 6 230 08:37 25.04.2020
4253 Clouds 27 1014 26 10000 6 230 08:37 25.04.2020
4254 Clouds 27 1014 26 10000 6 250 08:19 25.04.2020
4255 Clouds 27 1014 26 10000 6 270 07:43 25.04.2020
4256 Clouds 26 1014 26 10000 6 270 07:22 25.04.2020
4257 Clouds 25 1015 29 10000 7 260 06:42 25.04.2020
4258 Clouds 25 1015 29 10000 7 260 06:42 25.04.2020
4259 Clouds 25 1015 33 10000 6 230 05:46 25.04.2020
4260 Clouds 25 1015 33 10000 6 230 05:27 25.04.2020
4261 Clouds 23 1016 40 10000 5 220 04:24 25.04.2020
4262 Clouds 20 1016 48 10000 6 230 02:44 25.04.2020
4263 Clouds 18 1016 55 10000 4 230 02:18 25.04.2020
4264 Clouds 17 1016 59 10000 2 220 01:45 25.04.2020
4265 Clouds 15 1016 72 10000 2 180 01:19 25.04.2020
4266 Clouds 15 1016 71 10000 2 190 00:42 25.04.2020
4267 Clouds 14 1016 76 10000 3 190 00:18 25.04.2020
4268 Clouds 15 1016 76 10000 4 180 23:41 24.04.2020
4269 Clouds 14 1016 76 10000 4 180 23:20 24.04.2020
4270 Clouds 15 1016 76 10000 2 190 22:41 24.04.2020
4271 Clouds 15 1016 76 10000 2 190 22:21 24.04.2020
4272 Clouds 15 1016 76 10000 3 190 21:59 24.04.2020
4273 Clouds 15 1016 76 10000 3 190 21:40 24.04.2020
4274 Clear 15 1016 76 10000 3 190 21:22 24.04.2020
4275 Clear 15 1016 76 10000 3 190 20:57 24.04.2020
4276 Clear 15 1016 76 10000 3 190 20:57 24.04.2020
4277 Clear 15 1016 76 10000 3 190 20:57 24.04.2020
4278 Clear 15 1016 76 10000 3 190 20:38 24.04.2020
4279 Clear 15 1017 76 10000 3 190 20:18 24.04.2020
4280 Clear 16 1017 71 10000 3 190 19:44 24.04.2020
4281 Clear 16 1017 71 10000 3 190 19:25 24.04.2020
4282 Clear 16 1017 71 10000 3 190 18:56 24.04.2020
4283 Clear 16 1017 67 10000 3 190 18:38 24.04.2020
4284 Clear 16 1017 67 10000 3 190 18:38 24.04.2020
4285 Clear 16 1018 62 10000 2 200 18:19 24.04.2020
4286 Clear 17 1018 58 10000 3 190 17:42 24.04.2020
4287 Clear 17 1018 48 10000 5 190 17:23 24.04.2020
4288 Clear 17 1018 48 10000 5 190 16:59 24.04.2020
4289 Clear 17 1018 44 10000 3 190 16:40 24.04.2020
4290 Clear 17 1018 44 10000 3 190 16:40 24.04.2020
4291 Clear 17 1018 41 10000 3 200 16:21 24.04.2020
4292 Clear 17 1018 41 10000 3 200 15:55 24.04.2020
4293 Clear 17 1018 44 10000 3 190 15:37 24.04.2020
4294 Clear 17 1018 44 10000 3 190 15:37 24.04.2020
4295 Clear 18 1018 48 10000 3 190 15:18 24.04.2020
4296 Clear 19 1018 52 10000 2 200 14:40 24.04.2020
4297 Clear 19 1018 52 10000 2 200 14:20 24.04.2020
4298 Clear 19 1017 28 10000 2 240 13:45 24.04.2020
4299 Clear 19 1017 28 10000 2 240 13:27 24.04.2020
4300 Clear 20 1017 28 10000 2 240 12:59 24.04.2020
4301 Clear 20 1017 42 10000 3 250 12:41 24.04.2020
4302 Clear 21 1017 31 10000 3 250 12:21 24.04.2020
4303 Clear 21 1017 31 10000 4 260 11:57 24.04.2020
4304 Clear 22 1017 22 10000 4 240 11:37 24.04.2020
4305 Clear 22 1017 19 10000 5 250 11:18 24.04.2020
4306 Clear 22 1017 19 10000 5 250 11:18 24.04.2020
4307 Clear 22 1018 21 10000 6 230 10:38 24.04.2020
4308 Clear 22 1017 31 10000 5 270 10:20 24.04.2020
4309 Clear 22 1017 31 10000 5 270 09:58 24.04.2020
4310 Clear 23 1017 31 10000 6 250 09:39 24.04.2020
4311 Clouds 23 1017 26 10000 6 250 09:20 24.04.2020
4312 Clouds 23 1018 26 10000 4 260 08:43 24.04.2020
4313 Clouds 23 1018 26 10000 4 260 08:23 24.04.2020
4314 Clouds 23 1018 20 10000 6 300 07:59 24.04.2020
4315 Clouds 22 1019 20 10000 6 320 07:41 24.04.2020
4316 Clouds 22 1019 20 10000 6 320 07:22 24.04.2020
4317 Clouds 22 1020 18 10000 3 320 06:45 24.04.2020
4318 Clear 22 1020 18 10000 3 320 06:23 24.04.2020
4319 Clear 21 1021 19 10000 6 320 05:39 24.04.2020
4320 Clear 20 1022 39 10000 4 290 03:41 24.04.2020
4321 Clouds 18 1022 45 10000 3 280 02:51 24.04.2020
4322 Clouds 17 1021 51 10000 3 270 02:31 24.04.2020
4323 Clouds 15 1021 62 10000 2 220 01:46 24.04.2020
4324 Clouds 14 1021 67 10000 1 200 00:54 24.04.2020
4325 Clouds 13 1021 62 10000 1 180 00:19 24.04.2020
4326 Clouds 13 1021 62 10000 1 200 23:47 23.04.2020
4327 Clouds 13 1021 62 10000 1 200 23:27 23.04.2020
4328 Clouds 13 1020 58 10000 2 160 22:58 23.04.2020
4329 Clouds 13 1021 50 10000 1 0 22:39 23.04.2020
4330 Clouds 13 1021 50 10000 1 0 22:39 23.04.2020
4331 Clouds 13 1021 58 10000 1 0 22:20 23.04.2020
4332 Clouds 13 1021 58 10000 1 0 21:57 23.04.2020
4333 Clouds 14 1021 50 10000 1 130 21:39 23.04.2020
4334 Clouds 14 1021 50 10000 1 140 21:20 23.04.2020
4335 Clouds 14 1021 50 10000 1 130 21:20 23.04.2020
4336 Clouds 14 1021 50 10000 1 140 20:57 23.04.2020
4337 Clouds 14 1021 50 10000 2 140 20:39 23.04.2020
4338 Clouds 14 1021 50 10000 2 150 20:19 23.04.2020
4339 Clouds 14 1021 50 10000 2 150 19:55 23.04.2020
4340 Clouds 14 1021 50 10000 3 140 19:37 23.04.2020
4341 Clouds 14 1021 50 10000 2 140 19:19 23.04.2020
4342 Clouds 14 1022 50 10000 3 150 18:40 23.04.2020
4343 Clouds 14 1022 50 10000 3 150 18:22 23.04.2020
4344 Clouds 14 1022 50 10000 3 150 17:57 23.04.2020
4345 Clouds 14 1022 47 10000 3 150 17:39 23.04.2020
4346 Clouds 14 1022 47 10000 3 150 17:21 23.04.2020
4347 Clouds 14 1022 47 10000 4 150 16:44 23.04.2020
4348 Clouds 14 1022 47 10000 4 150 16:21 23.04.2020
4349 Clouds 14 1022 44 10000 3 150 15:59 23.04.2020
4350 Clouds 15 1022 41 10000 4 150 15:40 23.04.2020
4351 Clouds 15 1022 41 10000 4 150 15:22 23.04.2020
4352 Clouds 15 1022 38 10000 5 160 14:41 23.04.2020
4353 Clouds 15 1022 38 10000 5 160 14:22 23.04.2020
4354 Clouds 15 1022 38 10000 5 150 13:59 23.04.2020
4355 Clouds 15 1022 41 10000 5 150 13:40 23.04.2020
4356 Clouds 15 1022 38 10000 4 170 13:22 23.04.2020
4357 Clouds 16 1022 38 10000 4 170 12:57 23.04.2020
4358 Clouds 16 1021 38 10000 5 150 12:38 23.04.2020
4359 Clouds 15 1021 38 10000 5 150 12:20 23.04.2020
4360 Clouds 18 1021 36 10000 5 180 11:47 23.04.2020
4361 Clouds 18 1021 36 10000 5 180 11:27 23.04.2020
4362 Clouds 19 1021 36 10000 5 180 10:58 23.04.2020
4363 Clouds 19 1021 18 10000 1 0 10:39 23.04.2020
4364 Clouds 20 1021 20 10000 1 0 10:20 23.04.2020
4365 Clouds 18 1021 20 10000 3 360 09:40 23.04.2020
4366 Clouds 18 1021 20 10000 3 0 09:18 23.04.2020
4367 Clouds 18 1021 20 10000 3 0 09:18 23.04.2020
4368 Clouds 20 1021 19 10000 5 350 08:48 23.04.2020
4369 Clouds 19 1021 19 10000 5 350 08:29 23.04.2020
4370 Clouds 19 1022 17 10000 3 10 07:56 23.04.2020
4371 Clouds 19 1022 17 10000 3 10 07:38 23.04.2020
4372 Clouds 18 1023 17 10000 3 20 07:18 23.04.2020
4373 Clouds 18 1023 15 10000 3 50 06:43 23.04.2020
4374 Clouds 18 1023 24 10000 3 0 05:39 23.04.2020
4375 Clouds 18 1024 27 10000 3 40 05:21 23.04.2020
4376 Clouds 16 1024 48 10000 3 10 02:52 23.04.2020
4377 Clouds 15 1024 55 10000 2 30 02:23 23.04.2020
4378 Clouds 14 1024 67 10000 3 40 01:38 23.04.2020
4379 Clouds 13 1023 71 10000 3 20 00:51 23.04.2020
4380 Clouds 13 1023 82 10000 4 10 00:26 23.04.2020
4381 Clouds 13 1023 87 10000 3 360 23:55 22.04.2020
4382 Clouds 13 1023 76 10000 3 10 23:27 22.04.2020
4383 Clouds 13 1023 71 10000 2 20 22:59 22.04.2020
4384 Clouds 14 1023 67 10000 3 30 22:39 22.04.2020
4385 Clouds 13 1023 71 10000 3 30 22:20 22.04.2020
4386 Clouds 13 1023 71 10000 3 30 21:58 22.04.2020
4387 Clouds 14 1023 71 10000 3 30 21:39 22.04.2020
4388 Clouds 14 1023 71 10000 3 50 21:20 22.04.2020
4389 Clouds 14 1023 71 10000 3 30 21:20 22.04.2020
4390 Clouds 14 1023 71 10000 3 50 20:55 22.04.2020
4391 Clouds 14 1023 76 10000 4 30 20:37 22.04.2020
4392 Clouds 14 1023 76 10000 5 30 20:18 22.04.2020
4393 Clouds 14 1023 76 10000 5 30 19:55 22.04.2020
4394 Clouds 14 1022 76 10000 5 40 19:36 22.04.2020
4395 Clouds 14 1022 67 10000 5 30 19:18 22.04.2020
4396 Clouds 14 1022 67 10000 5 30 18:55 22.04.2020
4397 Clouds 14 1022 72 10000 5 40 18:37 22.04.2020
4398 Clouds 14 1022 67 10000 5 20 18:18 22.04.2020
4399 Clouds 15 1022 67 10000 6 20 17:42 22.04.2020
4400 Clouds 15 1022 67 10000 5 30 17:23 22.04.2020
4401 Clouds 15 1022 63 10000 4 30 16:47 22.04.2020
4402 Clouds 15 1022 63 10000 4 30 16:28 22.04.2020
4403 Clouds 15 1021 63 10000 6 30 15:58 22.04.2020
4404 Clouds 15 1021 63 10000 6 40 15:38 22.04.2020
4405 Rain 16 1021 59 10000 5 360 15:19 22.04.2020
4406 Rain 16 1021 59 10000 5 360 14:55 22.04.2020
4407 Rain 16 1020 59 10000 3 210 14:36 22.04.2020
4408 Rain 16 1020 63 10000 4 200 14:18 22.04.2020
4409 Rain 16 1020 52 10000 3 210 13:43 22.04.2020
4410 Rain 16 1019 45 10000 2 240 13:20 22.04.2020
4411 Rain 17 1019 45 10000 3 250 12:42 22.04.2020
4412 Rain 17 1019 45 10000 3 250 12:23 22.04.2020
4413 Rain 17 1019 42 10000 3 260 11:57 22.04.2020
4414 Rain 18 1019 42 10000 3 250 11:37 22.04.2020
4415 Rain 19 1019 39 10000 4 230 11:18 22.04.2020
4416 Rain 19 1019 39 10000 4 230 11:18 22.04.2020
4417 Rain 18 1019 39 10000 4 0 10:42 22.04.2020
4418 Rain 18 1019 39 10000 4 0 10:23 22.04.2020
4419 Clouds 19 1019 39 10000 4 250 09:42 22.04.2020
4420 Clouds 19 1019 39 10000 4 250 09:23 22.04.2020
4421 Clouds 20 1020 40 10000 3 220 08:59 22.04.2020
4422 Clouds 19 1020 42 10000 3 0 08:41 22.04.2020
4423 Clouds 19 1020 42 10000 3 0 08:41 22.04.2020
4424 Clouds 19 1020 42 10000 3 260 08:22 22.04.2020
4425 Clouds 19 1020 42 10000 3 260 07:54 22.04.2020
4426 Clouds 19 1021 42 10000 2 0 07:33 22.04.2020
4427 Clouds 19 1021 45 10000 2 250 06:54 22.04.2020
4428 Clouds 19 1022 45 10000 2 0 06:34 22.04.2020
4429 Clear 17 1022 48 10000 2 0 05:39 22.04.2020
4430 Clear 17 1023 48 10000 1 0 04:34 22.04.2020
4431 Clouds 15 1023 54 10000 3 170 02:59 22.04.2020
4432 Clouds 14 1023 58 10000 1 0 01:55 22.04.2020
4433 Clouds 13 1022 58 10000 1 0 01:28 22.04.2020
4434 Clouds 13 1022 71 10000 1 180 00:59 22.04.2020
4435 Clouds 13 1022 71 10000 1 180 00:59 22.04.2020
4436 Clouds 13 1022 58 10000 1.55 153 00:41 22.04.2020
4437 Clouds 12 1022 66 10000 1 0 00:19 22.04.2020
4438 Clouds 12 1022 62 10000 2.04 162 23:43 21.04.2020
4439 Clouds 12 1022 62 10000 1 0 23:20 21.04.2020
4440 Clouds 12 1022 62 10000 2.04 162 22:41 21.04.2020
4441 Clouds 12 1022 62 10000 2.04 162 22:22 21.04.2020
4442 Clouds 12 1022 62 10000 1 0 21:59 21.04.2020
4443 Clouds 12 1022 62 10000 1 0 21:59 21.04.2020
4444 Clouds 12 1022 62 10000 1 0 21:59 21.04.2020
4445 Clouds 12 1022 62 10000 2.04 162 21:41 21.04.2020
4446 Clouds 12 1022 62 10000 2.61 165 21:23 21.04.2020
4447 Clouds 12 1021 66 10000 1 0 20:57 21.04.2020
4448 Clouds 12 1021 58 10000 2 150 20:39 21.04.2020
4449 Clouds 12 1021 58 10000 2 150 20:21 21.04.2020
4450 Clouds 13 1022 54 10000 2.61 165 19:41 21.04.2020
4451 Clouds 12 1023 54 10000 1 0 19:20 21.04.2020
4452 Clouds 13 1023 54 10000 1 0 18:58 21.04.2020
4453 Clouds 13 1023 54 10000 1 0 18:39 21.04.2020
4454 Rain 13 1023 54 10000 1 0 18:19 21.04.2020
4455 Rain 13 1023 54 10000 1 0 17:57 21.04.2020
4456 Rain 12 1023 54 10000 1 0 17:38 21.04.2020
4457 Rain 12 1023 54 10000 1 0 17:19 21.04.2020
4458 Rain 12 1022 54 10000 3 110 16:39 21.04.2020
4459 Rain 12 1022 54 10000 1 0 16:19 21.04.2020
4460 Rain 12 1022 54 10000 1 0 15:58 21.04.2020
4461 Rain 12 1022 54 10000 5 150 15:40 21.04.2020
4462 Rain 12 1022 54 10000 5 150 15:22 21.04.2020
4463 Rain 12 1022 54 10000 4 160 14:58 21.04.2020
4464 Rain 13 1022 54 10000 4 140 14:39 21.04.2020
4465 Rain 13 1022 54 10000 4 140 14:21 21.04.2020
4466 Rain 13 1021 47 10000 3 90 13:42 21.04.2020
4467 Rain 13 1021 47 10000 3 90 13:42 21.04.2020
4468 Rain 14 1021 47 10000 3 90 13:23 21.04.2020
4469 Rain 13 1020 47 10000 5 130 12:57 21.04.2020
4470 Rain 13 1020 50 10000 4 80 12:37 21.04.2020
4471 Clouds 14 1020 54 10000 3 80 12:18 21.04.2020
4472 Clouds 15 1020 54 10000 3 80 11:55 21.04.2020
4473 Clouds 14 1020 58 10000 4 90 11:36 21.04.2020
4474 Clouds 14 1020 58 10000 4 80 11:18 21.04.2020
4475 Clouds 14 1020 58 10000 4 80 11:18 21.04.2020
4476 Clouds 14 1020 58 10000 4 80 10:55 21.04.2020
4477 Clouds 14 1019 54 10000 4 70 10:37 21.04.2020
4478 Clouds 14 1019 51 10000 4 50 10:19 21.04.2020
4479 Clouds 14 1020 51 10000 4 60 09:37 21.04.2020
4480 Clouds 14 1020 51 10000 4 50 09:19 21.04.2020
4481 Clouds 14 1020 51 10000 4 50 08:56 21.04.2020
4482 Clouds 15 1020 58 10000 5 40 08:38 21.04.2020
4483 Clouds 14 1020 51 10000 5 30 08:18 21.04.2020
4484 Clouds 14 1020 54 10000 3 70 07:43 21.04.2020
4485 Clouds 15 1020 54 10000 3 70 07:21 21.04.2020
4486 Clouds 15 1020 54 10000 4 60 06:44 21.04.2020
4487 Rain 15 1020 51 10000 5 80 06:19 21.04.2020
4488 Rain 14 1021 58 10000 4 60 05:48 21.04.2020
4489 Rain 14 1020 67 10000 2 90 03:48 21.04.2020
4490 Rain 14 1020 67 10000 2 90 03:27 21.04.2020
4491 Rain 13 1020 76 10000 1 0 01:40 21.04.2020
4492 Rain 13 1020 87 10000 1 0 00:52 21.04.2020
4493 Rain 12 1019 87 10000 2 160 00:31 21.04.2020
4494 Rain 12 1019 87 10000 1 0 23:44 20.04.2020
4495 Rain 12 1019 81 10000 1 0 23:23 20.04.2020
4496 Rain 12 1019 81 10000 1 0 22:57 20.04.2020
4497 Rain 12 1019 81 10000 1 0 22:57 20.04.2020
4498 Rain 12 1019 81 10000 2 130 22:37 20.04.2020
4499 Rain 12 1019 87 10000 3 100 22:19 20.04.2020
4500 Rain 12 1019 87 10000 3 100 21:55 20.04.2020
4501 Rain 13 1018 87 8000 4 70 21:37 20.04.2020
4502 Rain 13 1018 93 6000 4 80 21:18 20.04.2020
4503 Rain 13 1018 93 6000 4 80 20:55 20.04.2020
4504 Rain 13 1018 87 6000 3 80 20:36 20.04.2020
4505 Rain 13 1019 87 6000 4 80 20:18 20.04.2020
4506 Rain 13 1019 87 6000 3 70 19:41 20.04.2020
4507 Rain 13 1019 87 6000 3 70 19:41 20.04.2020
4508 Rain 13 1019 87 6000 3 70 19:22 20.04.2020
4509 Rain 13 1019 87 5000 4 70 18:58 20.04.2020
4510 Rain 13 1019 87 4000 6 50 18:39 20.04.2020
4511 Rain 14 1019 87 5000 4 30 18:20 20.04.2020
4512 Rain 14 1019 87 5000 4 30 18:20 20.04.2020
4513 Rain 14 1019 87 5000 4 30 17:54 20.04.2020
4514 Rain 14 1018 87 5000 2 10 17:36 20.04.2020
4515 Rain 15 1019 82 10000 2 150 17:18 20.04.2020
4516 Rain 16 1018 82 10000 2 190 16:41 20.04.2020
4517 Rain 16 1018 82 10000 2 190 16:20 20.04.2020
4518 Rain 17 1016 77 10000 4 90 15:56 20.04.2020
4519 Rain 18 1017 68 10000 4 110 15:38 20.04.2020
4520 Clouds 18 1018 63 10000 3 160 15:19 20.04.2020
4521 -273 0 0 0 0 0 14:41 20.04.2020
4522 Clouds 18 1016 63 10000 3 160 14:19 20.04.2020
4523 Clouds 19 1016 63 10000 3 160 13:58 20.04.2020
4524 Clouds 19 1015 63 10000 4 150 13:38 20.04.2020
4525 Clouds 20 1015 46 10000 4 20 13:20 20.04.2020
4526 Clouds 21 1014 49 10000 4 10 12:44 20.04.2020
4527 Clouds 21 1014 49 10000 4 10 12:22 20.04.2020
4528 Clouds 21 1014 46 10000 3 40 11:55 20.04.2020
4529 Clouds 21 1014 46 10000 4 30 11:36 20.04.2020
4530 Clouds 22 1014 46 10000 5 40 11:18 20.04.2020
4531 Clouds 22 1014 46 10000 5 40 10:54 20.04.2020
4532 Clouds 22 1013 46 10000 3 50 10:36 20.04.2020
4533 Clouds 22 1014 43 10000 3 30 10:18 20.04.2020
4534 Clouds 23 1014 43 10000 2 330 09:41 20.04.2020
4535 Clouds 23 1014 43 10000 2 330 09:23 20.04.2020
4536 Clouds 23 1014 43 10000 2 310 08:56 20.04.2020
4537 Clouds 22 1015 46 10000 3 340 08:38 20.04.2020
4538 Clouds 22 1015 46 10000 2 210 08:18 20.04.2020
4539 Clouds 22 1015 46 10000 3 0 07:42 20.04.2020
4540 Clouds 22 1016 49 10000 2 0 07:20 20.04.2020
4541 Clouds 21 1017 49 10000 1 0 06:38 20.04.2020
4542 Clouds 20 1017 56 10000 3 260 05:59 20.04.2020
4543 Clouds 20 1017 59 10000 2 250 04:51 20.04.2020
4544 Clouds 16 1017 82 7000 2 270 02:52 20.04.2020
4545 Clouds 16 1017 82 7000 2 270 02:33 20.04.2020
4546 Mist 14 1017 87 5000 2 220 01:30 20.04.2020
4547 Mist 13 1015 93 5000 1 170 00:45 20.04.2020
4548 Mist 13 1015 93 5000 1 170 00:22 20.04.2020
4549 Clouds 13 1015 93 10000 1 0 23:40 19.04.2020
4550 Clouds 13 1015 93 10000 1 0 23:21 19.04.2020
4551 Clouds 13 1015 93 10000 1 0 22:57 19.04.2020
4552 Clouds 13 1015 87 10000 2 290 22:37 19.04.2020
4553 Clouds 13 1015 87 10000 2 280 22:19 19.04.2020
4554 Clouds 13 1015 87 10000 2 260 21:42 19.04.2020
4555 Clouds 13 1015 87 10000 2 250 21:24 19.04.2020
4556 Clouds 13 1015 87 10000 2 250 20:58 19.04.2020
4557 Clouds 13 1015 87 10000 2 250 20:40 19.04.2020
4558 Clouds 13 1015 87 10000 2 250 20:20 19.04.2020
4559 Clouds 13 1015 87 10000 2 250 19:56 19.04.2020
4560 Clouds 13 1015 82 10000 2 240 19:38 19.04.2020
4561 Clouds 13 1015 82 10000 2 250 19:20 19.04.2020
4562 Clouds 14 1015 82 10000 2 250 18:57 19.04.2020
4563 Clouds 14 1015 82 10000 1 0 18:38 19.04.2020
4564 Clouds 14 1015 76 10000 1 270 18:19 19.04.2020
4565 Clouds 14 1015 76 10000 1 270 18:19 19.04.2020
4566 Clouds 14 1015 76 10000 1 270 17:56 19.04.2020
4567 Clouds 14 1015 76 10000 3 320 17:37 19.04.2020
4568 Clouds 14 1015 76 10000 2 320 17:19 19.04.2020
4569 Clouds 15 1015 72 10000 3 320 16:40 19.04.2020
4570 Clouds 15 1015 72 10000 3 320 16:21 19.04.2020
4571 Clouds 15 1015 72 10000 3 320 15:58 19.04.2020
4572 Clouds 15 1015 72 10000 4 320 15:40 19.04.2020
4573 Clouds 15 1015 72 10000 5 310 15:19 19.04.2020
4574 Clouds 15 1014 77 10000 5 320 14:39 19.04.2020
4575 Clouds 15 1014 67 10000 7 310 14:21 19.04.2020
4576 Clouds 15 1014 67 10000 7 310 13:57 19.04.2020
4577 Clouds 15 1013 67 10000 6 310 13:37 19.04.2020
4578 Clouds 15 1013 67 10000 5 310 13:18 19.04.2020
4579 Clouds 16 1012 67 10000 7 310 12:44 19.04.2020
4580 Clouds 16 1012 67 10000 7 310 12:44 19.04.2020
4581 Clouds 16 1012 67 10000 7 310 12:24 19.04.2020
4582 Clouds 16 1012 67 10000 8 310 11:54 19.04.2020
4583 Clouds 16 1012 63 10000 8 310 11:36 19.04.2020
4584 Clouds 16 1011 72 10000 7 310 11:18 19.04.2020
4585 Clouds 16 1011 72 10000 7 310 10:41 19.04.2020
4586 Clouds 16 1011 72 10000 7 310 10:21 19.04.2020
4587 Clouds 16 1011 72 8000 6 300 09:56 19.04.2020
4588 Clouds 16 1011 72 8000 8 300 09:38 19.04.2020
4589 Clouds 18 1010 72 8000 8 300 09:18 19.04.2020
4590 Clouds 17 1010 77 8000 8 300 08:40 19.04.2020
4591 Clouds 17 1010 77 8000 8 300 08:40 19.04.2020
4592 Clouds 16 1009 72 8000 9 300 08:21 19.04.2020
4593 Clouds 17 1009 77 8000 9 290 07:48 19.04.2020
4594 Clouds 16 1009 77 8000 9 290 07:25 19.04.2020
4595 Clouds 16 1009 77 8000 7 290 06:56 19.04.2020
4596 Clouds 16 1009 82 8000 8 280 06:22 19.04.2020
4597 Clouds 16 1010 93 6000 5 250 04:57 19.04.2020
4598 Rain 15 1009 93 6000 4 170 03:34 19.04.2020
4599 Rain 14 1009 100 6000 2 200 02:22 19.04.2020
4600 Rain 14 1009 93 6000 3 140 01:39 19.04.2020
4601 Rain 14 1009 93 4500 5 130 01:19 19.04.2020
4602 Rain 14 1009 93 4500 6 130 00:40 19.04.2020
4603 Rain 14 1009 93 4500 6 130 00:19 19.04.2020
4604 Rain 14 1010 93 4000 5 120 23:41 18.04.2020
4605 Rain 14 1011 93 5000 4 130 23:19 18.04.2020
4606 Rain 14 1010 87 7000 4 100 22:43 18.04.2020
4607 Rain 14 1010 87 7000 4 100 22:23 18.04.2020
4608 Clouds 14 1010 87 10000 4 100 21:58 18.04.2020
4609 Clouds 14 1010 87 10000 5 100 21:39 18.04.2020
4610 Clouds 14 1010 87 10000 5 100 21:21 18.04.2020
4611 Clouds 14 1011 87 10000 4 100 20:56 18.04.2020
4612 Clouds 14 1012 87 10000 5 110 20:37 18.04.2020
4613 Clouds 14 1012 87 10000 5 110 20:18 18.04.2020
4614 Rain 14 1012 87 10000 6 110 19:40 18.04.2020
4615 Rain 14 1012 87 10000 6 110 19:22 18.04.2020
4616 Rain 14 1014 87 10000 4 100 18:39 18.04.2020
4617 Rain 14 1014 87 10000 5 110 18:20 18.04.2020
4618 Rain 14 1014 87 10000 5 110 17:56 18.04.2020
4619 Rain 14 1014 87 10000 6 120 17:38 18.04.2020
4620 Rain 14 1015 77 10000 6 120 17:18 18.04.2020
4621 Rain 14 1016 77 10000 5 120 16:42 18.04.2020
4622 Rain 14 1016 77 10000 5 120 16:22 18.04.2020
4623 Rain 14 1016 77 10000 5 110 15:55 18.04.2020
4624 Rain 14 1016 72 10000 6 110 15:37 18.04.2020
4625 Rain 14 1017 72 10000 6 100 15:19 18.04.2020
4626 Rain 14 1016 72 10000 5 100 14:42 18.04.2020
4627 Rain 14 1016 72 10000 5 100 14:19 18.04.2020
4628 Rain 14 1016 72 10000 5 100 14:19 18.04.2020
4629 Rain 15 1016 72 10000 5 90 13:43 18.04.2020
4630 Rain 15 1016 72 10000 5 90 13:20 18.04.2020
4631 Rain 15 1016 67 10000 4 90 12:43 18.04.2020
4632 Rain 16 1016 67 10000 4 90 12:25 18.04.2020
4633 Rain 16 1016 67 10000 5 110 11:58 18.04.2020
4634 Rain 16 1016 63 10000 5 110 11:40 18.04.2020
4635 Rain 16 1016 59 10000 4 90 11:21 18.04.2020
4636 Rain 16 1016 63 10000 5 110 11:21 18.04.2020
4637 Rain 16 1016 59 10000 4 90 11:21 18.04.2020
4638 Rain 17 1016 52 10000 4 80 10:42 18.04.2020
4639 Rain 17 1016 52 10000 4 100 10:22 18.04.2020
4640 Rain 17 1016 52 10000 4 100 09:59 18.04.2020
4641 Rain 17 1017 52 10000 4 90 09:40 18.04.2020
4642 Clouds 18 1017 52 10000 4 110 09:20 18.04.2020
4643 Clouds 17 1017 52 10000 4 110 08:43 18.04.2020
4644 Clouds 17 1017 52 10000 4 110 08:22 18.04.2020
4645 Clouds 17 1018 48 10000 3 90 07:48 18.04.2020
4646 Clouds 17 1018 48 10000 3 90 07:28 18.04.2020
4647 Clouds 17 1019 52 10000 2 100 06:42 18.04.2020
4648 Clouds 17 1019 48 10000 3 70 05:49 18.04.2020
4649 Clouds 17 1020 48 10000 3 70 04:55 18.04.2020
4650 Clouds 17 1020 48 10000 4 60 04:31 18.04.2020
4651 Clouds 17 1020 48 10000 3 60 03:33 18.04.2020
4652 Clouds 16 1020 55 10000 3 40 02:40 18.04.2020
4653 Clouds 16 1020 55 10000 3 40 02:21 18.04.2020
4654 Clouds 16 1019 59 10000 3 80 01:43 18.04.2020
4655 Clouds 16 1019 59 10000 3 80 01:22 18.04.2020
4656 Clouds 15 1019 55 10000 3 50 00:24 18.04.2020
4657 Clouds 15 1018 55 10000 3 40 23:58 17.04.2020
4658 Clouds 15 1018 55 10000 4 40 23:40 17.04.2020
4659 Clouds 15 1017 55 10000 6 50 23:19 17.04.2020
4660 Clouds 16 1017 55 10000 6 50 22:58 17.04.2020
4661 Clouds 16 1017 55 10000 6 50 22:58 17.04.2020
4662 Clouds 16 1017 51 10000 6 50 22:40 17.04.2020
4663 Clouds 16 1017 51 10000 6 40 22:19 17.04.2020
4664 Clouds 16 1017 51 10000 6 40 21:56 17.04.2020
4665 Clouds 17 1017 67 10000 5 40 21:37 17.04.2020
4666 Clouds 17 1017 63 10000 2 40 21:18 17.04.2020
4667 Clouds 17 1017 63 10000 2 40 20:54 17.04.2020
4668 Clouds 17 1016 63 10000 1 0 20:36 17.04.2020
4669 Clouds 17 1016 63 10000 1 60 20:18 17.04.2020
4670 Clouds 17 1016 67 10000 2.52 348 19:42 17.04.2020
4671 Clouds 17 1017 67 10000 2.52 348 19:23 17.04.2020
4672 Clouds 17 1017 67 10000 1 0 18:45 17.04.2020
4673 Clouds 17 1017 67 10000 1 0 18:24 17.04.2020
4674 Clouds 17 1016 59 10000 1 0 17:57 17.04.2020
4675 Clouds 17 1016 55 10000 1.15 267 17:37 17.04.2020
4676 Clouds 17 1016 51 10000 1 0 17:18 17.04.2020
4677 Clouds 17 1016 48 10000 1 0 16:43 17.04.2020
4678 Clouds 18 1016 48 10000 1 0 16:23 17.04.2020
4679 Clouds 18 1016 52 10000 2 350 15:44 17.04.2020
4680 Clouds 18 1016 52 10000 2 350 15:24 17.04.2020
4681 Clouds 18 1016 48 10000 2 10 14:57 17.04.2020
4682 Clouds 18 1015 52 10000 2 10 14:39 17.04.2020
4683 Clouds 18 1015 63 10000 3 10 14:20 17.04.2020
4684 Clouds 18 1015 63 10000 3 10 13:55 17.04.2020
4685 Clouds 19 1015 63 10000 3 360 13:36 17.04.2020
4686 Clouds 20 1014 60 10000 4 10 13:18 17.04.2020
4687 Clouds 20 1014 46 10000 3 330 12:43 17.04.2020
4688 Clouds 21 1014 40 10000 3 310 12:22 17.04.2020
4689 Clouds 21 1013 40 10000 3 350 11:41 17.04.2020
4690 Clouds 22 1013 40 10000 3 320 11:19 17.04.2020
4691 Clouds 22 1013 40 10000 3 320 10:55 17.04.2020
4692 Clouds 21 1013 49 10000 2 310 10:37 17.04.2020
4693 Clouds 22 1013 53 10000 4 340 10:18 17.04.2020
4694 Clouds 22 1013 53 10000 4 330 09:40 17.04.2020
4695 Clouds 21 1013 56 10000 4 310 09:20 17.04.2020
4696 Clouds 21 1013 56 10000 4 310 08:56 17.04.2020
4697 Clouds 21 1013 56 10000 4 310 08:37 17.04.2020
4698 Clouds 21 1013 60 10000 4 290 08:18 17.04.2020
4699 Clouds 21 1013 64 10000 3 280 07:43 17.04.2020
4700 Clouds 20 1013 64 10000 3 280 07:20 17.04.2020
4701 Clouds 20 1013 68 10000 4 310 06:45 17.04.2020
4702 Rain 20 1013 68 10000 3 330 06:21 17.04.2020
4703 Rain 20 1012 68 10000 3 350 03:37 17.04.2020
4704 Rain 20 1012 64 10000 2 20 03:18 17.04.2020
4705 Rain 20 1011 72 10000 2 360 01:55 17.04.2020
4706 Rain 19 1010 77 10000 1 0 01:23 17.04.2020
4707 Clouds 19 1010 68 10000 2.14 271 00:28 17.04.2020
4708 Clouds 19 1010 68 10000 1 160 23:56 16.04.2020
4709 Clouds 19 1009 68 10000 1 150 23:37 16.04.2020
4710 Clouds 19 1009 63 10000 1 0 23:19 16.04.2020
4711 Clouds 19 1009 68 10000 2 310 22:40 16.04.2020
4712 Clouds 19 1009 68 10000 2 310 22:22 16.04.2020
4713 Clouds 19 1008 64 10000 4 180 21:59 16.04.2020
4714 Rain 19 1009 60 10000 4 170 21:40 16.04.2020
4715 Rain 19 1009 60 10000 4 170 21:19 16.04.2020
4716 Clouds 19 1009 64 10000 6 160 20:43 16.04.2020
4717 Clouds 19 1009 64 10000 6 160 20:23 16.04.2020
4718 Clouds 19 1009 60 10000 6 160 19:59 16.04.2020
4719 Clouds 19 1009 64 10000 5 160 19:39 16.04.2020
4720 Clouds 19 1010 64 10000 6 160 19:19 16.04.2020
4721 Clouds 19 1010 64 10000 5 150 18:55 16.04.2020
4722 Clouds 19 1010 64 10000 5 150 18:36 16.04.2020
4723 Clouds 19 1010 72 10000 5 150 18:18 16.04.2020
4724 Clouds 19 1010 72 10000 6 150 17:42 16.04.2020
4725 Clouds 19 1010 72 10000 6 150 17:23 16.04.2020
4726 Clouds 19 1011 72 10000 6 150 16:55 16.04.2020
4727 Clouds 19 1011 72 10000 5 150 16:36 16.04.2020
4728 Clouds 19 1011 68 10000 6 150 16:18 16.04.2020
4729 Clouds 19 1011 68 10000 6 150 15:40 16.04.2020
4730 Clouds 19 1011 68 10000 6 150 15:19 16.04.2020
4731 Clouds 20 1011 64 10000 6 150 14:56 16.04.2020
4732 Clouds 21 1010 64 10000 8 150 14:37 16.04.2020
4733 Clouds 21 1010 60 10000 8 150 14:19 16.04.2020
4734 Clouds 20 1010 60 10000 7 150 13:42 16.04.2020
4735 Clouds 21 1010 56 10000 6 150 13:23 16.04.2020
4736 Clouds 21 1010 56 10000 6 150 12:58 16.04.2020
4737 Clouds 22 1009 53 10000 6 140 12:40 16.04.2020
4738 Clouds 22 1010 53 10000 6 150 12:20 16.04.2020
4739 Clouds 22 1010 53 10000 6 150 12:00 16.04.2020
4740 Clouds 23 1009 49 10000 6 150 11:41 16.04.2020
4741 Clouds 23 1009 49 10000 6 150 11:21 16.04.2020
4742 Clouds 24 1009 46 10000 7 160 10:55 16.04.2020
4743 Clouds 23 1009 44 10000 8 150 10:37 16.04.2020
4744 Clouds 25 1009 41 10000 7 150 10:18 16.04.2020
4745 Clouds 25 1009 38 10000 8 150 09:39 16.04.2020
4746 Clouds 25 1010 34 10000 7 150 09:21 16.04.2020
4747 Clouds 25 1010 34 10000 7 150 09:00 16.04.2020
4748 Clouds 26 1010 30 10000 7 150 08:41 16.04.2020
4749 Clouds 26 1010 30 10000 7 150 08:21 16.04.2020
4750 Clouds 26 1011 26 10000 8 160 07:44 16.04.2020
4751 Clouds 26 1011 26 10000 8 160 07:24 16.04.2020
4752 Clouds 26 1012 30 10000 7 180 06:42 16.04.2020
4753 Clear 26 1012 31 10000 6 180 06:24 16.04.2020
4754 Clear 25 1013 33 10000 6 150 04:54 16.04.2020
4755 Clear 25 1013 33 10000 6 150 04:54 16.04.2020
4756 Clear 23 1013 40 10000 5 150 03:39 16.04.2020
4757 Clouds 22 1013 43 10000 4 160 03:21 16.04.2020
4758 Clouds 20 1013 46 10000 3 170 02:43 16.04.2020
4759 Clouds 18 1013 55 10000 4 150 01:58 16.04.2020
4760 Clouds 15 1013 67 10000 3 160 00:57 16.04.2020
4761 Clouds 15 1013 72 10000 3 140 00:26 16.04.2020
4762 Clouds 15 1013 72 10000 3 150 23:56 15.04.2020
4763 Clouds 15 1012 67 10000 3 160 23:38 15.04.2020
4764 Clouds 16 1012 67 10000 3 160 23:19 15.04.2020
4765 Clouds 15 1011 72 10000 3 150 22:39 15.04.2020
4766 Clouds 15 1012 72 10000 3 150 22:21 15.04.2020
4767 Clouds 15 1012 72 10000 3 150 21:56 15.04.2020
4768 Clouds 15 1012 72 10000 2 150 21:38 15.04.2020
4769 Clouds 16 1012 72 10000 2 150 21:20 15.04.2020
4770 Clouds 16 1012 67 10000 3 160 20:55 15.04.2020
4771 Clouds 16 1012 72 10000 2 150 20:37 15.04.2020
4772 Clouds 16 1012 67 10000 2 150 20:19 15.04.2020
4773 Clouds 16 1013 72 10000 2 170 19:41 15.04.2020
4774 Clouds 16 1013 67 10000 3 160 19:20 15.04.2020
4775 Clouds 16 1013 67 10000 3 160 19:20 15.04.2020
4776 Clouds 16 1013 67 10000 3 160 19:20 15.04.2020
4777 Clouds 16 1013 67 10000 2 160 18:43 15.04.2020
4778 Clear 17 1013 63 10000 2 150 18:23 15.04.2020
4779 Clear 17 1013 63 10000 2 150 17:58 15.04.2020
4780 Clear 17 1013 63 10000 2 150 17:40 15.04.2020
4781 Clear 17 1013 63 10000 2 150 17:40 15.04.2020
4782 Clear 17 1014 63 10000 3 150 17:20 15.04.2020
4783 Clear 18 1014 63 10000 3 150 16:57 15.04.2020
4784 Clear 17 1014 63 10000 2 160 16:38 15.04.2020
4785 Clear 17 1014 63 10000 2 160 16:19 15.04.2020
4786 Clear 17 1014 63 10000 2 160 16:19 15.04.2020
4787 Clear 18 1013 52 10000 2 150 15:57 15.04.2020
4788 Clear 18 1013 48 10000 2 140 15:38 15.04.2020
4789 Clear 18 1013 48 10000 2 140 15:19 15.04.2020
4790 Clear 19 1013 42 10000 3 140 14:57 15.04.2020
4791 Clouds 19 1012 35 10000 1 60 14:38 15.04.2020
4792 Clouds 18 1012 40 10000 1 0 14:20 15.04.2020
4793 Clouds 18 1012 40 10000 1 0 13:57 15.04.2020
4794 Clouds 18 1012 37 10000 3 360 13:38 15.04.2020
4795 Clouds 20 1012 31 10000 1 270 13:19 15.04.2020
4796 Clouds 21 1011 31 10000 4 300 12:42 15.04.2020
4797 Clouds 23 1011 29 10000 4 290 12:23 15.04.2020
4798 Clouds 23 1011 29 10000 4 290 12:23 15.04.2020
4799 Clouds 23 1011 29 10000 4 290 11:59 15.04.2020
4800 Clouds 23 1011 29 10000 4 290 11:59 15.04.2020
4801 Clouds 23 1011 27 10000 5 290 11:40 15.04.2020
4802 Clouds 23 1011 27 10000 5 290 11:22 15.04.2020
4803 Clouds 23 1011 27 10000 5 280 10:40 15.04.2020
4804 Clouds 23 1011 27 10000 5 280 10:22 15.04.2020
4805 Clouds 25 1011 27 10000 5 320 09:58 15.04.2020
4806 Clouds 24 1011 29 10000 5 270 09:40 15.04.2020
4807 Rain 24 1011 29 10000 5 270 09:22 15.04.2020
4808 Clouds 24 1011 29 10000 4 270 08:58 15.04.2020
4809 Clouds 24 1012 27 10000 6 300 08:40 15.04.2020
4810 Clouds 24 1012 29 10000 5 280 08:19 15.04.2020
4811 Clouds 24 1012 27 10000 5 280 07:53 15.04.2020
4812 Clouds 24 1012 27 10000 5 280 07:31 15.04.2020
4813 Rain 22 1013 28 10000 5 280 06:33 15.04.2020
4814 Rain 21 1014 35 10000 4 240 05:50 15.04.2020
4815 Rain 20 1014 45 10000 3 190 04:50 15.04.2020
4816 Rain 19 1014 45 10000 3 190 04:26 15.04.2020
4817 Rain 18 1014 48 8000 3 170 03:26 15.04.2020
4818 Rain 17 1014 52 8000 3 170 02:52 15.04.2020
4819 Rain 15 1014 63 10000 1 0 01:54 15.04.2020
4820 Rain 15 1014 63 10000 1 0 01:25 15.04.2020
4821 Rain 14 1013 62 10000 2 140 00:52 15.04.2020
4822 Rain 15 1013 62 10000 2 140 00:31 15.04.2020
4823 Rain 14 1013 67 10000 2 200 23:57 14.04.2020
4824 Rain 14 1013 58 10000 2 230 23:39 14.04.2020
4825 Rain 15 1013 58 10000 2 230 23:21 14.04.2020
4826 Rain 15 1012 58 10000 3 210 22:58 14.04.2020
4827 Rain 15 1012 58 10000 3 210 22:39 14.04.2020
4828 Rain 15 1012 51 10000 3 220 22:21 14.04.2020
4829 Rain 15 1012 51 10000 3 220 21:57 14.04.2020
4830 Rain 16 1013 51 10000 3 240 21:39 14.04.2020
4831 Clouds 15 1013 51 10000 3 240 21:20 14.04.2020
4832 Clouds 15 1013 51 10000 4 250 20:58 14.04.2020
4833 Clouds 15 1013 59 10000 3 190 20:39 14.04.2020
4834 Clouds 15 1013 59 10000 3 190 20:21 14.04.2020
4835 Clouds 15 1013 59 10000 3 190 20:21 14.04.2020
4836 Clouds 15 1014 67 10000 1 160 19:41 14.04.2020
4837 Clouds 15 1014 67 10000 1 160 19:23 14.04.2020
4838 Clouds 15 1014 67 10000 2 150 18:59 14.04.2020
4839 Clouds 15 1014 67 10000 2 160 18:40 14.04.2020
4840 Clouds 15 1014 67 10000 4 180 18:21 14.04.2020
4841 Clouds 15 1014 67 10000 4 180 17:58 14.04.2020
4842 Clouds 15 1015 62 10000 4 160 17:39 14.04.2020
4843 Clouds 15 1015 62 10000 4 160 17:20 14.04.2020
4844 Clouds 16 1015 58 10000 5 160 16:57 14.04.2020
4845 Clouds 15 1016 54 10000 4 150 16:38 14.04.2020
4846 Clouds 15 1016 54 10000 4 150 16:20 14.04.2020
4847 Clouds 15 1016 51 10000 4 150 15:56 14.04.2020
4848 Clouds 15 1016 44 10000 4 150 15:37 14.04.2020
4849 Clouds 16 1015 44 10000 3 130 15:18 14.04.2020
4850 Clouds 16 1015 44 10000 3 130 14:55 14.04.2020
4851 Clouds 16 1015 41 10000 3 140 14:55 14.04.2020
4852 Clouds 16 1015 41 10000 3 140 14:37 14.04.2020
4853 Clouds 16 1015 38 10000 4 130 14:19 14.04.2020
4854 Clouds 16 1015 41 10000 4 150 13:43 14.04.2020
4855 Clouds 17 1015 33 10000 5 160 13:24 14.04.2020
4856 Clouds 17 1015 33 10000 5 160 12:54 14.04.2020
4857 Clouds 17 1015 33 10000 5 160 12:36 14.04.2020
4858 Clouds 17 1015 34 10000 5 150 12:18 14.04.2020
4859 Clouds 18 1015 47 10000 3 200 11:40 14.04.2020
4860 Clouds 18 1015 47 10000 3 200 11:22 14.04.2020
4861 Clouds 19 1015 29 10000 4 170 10:47 14.04.2020
4862 Clouds 20 1015 29 10000 4 170 10:28 14.04.2020
4863 Clouds 20 1015 47 10000 4 170 09:59 14.04.2020
4864 Clouds 19 1015 28 10000 4 170 09:40 14.04.2020
4865 Clouds 19 1015 28 10000 4 170 09:22 14.04.2020
4866 Clouds 18 1016 34 10000 4 190 08:44 14.04.2020
4867 Clouds 20 1016 34 10000 4 190 08:25 14.04.2020
4868 Clouds 20 1017 29 10000 5 200 07:58 14.04.2020
4869 Clouds 17 1017 38 0 4.54 127 07:40 14.04.2020
4870 Clouds 17 1017 38 0 4.54 127 07:21 14.04.2020
4871 Clouds 19 1017 32 10000 3 190 06:35 14.04.2020
4872 Clouds 19 1019 32 10000 3 180 04:49 14.04.2020
4873 Clouds 17 1019 45 10000 2 170 03:22 14.04.2020
4874 Clouds 13 1019 71 10000 3 160 02:18 14.04.2020
4875 Clouds 13 1019 76 10000 1 0 01:25 14.04.2020
4876 Clouds 12 1019 87 10000 1 0 00:42 14.04.2020
4877 Clouds 12 1019 87 10000 1 150 00:19 14.04.2020
4878 Clouds 12 1019 87 10000 1 150 23:47 13.04.2020
4879 Clouds 12 1019 87 10000 1 150 23:47 13.04.2020
4880 Clouds 12 1019 87 10000 1 150 23:27 13.04.2020
4881 Clouds 12 1019 87 10000 1 150 23:27 13.04.2020
4882 Clouds 11 1019 87 10000 1 0 23:00 13.04.2020
4883 Clouds 12 1019 81 10000 1 170 22:41 13.04.2020
4884 Clouds 12 1019 87 10000 1 130 22:22 13.04.2020
4885 Clouds 12 1019 87 10000 1 130 21:57 13.04.2020
4886 Clouds 11 1019 81 10000 1 170 21:37 13.04.2020
4887 Clouds 12 1019 81 10000 2 190 21:19 13.04.2020
4888 Clouds 12 1019 81 10000 2 190 20:56 13.04.2020
4889 Clouds 12 1019 81 10000 1 200 20:38 13.04.2020
4890 Clouds 12 1019 81 10000 1 200 20:38 13.04.2020
4891 Clouds 12 1019 81 10000 1 180 20:18 13.04.2020
4892 Clouds 12 1019 76 10000 2 170 19:39 13.04.2020
4893 Clouds 12 1020 76 10000 1 160 19:20 13.04.2020
4894 Clouds 12 1020 76 10000 1 160 19:00 13.04.2020
4895 Clouds 12 1020 76 10000 2 170 18:39 13.04.2020
4896 Clouds 12 1020 71 10000 3 140 18:20 13.04.2020
4897 Clouds 13 1020 71 10000 3 140 17:58 13.04.2020
4898 Clouds 13 1020 66 10000 3 150 17:39 13.04.2020
4899 Clouds 13 1020 66 10000 3 150 17:20 13.04.2020
4900 Clouds 13 1020 44 10000 0.19 88 16:58 13.04.2020
4901 Clouds 14 1020 47 10000 1 220 16:40 13.04.2020
4902 Clouds 14 1020 47 10000 1 220 16:21 13.04.2020
4903 Clouds 14 1020 47 10000 1 220 16:21 13.04.2020
4904 Clouds 14 1020 50 10000 0.19 88 15:58 13.04.2020
4905 Clouds 15 1020 53 10000 1 300 15:40 13.04.2020
4906 Clear 15 1020 48 10000 1 300 15:21 13.04.2020
4907 Clear 15 1020 48 10000 2 320 14:56 13.04.2020
4908 Clear 15 1020 48 10000 2 350 14:38 13.04.2020
4909 Clear 15 1020 48 10000 2 350 14:38 13.04.2020
4910 Clear 16 1020 52 10000 2 350 14:20 13.04.2020
4911 Clear 16 1020 52 10000 2 20 13:55 13.04.2020
4912 Clear 16 1019 36 10000 3 10 13:37 13.04.2020
4913 Clear 17 1019 29 10000 4 340 13:18 13.04.2020
4914 Clear 17 1019 27 10000 4 330 12:55 13.04.2020
4915 Clear 17 1019 27 10000 4 330 12:37 13.04.2020
4916 Clear 18 1019 25 10000 4 310 12:18 13.04.2020
4917 Clear 19 1018 24 10000 4 330 11:41 13.04.2020
4918 Clear 19 1018 24 10000 6 340 11:18 13.04.2020
4919 Clear 19 1018 24 10000 6 340 10:56 13.04.2020
4920 Clear 19 1019 22 10000 6 330 10:37 13.04.2020
4921 Clear 19 1019 20 10000 7 310 10:19 13.04.2020
4922 Clear 19 1019 24 10000 4 320 09:45 13.04.2020
4923 Clear 19 1019 24 10000 4 320 09:26 13.04.2020
4924 Clear 19 1019 24 10000 7 330 08:51 13.04.2020
4925 Clear 19 1019 24 10000 7 330 08:31 13.04.2020
4926 Clouds 19 1019 31 10000 6 340 07:59 13.04.2020
4927 Clouds 18 1019 31 10000 6 330 07:39 13.04.2020
4928 Clouds 18 1020 29 10000 7 330 07:20 13.04.2020
4929 Clouds 18 1020 36 10000 6 330 06:47 13.04.2020
4930 Clear 17 1020 36 10000 7 350 05:59 13.04.2020
4931 Clear 17 1020 39 8000 7 350 05:30 13.04.2020
4932 Clear 16 1021 45 8000 5 310 04:52 13.04.2020
4933 Clear 16 1020 48 7000 5 310 04:22 13.04.2020
4934 Clear 14 1020 58 7000 5 320 03:46 13.04.2020
4935 Clear 13 1020 58 10000 5 330 02:50 13.04.2020
4936 Clear 11 1020 66 10000 4 310 01:54 13.04.2020
4937 Clear 11 1019 66 10000 3 320 01:36 13.04.2020
4938 Clear 10 1019 71 10000 3 320 00:56 13.04.2020
4939 Clear 10 1019 66 10000 3 300 00:38 13.04.2020
4940 Clear 10 1018 70 10000 3 300 00:18 13.04.2020
4941 Clear 10 1018 66 10000 4 300 23:43 12.04.2020
4942 Clear 10 1018 66 10000 4 300 23:22 12.04.2020
4943 Clear 10 1017 70 10000 4 310 22:55 12.04.2020
4944 Clear 10 1017 70 10000 3 300 22:36 12.04.2020
4945 Clear 10 1017 70 10000 4 330 22:18 12.04.2020
4946 Clear 10 1017 71 10000 4 330 21:39 12.04.2020
4947 Clouds 10 1017 71 10000 4 330 21:20 12.04.2020
4948 Clouds 10 1017 71 10000 4 320 20:55 12.04.2020
4949 Clouds 11 1016 71 10000 4 330 20:37 12.04.2020
4950 Clouds 11 1016 66 10000 5 330 20:19 12.04.2020
4951 Clouds 11 1016 71 10000 4 320 19:41 12.04.2020
4952 Clouds 11 1016 76 10000 3 310 19:20 12.04.2020
4953 Clouds 11 1016 76 10000 3 310 18:59 12.04.2020
4954 Clouds 11 1016 76 10000 3 310 18:39 12.04.2020
4955 Rain 11 1016 76 10000 4 290 18:19 12.04.2020
4956 Rain 11 1016 81 10000 3 270 17:55 12.04.2020
4957 Rain 11 1016 81 10000 3 270 17:37 12.04.2020
4958 Rain 11 1016 81 10000 3 270 17:37 12.04.2020
4959 Rain 11 1016 87 10000 3 260 17:18 12.04.2020
4960 Rain 10 1016 87 10000 2 260 16:41 12.04.2020
4961 Rain 10 1016 87 10000 1 0 16:22 12.04.2020
4962 Rain 11 1016 87 10000 1 0 15:53 12.04.2020
4963 Rain 11 1016 81 10000 2 210 15:35 12.04.2020
4964 Rain 10 1016 81 10000 3.97 343 14:58 12.04.2020
4965 Rain 11 1016 76 10000 2 50 14:39 12.04.2020
4966 Rain 11 1016 76 10000 2 50 14:20 12.04.2020
4967 Thunderstorm 11 1017 87 10000 7 10 13:56 12.04.2020
4968 Thunderstorm 12 1016 76 8000 8 320 13:36 12.04.2020
4969 Thunderstorm 16 1014 36 10000 9 280 13:18 12.04.2020
4970 Thunderstorm 14 1014 36 10000 9 280 13:18 12.04.2020
4971 Rain 17 1013 36 10000 5 270 12:45 12.04.2020
4972 Clouds 18 1013 34 10000 6 280 12:21 12.04.2020
4973 Clouds 19 1013 34 10000 6 280 11:57 12.04.2020
4974 Clouds 19 1013 34 10000 7 290 11:37 12.04.2020
4975 Clouds 19 1013 40 10000 7 300 11:18 12.04.2020
4976 Clouds 19 1013 40 10000 7 300 10:55 12.04.2020
4977 Clouds 19 1014 24 10000 7 300 10:37 12.04.2020
4978 Clouds 20 1014 24 10000 8 320 10:18 12.04.2020
4979 Clouds 20 1014 24 10000 8 320 09:54 12.04.2020
4980 Clouds 20 1014 24 10000 8 300 09:36 12.04.2020
4981 Clouds 19 1015 24 10000 7 310 09:18 12.04.2020
4982 Clouds 19 1015 24 10000 7 310 09:18 12.04.2020
4983 Clouds 19 1015 32 10000 7 310 08:46 12.04.2020
4984 Clouds 19 1015 32 10000 7 310 08:27 12.04.2020
4985 Clouds 18 1016 36 10000 8 320 07:45 12.04.2020
4986 Clouds 18 1016 39 10000 7 310 07:19 12.04.2020
4987 Clouds 17 1016 42 10000 8 310 06:36 12.04.2020
4988 Clouds 16 1017 42 10000 8 310 05:58 12.04.2020
4989 Clouds 16 1017 42 10000 8 310 05:37 12.04.2020
4990 Clouds 13 1018 58 8000 6 300 03:45 12.04.2020
4991 Clouds 13 1018 58 8000 6 300 03:24 12.04.2020
4992 Clouds 11 1018 71 6000 5 290 02:34 12.04.2020
4993 Mist 11 1019 76 5000 4 290 01:51 12.04.2020
4994 Mist 10 1018 81 5000 5 280 00:59 12.04.2020
4995 Mist 10 1018 81 4500 5 290 00:41 12.04.2020
4996 Mist 9 1018 87 4000 4 280 00:20 12.04.2020
4997 Clouds 9 1018 87 6000 4 290 23:46 11.04.2020
4998 Clouds 9 1018 87 6000 4 290 23:25 11.04.2020
4999 Clouds 9 1018 81 10000 4 290 22:42 11.04.2020
5000 Clouds 9 1018 81 10000 4 290 22:23 11.04.2020
5001 Clouds 9 1018 81 10000 4 290 22:23 11.04.2020
5002 Clouds 9 1018 87 10000 4 300 21:58 11.04.2020
5003 Clouds 9 1018 87 10000 5 290 21:38 11.04.2020
5004 Clouds 9 1018 87 10000 5 290 21:19 11.04.2020
5005 Clouds 9 1019 87 10000 5 290 20:58 11.04.2020
5006 Clouds 9 1019 87 10000 4 290 20:40 11.04.2020
5007 Clouds 8 1019 87 10000 4 290 20:20 11.04.2020
5008 Clouds 8 1019 87 10000 4 290 19:58 11.04.2020
5009 Clouds 9 1020 76 10000 4 290 19:39 11.04.2020
5010 Clouds 8 1020 81 10000 3 310 19:20 11.04.2020
5011 Clouds 8 1020 81 10000 3 310 18:57 11.04.2020
5012 Clouds 8 1020 81 10000 4 320 18:39 11.04.2020
5013 Clouds 9 1020 81 10000 5 320 18:20 11.04.2020
5014 Clouds 10 1020 81 10000 5 320 17:59 11.04.2020
5015 Clouds 9 1020 81 10000 5 320 17:40 11.04.2020
5016 Clouds 9 1020 81 10000 5 320 17:20 11.04.2020
5017 Clouds 9 1021 81 10000 5 330 16:55 11.04.2020
5018 Clouds 9 1020 81 10000 5 330 16:37 11.04.2020
5019 Clouds 9 1020 81 10000 5 330 16:19 11.04.2020
5020 Clouds 9 1020 81 10000 5 330 16:19 11.04.2020
5021 Clouds 10 1020 81 10000 6 340 15:37 11.04.2020
5022 Clouds 10 1020 81 10000 6 340 15:19 11.04.2020
5023 Clouds 9 1020 81 10000 7 340 14:43 11.04.2020
5024 Clouds 10 1020 81 10000 7 340 14:24 11.04.2020
5025 Clouds 10 1020 81 10000 6 340 14:24 11.04.2020
5026 Clouds 10 1020 81 10000 6 340 13:59 11.04.2020
5027 Clouds 10 1020 81 10000 6 340 13:59 11.04.2020
5028 Clouds 10 1020 81 10000 6 340 13:39 11.04.2020
5029 Clouds 10 1020 81 10000 7 350 13:19 11.04.2020
5030 Clouds 10 1019 81 10000 7 350 12:42 11.04.2020
5031 Clouds 10 1019 81 10000 7 350 12:42 11.04.2020
5032 Clouds 10 1019 93 10000 7 360 12:20 11.04.2020
5033 Clouds 10 1019 93 10000 7 360 11:57 11.04.2020
5034 Clouds 10 1019 87 10000 7 360 11:39 11.04.2020
5035 Rain 10 1019 93 7000 8 20 11:19 11.04.2020
5036 Rain 10 1019 93 4000 9 360 10:43 11.04.2020
5037 Rain 10 1019 93 4000 9 360 10:23 11.04.2020
5038 Rain 10 1019 87 4000 8 360 09:59 11.04.2020
5039 Rain 10 1018 93 4000 9 10 09:40 11.04.2020
5040 Rain 10 1018 93 4000 9 10 09:21 11.04.2020
5041 Rain 10 1018 93 3300 9 10 08:50 11.04.2020
5042 Rain 11 1018 87 5000 7 30 08:28 11.04.2020
5043 Rain 12 1018 87 7000 7 30 07:54 11.04.2020
5044 Rain 12 1018 87 7000 7 30 07:34 11.04.2020
5045 Rain 12 1018 93 10000 7 20 06:55 11.04.2020
5046 Rain 12 1018 87 10000 8 30 06:34 11.04.2020
5047 Rain 13 1018 87 10000 6 30 05:55 11.04.2020
5048 Rain 14 1019 93 10000 5 50 03:42 11.04.2020
5049 Rain 14 1019 87 8000 4 70 02:37 11.04.2020
5050 Clouds 14 1019 87 8000 4 80 01:25 11.04.2020
5051 Rain 14 1018 87 8000 3 70 00:44 11.04.2020
5052 Rain 14 1019 87 10000 4 70 00:20 11.04.2020
5053 Rain 14 1019 87 10000 4 70 23:58 10.04.2020
5054 Rain 14 1019 87 10000 4 60 23:40 10.04.2020
5055 Rain 14 1019 87 10000 4 60 23:19 10.04.2020
5056 Clouds 14 1019 82 10000 4 70 22:44 10.04.2020
5057 Clouds 14 1019 82 10000 4 70 22:22 10.04.2020
5058 Clouds 14 1019 82 10000 4 70 22:22 10.04.2020
5059 Rain 15 1019 77 10000 3 80 21:58 10.04.2020
5060 Rain 14 1019 82 10000 4 70 21:40 10.04.2020
5061 Rain 15 1019 82 10000 4 70 21:20 10.04.2020
5062 Clouds 15 1019 77 10000 3 80 20:55 10.04.2020
5063 Clouds 15 1020 77 10000 3 80 20:37 10.04.2020
5064 Clouds 15 1020 77 10000 4 90 20:18 10.04.2020
5065 Clouds 14 1020 77 10000 4 90 19:41 10.04.2020
5066 Clouds 14 1020 77 10000 5 90 19:21 10.04.2020
5067 Clouds 14 1020 77 10000 5 90 18:58 10.04.2020
5068 Clouds 14 1021 77 10000 5 110 18:40 10.04.2020
5069 Clouds 14 1021 77 10000 5 110 18:40 10.04.2020
5070 Clouds 14 1021 77 10000 4 90 18:22 10.04.2020
5071 Clouds 14 1021 77 10000 4 90 17:59 10.04.2020
5072 Clouds 14 1021 77 10000 5 90 17:40 10.04.2020
5073 Clouds 14 1021 77 10000 5 90 17:21 10.04.2020
5074 Clouds 15 1021 77 10000 6 100 16:57 10.04.2020
5075 Clouds 15 1021 77 10000 7 110 16:38 10.04.2020
5076 Clouds 14 1021 77 10000 7 110 16:20 10.04.2020
5077 Clouds 15 1021 72 10000 5 110 15:56 10.04.2020
5078 Clouds 15 1021 72 10000 5 110 15:56 10.04.2020
5079 Clouds 15 1021 72 10000 7 110 15:37 10.04.2020
5080 Clouds 15 1021 72 10000 7 100 15:19 10.04.2020
5081 Clouds 15 1021 72 10000 7 100 14:56 10.04.2020
5082 Clouds 15 1021 77 10000 7 100 14:38 10.04.2020
5083 Clouds 16 1020 77 10000 5 110 14:18 10.04.2020
5084 Clouds 15 1020 72 10000 7 110 13:43 10.04.2020
5085 Clouds 15 1020 72 10000 7 110 13:43 10.04.2020
5086 Clouds 15 1020 77 10000 7 130 13:21 10.04.2020
5087 Clouds 16 1020 72 10000 5 120 12:44 10.04.2020
5088 Clouds 17 1020 68 10000 6 120 12:24 10.04.2020
5089 Clouds 17 1020 68 10000 6 120 11:57 10.04.2020
5090 Clouds 17 1019 63 10000 7 120 11:38 10.04.2020
5091 Clouds 17 1019 63 10000 7 120 11:20 10.04.2020
5092 Clouds 18 1019 59 10000 6 120 10:46 10.04.2020
5093 Clouds 19 1019 52 10000 6 120 10:23 10.04.2020
5094 Clouds 18 1019 52 10000 6 120 09:57 10.04.2020
5095 Clouds 17 1020 56 10000 5 110 09:38 10.04.2020
5096 Clouds 19 1020 56 10000 5 110 09:20 10.04.2020
5097 Clouds 19 1020 52 10000 6 120 08:43 10.04.2020
5098 Clouds 19 1020 52 10000 6 120 08:24 10.04.2020
5099 Clouds 18 1021 59 10000 6 120 07:45 10.04.2020
5100 Clouds 18 1022 56 10000 6 110 07:24 10.04.2020
5101 Clouds 18 1022 56 10000 5 110 06:49 10.04.2020
5102 Clouds 18 1022 56 10000 5 110 06:28 10.04.2020
5103 Clouds 17 1023 63 10000 6 130 05:40 10.04.2020
5104 Clouds 17 1023 68 10000 7 110 04:58 10.04.2020
5105 Clouds 15 1024 72 10000 5 120 03:49 10.04.2020
5106 Clouds 15 1024 72 10000 5 120 03:30 10.04.2020
5107 Clouds 15 1023 77 8000 6 110 02:48 10.04.2020
5108 Clouds 15 1023 77 8000 6 110 02:28 10.04.2020
5109 Clouds 14 1023 82 8000 5 100 01:30 10.04.2020
5110 Clouds 14 1023 82 8000 3 100 00:50 10.04.2020
5111 Clouds 13 1022 82 8000 4 110 00:23 10.04.2020
5112 Clouds 13 1022 82 8000 4 110 23:55 09.04.2020
5113 Clouds 13 1022 82 10000 4 110 23:37 09.04.2020
5114 Clouds 14 1022 82 10000 4 100 23:19 09.04.2020
5115 Clouds 14 1022 87 10000 4 100 22:41 09.04.2020
5116 Clouds 14 1022 87 10000 4 100 22:23 09.04.2020
5117 Clouds 13 1022 82 10000 4 120 21:45 09.04.2020
5118 Clouds 14 1022 82 10000 4 120 21:26 09.04.2020
5119 Clouds 14 1022 82 10000 3 110 20:59 09.04.2020
5120 Clouds 14 1022 82 10000 4 100 20:40 09.04.2020
5121 Clouds 13 1022 82 10000 5 110 20:20 09.04.2020
5122 Clouds 14 1022 82 10000 4 100 19:41 09.04.2020
5123 Clouds 14 1022 82 10000 4 100 19:23 09.04.2020
5124 Clouds 14 1022 82 10000 4 100 18:59 09.04.2020
5125 Clouds 14 1022 82 10000 5 100 18:40 09.04.2020
5126 Clear 14 1022 82 10000 5 110 18:18 09.04.2020
5127 Clear 14 1022 82 10000 5 100 17:40 09.04.2020
5128 Clear 14 1022 82 10000 5 100 17:21 09.04.2020
5129 Clear 15 1022 72 10000 5 100 16:42 09.04.2020
5130 Clear 15 1022 72 10000 5 100 16:23 09.04.2020
5131 Clear 15 1022 72 10000 5 100 15:58 09.04.2020
5132 Clear 15 1022 72 10000 4 100 15:39 09.04.2020
5133 Clear 15 1022 72 10000 4 100 15:39 09.04.2020
5134 Clear 15 1022 72 10000 4 100 15:39 09.04.2020
5135 Clear 14 1022 72 10000 4 100 15:21 09.04.2020
5136 Clear 15 1021 72 10000 4 100 14:59 09.04.2020
5137 Clear 15 1021 67 10000 5 110 14:39 09.04.2020
5138 Clear 16 1021 59 10000 5 120 14:20 09.04.2020
5139 Clear 16 1020 59 10000 5 120 13:42 09.04.2020
5140 Clear 16 1020 52 10000 5 130 13:24 09.04.2020
5141 Clear 17 1020 52 10000 5 130 12:59 09.04.2020
5142 Clear 17 1019 48 10000 6 130 12:39 09.04.2020
5143 Clear 18 1019 45 10000 7 130 12:20 09.04.2020
5144 Clear 18 1019 45 10000 7 130 12:20 09.04.2020
5145 Clear 18 1019 45 10000 7 130 11:55 09.04.2020
5146 Clear 19 1019 40 10000 6 140 11:36 09.04.2020
5147 Clear 20 1019 32 10000 6 130 11:18 09.04.2020
5148 Clear 19 1019 35 10000 6 120 10:41 09.04.2020
5149 Clear 19 1019 35 10000 6 120 10:22 09.04.2020
5150 Clear 19 1019 33 10000 6 140 09:58 09.04.2020
5151 Clear 20 1019 35 10000 6 130 09:39 09.04.2020
5152 Clear 20 1019 35 10000 6 130 09:21 09.04.2020
5153 Clear 20 1019 37 10000 5 130 08:45 09.04.2020
5154 Clear 20 1019 37 10000 5 130 08:24 09.04.2020
5155 Clear 20 1020 37 10000 6 110 07:59 09.04.2020
5156 Clear 20 1020 35 10000 6 130 07:37 09.04.2020
5157 Clear 19 1020 40 10000 5 120 07:18 09.04.2020
5158 Clear 19 1021 46 10000 5 140 06:26 09.04.2020
5159 Clear 19 1021 49 10000 5 120 05:47 09.04.2020
5160 Clear 18 1021 52 8000 5 120 04:39 09.04.2020
5161 Clouds 15 1021 67 7000 4 110 02:33 09.04.2020
5162 Clouds 14 1020 82 7000 4 110 01:44 09.04.2020
5163 Clouds 13 1020 76 7000 3 110 01:24 09.04.2020
5164 Clouds 13 1020 82 10000 3 100 00:43 09.04.2020
5165 Clouds 13 1020 76 10000 2 110 00:20 09.04.2020
5166 Clouds 13 1020 76 10000 2 110 23:59 08.04.2020
5167 Clouds 13 1020 76 10000 3 130 23:41 08.04.2020
5168 Clouds 13 1020 76 10000 3 130 23:21 08.04.2020
5169 Clouds 14 1020 71 10000 2 130 22:44 08.04.2020
5170 Clouds 14 1020 71 10000 2 130 22:24 08.04.2020
5171 Clouds 14 1020 71 10000 2 130 21:57 08.04.2020
5172 Clouds 14 1020 71 10000 2 130 21:38 08.04.2020
5173 Clouds 14 1020 71 10000 4 150 21:20 08.04.2020
5174 Clouds 13 1020 71 10000 4 150 20:58 08.04.2020
5175 Clouds 13 1020 71 10000 3 140 20:38 08.04.2020
5176 Clouds 14 1020 71 10000 3 140 20:20 08.04.2020
5177 Clouds 14 1020 67 10000 4 130 19:55 08.04.2020
5178 Clouds 14 1020 62 10000 4 130 19:36 08.04.2020
5179 Clouds 15 1020 54 10000 4 140 19:18 08.04.2020
5180 Clouds 15 1020 54 10000 4 140 19:18 08.04.2020
5181 Clouds 15 1021 51 10000 4 130 18:41 08.04.2020
5182 Clouds 15 1021 48 10000 4 110 18:23 08.04.2020
5183 Clouds 15 1020 41 10000 4 120 17:44 08.04.2020
5184 Clouds 15 1020 44 10000 5 140 17:22 08.04.2020
5185 Clouds 16 1020 36 10000 5 140 16:59 08.04.2020
5186 Clouds 16 1020 36 10000 5 140 16:41 08.04.2020
5187 Clouds 16 1020 36 10000 5 140 16:22 08.04.2020
5188 Clouds 16 1020 27 10000 5 130 15:55 08.04.2020
5189 Clouds 17 1020 27 10000 5 130 15:36 08.04.2020
5190 Clouds 17 1020 27 10000 5 130 15:18 08.04.2020
5191 Clouds 17 1019 22 10000 5 140 14:42 08.04.2020
5192 Clouds 17 1019 22 10000 5 140 14:23 08.04.2020
5193 Clouds 16 1019 25 10000 4 140 13:45 08.04.2020
5194 Clouds 18 1018 24 10000 5 150 13:22 08.04.2020
5195 Clouds 18 1018 24 10000 5 150 12:59 08.04.2020
5196 Clouds 19 1018 22 10000 5 140 12:41 08.04.2020
5197 Clouds 20 1018 19 10000 6 130 12:18 08.04.2020
5198 Clouds 20 1018 22 10000 6 140 11:42 08.04.2020
5199 Clouds 21 1017 21 10000 5 120 11:23 08.04.2020
5200 Clouds 21 1017 21 10000 5 120 11:23 08.04.2020
5201 Clouds 22 1017 21 10000 6 100 10:59 08.04.2020
5202 Clouds 22 1017 21 10000 6 100 10:41 08.04.2020
5203 Clouds 22 1017 21 10000 6 100 10:41 08.04.2020
5204 Clouds 22 1017 20 10000 3 120 10:21 08.04.2020
5205 Clouds 22 1017 20 10000 3 120 09:59 08.04.2020
5206 Clouds 22 1018 39 10000 1 0 09:41 08.04.2020
5207 Clouds 22 1018 20 10000 3 130 09:19 08.04.2020
5208 Clouds 22 1018 20 10000 3 130 08:58 08.04.2020
5209 Clouds 22 1018 18 10000 3 130 08:39 08.04.2020
5210 Clouds 22 1018 18 10000 3 130 08:20 08.04.2020
5211 Clouds 22 1018 20 10000 3 130 07:43 08.04.2020
5212 Clouds 22 1019 18 10000 3 0 07:21 08.04.2020
5213 Clear 22 1019 21 10000 3 140 06:29 08.04.2020
5214 Clear 22 1020 17 10000 2 0 04:58 08.04.2020
5215 Clear 17 1020 42 10000 1 0 02:50 08.04.2020
5216 Clear 16 1019 48 10000 1 0 02:22 08.04.2020
5217 Clear 14 1019 54 10000 1 0 01:56 08.04.2020
5218 Clear 12 1019 76 10000 0.85 240 01:28 08.04.2020
5219 Clear 10 1018 81 10000 0.85 240 00:47 08.04.2020
5220 Clear 11 1018 81 10000 1.7 244 00:26 08.04.2020
5221 Clear 11 1018 76 10000 1 110 23:56 07.04.2020
5222 Clear 11 1018 76 10000 1.7 244 23:37 07.04.2020
5223 Clear 11 1018 76 10000 1.7 244 23:18 07.04.2020
5224 Clear 11 1018 76 10000 1.7 244 22:54 07.04.2020
5225 Clear 11 1018 76 10000 1.7 244 22:54 07.04.2020
5226 Clear 11 1018 76 10000 1 230 22:36 07.04.2020
5227 Clear 12 1018 71 10000 1 200 22:18 07.04.2020
5228 Clear 11 1018 66 10000 1 210 21:42 07.04.2020
5229 Clouds 12 1018 66 10000 1 210 21:21 07.04.2020
5230 Clouds 12 1018 76 10000 1 200 20:58 07.04.2020
5231 Clouds 12 1018 76 10000 1 200 20:39 07.04.2020
5232 Clouds 12 1018 76 10000 1 200 20:21 07.04.2020
5233 Clouds 13 1019 66 10000 1 200 19:57 07.04.2020
5234 Clouds 13 1019 66 10000 1 180 19:37 07.04.2020
5235 Clouds 13 1019 66 10000 1 180 19:19 07.04.2020
5236 Clouds 13 1019 66 10000 1 180 18:57 07.04.2020
5237 Clouds 13 1019 62 10000 1 220 18:39 07.04.2020
5238 Clouds 13 1019 62 10000 1 220 18:19 07.04.2020
5239 Clouds 13 1019 58 10000 2 140 17:45 07.04.2020
5240 Clouds 13 1019 58 10000 2 140 17:24 07.04.2020
5241 Clouds 14 1020 58 10000 3 160 16:48 07.04.2020
5242 Clouds 14 1020 58 10000 3 160 16:29 07.04.2020
5243 Clouds 14 1020 62 10000 2 150 15:59 07.04.2020
5244 Clouds 14 1019 67 10000 2 200 15:41 07.04.2020
5245 Clouds 14 1019 67 10000 2 200 15:23 07.04.2020
5246 Clouds 15 1019 67 10000 3 190 14:41 07.04.2020
5247 Clouds 15 1019 67 10000 3 200 14:22 07.04.2020
5248 Clouds 16 1019 67 10000 3 200 13:57 07.04.2020
5249 Clouds 16 1019 62 10000 3 190 13:38 07.04.2020
5250 Clouds 17 1018 59 10000 4 200 13:18 07.04.2020
5251 Clouds 17 1018 59 10000 4 200 13:18 07.04.2020
5252 Clouds 17 1018 59 10000 4 200 12:55 07.04.2020
5253 Clouds 17 1018 55 10000 4 180 12:36 07.04.2020
5254 Clouds 19 1018 42 10000 4 170 12:18 07.04.2020
5255 Clouds 18 1018 42 10000 4 170 12:18 07.04.2020
5256 Clouds 20 1018 37 10000 2 0 11:42 07.04.2020
5257 Clouds 20 1018 37 10000 2 0 11:24 07.04.2020
5258 Clouds 20 1018 14 10000 1 0 10:58 07.04.2020
5259 Clouds 20 1018 15 10000 2 0 10:37 07.04.2020
5260 Clouds 20 1018 13 10000 3 20 10:19 07.04.2020
5261 Clouds 21 1018 14 10000 2 0 09:45 07.04.2020
5262 Clear 21 1018 14 10000 3 60 09:18 07.04.2020
5263 Clear 21 1018 14 10000 3 60 08:55 07.04.2020
5264 Clear 21 1018 19 10000 2 0 08:36 07.04.2020
5265 Clear 20 1019 18 10000 2 0 08:18 07.04.2020
5266 Clear 20 1019 22 10000 2 30 07:40 07.04.2020
5267 Clear 19 1020 29 10000 3 20 07:21 07.04.2020
5268 Clear 19 1020 29 10000 3 20 07:21 07.04.2020
5269 Clear 19 1020 24 10000 3 50 06:49 07.04.2020
5270 Clear 19 1020 31 10000 2 0 06:21 07.04.2020
5271 Clear 18 1020 32 10000 2 290 05:38 07.04.2020
5272 Clear 17 1020 39 10000 1 0 04:40 07.04.2020
5273 Clouds 15 1020 47 10000 2 360 03:25 07.04.2020
5274 Clouds 13 1020 71 10000 2 360 02:48 07.04.2020
5275 Clouds 10 1020 81 10000 1 10 01:48 07.04.2020
5276 Clouds 10 1020 81 10000 1 10 01:24 07.04.2020
5277 Clouds 8 1019 93 10000 1 40 00:28 07.04.2020
5278 Clouds 9 1019 81 10000 1 0 23:44 06.04.2020
5279 Clouds 9 1019 81 10000 1 0 23:23 06.04.2020
5280 Clouds 9 1019 87 10000 1 360 22:58 06.04.2020
5281 Clouds 9 1019 87 10000 1 360 22:38 06.04.2020
5282 Clouds 9 1019 81 10000 0.23 311 22:19 06.04.2020
5283 Clouds 9 1019 81 10000 0.23 311 21:57 06.04.2020
5284 Clear 9 1019 87 10000 0.68 4 21:38 06.04.2020
5285 Clear 9 1019 81 10000 1.12 175 21:18 06.04.2020
5286 Clear 9 1019 81 10000 1 180 20:42 06.04.2020
5287 Clear 9 1019 81 10000 1 200 20:23 06.04.2020
5288 Clear 9 1019 81 10000 1 200 19:59 06.04.2020
5289 Clear 9 1020 76 10000 1.12 175 19:40 06.04.2020
5290 Clear 10 1020 71 10000 1 190 19:22 06.04.2020
5291 Clear 10 1020 71 10000 1 190 18:55 06.04.2020
5292 Clear 10 1020 71 10000 1 170 18:37 06.04.2020
5293 Clouds 10 1020 71 10000 1 160 18:19 06.04.2020
5294 Clouds 10 1021 71 10000 2 160 17:42 06.04.2020
5295 Clouds 11 1021 71 10000 2 150 17:19 06.04.2020
5296 Clouds 11 1021 66 10000 3 160 16:50 06.04.2020
5297 Clouds 11 1021 66 10000 3 160 16:31 06.04.2020
5298 Clouds 11 1021 66 10000 2 160 15:40 06.04.2020
5299 Clouds 13 1020 58 10000 4 130 13:45 06.04.2020
5300 Clouds 13 1020 54 10000 4 120 13:24 06.04.2020
5301 Clouds 14 1020 54 10000 3 120 12:54 06.04.2020
5302 Clouds 14 1020 54 10000 3 120 12:54 06.04.2020
5303 Clouds 14 1020 54 10000 3 120 12:54 06.04.2020
5304 Clouds 13 1020 54 10000 3 120 12:54 06.04.2020
5305 Clouds 13 1020 54 10000 3 120 12:54 06.04.2020
5306 Clouds 14 1020 54 10000 3 110 12:21 06.04.2020
5307 Clouds 14 1020 51 10000 3 110 11:54 06.04.2020
5308 Clouds 14 1020 51 10000 3 110 11:54 06.04.2020
5309 Clouds 14 1020 51 10000 3 110 11:54 06.04.2020
5310 Clouds 14 1020 51 10000 3 110 11:54 06.04.2020
5311 Clouds 14 1020 51 10000 3 110 11:54 06.04.2020
5312 Clouds 15 1020 51 10000 4 130 11:31 06.04.2020
5313 Clouds 15 1020 51 10000 4 130 11:31 06.04.2020
5314 Clouds 15 1020 51 10000 4 130 11:31 06.04.2020
5315 Clouds 15 1020 51 10000 4 130 11:31 06.04.2020
5316 Clouds 15 1020 51 10000 4 130 11:30 06.04.2020
5317 Clouds 15 1019 47 10000 3 120 10:50 06.04.2020
5318 Clouds 15 1019 47 10000 3 120 10:50 06.04.2020
5319 Clouds 15 1019 47 10000 3 120 10:50 06.04.2020
5320 Clouds 15 1019 47 10000 3 120 10:50 06.04.2020
5321 Clouds 15 1019 47 10000 3 120 10:50 06.04.2020
5322 Clouds 15 1020 51 10000 3 90 10:21 06.04.2020
5323 Clouds 16 1019 44 10000 4 100 09:43 06.04.2020
5324 Clouds 17 1020 44 10000 3 150 09:20 06.04.2020
5325 Clouds 17 1020 44 10000 3 110 08:53 06.04.2020
5326 Clouds 16 1021 41 10000 2 130 08:30 06.04.2020
5327 Clouds 15 1021 41 10000 2 0 07:26 06.04.2020
5328 Clouds 16 1022 44 10000 2 30 06:40 06.04.2020
5329 Clouds 16 1022 44 10000 2 30 06:40 06.04.2020
5330 Clouds 15 1022 44 10000 2 30 06:18 06.04.2020
5331 Clouds 14 1023 51 10000 1 0 04:18 06.04.2020
5332 Clouds 13 1023 54 10000 1 0 02:56 06.04.2020
5333 Clouds 11 1023 66 10000 1 0 01:57 06.04.2020
5334 Clouds 10 1023 76 10000 1 210 00:59 06.04.2020
5335 Clouds 10 1023 76 10000 1 220 00:29 06.04.2020
5336 Clouds 10 1023 76 10000 1 220 00:29 06.04.2020
5337 Clouds 9 1023 70 10000 1 200 23:59 05.04.2020
5338 Clouds 9 1023 70 10000 1 0 23:40 05.04.2020
5339 Clouds 9 1023 70 10000 1 0 23:21 05.04.2020
5340 Clouds 9 1023 70 10000 1 0 23:21 05.04.2020
5341 Clouds 9 1023 70 10000 1 0 23:21 05.04.2020
5342 Clouds 9 1023 75 10000 1.56 70 22:54 05.04.2020
5343 Clouds 9 1023 75 10000 1 20 22:36 05.04.2020
5344 Clouds 9 1023 75 10000 1 20 22:18 05.04.2020
5345 Clouds 9 1023 76 10000 1 20 21:43 05.04.2020
5346 Clouds 9 1023 76 10000 1 20 21:43 05.04.2020
5347 Clouds 9 1023 76 10000 1 20 21:43 05.04.2020
5348 Clouds 9 1023 70 10000 2 360 21:23 05.04.2020
5349 Clear 9 1024 75 10000 2 10 20:25 05.04.2020
5350 Clear 9 1025 66 10000 1 0 19:43 05.04.2020
5351 Clear 9 1025 66 10000 1 0 19:24 05.04.2020
5352 Clear 9 1025 66 10000 1 20 18:49 05.04.2020
5353 Clear 9 1025 66 10000 1 30 18:18 05.04.2020
5354 Clear 9 1025 66 10000 1 30 18:18 05.04.2020
5355 Clear 10 1025 61 10000 2 50 17:49 05.04.2020
5356 Clear 10 1025 61 10000 2 50 17:49 05.04.2020
5357 Clear 10 1025 61 10000 2 50 17:49 05.04.2020
5358 Clear 10 1025 61 10000 2 50 17:49 05.04.2020
5359 Clear 10 1025 61 10000 2 50 17:49 05.04.2020
5360 Clear 10 1025 61 10000 2 30 17:22 05.04.2020
5361 Clear 10 1026 61 10000 4 30 16:47 05.04.2020
5362 Clear 10 1026 61 10000 4 30 16:47 05.04.2020
5363 Clear 10 1026 61 10000 4 30 16:47 05.04.2020
5364 Clear 10 1026 61 10000 4 30 16:19 05.04.2020
5365 Clear 10 1026 61 10000 4 30 16:19 05.04.2020
5366 Clear 11 1026 61 10000 3 30 15:46 05.04.2020
5367 Clouds 11 1026 57 10000 4 40 15:26 05.04.2020
5368 Clear 10 1026 57 10000 4 40 15:26 05.04.2020
5369 Clouds 10 1026 57 10000 4 60 14:48 05.04.2020
5370 Clouds 10 1026 57 10000 4 60 14:48 05.04.2020
5371 Clouds 10 1026 57 10000 4 60 14:48 05.04.2020
5372 Clouds 10 1026 57 10000 4 60 14:48 05.04.2020
5373 Clouds 11 1025 50 10000 4 40 13:59 05.04.2020
5374 Clouds 11 1025 47 10000 4 60 13:40 05.04.2020
5375 Clouds 11 1025 47 10000 4 60 13:40 05.04.2020
5376 Clouds 11 1025 47 10000 4 60 13:40 05.04.2020
5377 Clouds 11 1025 47 10000 4 60 13:40 05.04.2020
5378 Clouds 11 1025 47 10000 4 60 13:40 05.04.2020
5379 Clouds 13 1024 44 10000 5 50 12:20 05.04.2020
5380 Clouds 13 1024 44 10000 5 50 12:20 05.04.2020
5381 Clouds 14 1024 36 10000 5 50 11:39 05.04.2020
5382 Clouds 15 1024 36 10000 5 50 11:19 05.04.2020
5383 Clouds 14 1024 36 10000 3 20 10:47 05.04.2020
5384 Clouds 15 1024 49 10000 4 10 10:23 05.04.2020
5385 Clouds 15 1024 49 10000 4 30 09:53 05.04.2020
5386 Clouds 15 1024 31 10000 5 20 09:27 05.04.2020
5387 Clouds 15 1024 31 10000 5 20 09:26 05.04.2020
5388 Clouds 15 1025 39 10000 3 30 08:31 05.04.2020
5389 Clouds 15 1025 39 10000 3 30 08:31 05.04.2020
5390 Clouds 15 1025 39 10000 3 30 08:31 05.04.2020
5391 Clouds 15 1025 39 10000 3 30 08:31 05.04.2020
5392 Clouds 15 1025 39 10000 3 30 08:31 05.04.2020
5393 Clouds 14 1027 41 10000 4 10 06:21 05.04.2020
5394 Clouds 14 1027 44 10000 5 20 06:21 05.04.2020
5395 Clouds 14 1027 41 10000 4 10 06:21 05.04.2020
5396 Clouds 14 1027 44 10000 5 20 06:17 05.04.2020
5397 Clouds 13 1029 50 10000 3 50 04:31 05.04.2020
5398 Clouds 12 1028 46 10000 4 40 03:27 05.04.2020
5399 Clouds 10 1028 53 10000 6 50 02:18 05.04.2020
5400 Clouds 10 1028 57 10000 6 30 01:42 05.04.2020
5401 Clouds 9 1027 61 10000 6 30 01:18 05.04.2020
5402 Clouds 9 1027 61 10000 6 30 01:18 05.04.2020
5403 Clouds 8 1027 70 10000 5 20 00:37 05.04.2020
5404 Clear 8 1027 70 10000 5 20 00:18 05.04.2020
5405 Clear 8 1027 70 10000 5 40 23:41 04.04.2020
5406 Clear 8 1027 70 10000 5 40 23:21 04.04.2020
5407 Clear 8 1026 70 10000 5 40 22:57 04.04.2020
5408 Clear 8 1027 75 10000 5 40 22:39 04.04.2020
5409 Clear 8 1027 75 10000 5 40 22:19 04.04.2020
5410 Clear 8 1026 75 10000 5 30 21:56 04.04.2020
5411 Clear 8 1026 70 10000 5 30 21:38 04.04.2020
5412 Clouds 9 1026 70 10000 5 30 21:18 04.04.2020
5413 Clear 9 1026 70 10000 5 30 20:43 04.04.2020
5414 Clear 9 1026 70 10000 5 30 20:23 04.04.2020
5415 Clear 9 1026 76 10000 4 30 19:59 04.04.2020
5416 Clear 9 1026 76 10000 4 30 19:59 04.04.2020
5417 Clear 10 1026 71 10000 5 20 19:39 04.04.2020
5418 Clear 10 1026 71 10000 5 20 19:20 04.04.2020
5419 Clear 9 1026 71 10000 5 20 18:59 04.04.2020
5420 Clear 10 1027 71 10000 4 20 18:39 04.04.2020
5421 Clear 10 1027 71 10000 4 20 18:19 04.04.2020
5422 Clear 10 1027 71 10000 5 30 17:58 04.04.2020
5423 Clear 10 1027 71 10000 5 30 17:38 04.04.2020
5424 Clear 10 1027 71 10000 5 30 17:19 04.04.2020
5425 Clear 11 1026 66 10000 6 40 16:42 04.04.2020
5426 Clear 11 1027 66 10000 6 30 16:23 04.04.2020
5427 Clear 11 1027 66 10000 6 30 15:58 04.04.2020
5428 Clear 12 1027 58 10000 6 30 15:38 04.04.2020
5429 Clouds 12 1027 58 10000 6 30 15:19 04.04.2020
5430 Clouds 12 1027 58 10000 6 30 15:19 04.04.2020
5431 Clouds 12 1027 58 10000 6 30 15:19 04.04.2020
5432 Clouds 12 1026 71 10000 6 30 14:46 04.04.2020
5433 Clouds 12 1026 66 10000 6 20 14:25 04.04.2020
5434 Clouds 13 1025 71 8000 6 50 13:58 04.04.2020
5435 Clouds 13 1024 71 7000 8 40 13:40 04.04.2020
5436 Clouds 14 1024 71 7000 8 40 13:20 04.04.2020
5437 Clouds 14 1024 63 7000 9 40 12:55 04.04.2020
5438 Clouds 14 1024 63 7000 9 40 12:55 04.04.2020
5439 Clouds 15 1023 34 10000 4 30 12:36 04.04.2020
5440 Clouds 17 1023 29 10000 4 40 12:18 04.04.2020
5441 Clouds 19 1023 44 10000 4 30 11:40 04.04.2020
5442 Clouds 18 1023 44 10000 4 30 11:21 04.04.2020
5443 Clouds 19 1023 29 10000 6 50 10:57 04.04.2020
5444 Clouds 19 1023 30 10000 7 40 10:39 04.04.2020
5445 Clouds 20 1023 30 10000 7 40 10:21 04.04.2020
5446 Clouds 20 1023 28 10000 5 40 09:55 04.04.2020
5447 Clouds 19 1023 30 10000 5 30 09:37 04.04.2020
5448 Clouds 19 1023 30 10000 5 30 09:19 04.04.2020
5449 Clouds 19 1023 32 10000 6 20 08:42 04.04.2020
5450 Clouds 20 1023 37 10000 5 10 08:21 04.04.2020
5451 Clouds 20 1023 37 10000 6 40 07:47 04.04.2020
5452 Clouds 20 1024 34 10000 6 360 07:28 04.04.2020
5453 Clouds 19 1024 37 10000 5 10 06:57 04.04.2020
5454 Clouds 18 1024 39 10000 6 360 06:20 04.04.2020
5455 Clouds 18 1024 39 10000 4 10 05:45 04.04.2020
5456 Clouds 18 1024 42 10000 5 10 05:24 04.04.2020
5457 Clouds 17 1025 39 10000 4 360 04:33 04.04.2020
5458 Clouds 17 1025 42 10000 2 340 03:55 04.04.2020
5459 Clouds 16 1024 42 10000 3 310 03:22 04.04.2020
5460 Clouds 14 1024 62 10000 2 270 02:38 04.04.2020
5461 Clouds 14 1024 62 10000 2 270 02:38 04.04.2020
5462 Clouds 14 1024 62 10000 2 270 02:20 04.04.2020
5463 Clouds 12 1024 71 10000 1 0 01:26 04.04.2020
5464 Clouds 12 1023 71 10000 1 0 00:52 04.04.2020
5465 Clouds 11 1023 76 10000 1 0 00:30 04.04.2020
5466 Clouds 11 1023 71 10000 2 260 23:41 03.04.2020
5467 Clouds 11 1023 71 10000 2 260 23:22 03.04.2020
5468 Clouds 11 1022 66 10000 1 0 22:59 03.04.2020
5469 Clouds 11 1022 66 10000 1 0 22:40 03.04.2020
5470 Clouds 11 1022 66 10000 2 300 22:19 03.04.2020
5471 Clouds 11 1022 71 10000 1 0 21:45 03.04.2020
5472 Clouds 11 1022 66 10000 1 240 21:27 03.04.2020
5473 Clouds 11 1022 71 10000 2 230 20:59 03.04.2020
5474 Clouds 10 1022 71 10000 2 230 20:40 03.04.2020
5475 Clouds 11 1022 62 10000 2 250 20:22 03.04.2020
5476 Clouds 11 1022 62 10000 2 330 19:58 03.04.2020
5477 Clouds 12 1022 58 10000 0.93 233 19:39 03.04.2020
5478 Clouds 12 1022 58 10000 0.93 233 19:21 03.04.2020
5479 Clouds 12 1023 58 10000 0.93 233 18:59 03.04.2020
5480 Clouds 11 1023 54 10000 0.93 233 18:41 03.04.2020
5481 Clouds 11 1023 54 10000 0.93 233 18:41 03.04.2020
5482 Clouds 12 1023 54 10000 0.93 233 18:23 03.04.2020
5483 Clouds 12 1023 54 10000 1.07 85 17:57 03.04.2020
5484 Clouds 12 1023 54 10000 1 170 17:39 03.04.2020
5485 Clouds 12 1023 54 10000 1 170 17:18 03.04.2020
5486 Clouds 12 1023 58 10000 2 170 16:45 03.04.2020
5487 Clouds 13 1023 54 10000 2 170 16:22 03.04.2020
5488 Clouds 13 1023 54 10000 2 170 16:22 03.04.2020
5489 Clouds 12 1023 54 10000 2 150 15:58 03.04.2020
5490 Clouds 12 1023 54 10000 2 150 15:40 03.04.2020
5491 Clouds 13 1023 50 10000 3 170 15:21 03.04.2020
5492 Clouds 13 1019 52 0 2.27 88 14:56 03.04.2020
5493 Clouds 14 1019 51 0 2.27 88 14:37 03.04.2020
5494 Clouds 14 1022 44 10000 2 90 14:19 03.04.2020
5495 Clouds 14 1022 44 10000 2 90 13:43 03.04.2020
5496 Clouds 13 1022 44 10000 2 90 13:25 03.04.2020
5497 Clouds 15 1022 41 10000 3 80 12:55 03.04.2020
5498 Clouds 15 1021 41 10000 3 60 12:37 03.04.2020
5499 Clouds 15 1022 36 10000 4 50 12:18 03.04.2020
5500 Clouds 16 1022 36 10000 4 40 11:41 03.04.2020
5501 Clouds 16 1022 36 10000 4 40 11:23 03.04.2020
5502 Clouds 16 1022 36 10000 4 20 10:59 03.04.2020
5503 Clouds 16 1022 33 10000 3 40 10:40 03.04.2020
5504 Clouds 17 1022 33 10000 3 40 10:21 03.04.2020
5505 Clouds 17 1022 36 10000 3 30 09:59 03.04.2020
5506 Clouds 17 1021 33 10000 3 50 09:40 03.04.2020
5507 Clouds 18 1021 33 10000 3 50 09:22 03.04.2020
5508 Clouds 18 1021 33 10000 4 40 08:57 03.04.2020
5509 Clouds 18 1021 31 10000 5 360 08:38 03.04.2020
5510 Clouds 18 1021 31 10000 5 360 08:20 03.04.2020
5511 Clouds 18 1022 34 10000 3 20 07:48 03.04.2020
5512 Clouds 18 1022 38 10000 2 10 07:29 03.04.2020
5513 Clouds 18 1023 33 10000 3 70 06:49 03.04.2020
5514 Clouds 16 1023 33 10000 3 70 06:24 03.04.2020
5515 Clouds 16 1023 33 10000 1 0 05:40 03.04.2020
5516 Clouds 15 1024 41 10000 2 30 03:45 03.04.2020
5517 Clouds 14 1023 47 10000 3 60 02:56 03.04.2020
5518 Clouds 13 1023 58 10000 3 60 02:27 03.04.2020
5519 Clouds 12 1023 71 10000 2 70 01:23 03.04.2020
5520 Clouds 12 1023 71 10000 3 50 00:37 03.04.2020
5521 Clouds 12 1023 71 10000 3 50 00:19 03.04.2020
5522 Clouds 12 1023 66 10000 3 50 23:42 02.04.2020
5523 Clouds 12 1023 66 10000 3 50 23:23 02.04.2020
5524 Clouds 12 1023 66 10000 2 70 22:58 02.04.2020
5525 Clouds 12 1022 66 10000 2 70 22:38 02.04.2020
5526 Clouds 12 1022 66 10000 2 70 22:20 02.04.2020
5527 Clouds 12 1023 66 10000 2 70 21:39 02.04.2020
5528 Clouds 12 1023 66 10000 2 70 21:39 02.04.2020
5529 Clouds 12 1023 66 10000 2 70 21:20 02.04.2020
5530 Clouds 12 1023 66 10000 2 90 20:58 02.04.2020
5531 Clouds 12 1023 66 10000 2 70 20:40 02.04.2020
5532 Clouds 12 1023 66 10000 2 70 20:21 02.04.2020
5533 Clouds 12 1023 66 10000 2 60 19:44 02.04.2020
5534 Clouds 12 1023 66 10000 2 60 19:21 02.04.2020
5535 Clouds 12 1023 62 10000 2 70 18:58 02.04.2020
5536 Clouds 12 1024 58 10000 2 70 18:39 02.04.2020
5537 Clouds 12 1023 58 10000 3 80 18:20 02.04.2020
5538 Clouds 12 1023 58 10000 3 80 17:56 02.04.2020
5539 Clouds 12 1024 58 10000 3 80 17:38 02.04.2020
5540 Clouds 13 1024 58 10000 3 80 17:18 02.04.2020
5541 Clouds 12 1024 58 10000 2 80 16:55 02.04.2020
5542 Clouds 12 1024 58 10000 2 70 16:36 02.04.2020
5543 Clouds 12 1024 58 10000 2 70 16:18 02.04.2020
5544 Clouds 12 1023 58 10000 4 80 15:44 02.04.2020
5545 Clouds 12 1024 54 10000 3 90 15:44 02.04.2020
5546 Clouds 12 1024 54 10000 3 90 15:44 02.04.2020
5547 Clouds 12 1023 58 10000 4 80 15:44 02.04.2020
5548 Clouds 12 1024 54 10000 3 90 15:21 02.04.2020
5549 Clouds 12 1023 54 10000 3 80 14:58 02.04.2020
5550 Clouds 12 1023 58 10000 3 80 14:39 02.04.2020
5551 Clouds 13 1023 54 10000 3 120 14:19 02.04.2020
5552 Clouds 13 1023 54 10000 3 120 13:56 02.04.2020
5553 Clouds 13 1023 54 10000 3 100 13:38 02.04.2020
5554 Clouds 13 1023 54 10000 3 100 13:19 02.04.2020
5555 Clouds 13 1023 54 10000 4 110 12:47 02.04.2020
5556 Clear 14 1022 50 10000 4 110 12:21 02.04.2020
5557 Clear 14 1022 47 10000 4 90 11:58 02.04.2020
5558 Clear 14 1022 44 10000 4 90 11:39 02.04.2020
5559 Clear 14 1022 44 10000 4 90 11:21 02.04.2020
5560 Clear 15 1021 47 10000 6 100 10:57 02.04.2020
5561 Clear 14 1021 44 10000 5 90 10:39 02.04.2020
5562 Clear 15 1021 44 10000 5 90 10:21 02.04.2020
5563 Clear 15 1022 41 10000 4 100 09:59 02.04.2020
5564 Clear 16 1022 41 10000 4 100 09:41 02.04.2020
5565 Clear 16 1021 44 10000 5 110 09:22 02.04.2020
5566 Clear 17 1022 39 10000 4 90 08:48 02.04.2020
5567 Clear 16 1022 36 10000 2 0 08:29 02.04.2020
5568 Clear 16 1022 39 10000 2 0 07:59 02.04.2020
5569 Clear 16 1022 39 10000 2 0 07:59 02.04.2020
5570 Clear 16 1023 39 10000 3 120 07:41 02.04.2020
5571 Clear 16 1023 39 10000 3 120 07:19 02.04.2020
5572 Clear 16 1024 36 10000 3 110 06:25 02.04.2020
5573 Clear 16 1024 48 10000 5 140 05:46 02.04.2020
5574 Clear 15 1024 48 10000 5 140 05:18 02.04.2020
5575 Clouds 12 1025 58 10000 4 60 02:26 02.04.2020
5576 Clear 11 1024 62 10000 3 60 01:27 02.04.2020
5577 Clear 11 1024 66 10000 3 50 00:41 02.04.2020
5578 Clear 10 1024 66 10000 3 50 00:20 02.04.2020
5579 Clear 10 1024 70 10000 2 60 23:39 01.04.2020
5580 Clear 10 1024 70 10000 2 60 23:19 01.04.2020
5581 Clear 10 1023 66 10000 3 40 22:57 01.04.2020
5582 Clear 10 1023 66 10000 3 40 22:57 01.04.2020
5583 Clear 10 1024 76 10000 2 10 22:38 01.04.2020
5584 Clear 10 1024 76 10000 2 10 22:19 01.04.2020
5585 Clear 10 1023 81 10000 3 10 21:41 01.04.2020
5586 Clouds 11 1023 87 10000 3 10 21:19 01.04.2020
5587 Clouds 10 1024 81 10000 2 350 20:56 01.04.2020
5588 Clouds 9 1024 81 10000 2 340 20:38 01.04.2020
5589 Clouds 10 1024 81 10000 2 340 20:19 01.04.2020
5590 Clouds 10 1024 81 10000 2 340 19:57 01.04.2020
5591 Clouds 10 1024 81 10000 2 340 19:57 01.04.2020
5592 Clouds 10 1024 81 10000 2 340 19:38 01.04.2020
5593 Clouds 10 1024 76 10000 3 360 19:19 01.04.2020
5594 Clouds 11 1023 66 10000 2 50 18:42 01.04.2020
5595 Clouds 11 1023 66 10000 2 50 18:23 01.04.2020
5596 Clouds 11 1023 66 10000 3 40 17:57 01.04.2020
5597 Clouds 11 1023 71 10000 4 40 17:37 01.04.2020
5598 Clouds 11 1023 71 10000 4 40 17:19 01.04.2020
5599 Clouds 11 1022 66 10000 4 50 16:56 01.04.2020
5600 Clouds 11 1023 71 10000 4 40 16:38 01.04.2020
5601 Clouds 11 1023 71 10000 4 40 16:20 01.04.2020
5602 Clouds 12 1023 76 7000 4 60 15:43 01.04.2020
5603 Clouds 11 1023 76 7000 4 40 15:24 01.04.2020
5604 Clouds 12 1023 71 7000 4 50 14:59 01.04.2020
5605 Clouds 12 1023 71 7000 4 50 14:40 01.04.2020
5606 Clouds 12 1023 71 7000 4 50 14:40 01.04.2020
5607 Clouds 13 1023 66 7000 5 40 14:21 01.04.2020
5608 Clouds 12 1022 66 10000 5 30 13:59 01.04.2020
5609 Clouds 13 1021 50 10000 6 30 13:39 01.04.2020
5610 Clouds 13 1021 50 10000 6 30 13:20 01.04.2020
5611 Clouds 13 1021 50 10000 6 30 13:20 01.04.2020
5612 Clouds 14 1021 44 10000 5 40 12:57 01.04.2020
5613 Clouds 15 1021 44 10000 5 10 12:37 01.04.2020
5614 Clouds 15 1021 44 10000 5 10 12:19 01.04.2020
5615 Clouds 16 1021 48 10000 5 10 11:56 01.04.2020
5616 Clouds 16 1020 48 10000 5 10 11:37 01.04.2020
5617 Clouds 16 1020 48 10000 5 10 11:37 01.04.2020
5618 Clouds 16 1020 48 10000 5 10 11:37 01.04.2020
5619 Clouds 17 1020 48 10000 5 10 11:18 01.04.2020
5620 Clouds 18 1020 48 10000 6 360 10:38 01.04.2020
5621 Clouds 18 1020 48 10000 6 360 10:20 01.04.2020
5622 Clouds 17 1020 51 10000 6 360 09:58 01.04.2020
5623 Clouds 18 1020 51 10000 6 10 09:39 01.04.2020
5624 Clouds 17 1020 51 10000 6 10 09:19 01.04.2020
5625 Clouds 17 1020 48 10000 6 360 08:44 01.04.2020
5626 Clouds 17 1021 51 10000 5 350 08:18 01.04.2020
5627 Clouds 17 1021 51 10000 6 360 07:48 01.04.2020
5628 Clouds 17 1021 48 10000 6 20 07:23 01.04.2020
5629 Clouds 16 1022 48 10000 7 10 06:59 01.04.2020
5630 Clouds 16 1022 55 10000 7 360 06:38 01.04.2020
5631 Clouds 16 1022 55 10000 7 360 06:20 01.04.2020
5632 Clouds 15 1022 71 10000 5 350 04:38 01.04.2020
5633 Clouds 13 1022 71 10000 6 330 03:35 01.04.2020
5634 Clouds 11 1022 81 10000 6 340 02:57 01.04.2020
5635 Clouds 12 1022 81 10000 5 340 02:21 01.04.2020
5636 Clouds 11 1021 87 10000 4 320 01:40 01.04.2020
5637 Clouds 11 1021 87 10000 4 320 01:40 01.04.2020
5638 Clouds 11 1021 87 10000 4 320 01:20 01.04.2020
5639 Clouds 10 1021 87 10000 4 330 00:46 01.04.2020
5640 Clouds 10 1020 87 10000 3 320 00:21 01.04.2020
5641 Clouds 10 1020 93 10000 3 340 23:48 31.03.2020
5642 Clouds 10 1020 87 10000 3 350 23:27 31.03.2020
5643 Clouds 10 1019 93 10000 4 340 22:59 31.03.2020
5644 Clouds 11 1019 93 10000 4 340 22:37 31.03.2020
5645 Clouds 10 1018 87 10000 4 350 22:19 31.03.2020
5646 Clouds 10 1018 87 10000 4 350 22:19 31.03.2020
5647 Clouds 11 1018 93 10000 4 360 21:56 31.03.2020
5648 Clouds 10 1018 93 10000 4 360 21:38 31.03.2020
5649 Clouds 10 1018 93 10000 4 360 21:19 31.03.2020
5650 Rain 10 1018 93 10000 4 340 20:55 31.03.2020
5651 Rain 10 1018 93 10000 4 340 20:36 31.03.2020
5652 Rain 10 1018 93 10000 4 340 20:36 31.03.2020
5653 Rain 10 1018 93 10000 3 360 20:18 31.03.2020
5654 Rain 10 1018 93 10000 3 360 19:42 31.03.2020
5655 Rain 10 1018 93 10000 3 360 19:42 31.03.2020
5656 Rain 10 1018 93 10000 3 360 19:42 31.03.2020
5657 Rain 11 1018 93 10000 4 360 19:23 31.03.2020
5658 Rain 11 1018 93 10000 4 360 18:58 31.03.2020
5659 Rain 11 1018 93 10000 4 360 18:39 31.03.2020
5660 Rain 11 1018 87 10000 3 360 18:18 31.03.2020
5661 Rain 11 1018 87 10000 3 360 17:55 31.03.2020
5662 Rain 11 1018 87 10000 3 360 17:55 31.03.2020
5663 Rain 11 1018 87 10000 3 350 17:37 31.03.2020
5664 Rain 11 1017 87 10000 3 360 17:18 31.03.2020
5665 Rain 11 1017 87 10000 3 360 16:40 31.03.2020
5666 Rain 11 1017 87 10000 3 360 16:19 31.03.2020
5667 Rain 11 1017 76 10000 2 30 15:57 31.03.2020
5668 Rain 11 1017 81 10000 1 0 15:39 31.03.2020
5669 Rain 11 1017 81 10000 1 0 15:21 31.03.2020
5670 Rain 11 1016 81 10000 2 70 14:57 31.03.2020
5671 Rain 11 1016 76 10000 3 70 14:38 31.03.2020
5672 Rain 11 1016 76 10000 3 70 14:20 31.03.2020
5673 Rain 12 1016 81 10000 3 70 13:43 31.03.2020
5674 Rain 11 1016 81 10000 3 70 13:20 31.03.2020
5675 Rain 11 1016 81 10000 3 70 13:20 31.03.2020
5676 Rain 11 1016 81 10000 3 70 13:20 31.03.2020
5677 Rain 11 1016 81 10000 4 70 12:56 31.03.2020
5678 Rain 11 1016 87 10000 2 80 12:38 31.03.2020
5679 Rain 11 1016 87 10000 2 80 12:19 31.03.2020
5680 Rain 11 1015 87 10000 2 70 11:39 31.03.2020
5681 Rain 12 1015 87 10000 2 70 11:20 31.03.2020
5682 Rain 12 1015 87 10000 3 80 10:58 31.03.2020
5683 Rain 12 1015 76 10000 3 90 10:40 31.03.2020
5684 Rain 12 1015 76 10000 3 90 10:21 31.03.2020
5685 Rain 13 1015 76 10000 3 110 09:56 31.03.2020
5686 Rain 13 1015 76 10000 3 100 09:37 31.03.2020
5687 Rain 13 1015 76 10000 3 100 09:19 31.03.2020
5688 Rain 13 1015 76 10000 3 90 08:56 31.03.2020
5689 Rain 13 1015 76 10000 3 90 08:56 31.03.2020
5690 Rain 14 1015 76 10000 3 80 08:38 31.03.2020
5691 Rain 14 1015 76 10000 3 80 08:19 31.03.2020
5692 Rain 14 1015 71 10000 4 80 07:54 31.03.2020
5693 Rain 14 1016 67 10000 4 90 07:36 31.03.2020
5694 Rain 14 1016 67 10000 4 90 07:18 31.03.2020
5695 Clouds 15 1017 59 10000 4 100 06:42 31.03.2020
5696 Clouds 16 1017 59 10000 4 100 05:53 31.03.2020
5697 Clouds 16 1017 59 10000 5 70 05:26 31.03.2020
5698 Clouds 13 1018 76 10000 4 100 02:57 31.03.2020
5699 Clouds 12 1018 87 10000 3 40 01:47 31.03.2020
5700 Clouds 12 1018 93 7000 2 20 01:27 31.03.2020
5701 Clouds 11 1018 93 7000 2 30 00:43 31.03.2020
5702 Clouds 11 1018 93 7000 2 30 00:23 31.03.2020
5703 Clouds 11 1018 93 10000 3 10 23:41 30.03.2020
5704 Clouds 11 1018 93 10000 3 10 23:20 30.03.2020
5705 Clouds 11 1018 93 10000 3 10 23:20 30.03.2020
5706 Clouds 12 1018 93 10000 3 10 22:58 30.03.2020
5707 Clouds 12 1018 93 10000 3 10 22:58 30.03.2020
5708 Clouds 11 1018 93 10000 2 350 22:39 30.03.2020
5709 Clouds 11 1018 93 10000 2 350 22:19 30.03.2020
5710 Clouds 11 1018 93 10000 2 10 21:57 30.03.2020
5711 Clouds 11 1018 87 10000 2 40 21:38 30.03.2020
5712 Clouds 12 1018 87 10000 2 40 21:20 30.03.2020
5713 Clouds 12 1018 87 10000 2 40 21:20 30.03.2020
5714 Clouds 11 1019 87 10000 1 70 20:58 30.03.2020
5715 Clouds 11 1019 93 10000 2 60 20:39 30.03.2020
5716 Clouds 12 1019 93 10000 2 60 20:20 30.03.2020
5717 Clouds 11 1019 93 10000 1 30 19:56 30.03.2020
5718 Clouds 12 1019 93 10000 1 20 19:37 30.03.2020
5719 Clouds 12 1019 93 10000 1 20 19:19 30.03.2020
5720 Clouds 11 1020 93 10000 2 10 18:42 30.03.2020
5721 Clouds 11 1020 93 10000 2 10 18:42 30.03.2020
5722 Clouds 11 1020 93 10000 2 10 18:24 30.03.2020
5723 Clouds 11 1020 87 10000 2 40 17:58 30.03.2020
5724 Clouds 11 1020 81 10000 1 60 17:39 30.03.2020
5725 Clouds 11 1020 81 10000 1 60 17:19 30.03.2020
5726 Clouds 11 1020 81 10000 2 60 16:57 30.03.2020
5727 Clouds 12 1020 81 10000 2 50 16:39 30.03.2020
5728 Clouds 12 1020 81 10000 2 50 16:20 30.03.2020
5729 Clouds 12 1020 81 10000 2 90 15:55 30.03.2020
5730 Clouds 12 1019 81 10000 2 80 15:37 30.03.2020
5731 Clouds 12 1019 81 10000 2 80 15:19 30.03.2020
5732 Clouds 12 1019 81 10000 2 70 14:55 30.03.2020
5733 Clouds 12 1019 76 10000 4 70 14:36 30.03.2020
5734 Clouds 12 1019 76 10000 4 70 14:18 30.03.2020
5735 Clouds 12 1019 76 10000 3 60 13:44 30.03.2020
5736 Clouds 12 1019 76 10000 3 70 13:21 30.03.2020
5737 Clouds 12 1019 76 10000 5 70 12:59 30.03.2020
5738 Clouds 12 1019 76 10000 3 60 12:41 30.03.2020
5739 Clouds 12 1019 76 10000 3 60 12:19 30.03.2020
5740 Clouds 12 1019 76 10000 5 70 11:57 30.03.2020
5741 Clouds 12 1018 76 10000 4 80 11:38 30.03.2020
5742 Clouds 12 1018 76 10000 4 80 11:20 30.03.2020
5743 Clouds 12 1018 81 10000 4 60 10:40 30.03.2020
5744 Clouds 12 1018 81 10000 5 70 10:22 30.03.2020
5745 Clouds 12 1018 81 10000 4 50 09:56 30.03.2020
5746 Clouds 12 1018 81 10000 4 40 09:38 30.03.2020
5747 Clouds 12 1018 81 10000 4 40 09:19 30.03.2020
5748 Clouds 12 1018 81 10000 4 40 09:19 30.03.2020
5749 Clouds 12 1018 76 10000 4 50 08:42 30.03.2020
5750 Clouds 12 1018 76 10000 3 80 08:22 30.03.2020
5751 Clouds 12 1018 81 10000 3 70 07:49 30.03.2020
5752 Clouds 12 1019 81 10000 3 60 07:31 30.03.2020
5753 Clouds 12 1019 81 10000 3 50 06:56 30.03.2020
5754 Clouds 12 1019 87 10000 2 70 06:32 30.03.2020
5755 Clouds 12 1019 87 10000 2 80 05:53 30.03.2020
5756 Rain 11 1019 93 10000 4 60 05:22 30.03.2020
5757 Rain 11 1019 93 8000 3 50 04:23 30.03.2020
5758 Rain 11 1020 93 6000 2 30 03:38 30.03.2020
5759 Clouds 11 1019 93 10000 2 50 02:37 30.03.2020
5760 Rain 10 1019 87 10000 3 80 01:35 30.03.2020
5761 Rain 10 1019 93 8000 4 80 00:47 30.03.2020
5762 Rain 10 1018 93 8000 4 90 00:21 30.03.2020
5763 Rain 10 1018 100 6000 2 30 23:41 29.03.2020
5764 Rain 10 1018 100 6000 2 30 23:23 29.03.2020
5765 Rain 10 1018 100 5000 2 20 22:57 29.03.2020
5766 Rain 10 1018 100 4000 3 20 22:37 29.03.2020
5767 Rain 10 1018 100 4000 3 20 22:19 29.03.2020
5768 Rain 10 1018 100 4000 3 360 21:40 29.03.2020
5769 Rain 10 1018 100 4000 2 340 21:21 29.03.2020
5770 Rain 10 1018 93 4000 2 350 20:56 29.03.2020
5771 Rain 10 1018 93 4000 2 350 20:56 29.03.2020
5772 Rain 10 1018 100 5000 2 350 20:38 29.03.2020
5773 Rain 10 1018 100 5000 2 350 20:19 29.03.2020
5774 Rain 10 1018 100 5000 2 350 19:59 29.03.2020
5775 Rain 10 1018 100 5000 2 350 19:59 29.03.2020
5776 Rain 10 1019 100 6000 3 350 19:41 29.03.2020
5777 Rain 9 1019 93 6000 2 340 19:23 29.03.2020
5778 Rain 10 1019 93 6000 2 340 18:57 29.03.2020
5779 Rain 10 1019 93 7000 3 350 18:39 29.03.2020
5780 Rain 9 1019 93 7000 3 350 18:20 29.03.2020
5781 Rain 9 1019 93 7000 3 350 17:56 29.03.2020
5782 Rain 9 1019 93 7000 2 10 17:38 29.03.2020
5783 Rain 9 1019 93 7000 2 10 17:20 29.03.2020
5784 Rain 9 1019 93 7000 2 20 16:57 29.03.2020
5785 Rain 8 1019 93 8000 3 40 16:38 29.03.2020
5786 Rain 8 1019 93 8000 3 40 16:19 29.03.2020
5787 Rain 9 1020 93 7000 4 30 15:43 29.03.2020
5788 Rain 8 1020 93 7000 4 30 15:25 29.03.2020
5789 Rain 8 1020 93 7000 3 20 14:59 29.03.2020
5790 Rain 9 1020 93 7000 3 30 14:40 29.03.2020
5791 Rain 9 1020 93 7000 3 30 14:40 29.03.2020
5792 Rain 9 1019 87 10000 3 40 14:20 29.03.2020
5793 Rain 8 1019 87 10000 3 40 13:58 29.03.2020
5794 Rain 8 1019 87 10000 4 40 13:40 29.03.2020
5795 Rain 8 1019 87 10000 4 40 13:20 29.03.2020
5796 Rain 8 1019 87 10000 4 30 12:56 29.03.2020
5797 Rain 9 1019 87 10000 4 30 12:37 29.03.2020
5798 Rain 9 1019 87 10000 4 30 12:37 29.03.2020
5799 Rain 9 1019 87 10000 3 30 12:19 29.03.2020
5800 Rain 9 1019 87 10000 3 30 12:19 29.03.2020
5801 Rain 9 1019 87 10000 3 30 11:55 29.03.2020
5802 Rain 9 1019 87 10000 4 30 11:37 29.03.2020
5803 Rain 9 1019 87 10000 4 30 11:18 29.03.2020
5804 Rain 9 1019 87 10000 4 360 10:38 29.03.2020
5805 Rain 9 1019 87 10000 4 360 10:19 29.03.2020
5806 Rain 10 1020 76 10000 2 70 09:41 29.03.2020
5807 Rain 9 1020 76 10000 2 70 09:22 29.03.2020
5808 Rain 9 1019 76 10000 2 90 08:56 29.03.2020
5809 Rain 10 1019 81 10000 2 80 08:38 29.03.2020
5810 Rain 10 1019 81 10000 2 80 08:19 29.03.2020
5811 Rain 10 1020 76 10000 4 100 07:42 29.03.2020
5812 Rain 11 1020 76 10000 3 80 07:21 29.03.2020
5813 Clouds 10 1022 61 10000 3 120 05:50 29.03.2020
5814 Clouds 11 1022 61 10000 4 60 04:29 29.03.2020
5815 Clouds 10 1023 66 10000 2 20 03:31 29.03.2020
5816 Clouds 10 1023 61 10000 2 30 01:51 29.03.2020
5817 Clouds 9 1023 65 10000 2 30 01:23 29.03.2020
5818 Clouds 9 1023 65 10000 2 40 00:58 29.03.2020
5819 Clouds 9 1023 61 10000 1 0 00:33 29.03.2020
5820 Clouds 9 1023 61 10000 1 0 23:57 28.03.2020
5821 Clouds 8 1023 61 10000 2 20 23:39 28.03.2020
5822 Clouds 8 1022 61 10000 5 30 23:19 28.03.2020
5823 Clouds 9 1021 61 10000 5 50 22:41 28.03.2020
5824 Clouds 8 1021 61 10000 5 50 22:22 28.03.2020
5825 Clouds 8 1023 70 10000 2 340 21:56 28.03.2020
5826 Clouds 8 1023 65 10000 3 350 21:37 28.03.2020
5827 Clouds 8 1023 65 10000 3 350 21:18 28.03.2020
5828 Clouds 8 1022 65 10000 3 30 20:42 28.03.2020
5829 Clouds 8 1022 65 10000 3 50 20:24 28.03.2020
5830 Clouds 8 1022 70 10000 2 20 19:58 28.03.2020
5831 Clouds 8 1023 65 10000 3 340 19:39 28.03.2020
5832 Clouds 8 1023 65 10000 3 340 19:21 28.03.2020
5833 Clouds 8 1023 65 10000 3 30 18:58 28.03.2020
5834 Clouds 8 1023 57 10000 5 40 18:39 28.03.2020
5835 Clouds 8 1024 65 10000 3 10 18:19 28.03.2020
5836 Clouds 8 1024 65 10000 3 30 17:39 28.03.2020
5837 Clouds 8 1024 70 10000 4 20 17:20 28.03.2020
5838 Clouds 8 1025 80 10000 3 10 16:43 28.03.2020
5839 Clouds 8 1025 80 10000 3 10 16:20 28.03.2020
5840 Clouds 8 1025 80 10000 3 10 16:20 28.03.2020
5841 Clouds 7 1025 75 10000 3 10 15:59 28.03.2020
5842 Clouds 7 1025 70 10000 3 350 15:39 28.03.2020
5843 Clouds 8 1025 70 10000 3 350 15:19 28.03.2020
5844 Clouds 8 1025 70 10000 3 330 14:54 28.03.2020
5845 Clouds 8 1025 70 10000 3 340 14:36 28.03.2020
5846 Clouds 8 1025 70 10000 3 340 14:18 28.03.2020
5847 Clouds 8 1024 70 10000 4 360 13:38 28.03.2020
5848 Clouds 8 1024 70 10000 4 360 13:20 28.03.2020
5849 Clouds 8 1023 75 10000 5 360 12:39 28.03.2020
5850 Clouds 8 1023 75 10000 5 360 12:21 28.03.2020
5851 Clouds 9 1023 75 10000 5 360 11:42 28.03.2020
5852 Clouds 9 1023 66 10000 6 10 11:21 28.03.2020
5853 Clouds 9 1023 66 10000 6 10 10:56 28.03.2020
5854 Clouds 9 1023 66 10000 7 10 10:38 28.03.2020
5855 Clouds 10 1023 66 10000 7 10 10:18 28.03.2020
5856 Clouds 10 1023 70 10000 6 10 09:41 28.03.2020
5857 Clouds 9 1024 70 10000 6 360 09:23 28.03.2020
5858 Clouds 9 1024 70 10000 6 10 08:45 28.03.2020
5859 Clouds 9 1024 70 10000 5 10 08:27 28.03.2020
5860 Clouds 9 1024 81 10000 4 10 07:59 28.03.2020
5861 Clouds 9 1024 81 10000 4 360 07:41 28.03.2020
5862 Rain 8 1024 87 10000 6 10 06:55 28.03.2020
5863 Rain 8 1024 87 10000 6 360 06:32 28.03.2020
5864 Rain 8 1025 87 10000 6 360 05:39 28.03.2020
5865 Rain 7 1025 87 10000 6 360 05:19 28.03.2020
5866 Rain 7 1025 93 10000 6 360 04:39 28.03.2020
5867 Rain 6 1026 87 10000 5 10 02:55 28.03.2020
5868 Rain 6 1026 87 10000 7 20 01:48 28.03.2020
5869 Rain 7 1025 87 10000 6 20 01:24 28.03.2020
5870 Rain 7 1025 93 10000 6 30 00:52 28.03.2020
5871 Rain 7 1024 93 10000 6 20 00:28 28.03.2020
5872 Rain 7 1023 87 10000 5 10 23:44 27.03.2020
5873 Rain 7 1023 87 10000 5 10 23:26 27.03.2020
5874 Rain 7 1022 87 10000 5 30 22:57 27.03.2020
5875 Rain 6 1022 87 10000 4 30 22:39 27.03.2020
5876 Rain 6 1022 87 10000 4 30 22:39 27.03.2020
5877 Rain 6 1022 87 10000 4 30 22:20 27.03.2020
5878 Rain 6 1022 87 10000 5 30 21:58 27.03.2020
5879 Rain 6 1022 93 10000 5 20 21:40 27.03.2020
5880 Rain 6 1022 93 10000 5 20 21:22 27.03.2020
5881 Rain 6 1022 93 10000 7 10 20:56 27.03.2020
5882 Rain 7 1023 93 10000 7 10 20:38 27.03.2020
5883 Rain 7 1023 93 10000 7 10 20:19 27.03.2020
5884 Rain 7 1024 87 10000 4 350 19:44 27.03.2020
5885 Rain 7 1024 87 10000 4 10 19:23 27.03.2020
5886 Rain 8 1023 81 10000 5 20 18:57 27.03.2020
5887 Rain 8 1023 81 10000 5 20 18:39 27.03.2020
5888 Rain 8 1023 81 10000 5 20 18:20 27.03.2020
5889 Rain 8 1023 75 10000 5 20 17:41 27.03.2020
5890 Rain 8 1024 81 10000 5 10 17:21 27.03.2020
5891 Rain 9 1024 81 10000 5 10 16:57 27.03.2020
5892 Rain 9 1023 75 10000 6 10 16:39 27.03.2020
5893 Rain 9 1023 75 10000 6 10 16:20 27.03.2020
5894 Rain 9 1024 70 10000 7 20 15:42 27.03.2020
5895 Rain 9 1024 70 10000 7 20 15:24 27.03.2020
5896 Rain 9 1024 70 10000 6 10 14:48 27.03.2020
5897 Rain 10 1024 57 10000 6 20 14:25 27.03.2020
5898 Clouds 10 1023 57 10000 6 30 13:58 27.03.2020
5899 Clouds 10 1022 57 10000 7 20 13:40 27.03.2020
5900 Clouds 10 1022 57 10000 7 20 13:21 27.03.2020
5901 Clouds 10 1022 57 10000 8 10 12:57 27.03.2020
5902 Clouds 10 1022 57 10000 8 10 12:39 27.03.2020
5903 Clouds 10 1022 61 10000 8 10 12:18 27.03.2020
5904 Clouds 10 1022 61 10000 8 10 11:41 27.03.2020
5905 Clouds 10 1022 53 10000 8 10 11:23 27.03.2020
5906 Clouds 10 1022 53 10000 8 10 11:23 27.03.2020
5907 Clouds 11 1022 53 10000 8 10 10:55 27.03.2020
5908 Clouds 11 1022 62 10000 8 10 10:37 27.03.2020
5909 Clouds 11 1022 62 10000 8 10 10:18 27.03.2020
5910 Clouds 12 1021 58 10000 7 20 09:56 27.03.2020
5911 Clouds 12 1021 50 10000 8 20 09:37 27.03.2020
5912 Clouds 12 1021 50 10000 8 20 09:18 27.03.2020
5913 Clouds 12 1021 54 10000 8 20 08:56 27.03.2020
5914 Clouds 12 1021 58 10000 8 20 08:37 27.03.2020
5915 Clouds 12 1021 58 10000 8 20 08:19 27.03.2020
5916 Clouds 13 1021 58 10000 8 10 07:50 27.03.2020
5917 Clouds 13 1021 62 10000 8 10 07:23 27.03.2020
5918 Clouds 13 1021 62 10000 9 350 06:51 27.03.2020
5919 Clouds 13 1021 62 10000 9 350 06:33 27.03.2020
5920 Clouds 11 1021 81 10000 9 10 04:24 27.03.2020
5921 Rain 12 1020 87 10000 7 10 02:32 27.03.2020
5922 Rain 12 1019 87 10000 8 10 01:23 27.03.2020
5923 Rain 12 1019 87 8000 6 10 00:48 27.03.2020
5924 Rain 11 1018 93 7000 6 10 00:23 27.03.2020
5925 Clouds 12 1017 87 10000 7 360 23:43 26.03.2020
5926 Clouds 12 1016 87 10000 9 360 23:21 26.03.2020
5927 Clouds 12 1016 87 10000 9 360 22:58 26.03.2020
5928 Clouds 12 1016 87 10000 9 360 22:37 26.03.2020
5929 Clouds 12 1016 87 10000 9 360 22:19 26.03.2020
5930 Clouds 12 1015 87 10000 9 360 21:55 26.03.2020
5931 Clouds 12 1015 93 10000 10 360 21:37 26.03.2020
5932 Clouds 12 1015 93 10000 10 360 21:18 26.03.2020
5933 Clouds 12 1014 93 10000 8 10 20:41 26.03.2020
5934 Clouds 13 1014 93 10000 8 10 20:23 26.03.2020
5935 Rain 13 1013 87 10000 10 10 19:58 26.03.2020
5936 Rain 14 1013 93 10000 9 20 19:40 26.03.2020
5937 Rain 14 1013 93 10000 9 20 19:22 26.03.2020
5938 Rain 14 1013 93 10000 9 20 19:22 26.03.2020
5939 Rain 15 1013 93 6000 9 360 18:59 26.03.2020
5940 Rain 16 1013 100 6000 5 30 18:41 26.03.2020
5941 Rain 16 1013 100 6000 5 30 18:23 26.03.2020
5942 Clouds 18 1012 94 6000 2 310 17:45 26.03.2020
5943 Clouds 19 1012 94 10000 2 320 17:20 26.03.2020
5944 Clouds 19 1012 94 10000 2 320 16:59 26.03.2020
5945 Rain 19 1012 100 10000 3 320 16:39 26.03.2020
5946 Rain 19 1012 100 10000 3 320 16:21 26.03.2020
5947 Rain 19 1012 100 10000 2 330 15:56 26.03.2020
5948 Rain 19 1013 100 8000 1 0 15:38 26.03.2020
5949 Rain 19 1013 100 8000 1 0 15:19 26.03.2020
5950 Rain 20 1012 88 10000 4 260 14:43 26.03.2020
5951 Rain 20 1012 88 10000 4 260 14:25 26.03.2020
5952 Rain 21 1011 88 10000 1 200 13:56 26.03.2020
5953 Rain 21 1011 88 10000 1 200 13:56 26.03.2020
5954 Rain 21 1010 88 10000 1 200 13:38 26.03.2020
5955 Rain 21 1010 88 10000 1 200 13:20 26.03.2020
5956 Rain 21 1010 83 10000 2.34 126 12:39 26.03.2020
5957 Rain 21 1010 78 10000 1 0 12:21 26.03.2020
5958 Rain 22 1010 78 10000 1 0 11:55 26.03.2020
5959 Rain 22 1009 73 10000 1 0 11:37 26.03.2020
5960 Rain 22 1009 73 10000 2.72 139 11:18 26.03.2020
5961 Rain 22 1009 73 10000 2 250 10:42 26.03.2020
5962 Rain 23 1009 73 10000 2 250 10:20 26.03.2020
5963 Rain 23 1009 73 10000 2 250 10:20 26.03.2020
5964 Rain 23 1009 78 10000 2 220 09:45 26.03.2020
5965 Rain 23 1009 78 10000 2 220 09:24 26.03.2020
5966 Rain 24 1008 73 10000 1 0 08:58 26.03.2020
5967 Rain 24 1008 78 10000 1 0 08:39 26.03.2020
5968 Rain 24 1008 78 10000 1 0 08:20 26.03.2020
5969 Rain 24 1009 78 8000 1 0 07:46 26.03.2020
5970 Rain 22 1010 83 8000 2 10 07:24 26.03.2020
5971 Clouds 21 1010 88 8000 3 350 06:59 26.03.2020
5972 Clouds 22 1010 88 8000 3 350 06:32 26.03.2020
5973 Rain 22 1011 88 5000 1 0 05:29 26.03.2020
5974 Rain 21 1011 83 8000 2 200 03:45 26.03.2020
5975 Rain 21 1011 88 8000 3 160 02:57 26.03.2020
5976 Rain 19 1011 93 5000 3 150 01:51 26.03.2020
5977 Mist 19 1011 93 5000 3 140 01:18 26.03.2020
5978 Rain 19 1011 93 5000 1 130 00:23 26.03.2020
5979 Rain 18 1010 100 6000 3 90 23:42 25.03.2020
5980 Clouds 18 1011 93 10000 2 20 23:22 25.03.2020
5981 Rain 18 1010 93 10000 2 30 22:42 25.03.2020
5982 Rain 18 1010 93 10000 2 30 22:22 25.03.2020
5983 Rain 18 1010 93 10000 3 150 21:57 25.03.2020
5984 Rain 18 1010 93 10000 3 160 21:38 25.03.2020
5985 Rain 18 1010 93 10000 3 160 21:20 25.03.2020
5986 Rain 18 1010 93 10000 3 160 20:56 25.03.2020
5987 Rain 18 1010 93 10000 4 160 20:37 25.03.2020
5988 Rain 18 1010 93 10000 4 160 20:18 25.03.2020
5989 Rain 18 1010 93 10000 4 160 20:18 25.03.2020
5990 Rain 18 1010 93 10000 4 160 19:43 25.03.2020
5991 Rain 18 1010 93 10000 4 160 19:23 25.03.2020
5992 Rain 18 1011 93 10000 4 170 18:59 25.03.2020
5993 Rain 18 1011 93 10000 4 170 18:40 25.03.2020
5994 Rain 18 1011 93 10000 5 160 18:22 25.03.2020
5995 Rain 18 1011 93 10000 5 160 17:56 25.03.2020
5996 Clouds 18 1012 93 10000 4 150 17:38 25.03.2020
5997 Clouds 18 1012 93 10000 4 150 17:38 25.03.2020
5998 Clouds 18 1012 93 10000 4 160 17:20 25.03.2020
5999 Clouds 17 1012 100 10000 6 160 16:44 25.03.2020
6000 Clouds 17 1012 100 10000 6 160 16:24 25.03.2020
6001 Clouds 18 1012 93 10000 5 150 15:59 25.03.2020
6002 Rain 18 1012 93 10000 4 140 15:41 25.03.2020
6003 Rain 18 1012 93 10000 4 140 15:41 25.03.2020
6004 Rain 18 1012 93 10000 4 140 15:20 25.03.2020
6005 Rain 18 1012 93 10000 5 140 14:45 25.03.2020
6006 Thunderstorm 17 1013 93 10000 5 170 14:22 25.03.2020
6007 Thunderstorm 18 1012 88 10000 5 180 13:59 25.03.2020
6008 Clouds 18 1011 77 10000 6 150 13:41 25.03.2020
6009 Clouds 19 1011 77 10000 6 150 13:22 25.03.2020
6010 Clouds 19 1011 77 10000 7 150 12:38 25.03.2020
6011 Clouds 19 1011 72 10000 7 150 12:19 25.03.2020
6012 Clouds 19 1011 72 10000 7 150 11:55 25.03.2020
6013 Clouds 20 1010 72 10000 7 160 11:36 25.03.2020
6014 Rain 20 1010 68 10000 8 160 11:18 25.03.2020
6015 Rain 21 1010 68 10000 8 160 10:56 25.03.2020
6016 Rain 21 1011 68 10000 7 160 10:37 25.03.2020
6017 Rain 21 1011 68 10000 7 160 10:18 25.03.2020
6018 Rain 22 1011 64 10000 9 160 09:42 25.03.2020
6019 Rain 22 1011 64 10000 9 160 09:23 25.03.2020
6020 Rain 22 1011 60 10000 8 160 08:56 25.03.2020
6021 Rain 23 1011 60 10000 9 170 08:38 25.03.2020
6022 Rain 23 1011 60 10000 9 170 08:38 25.03.2020
6023 Clouds 23 1011 60 10000 9 170 08:19 25.03.2020
6024 Clouds 23 1011 53 10000 8 170 07:40 25.03.2020
6025 Clouds 23 1011 53 10000 8 170 07:20 25.03.2020
6026 Clouds 23 1013 53 10000 7 180 06:47 25.03.2020
6027 Clouds 22 1013 53 10000 7 180 06:26 25.03.2020
6028 Clouds 22 1013 53 10000 7 160 05:53 25.03.2020
6029 Clouds 21 1014 56 10000 7 150 04:59 25.03.2020
6030 Clouds 20 1015 60 10000 7 170 04:39 25.03.2020
6031 Clouds 18 1016 59 10000 8 160 03:36 25.03.2020
6032 Clouds 16 1016 59 10000 7 140 01:58 25.03.2020
6033 Clouds 15 1016 62 10000 6 160 01:21 25.03.2020
6034 Clouds 15 1016 62 10000 5 140 00:48 25.03.2020
6035 Rain 14 1016 67 10000 5 150 00:19 25.03.2020
6036 Clouds 14 1016 62 10000 6 160 23:45 24.03.2020
6037 Clouds 14 1016 58 10000 6 150 23:25 24.03.2020
6038 Clouds 14 1016 58 10000 6 150 22:56 24.03.2020
6039 Clouds 14 1016 58 10000 7 160 22:37 24.03.2020
6040 Clouds 14 1016 58 10000 7 160 22:19 24.03.2020
6041 Clouds 14 1016 54 10000 6 160 21:55 24.03.2020
6042 Clouds 14 1016 54 10000 6 150 21:36 24.03.2020
6043 Clouds 14 1016 54 10000 6 150 21:18 24.03.2020
6044 Clouds 14 1016 54 10000 5 150 20:42 24.03.2020
6045 Clouds 14 1016 54 10000 5 150 20:23 24.03.2020
6046 Clouds 14 1016 54 10000 6 140 19:56 24.03.2020
6047 Clouds 14 1016 54 10000 6 140 19:56 24.03.2020
6048 Clouds 14 1016 54 10000 6 140 19:38 24.03.2020
6049 Clouds 14 1017 54 10000 5 140 19:18 24.03.2020
6050 Clouds 14 1017 54 10000 5 140 18:55 24.03.2020
6051 Clouds 14 1017 54 10000 5 140 18:36 24.03.2020
6052 Clouds 14 1017 51 10000 5 140 18:18 24.03.2020
6053 Clouds 14 1018 47 10000 5 140 17:41 24.03.2020
6054 Clouds 14 1018 47 10000 6 150 17:22 24.03.2020
6055 Clouds 14 1018 47 10000 6 150 17:22 24.03.2020
6056 Clouds 14 1018 47 10000 6 150 16:57 24.03.2020
6057 Clouds 14 1018 47 10000 6 140 16:39 24.03.2020
6058 Clouds 14 1018 47 10000 6 140 16:20 24.03.2020
6059 Clouds 14 1018 47 10000 6 140 16:20 24.03.2020
6060 Clouds 14 1018 47 10000 7 140 15:55 24.03.2020
6061 Clouds 14 1018 51 10000 7 140 15:37 24.03.2020
6062 Clouds 14 1018 51 10000 7 140 15:19 24.03.2020
6063 Clouds 14 1018 51 10000 6 130 14:42 24.03.2020
6064 Clouds 15 1018 51 10000 6 130 14:18 24.03.2020
6065 Clouds 15 1018 41 10000 6 140 13:42 24.03.2020
6066 Clouds 15 1018 41 10000 6 140 13:23 24.03.2020
6067 Clouds 15 1018 41 10000 6 140 13:23 24.03.2020
6068 Clouds 15 1018 41 10000 6 140 13:23 24.03.2020
6069 Clouds 15 1018 36 10000 5 130 12:47 24.03.2020
6070 Clouds 15 1018 36 10000 5 130 12:28 24.03.2020
6071 Clouds 16 1018 36 10000 5 120 11:59 24.03.2020
6072 Clouds 16 1017 36 10000 6 130 11:39 24.03.2020
6073 Clouds 17 1017 31 10000 7 140 11:19 24.03.2020
6074 Clouds 18 1018 34 10000 7 130 10:42 24.03.2020
6075 Clouds 18 1018 34 10000 7 130 10:19 24.03.2020
6076 Clouds 18 1018 34 10000 6 130 09:57 24.03.2020
6077 Clouds 18 1018 24 10000 6 130 09:39 24.03.2020
6078 Clouds 20 1018 24 10000 6 130 09:20 24.03.2020
6079 Clouds 19 1018 24 10000 6 130 08:38 24.03.2020
6080 Clouds 19 1018 24 10000 6 130 08:20 24.03.2020
6081 Clouds 19 1018 28 10000 7 130 07:47 24.03.2020
6082 Clouds 19 1018 28 10000 6 130 07:24 24.03.2020
6083 Clouds 19 1019 28 10000 6 130 06:52 24.03.2020
6084 Clouds 19 1019 28 10000 7 160 06:25 24.03.2020
6085 Clouds 19 1020 28 10000 6 100 04:57 24.03.2020
6086 Clouds 18 1021 34 10000 5 120 03:48 24.03.2020
6087 Clouds 17 1021 39 10000 5 110 02:49 24.03.2020
6088 Clear 15 1021 51 10000 5 130 01:42 24.03.2020
6089 Clear 13 1021 66 10000 4 110 00:44 24.03.2020
6090 Clear 12 1020 71 10000 3 120 00:23 24.03.2020
6091 Clear 11 1020 76 10000 3 110 23:44 23.03.2020
6092 Clear 12 1020 76 10000 3 110 23:26 23.03.2020
6093 Clear 12 1020 76 10000 3 110 23:26 23.03.2020
6094 Clear 11 1020 76 10000 3 120 22:55 23.03.2020
6095 Clear 11 1020 76 10000 3 110 22:36 23.03.2020
6096 Clear 12 1020 76 10000 3 110 22:18 23.03.2020
6097 Clear 12 1020 76 10000 3 100 21:42 23.03.2020
6098 Clear 12 1020 76 10000 3 100 21:20 23.03.2020
6099 Clear 12 1020 71 10000 3 110 20:57 23.03.2020
6100 Clear 12 1020 71 10000 3 110 20:57 23.03.2020
6101 Clear 12 1020 76 10000 2 120 20:38 23.03.2020
6102 Clouds 12 1020 76 10000 2 120 20:19 23.03.2020
6103 Clouds 11 1020 71 10000 2 100 19:45 23.03.2020
6104 Clouds 12 1020 71 10000 2 100 19:27 23.03.2020
6105 Clouds 12 1020 71 10000 2 100 18:57 23.03.2020
6106 Clouds 12 1021 66 10000 1 100 18:39 23.03.2020
6107 Clouds 12 1021 66 10000 1 100 18:20 23.03.2020
6108 Clouds 12 1021 71 10000 2 130 17:42 23.03.2020
6109 Clouds 13 1021 58 10000 2 100 17:21 23.03.2020
6110 Clouds 13 1021 58 10000 2 100 16:57 23.03.2020
6111 Clouds 13 1021 58 10000 1 90 16:39 23.03.2020
6112 Clouds 13 1021 58 10000 1 90 16:20 23.03.2020
6113 Clouds 13 1021 58 10000 2 120 15:42 23.03.2020
6114 Clouds 13 1021 58 10000 2 120 15:20 23.03.2020
6115 Clouds 13 1021 47 10000 3 110 14:38 23.03.2020
6116 Clouds 13 1021 47 10000 3 110 14:20 23.03.2020
6117 Clouds 14 1021 44 10000 3 120 13:59 23.03.2020
6118 Clouds 14 1021 47 10000 3 140 13:40 23.03.2020
6119 Clouds 14 1021 47 10000 3 140 13:20 23.03.2020
6120 Clouds 14 1020 38 10000 2 110 12:44 23.03.2020
6121 Clouds 15 1020 33 10000 3 100 12:25 23.03.2020
6122 Clouds 15 1020 33 10000 3 100 11:59 23.03.2020
6123 Clouds 15 1020 33 10000 3 100 11:59 23.03.2020
6124 Clouds 15 1020 31 10000 4 120 11:39 23.03.2020
6125 Clouds 15 1020 34 10000 4 110 11:19 23.03.2020
6126 Clouds 16 1020 34 10000 4 110 10:57 23.03.2020
6127 Clouds 16 1020 31 10000 4 100 10:37 23.03.2020
6128 Clouds 16 1020 31 10000 4 100 10:19 23.03.2020
6129 Clouds 17 1020 27 10000 5 120 09:44 23.03.2020
6130 Clouds 17 1020 27 10000 5 120 09:21 23.03.2020
6131 Clouds 18 1020 25 10000 4 90 08:56 23.03.2020
6132 Clouds 16 1020 22 10000 4 100 08:36 23.03.2020
6133 Clouds 16 1020 22 10000 4 100 08:18 23.03.2020
6134 Clouds 18 1020 22 10000 4 110 07:42 23.03.2020
6135 Clouds 17 1020 22 10000 4 110 07:21 23.03.2020
6136 Clouds 17 1021 22 10000 3 110 06:49 23.03.2020
6137 Clouds 17 1021 20 10000 6 90 05:51 23.03.2020
6138 Clouds 17 1022 27 10000 5 80 04:57 23.03.2020
6139 Clouds 17 1022 39 10000 4 70 03:24 23.03.2020
6140 Clouds 14 1022 54 10000 2 70 01:50 23.03.2020
6141 Clouds 12 1021 76 10000 1 10 00:52 23.03.2020
6142 Clouds 12 1021 76 10000 1 10 00:33 23.03.2020
6143 Clouds 11 1020 76 10000 2 340 23:46 22.03.2020
6144 Clouds 12 1020 76 10000 2 340 23:25 22.03.2020
6145 Clouds 11 1019 81 10000 2 360 22:45 22.03.2020
6146 Clouds 11 1019 81 10000 2 360 22:23 22.03.2020
6147 Clouds 11 1019 81 10000 3 360 21:55 22.03.2020
6148 Clouds 11 1019 76 10000 2 10 21:37 22.03.2020
6149 Clouds 11 1019 76 10000 2 10 21:18 22.03.2020
6150 Clouds 11 1019 76 10000 3 20 20:46 22.03.2020
6151 Clouds 11 1019 71 10000 2 10 20:25 22.03.2020
6152 Clouds 11 1019 66 10000 4 30 19:58 22.03.2020
6153 Clouds 12 1019 66 10000 5 30 19:39 22.03.2020
6154 Clouds 12 1019 66 10000 5 30 19:20 22.03.2020
6155 Clouds 12 1019 58 10000 3 30 18:58 22.03.2020
6156 Clouds 12 1020 62 10000 3 30 18:40 22.03.2020
6157 Clouds 12 1020 62 10000 3 30 18:21 22.03.2020
6158 Clouds 12 1020 58 10000 4 20 17:57 22.03.2020
6159 Clouds 12 1020 58 10000 4 30 17:38 22.03.2020
6160 Clouds 12 1020 58 10000 4 30 17:20 22.03.2020
6161 Clouds 12 1020 54 10000 4 30 16:57 22.03.2020
6162 Clouds 13 1020 47 10000 4 30 16:39 22.03.2020
6163 Clouds 12 1020 47 10000 4 30 16:20 22.03.2020
6164 Clouds 13 1020 43 10000 4 50 15:40 22.03.2020
6165 Clouds 13 1020 43 10000 4 50 15:20 22.03.2020
6166 Clouds 13 1020 47 10000 4 40 14:46 22.03.2020
6167 Clouds 13 1020 47 10000 4 40 14:46 22.03.2020
6168 Clouds 13 1019 47 10000 6 40 14:19 22.03.2020
6169 Clouds 13 1019 47 10000 6 40 14:19 22.03.2020
6170 Clouds 13 1018 50 10000 5 20 13:44 22.03.2020
6171 Clouds 13 1018 50 10000 5 20 13:20 22.03.2020
6172 Clouds 14 1017 54 10000 5 30 12:58 22.03.2020
6173 Clouds 14 1017 47 10000 5 30 12:39 22.03.2020
6174 Clouds 14 1017 44 10000 6 30 12:19 22.03.2020
6175 Clouds 15 1017 41 10000 6 40 11:43 22.03.2020
6176 Clouds 15 1017 41 10000 6 40 11:25 22.03.2020
6177 Clouds 15 1016 41 10000 5 40 10:58 22.03.2020
6178 Clouds 16 1016 39 10000 6 40 10:40 22.03.2020
6179 Clouds 16 1016 39 10000 6 40 10:21 22.03.2020
6180 Clouds 17 1016 42 10000 7 50 09:45 22.03.2020
6181 Clouds 17 1015 45 10000 6 60 09:27 22.03.2020
6182 Clouds 18 1015 52 10000 8 40 08:48 22.03.2020
6183 Clouds 18 1015 55 10000 6 20 08:30 22.03.2020
6184 Clouds 18 1015 63 10000 6 40 07:54 22.03.2020
6185 Clouds 18 1015 72 8000 5 10 07:36 22.03.2020
6186 Clouds 18 1016 77 6000 5 10 06:41 22.03.2020
6187 Clouds 16 1016 82 7000 6 10 05:41 22.03.2020
6188 Clouds 16 1015 77 10000 5 30 04:39 22.03.2020
6189 Mist 19 1013 88 3000 4 360 01:45 22.03.2020
6190 Mist 18 1013 100 2500 3 20 00:49 22.03.2020
6191 Mist 18 1012 93 2500 3 20 00:30 22.03.2020
6192 Mist 18 1012 93 3000 4 300 23:45 21.03.2020
6193 Mist 18 1012 93 3000 4 300 23:21 21.03.2020
6194 Mist 18 1011 93 5000 2 240 22:58 21.03.2020
6195 Clouds 18 1010 93 6000 2 250 22:37 21.03.2020
6196 Clouds 18 1010 93 6000 2 250 22:19 21.03.2020
6197 Clouds 18 1010 93 6000 2 250 21:57 21.03.2020
6198 Rain 18 1010 93 6000 3 250 21:38 21.03.2020
6199 Rain 18 1010 93 6000 3 250 21:18 21.03.2020
6200 Rain 18 1010 93 6000 3 210 20:42 21.03.2020
6201 Rain 18 1010 93 6000 3 210 20:21 21.03.2020
6202 Rain 18 1010 93 7000 3 280 19:54 21.03.2020
6203 Rain 18 1009 93 6000 3 190 19:36 21.03.2020
6204 Rain 18 1009 93 6000 3 190 19:18 21.03.2020
6205 Thunderstorm 18 1011 93 5000 3 210 18:40 21.03.2020
6206 Thunderstorm 18 1011 93 5000 3 210 18:20 21.03.2020
6207 Thunderstorm 18 1010 100 6000 3 220 17:57 21.03.2020
6208 Thunderstorm 18 1010 100 6000 3 220 17:39 21.03.2020
6209 Rain 18 1010 93 7000 1 0 17:21 21.03.2020
6210 Rain 17 1010 100 7000 2 170 16:42 21.03.2020
6211 Rain 17 1010 100 7000 2 170 16:22 21.03.2020
6212 Rain 18 1010 93 10000 3 170 15:58 21.03.2020
6213 Rain 18 1010 93 10000 2 160 15:39 21.03.2020
6214 Rain 18 1010 93 10000 2 160 15:21 21.03.2020
6215 Rain 19 1010 88 10000 2 190 14:55 21.03.2020
6216 Rain 19 1011 88 10000 1 0 14:37 21.03.2020
6217 Rain 20 1011 88 10000 1 0 14:18 21.03.2020
6218 Rain 19 1010 88 10000 2 170 13:57 21.03.2020
6219 Rain 19 1010 82 10000 4 190 13:38 21.03.2020
6220 Rain 19 1010 82 10000 4 190 13:19 21.03.2020
6221 Rain 19 1008 72 10000 3 150 12:41 21.03.2020
6222 Rain 21 1009 68 10000 4 160 12:20 21.03.2020
6223 Rain 21 1009 68 10000 4 160 11:59 21.03.2020
6224 Rain 22 1009 56 10000 5 180 11:39 21.03.2020
6225 Clouds 23 1008 46 10000 3 150 11:20 21.03.2020
6226 Clouds 23 1008 46 10000 3 150 10:58 21.03.2020
6227 Clouds 22 1008 41 10000 3 140 10:39 21.03.2020
6228 Clouds 23 1008 41 10000 3 140 10:21 21.03.2020
6229 Clouds 24 1008 36 10000 5 140 09:58 21.03.2020
6230 Clouds 24 1008 38 10000 4 150 09:39 21.03.2020
6231 Clouds 25 1008 38 10000 4 150 09:20 21.03.2020
6232 Clouds 25 1008 34 10000 5 130 08:55 21.03.2020
6233 Clouds 26 1008 34 10000 5 160 08:37 21.03.2020
6234 Clouds 26 1008 34 10000 5 160 08:18 21.03.2020
6235 Clouds 26 1009 36 10000 4 160 07:33 21.03.2020
6236 Clouds 26 1010 39 10000 4 170 06:56 21.03.2020
6237 Clouds 26 1011 44 10000 5 180 06:36 21.03.2020
6238 Clouds 26 1011 42 10000 5 180 06:18 21.03.2020
6239 Clouds 26 1012 44 10000 5 190 05:23 21.03.2020
6240 Clear 22 1013 49 10000 3 180 03:38 21.03.2020
6241 Clear 20 1014 56 10000 5 180 02:36 21.03.2020
6242 Clear 18 1014 59 10000 4 190 01:42 21.03.2020
6243 Clear 17 1014 63 10000 4 180 01:21 21.03.2020
6244 Clear 14 1013 76 10000 2 170 00:38 21.03.2020
6245 Clear 13 1013 81 10000 1 180 23:59 20.03.2020
6246 Clear 13 1013 71 10000 2 160 23:41 20.03.2020
6247 Clear 13 1013 76 10000 2 150 23:20 20.03.2020
6248 Clear 13 1013 81 10000 3 160 22:43 20.03.2020
6249 Clear 13 1013 81 10000 3 160 22:24 20.03.2020
6250 Clear 14 1013 76 10000 2 160 21:58 20.03.2020
6251 Clear 14 1013 76 10000 3 150 21:39 20.03.2020
6252 Clear 13 1013 76 10000 3 150 21:19 20.03.2020
6253 Clear 14 1012 76 10000 2 150 20:57 20.03.2020
6254 Clear 14 1012 76 10000 2 170 20:39 20.03.2020
6255 Clear 14 1012 76 10000 2 170 20:39 20.03.2020
6256 Clear 14 1012 76 10000 2 170 20:18 20.03.2020
6257 Clear 14 1012 71 10000 3 160 19:46 20.03.2020
6258 Clear 14 1012 71 10000 3 160 19:19 20.03.2020
6259 Clear 14 1012 71 10000 3 150 18:56 20.03.2020
6260 Clear 14 1013 71 10000 3 150 18:37 20.03.2020
6261 Clear 14 1013 67 10000 3 150 18:19 20.03.2020
6262 Clear 14 1013 67 10000 3 150 17:40 20.03.2020
6263 Clear 15 1013 62 10000 2 150 17:21 20.03.2020
6264 Clear 15 1013 62 10000 2 150 17:21 20.03.2020
6265 Clear 15 1013 62 10000 2 150 16:59 20.03.2020
6266 Clear 15 1013 62 10000 3 160 16:41 20.03.2020
6267 Clear 15 1013 62 10000 3 160 16:19 20.03.2020
6268 Clear 14 1014 62 10000 3 150 15:43 20.03.2020
6269 Clear 15 1014 62 10000 3 150 15:22 20.03.2020
6270 Clear 15 1014 62 10000 4 150 14:56 20.03.2020
6271 Clear 15 1013 58 10000 4 150 14:38 20.03.2020
6272 Clear 15 1013 58 10000 4 150 14:19 20.03.2020
6273 Clear 15 1013 58 10000 4 150 13:45 20.03.2020
6274 Clear 14 1013 51 10000 4 150 13:19 20.03.2020
6275 Clear 14 1013 48 10000 5 160 12:41 20.03.2020
6276 Clear 16 1013 48 10000 5 160 12:23 20.03.2020
6277 Clear 16 1013 48 10000 5 160 11:59 20.03.2020
6278 Clear 17 1013 45 10000 6 150 11:38 20.03.2020
6279 Clear 18 1013 42 10000 6 150 11:19 20.03.2020
6280 Clear 18 1012 37 10000 6 150 10:42 20.03.2020
6281 Clear 18 1012 37 10000 6 150 10:21 20.03.2020
6282 Clear 19 1012 37 10000 5 140 09:59 20.03.2020
6283 Clear 19 1012 37 10000 5 140 09:59 20.03.2020
6284 Clear 20 1013 32 10000 6 160 09:41 20.03.2020
6285 Clear 20 1013 32 10000 6 160 09:19 20.03.2020
6286 Clear 20 1013 30 10000 6 170 08:43 20.03.2020
6287 Clear 20 1013 34 10000 6 160 08:22 20.03.2020
6288 Clear 20 1013 34 10000 6 160 08:22 20.03.2020
6289 Clear 20 1014 34 10000 6 170 07:55 20.03.2020
6290 Clear 19 1014 34 10000 7 170 07:37 20.03.2020
6291 Clear 19 1015 32 10000 7 160 07:18 20.03.2020
6292 Clear 19 1015 32 10000 7 180 06:41 20.03.2020
6293 Clear 18 1017 25 10000 8 150 04:52 20.03.2020
6294 Clear 16 1018 36 10000 6 170 03:40 20.03.2020
6295 Clear 14 1019 47 10000 6 160 02:20 20.03.2020
6296 Clear 11 1019 58 10000 5 160 00:59 20.03.2020
6297 Clear 10 1019 62 10000 3 150 00:31 20.03.2020
6298 Clear 8 1019 70 10000 3 160 23:49 19.03.2020
6299 Clear 9 1019 70 10000 3 160 23:28 19.03.2020
6300 Clear 9 1019 66 10000 3 150 22:57 19.03.2020
6301 Clear 10 1019 61 10000 2 160 22:38 19.03.2020
6302 Clear 10 1019 61 10000 2 160 22:19 19.03.2020
6303 Clear 10 1018 57 10000 3 150 21:42 19.03.2020
6304 Clear 10 1018 57 10000 3 150 21:20 19.03.2020
6305 Clear 10 1018 57 10000 3 150 20:59 19.03.2020
6306 Clear 10 1019 54 10000 2 160 20:41 19.03.2020
6307 Clear 10 1019 54 10000 2 160 20:22 19.03.2020
6308 Clear 10 1019 43 10000 2 140 19:55 19.03.2020
6309 Clear 10 1019 46 10000 2 150 19:37 19.03.2020
6310 Clear 10 1020 46 10000 3 160 19:19 19.03.2020
6311 Clear 10 1020 46 10000 3 160 18:54 19.03.2020
6312 Clear 10 1020 46 10000 3 160 18:36 19.03.2020
6313 Clear 11 1020 43 10000 3 160 18:18 19.03.2020
6314 Clear 11 1020 39 10000 3 150 17:41 19.03.2020
6315 Clear 11 1020 29 10000 2 120 17:19 19.03.2020
6316 Clear 12 1020 25 10000 3 130 16:44 19.03.2020
6317 Clear 12 1020 25 10000 3 130 16:24 19.03.2020
6318 Clear 12 1020 23 10000 3 120 15:46 19.03.2020
6319 Clear 12 1020 20 10000 3 90 15:28 19.03.2020
6320 Clear 12 1019 19 10000 3 80 14:58 19.03.2020
6321 Clear 13 1019 19 10000 3 70 14:40 19.03.2020
6322 Clouds 13 1019 19 10000 3 70 14:19 19.03.2020
6323 Clouds 13 1019 17 10000 4 80 13:40 19.03.2020
6324 Clouds 13 1019 17 10000 4 80 13:40 19.03.2020
6325 Clouds 13 1019 20 10000 5 60 13:19 19.03.2020
6326 Clouds 13 1019 20 10000 5 60 12:56 19.03.2020
6327 Clouds 13 1018 22 10000 5 70 12:37 19.03.2020
6328 Clouds 13 1018 22 10000 5 70 12:19 19.03.2020
6329 Clouds 14 1018 28 10000 4 60 11:42 19.03.2020
6330 Clouds 15 1017 25 10000 5 50 11:23 19.03.2020
6331 Clouds 15 1017 25 10000 5 50 10:56 19.03.2020
6332 Clouds 16 1017 21 10000 6 20 10:36 19.03.2020
6333 Clouds 16 1017 21 10000 6 20 10:18 19.03.2020
6334 Clouds 16 1017 23 10000 6 20 09:44 19.03.2020
6335 Clouds 17 1016 23 10000 6 20 09:26 19.03.2020
6336 Clouds 18 1016 25 10000 6 30 08:57 19.03.2020
6337 Clouds 18 1016 25 10000 7 30 08:37 19.03.2020
6338 Clouds 18 1016 25 10000 7 30 08:18 19.03.2020
6339 Clouds 18 1016 29 10000 8 360 07:42 19.03.2020
6340 Clouds 18 1016 29 10000 8 360 07:22 19.03.2020
6341 Clouds 18 1015 34 10000 8 350 06:27 19.03.2020
6342 Clouds 18 1016 34 10000 8 10 05:25 19.03.2020
6343 Clear 17 1016 34 10000 8 10 04:51 19.03.2020
6344 Clear 17 1015 34 10000 8 10 04:21 19.03.2020
6345 Clear 19 1013 55 8000 4 300 01:58 19.03.2020
6346 Clear 15 1012 82 7000 1 0 00:53 19.03.2020
6347 Clear 13 1011 87 8000 2 190 00:19 19.03.2020
6348 Clear 13 1011 87 8000 1 0 23:43 18.03.2020
6349 Clear 14 1011 87 10000 1 190 23:23 18.03.2020
6350 Clear 14 1011 82 10000 1 220 22:43 18.03.2020
6351 Clear 14 1011 82 10000 1 220 22:23 18.03.2020
6352 Clear 14 1011 82 10000 1 240 21:57 18.03.2020
6353 Clear 14 1011 82 10000 2 240 21:39 18.03.2020
6354 Clear 14 1011 82 10000 2 240 21:20 18.03.2020
6355 Clear 14 1011 82 10000 3 190 20:55 18.03.2020
6356 Clear 15 1011 76 10000 2 180 20:37 18.03.2020
6357 Clear 15 1011 76 10000 2 180 20:19 18.03.2020
6358 Clear 15 1011 76 10000 2 160 19:41 18.03.2020
6359 Clear 15 1012 76 10000 2 150 19:21 18.03.2020
6360 Clear 15 1012 76 10000 2 150 19:21 18.03.2020
6361 Clear 15 1012 76 10000 2 150 18:57 18.03.2020
6362 Clear 15 1012 76 10000 2 150 18:38 18.03.2020
6363 Clear 15 1012 76 10000 2 150 18:19 18.03.2020
6364 Clear 15 1012 72 10000 2 150 17:55 18.03.2020
6365 Clear 15 1012 72 10000 2 150 17:37 18.03.2020
6366 Clear 16 1012 72 10000 2 150 17:18 18.03.2020
6367 Clear 16 1012 72 10000 3 150 16:42 18.03.2020
6368 Clear 16 1012 72 10000 3 150 16:20 18.03.2020
6369 Clear 16 1012 72 10000 3 150 16:20 18.03.2020
6370 Clear 16 1012 72 10000 3 150 16:20 18.03.2020
6371 Clear 16 1012 67 10000 4 150 15:57 18.03.2020
6372 Clear 17 1012 67 10000 5 150 15:38 18.03.2020
6373 Clear 16 1012 67 10000 5 150 15:19 18.03.2020
6374 Clear 17 1012 59 10000 4 150 14:42 18.03.2020
6375 Clear 17 1012 59 10000 4 150 14:21 18.03.2020
6376 Clear 17 1012 59 10000 4 150 14:21 18.03.2020
6377 Clear 18 1012 59 10000 4 150 13:41 18.03.2020
6378 Clear 18 1012 59 10000 5 150 13:19 18.03.2020
6379 Clear 18 1012 59 10000 5 150 12:54 18.03.2020
6380 Clear 18 1012 59 10000 5 150 12:36 18.03.2020
6381 Clear 19 1012 52 10000 7 150 12:18 18.03.2020
6382 Clear 20 1011 45 10000 5 180 11:37 18.03.2020
6383 Clear 22 1011 33 10000 3 230 11:19 18.03.2020
6384 Clear 22 1011 33 10000 3 230 10:56 18.03.2020
6385 Clear 22 1011 33 10000 3 230 10:56 18.03.2020
6386 Clear 23 1011 33 10000 4 210 10:36 18.03.2020
6387 Clear 23 1011 33 10000 4 210 10:18 18.03.2020
6388 Clear 24 1011 31 10000 4 200 09:42 18.03.2020
6389 Clear 24 1011 31 10000 4 200 09:23 18.03.2020
6390 Clear 24 1011 31 10000 4 260 08:54 18.03.2020
6391 Clear 24 1011 33 10000 2 240 08:36 18.03.2020
6392 Clear 24 1011 33 10000 2 240 08:18 18.03.2020
6393 Clear 24 1012 33 10000 4 230 07:39 18.03.2020
6394 Clear 25 1013 31 10000 5 240 07:21 18.03.2020
6395 Clear 25 1013 31 10000 5 240 06:42 18.03.2020
6396 Clear 24 1014 29 10000 5 220 05:47 18.03.2020
6397 Clear 23 1015 35 10000 4 230 05:18 18.03.2020
6398 Clear 21 1016 52 8000 3 250 03:21 18.03.2020
6399 Clear 20 1017 55 8000 3 260 02:37 18.03.2020
6400 Clear 20 1017 55 8000 3 260 02:37 18.03.2020
6401 Clear 20 1017 55 8000 3 260 02:37 18.03.2020
6402 Clear 20 1017 55 8000 3 260 02:37 18.03.2020
6403 Clear 18 1017 63 8000 3 240 01:45 18.03.2020
6404 Clear 16 1016 72 7000 2 220 01:20 18.03.2020
6405 Clear 13 1016 76 7000 1 170 00:22 18.03.2020
6406 Clear 12 1016 87 7000 1 180 23:43 17.03.2020
6407 Clear 12 1016 81 10000 1 160 23:22 17.03.2020
6408 Clear 12 1015 87 10000 1 180 22:47 17.03.2020
6409 Clear 12 1015 87 10000 1 180 22:28 17.03.2020
6410 Clear 14 1015 87 10000 1 170 21:57 17.03.2020
6411 Clear 13 1015 87 10000 1.86 238 21:36 17.03.2020
6412 Clear 14 1015 87 10000 1.86 238 21:18 17.03.2020
6413 Clouds 14 1015 76 10000 2.34 239 20:38 17.03.2020
6414 Clouds 15 1015 76 10000 2.21 238 20:19 17.03.2020
6415 Clouds 15 1016 71 10000 1 170 19:42 17.03.2020
6416 Clouds 15 1016 71 10000 1 170 19:21 17.03.2020
6417 Clouds 15 1016 71 10000 1 170 18:58 17.03.2020
6418 Clouds 15 1017 71 10000 1 180 18:40 17.03.2020
6419 Clouds 15 1017 71 10000 1 190 18:21 17.03.2020
6420 Clouds 15 1017 71 10000 1 190 17:56 17.03.2020
6421 Clouds 16 1017 62 10000 1 150 17:38 17.03.2020
6422 Clouds 15 1017 62 10000 1 180 17:18 17.03.2020
6423 Clouds 16 1017 62 10000 1 180 16:42 17.03.2020
6424 Clouds 16 1017 62 10000 1 180 16:19 17.03.2020
6425 Clouds 16 1017 62 10000 1 180 16:19 17.03.2020
6426 Clouds 15 1017 62 10000 2 170 15:47 17.03.2020
6427 Clouds 16 1017 67 10000 2 180 15:23 17.03.2020
6428 Clouds 15 1017 59 10000 2 170 14:47 17.03.2020
6429 Clouds 16 1017 63 10000 3 170 14:27 17.03.2020
6430 Clouds 17 1017 51 10000 3 170 13:58 17.03.2020
6431 Clouds 16 1017 45 10000 3 150 13:40 17.03.2020
6432 Clouds 18 1017 45 10000 3 150 13:21 17.03.2020
6433 Clouds 19 1016 32 10000 2 240 12:44 17.03.2020
6434 Clouds 19 1016 32 10000 2 250 12:24 17.03.2020
6435 Clouds 18 1016 32 10000 2 250 11:56 17.03.2020
6436 Clouds 19 1016 32 10000 2 250 11:37 17.03.2020
6437 Clouds 21 1016 28 10000 3 250 11:19 17.03.2020
6438 Clouds 21 1016 28 10000 3 250 10:54 17.03.2020
6439 Clouds 21 1016 28 10000 3 240 10:36 17.03.2020
6440 Clouds 21 1016 28 10000 3 240 10:18 17.03.2020
6441 Clouds 23 1016 25 10000 3 260 09:44 17.03.2020
6442 Clouds 23 1016 25 10000 3 260 09:20 17.03.2020
6443 Clouds 23 1016 25 10000 3 260 09:20 17.03.2020
6444 Clouds 23 1016 25 10000 3 290 08:50 17.03.2020
6445 Clouds 23 1016 28 10000 3 270 08:23 17.03.2020
6446 Clouds 23 1016 28 10000 2 0 07:57 17.03.2020
6447 Clouds 23 1016 25 10000 3 310 07:38 17.03.2020
6448 Clouds 23 1017 27 10000 3 230 07:19 17.03.2020
6449 Clouds 23 1017 27 10000 3 230 06:39 17.03.2020
6450 Clouds 22 1017 28 10000 4 250 05:58 17.03.2020
6451 Clouds 19 1019 45 10000 3 230 03:58 17.03.2020
6452 Clouds 17 1020 51 10000 3 220 02:56 17.03.2020
6453 Clouds 14 1020 58 10000 2 210 01:49 17.03.2020
6454 Clouds 13 1020 66 10000 3 180 01:25 17.03.2020
6455 Clouds 12 1020 66 10000 2 170 00:47 17.03.2020
6456 Clouds 11 1019 66 10000 3 170 23:50 16.03.2020
6457 Clouds 11 1019 66 10000 3 170 23:32 16.03.2020
6458 Clouds 11 1019 66 10000 3 170 22:42 16.03.2020
6459 Clouds 11 1019 66 10000 3 170 22:24 16.03.2020
6460 Clouds 11 1019 66 10000 3 170 21:58 16.03.2020
6461 Clouds 11 1019 62 10000 3 160 21:40 16.03.2020
6462 Clouds 11 1019 62 10000 3 160 21:21 16.03.2020
6463 Clouds 11 1020 62 10000 4 160 20:56 16.03.2020
6464 Clouds 11 1020 62 10000 4 150 20:37 16.03.2020
6465 Clouds 11 1020 62 10000 4 150 20:18 16.03.2020
6466 Clouds 11 1021 62 10000 4 140 19:40 16.03.2020
6467 Clouds 11 1020 62 10000 7 160 19:20 16.03.2020
6468 Clouds 11 1021 62 10000 6 160 18:43 16.03.2020
6469 Clouds 11 1022 58 10000 4 150 18:21 16.03.2020
6470 Clouds 11 1022 58 10000 4 150 17:55 16.03.2020
6471 Clouds 11 1022 58 10000 4 140 17:37 16.03.2020
6472 Clouds 11 1023 54 10000 3 130 17:18 16.03.2020
6473 Clouds 11 1023 54 10000 2 140 16:42 16.03.2020
6474 Clouds 11 1023 54 10000 2 140 16:24 16.03.2020
6475 Clouds 11 1023 50 10000 5 150 15:44 16.03.2020
6476 Clouds 11 1023 50 10000 5 150 15:25 16.03.2020
6477 Clouds 11 1023 50 10000 5 140 14:49 16.03.2020
6478 Clouds 11 1023 58 10000 4 130 14:27 16.03.2020
6479 Clouds 12 1023 35 10000 4 120 13:55 16.03.2020
6480 Clouds 12 1023 35 10000 4 140 13:37 16.03.2020
6481 Clouds 12 1023 35 10000 4 140 13:18 16.03.2020
6482 Clouds 11 1023 37 10000 4 130 12:42 16.03.2020
6483 Clouds 12 1023 28 10000 4 140 12:23 16.03.2020
6484 Clouds 12 1022 33 10000 4 140 11:45 16.03.2020
6485 Clouds 14 1023 35 10000 5 160 11:26 16.03.2020
6486 Clouds 13 1022 39 10000 6 150 10:47 16.03.2020
6487 Clouds 14 1022 39 10000 6 150 10:25 16.03.2020
6488 Clouds 14 1022 41 10000 6 170 09:59 16.03.2020
6489 Clouds 15 1022 39 10000 6 170 09:40 16.03.2020
6490 Clouds 15 1022 39 10000 6 170 09:20 16.03.2020
6491 Clouds 15 1022 39 10000 5 170 08:43 16.03.2020
6492 Clouds 16 1022 33 10000 5 130 08:23 16.03.2020
6493 Clouds 16 1022 27 10000 4 130 07:44 16.03.2020
6494 Clouds 16 1022 27 10000 4 130 07:21 16.03.2020
6495 Clouds 16 1024 29 10000 4 130 06:46 16.03.2020
6496 Clouds 16 1024 29 10000 4 140 06:22 16.03.2020
6497 Clear 15 1026 33 10000 3 120 04:26 16.03.2020
6498 Clouds 12 1026 49 10000 4 110 01:47 16.03.2020
6499 Clouds 11 1025 43 10000 5 80 00:46 16.03.2020
6500 Clouds 10 1025 46 10000 3 90 00:27 16.03.2020
6501 Clouds 10 1025 46 10000 4 90 23:40 15.03.2020
6502 Clouds 9 1025 60 10000 4 90 23:19 15.03.2020
6503 Clouds 10 1024 53 10000 4 70 22:42 15.03.2020
6504 Clouds 10 1024 53 10000 4 70 22:21 15.03.2020
6505 Clouds 9 1024 61 10000 5 80 21:39 15.03.2020
6506 Clouds 10 1024 61 10000 5 80 21:21 15.03.2020
6507 Clouds 10 1024 61 10000 4 80 20:58 15.03.2020
6508 Clouds 10 1024 61 10000 5 60 20:39 15.03.2020
6509 Clouds 10 1024 61 10000 5 60 20:19 15.03.2020
6510 Clouds 11 1024 62 10000 4 70 19:55 15.03.2020
6511 Clouds 11 1024 62 10000 5 60 19:37 15.03.2020
6512 Clouds 11 1024 62 10000 5 60 19:18 15.03.2020
6513 Clouds 11 1023 62 10000 6 40 18:41 15.03.2020
6514 Clouds 12 1023 62 10000 6 40 18:23 15.03.2020
6515 Clouds 13 1023 50 10000 7 30 17:58 15.03.2020
6516 Clouds 12 1022 62 10000 4.42 45 17:38 15.03.2020
6517 Clouds 13 1022 47 10000 2 360 17:19 15.03.2020
6518 Clouds 13 1022 47 10000 2 360 16:44 15.03.2020
6519 Clouds 13 1022 47 10000 2 360 16:44 15.03.2020
6520 Clouds 13 1022 47 10000 1 350 16:26 15.03.2020
6521 Clouds 14 1021 44 10000 2 10 15:59 15.03.2020
6522 Clouds 14 1021 44 10000 2 10 15:41 15.03.2020
6523 Clouds 15 1021 41 10000 1 10 15:20 15.03.2020
6524 Clouds 15 1021 47 10000 2 350 14:46 15.03.2020
6525 Clouds 16 1020 41 10000 2 350 14:25 15.03.2020
6526 Clear 15 1020 36 10000 2 300 13:59 15.03.2020
6527 Clear 15 1020 36 10000 2 300 13:59 15.03.2020
6528 Clear 16 1019 36 10000 2 310 13:39 15.03.2020
6529 Clear 16 1019 36 10000 2 310 13:20 15.03.2020
6530 Clear 17 1018 29 10000 2 290 12:44 15.03.2020
6531 Clear 17 1018 29 10000 2 290 12:44 15.03.2020
6532 Clear 17 1018 29 10000 2 290 12:26 15.03.2020
6533 Clear 17 1018 29 10000 2 260 11:57 15.03.2020
6534 Clear 17 1018 25 10000 3 260 11:39 15.03.2020
6535 Clear 19 1017 24 10000 5 280 11:20 15.03.2020
6536 Clear 19 1017 24 10000 5 280 10:55 15.03.2020
6537 Clear 19 1017 22 10000 5 270 10:36 15.03.2020
6538 Clear 19 1017 22 10000 5 270 10:18 15.03.2020
6539 Clear 21 1017 22 10000 5 270 09:39 15.03.2020
6540 Clear 20 1017 22 10000 5 270 09:20 15.03.2020
6541 Clear 20 1017 22 10000 5 270 09:20 15.03.2020
6542 Clear 20 1017 19 10000 6 280 08:42 15.03.2020
6543 Clear 20 1017 19 10000 6 270 08:20 15.03.2020
6544 Clear 20 1017 20 10000 5 270 07:51 15.03.2020
6545 Clear 20 1018 19 10000 6 280 07:23 15.03.2020
6546 Clear 19 1019 22 10000 5 280 06:45 15.03.2020
6547 Clear 19 1020 22 10000 5 280 05:50 15.03.2020
6548 Clear 18 1020 22 10000 4 270 04:58 15.03.2020
6549 Clear 18 1020 22 10000 3 290 04:40 15.03.2020
6550 Clear 18 1020 22 10000 3 290 04:21 15.03.2020
6551 Clear 17 1021 25 10000 4 310 03:25 15.03.2020
6552 Clear 15 1021 44 10000 4 280 02:36 15.03.2020
6553 Clear 12 1021 62 10000 4 280 01:19 15.03.2020
6554 Clear 10 1021 81 10000 2 240 00:42 15.03.2020
6555 Clear 8 1020 81 10000 1 0 00:19 15.03.2020
6556 Clear 8 1020 81 10000 1 290 23:41 14.03.2020
6557 Clear 9 1020 81 10000 2 260 23:20 14.03.2020
6558 Clear 9 1020 81 10000 2 260 22:56 14.03.2020
6559 Clear 9 1019 81 10000 2 230 22:38 14.03.2020
6560 Clear 9 1019 81 10000 2 230 22:20 14.03.2020
6561 Clear 9 1019 81 10000 2 240 21:55 14.03.2020
6562 Clear 9 1019 87 10000 1 0 21:36 14.03.2020
6563 Clear 9 1019 87 10000 1 0 21:36 14.03.2020
6564 Clear 8 1019 87 10000 1 0 21:18 14.03.2020
6565 Clear 8 1019 87 10000 1 0 21:18 14.03.2020
6566 Clear 9 1019 87 10000 2 240 20:56 14.03.2020
6567 Clear 9 1019 87 10000 2 240 20:56 14.03.2020
6568 Clear 9 1020 75 10000 2 240 20:38 14.03.2020
6569 Clear 10 1020 75 10000 2 240 20:18 14.03.2020
6570 Clear 10 1020 76 10000 1 260 19:41 14.03.2020
6571 Clear 10 1020 66 10000 2 290 19:21 14.03.2020
6572 Clear 10 1020 66 10000 2 290 18:41 14.03.2020
6573 Clear 10 1020 71 10000 2 290 18:21 14.03.2020
6574 Clear 10 1021 71 10000 1 0 17:43 14.03.2020
6575 Clear 10 1021 71 10000 2 260 17:24 14.03.2020
6576 Clear 10 1021 71 10000 2 260 16:59 14.03.2020
6577 Clear 10 1020 66 10000 2 270 16:38 14.03.2020
6578 Clear 10 1020 66 10000 2 270 16:19 14.03.2020
6579 Clear 11 1020 66 10000 1 250 15:46 14.03.2020
6580 Clear 11 1020 66 10000 2 240 15:23 14.03.2020
6581 Clear 11 1020 66 10000 1 0 14:43 14.03.2020
6582 Clouds 12 1020 66 10000 1 0 14:21 14.03.2020
6583 Clouds 11 1020 66 10000 2 240 13:57 14.03.2020
6584 Clouds 12 1020 66 10000 2 220 13:38 14.03.2020
6585 Clouds 11 1020 66 10000 2 220 13:20 14.03.2020
6586 Clouds 12 1020 62 10000 2 250 12:44 14.03.2020
6587 Clouds 12 1019 58 10000 3 250 12:26 14.03.2020
6588 Clouds 12 1019 54 10000 3 260 11:46 14.03.2020
6589 Clouds 12 1019 54 10000 3 260 11:46 14.03.2020
6590 Clouds 14 1019 41 10000 5 260 11:26 14.03.2020
6591 Clouds 14 1019 41 10000 5 270 10:57 14.03.2020
6592 Clouds 14 1019 41 10000 5 270 10:38 14.03.2020
6593 Clouds 14 1019 41 10000 5 270 10:20 14.03.2020
6594 Clouds 15 1019 41 10000 5 310 09:41 14.03.2020
6595 Clouds 15 1019 41 10000 5 310 09:22 14.03.2020
6596 Clouds 15 1019 38 10000 4 290 08:47 14.03.2020
6597 Clouds 15 1019 38 10000 4 290 08:47 14.03.2020
6598 Clouds 15 1020 41 10000 5 320 08:27 14.03.2020
6599 Clouds 15 1020 27 10000 6 290 07:48 14.03.2020
6600 Clouds 14 1021 44 10000 5 310 07:23 14.03.2020
6601 Clouds 14 1021 44 10000 3 310 06:59 14.03.2020
6602 Clouds 14 1022 47 10000 4 300 06:39 14.03.2020
6603 Clouds 13 1024 50 10000 5 340 04:58 14.03.2020
6604 Clouds 11 1025 57 10000 4 310 03:41 14.03.2020
6605 Clouds 11 1025 57 10000 4 310 03:20 14.03.2020
6606 Clouds 8 1025 70 10000 4 340 01:50 14.03.2020
6607 Clouds 7 1024 75 10000 3 340 00:36 14.03.2020
6608 Clouds 7 1024 70 10000 3 330 23:44 13.03.2020
6609 Clouds 7 1024 70 10000 3 330 23:23 13.03.2020
6610 Clouds 7 1024 70 10000 3 350 22:46 13.03.2020
6611 Clouds 7 1024 70 10000 3 350 22:24 13.03.2020
6612 Clouds 7 1023 75 10000 4 10 21:42 13.03.2020
6613 Clouds 7 1023 75 10000 4 10 21:19 13.03.2020
6614 Clouds 8 1024 70 10000 5 10 20:43 13.03.2020
6615 Clouds 8 1024 70 10000 5 10 20:23 13.03.2020
6616 Clouds 9 1024 75 10000 6 10 19:59 13.03.2020
6617 Clouds 9 1024 70 10000 6 20 19:40 13.03.2020
6618 Clouds 8 1024 70 10000 6 20 19:22 13.03.2020
6619 Clouds 8 1025 70 10000 7 10 18:44 13.03.2020
6620 Clouds 9 1025 70 10000 7 10 18:23 13.03.2020
6621 Clouds 9 1025 76 10000 7 360 17:43 13.03.2020
6622 Clouds 9 1024 76 10000 7 360 17:21 13.03.2020
6623 Clouds 9 1024 76 10000 7 360 16:59 13.03.2020
6624 Clouds 9 1024 76 10000 6 20 16:39 13.03.2020
6625 Clouds 9 1024 76 10000 6 20 16:20 13.03.2020
6626 Clouds 9 1024 71 10000 5 40 15:46 13.03.2020
6627 Clouds 9 1024 76 10000 5 20 15:23 13.03.2020
6628 Clouds 9 1024 76 10000 5 30 14:59 13.03.2020
6629 Clouds 10 1024 81 10000 5 20 14:40 13.03.2020
6630 Clouds 10 1024 81 10000 5 20 14:21 13.03.2020
6631 Clouds 10 1024 81 10000 6 40 13:43 13.03.2020
6632 Clouds 11 1024 81 10000 6 40 13:24 13.03.2020
6633 Clouds 11 1024 81 10000 6 30 12:59 13.03.2020
6634 Clouds 11 1023 81 10000 5 40 12:38 13.03.2020
6635 Clouds 11 1023 81 10000 5 40 12:20 13.03.2020
6636 Clouds 11 1022 81 10000 5 40 11:56 13.03.2020
6637 Clouds 11 1022 81 10000 5 40 11:36 13.03.2020
6638 Clouds 11 1022 81 10000 5 40 11:36 13.03.2020
6639 Clouds 12 1022 76 10000 5 30 11:18 13.03.2020
6640 Clouds 11 1021 81 10000 6 20 10:46 13.03.2020
6641 Clouds 11 1021 81 10000 6 20 10:26 13.03.2020
6642 Clouds 11 1021 76 10000 5 40 09:48 13.03.2020
6643 Clouds 11 1021 81 10000 4 30 09:30 13.03.2020
6644 Clouds 13 1020 81 10000 4 40 08:59 13.03.2020
6645 Clouds 12 1020 87 10000 5 40 08:38 13.03.2020
6646 Clouds 12 1020 87 10000 5 40 08:38 13.03.2020
6647 Clouds 12 1020 87 10000 5 40 08:38 13.03.2020
6648 Clouds 12 1020 87 10000 5 40 08:20 13.03.2020
6649 Rain 12 1020 87 10000 5 60 07:44 13.03.2020
6650 Rain 13 1020 87 10000 5 60 07:25 13.03.2020
6651 Clouds 13 1020 87 10000 4 30 06:46 13.03.2020
6652 Clouds 13 1020 87 10000 4 30 06:21 13.03.2020
6653 Clouds 13 1021 87 10000 4 30 05:45 13.03.2020
6654 Clouds 13 1021 87 10000 5 10 04:57 13.03.2020
6655 Clouds 14 1021 82 10000 4 30 04:25 13.03.2020
6656 Rain 13 1021 93 3500 4 20 02:42 13.03.2020
6657 Mist 12 1020 100 3500 3 360 01:37 13.03.2020
6658 Mist 12 1020 100 3500 3 360 01:18 13.03.2020
6659 Mist 12 1020 100 3500 3 350 00:39 13.03.2020
6660 Mist 12 1020 100 3000 2 350 00:19 13.03.2020
6661 Clouds 12 1019 93 7000 2 330 23:38 12.03.2020
6662 Clouds 12 1019 93 7000 1 340 23:19 12.03.2020
6663 Clouds 12 1018 93 7000 1 0 22:44 12.03.2020
6664 Clouds 12 1018 93 7000 1 0 22:25 12.03.2020
6665 Clouds 12 1018 93 7000 0.48 26 21:55 12.03.2020
6666 Clouds 12 1018 93 7000 1 0 21:37 12.03.2020
6667 Clouds 12 1018 93 7000 1 0 21:18 12.03.2020
6668 Clouds 12 1018 93 7000 1 110 20:42 12.03.2020
6669 Clouds 12 1018 93 7000 1 110 20:20 12.03.2020
6670 Clouds 12 1019 93 10000 1 60 19:42 12.03.2020
6671 Clouds 12 1019 93 10000 1 60 19:21 12.03.2020
6672 Clouds 11 1019 93 10000 1 0 18:58 12.03.2020
6673 Clouds 12 1019 93 10000 1 0 18:39 12.03.2020
6674 Rain 12 1019 93 7000 1 140 18:21 12.03.2020
6675 Rain 11 1019 93 7000 3 150 17:41 12.03.2020
6676 Rain 11 1019 93 7000 3 140 17:22 12.03.2020
6677 Rain 11 1019 93 7000 3 140 16:58 12.03.2020
6678 Rain 11 1019 93 7000 4 160 16:40 12.03.2020
6679 Rain 11 1019 93 7000 4 160 16:21 12.03.2020
6680 Rain 11 1020 93 7000 3 180 15:48 12.03.2020
6681 Rain 12 1019 93 10000 4 180 15:28 12.03.2020
6682 Rain 12 1019 93 10000 4 180 15:28 12.03.2020
6683 Rain 12 1019 93 10000 4 150 14:54 12.03.2020
6684 Rain 12 1019 93 10000 4 150 14:54 12.03.2020
6685 Rain 12 1019 93 10000 4 150 14:54 12.03.2020
6686 Clouds 12 1019 93 10000 4 160 14:36 12.03.2020
6687 Clouds 11 1019 93 10000 4 160 14:18 12.03.2020
6688 Rain 11 1018 93 10000 6 170 13:38 12.03.2020
6689 Rain 12 1018 93 10000 6 170 13:20 12.03.2020
6690 Rain 12 1017 93 8000 7 160 12:43 12.03.2020
6691 Rain 13 1017 93 8000 7 160 12:23 12.03.2020
6692 Rain 12 1017 93 8000 7 160 11:59 12.03.2020
6693 Rain 12 1017 82 8000 7 160 11:39 12.03.2020
6694 Rain 12 1017 82 8000 7 160 11:39 12.03.2020
6695 Rain 13 1018 82 10000 4 170 11:20 12.03.2020
6696 Rain 13 1018 82 10000 4 170 10:59 12.03.2020
6697 Clouds 14 1017 71 10000 6 150 10:41 12.03.2020
6698 Clouds 14 1017 71 10000 6 150 10:22 12.03.2020
6699 Clouds 13 1016 71 10000 8 160 09:48 12.03.2020
6700 Clouds 14 1017 62 10000 6 160 09:28 12.03.2020
6701 Clouds 14 1017 62 10000 6 160 09:28 12.03.2020
6702 Clouds 14 1017 62 10000 8 150 08:54 12.03.2020
6703 Rain 15 1016 59 10000 7 170 08:36 12.03.2020
6704 Clouds 15 1016 59 10000 7 170 08:18 12.03.2020
6705 Clouds 16 1017 59 10000 8 160 07:45 12.03.2020
6706 Clouds 16 1017 59 10000 8 160 07:21 12.03.2020
6707 Clouds 15 1018 58 10000 8 170 05:57 12.03.2020
6708 Clouds 15 1019 58 10000 9 170 05:27 12.03.2020
6709 Clouds 15 1020 58 10000 7 150 02:43 12.03.2020
6710 Clouds 12 1020 66 10000 6 150 01:38 12.03.2020
6711 Clouds 12 1020 66 10000 6 150 01:20 12.03.2020
6712 Clouds 10 1020 76 7000 4 130 00:41 12.03.2020
6713 Clouds 10 1020 81 7000 4 130 23:56 11.03.2020
6714 Clouds 10 1020 81 7000 5 150 23:26 11.03.2020
6715 Clouds 10 1020 81 7000 5 150 22:55 11.03.2020
6716 Clouds 10 1020 81 6000 4 150 22:37 11.03.2020
6717 Clouds 10 1020 81 6000 4 150 22:18 11.03.2020
6718 Clouds 9 1019 81 6000 3 140 21:41 11.03.2020
6719 Clouds 10 1019 81 6000 3 140 21:23 11.03.2020
6720 Clouds 10 1019 81 6000 3 140 21:23 11.03.2020
6721 Clouds 10 1019 81 6000 4 150 20:59 11.03.2020
6722 Clouds 10 1019 81 6000 3 140 20:40 11.03.2020
6723 Clouds 10 1019 81 6000 3 140 20:20 11.03.2020
6724 Clouds 10 1019 81 7000 4 130 19:58 11.03.2020
6725 Clouds 10 1020 81 7000 4 130 19:39 11.03.2020
6726 Clouds 10 1020 81 7000 4 130 19:21 11.03.2020
6727 Clouds 11 1021 81 7000 4 150 18:44 11.03.2020
6728 Clouds 10 1021 81 7000 4 150 18:25 11.03.2020
6729 Clouds 10 1021 81 7000 4 150 17:59 11.03.2020
6730 Clouds 10 1021 81 7000 4 150 17:39 11.03.2020
6731 Clouds 10 1022 81 8000 4 150 17:21 11.03.2020
6732 Clouds 10 1022 81 8000 4 150 16:47 11.03.2020
6733 Clouds 10 1022 76 8000 5 150 16:23 11.03.2020
6734 Clouds 10 1022 71 10000 5 150 15:59 11.03.2020
6735 Clouds 10 1022 66 10000 6 140 15:41 11.03.2020
6736 Clouds 11 1022 66 10000 6 140 15:22 11.03.2020
6737 Clouds 11 1021 58 10000 4 140 14:42 11.03.2020
6738 Clouds 12 1021 58 10000 4 140 14:23 11.03.2020
6739 Clouds 12 1021 58 10000 4 140 14:23 11.03.2020
6740 Clouds 12 1021 58 10000 4 130 13:56 11.03.2020
6741 Clouds 12 1021 58 8000 3 130 13:37 11.03.2020
6742 Clouds 12 1021 58 8000 3 130 13:19 11.03.2020
6743 Clouds 13 1021 58 8000 4 150 12:40 11.03.2020
6744 Clouds 13 1021 58 8000 4 150 12:20 11.03.2020
6745 Clouds 13 1020 58 8000 5 140 11:56 11.03.2020
6746 Clouds 14 1020 58 8000 5 130 11:37 11.03.2020
6747 Clouds 14 1020 58 8000 5 130 11:18 11.03.2020
6748 Clouds 15 1020 36 10000 2 150 10:42 11.03.2020
6749 Clouds 15 1020 36 10000 2 150 10:42 11.03.2020
6750 Clouds 16 1020 36 10000 2 150 10:18 11.03.2020
6751 Clouds 15 1020 36 10000 2 10 09:43 11.03.2020
6752 Clouds 17 1020 36 10000 2 0 09:25 11.03.2020
6753 Clouds 16 1020 36 10000 1 0 08:58 11.03.2020
6754 Clouds 16 1020 36 10000 2 0 08:39 11.03.2020
6755 Clouds 16 1020 36 10000 2 0 08:18 11.03.2020
6756 Clouds 16 1021 39 10000 3 320 07:42 11.03.2020
6757 Clouds 16 1021 39 10000 3 320 07:19 11.03.2020
6758 Clouds 16 1021 44 8000 3 290 06:43 11.03.2020
6759 Clouds 15 1022 44 8000 3 0 05:36 11.03.2020
6760 Clouds 15 1023 51 8000 3 290 04:29 11.03.2020
6761 Mist 12 1023 71 5000 3 280 02:20 11.03.2020
6762 Mist 9 1023 87 5000 1 0 01:27 11.03.2020
6763 Clear 7 1022 93 7000 1 200 00:46 11.03.2020
6764 Clear 8 1022 93 7000 1